<?xml version="1.0" encoding="UTF-8" standalone="no" ?>
<gpx xmlns="http://www.topografix.com/GPX/1/1" xmlns:xsi="http://www.w3.org/2001/XMLSchema-instance" xsi:schemaLocation="http://www.topografix.com/GPX/1/1 http://www.topografix.com/GPX/1/1/gpx.xsd" version="1.1" creator="VisuGPX - https://www.visugpx.com">
  <metadata>
    <name>Vernonnaise 2021 60km</name>
  </metadata>
  <trk>
    <name><![CDATA[Vernonnaise 2021 60km_1]]></name>
    <trkseg>
      <trkpt lat="49.09812" lon="1.48784">
        <ele>18.8</ele>
        <time>2021-09-19T06:04:46Z</time>
      </trkpt>
      <trkpt lat="49.09812" lon="1.48784">
        <ele>18.8</ele>
        <time>2021-09-19T06:04:47Z</time>
      </trkpt>
      <trkpt lat="49.09809" lon="1.48786">
        <ele>18.8</ele>
        <time>2021-09-19T06:05:11Z</time>
      </trkpt>
      <trkpt lat="49.09806" lon="1.48789">
        <ele>18.8</ele>
        <time>2021-09-19T06:05:13Z</time>
      </trkpt>
      <trkpt lat="49.09796" lon="1.48805">
        <ele>18.8</ele>
        <time>2021-09-19T06:05:18Z</time>
      </trkpt>
      <trkpt lat="49.09785" lon="1.48831">
        <ele>18.4</ele>
        <time>2021-09-19T06:05:24Z</time>
      </trkpt>
      <trkpt lat="49.09773" lon="1.48852">
        <ele>18</ele>
        <time>2021-09-19T06:05:29Z</time>
      </trkpt>
      <trkpt lat="49.09757" lon="1.48858">
        <ele>18</ele>
        <time>2021-09-19T06:05:34Z</time>
      </trkpt>
      <trkpt lat="49.0974" lon="1.48858">
        <ele>18</ele>
        <time>2021-09-19T06:05:40Z</time>
      </trkpt>
      <trkpt lat="49.09717" lon="1.4886">
        <ele>18.2</ele>
        <time>2021-09-19T06:05:46Z</time>
      </trkpt>
      <trkpt lat="49.09689" lon="1.48869">
        <ele>18.4</ele>
        <time>2021-09-19T06:05:53Z</time>
      </trkpt>
      <trkpt lat="49.09672" lon="1.48876">
        <ele>18.2</ele>
        <time>2021-09-19T06:05:57Z</time>
      </trkpt>
      <trkpt lat="49.09664" lon="1.48883">
        <ele>18.2</ele>
        <time>2021-09-19T06:05:59Z</time>
      </trkpt>
      <trkpt lat="49.09655" lon="1.48893">
        <ele>18.2</ele>
        <time>2021-09-19T06:06:02Z</time>
      </trkpt>
      <trkpt lat="49.09652" lon="1.48898">
        <ele>18</ele>
        <time>2021-09-19T06:06:03Z</time>
      </trkpt>
      <trkpt lat="49.0963" lon="1.48931">
        <ele>18</ele>
        <time>2021-09-19T06:06:09Z</time>
      </trkpt>
      <trkpt lat="49.09601" lon="1.48977">
        <ele>17.6</ele>
        <time>2021-09-19T06:06:17Z</time>
      </trkpt>
      <trkpt lat="49.0957" lon="1.49029">
        <ele>17.2</ele>
        <time>2021-09-19T06:06:26Z</time>
      </trkpt>
      <trkpt lat="49.09539" lon="1.49079">
        <ele>17.2</ele>
        <time>2021-09-19T06:06:35Z</time>
      </trkpt>
      <trkpt lat="49.09502" lon="1.49128">
        <ele>17.8</ele>
        <time>2021-09-19T06:06:44Z</time>
      </trkpt>
      <trkpt lat="49.09468" lon="1.49175">
        <ele>18</ele>
        <time>2021-09-19T06:06:53Z</time>
      </trkpt>
      <trkpt lat="49.09432" lon="1.49225">
        <ele>17.8</ele>
        <time>2021-09-19T06:07:02Z</time>
      </trkpt>
      <trkpt lat="49.09397" lon="1.49274">
        <ele>17.8</ele>
        <time>2021-09-19T06:07:11Z</time>
      </trkpt>
      <trkpt lat="49.09362" lon="1.49326">
        <ele>17.8</ele>
        <time>2021-09-19T06:07:20Z</time>
      </trkpt>
      <trkpt lat="49.09328" lon="1.49379">
        <ele>17.4</ele>
        <time>2021-09-19T06:07:29Z</time>
      </trkpt>
      <trkpt lat="49.093" lon="1.49425">
        <ele>17.4</ele>
        <time>2021-09-19T06:07:36Z</time>
      </trkpt>
      <trkpt lat="49.09272" lon="1.49465">
        <ele>16.8</ele>
        <time>2021-09-19T06:07:42Z</time>
      </trkpt>
      <trkpt lat="49.09255" lon="1.49488">
        <ele>16.2</ele>
        <time>2021-09-19T06:07:46Z</time>
      </trkpt>
      <trkpt lat="49.09225" lon="1.49532">
        <ele>16</ele>
        <time>2021-09-19T06:07:54Z</time>
      </trkpt>
      <trkpt lat="49.09216" lon="1.4956">
        <ele>16</ele>
        <time>2021-09-19T06:07:58Z</time>
      </trkpt>
      <trkpt lat="49.09214" lon="1.49568">
        <ele>16</ele>
        <time>2021-09-19T06:07:59Z</time>
      </trkpt>
      <trkpt lat="49.09212" lon="1.49575">
        <ele>16</ele>
        <time>2021-09-19T06:08:00Z</time>
      </trkpt>
      <trkpt lat="49.092" lon="1.49589">
        <ele>16.2</ele>
        <time>2021-09-19T06:08:03Z</time>
      </trkpt>
      <trkpt lat="49.09176" lon="1.49613">
        <ele>16.4</ele>
        <time>2021-09-19T06:08:09Z</time>
      </trkpt>
      <trkpt lat="49.09171" lon="1.49618">
        <ele>16.4</ele>
        <time>2021-09-19T06:08:10Z</time>
      </trkpt>
      <trkpt lat="49.09162" lon="1.49637">
        <ele>16.8</ele>
        <time>2021-09-19T06:08:13Z</time>
      </trkpt>
      <trkpt lat="49.0916" lon="1.49644">
        <ele>17</ele>
        <time>2021-09-19T06:08:14Z</time>
      </trkpt>
      <trkpt lat="49.09155" lon="1.49658">
        <ele>17</ele>
        <time>2021-09-19T06:08:16Z</time>
      </trkpt>
      <trkpt lat="49.09146" lon="1.49675">
        <ele>17.2</ele>
        <time>2021-09-19T06:08:19Z</time>
      </trkpt>
      <trkpt lat="49.09116" lon="1.49716">
        <ele>17.2</ele>
        <time>2021-09-19T06:08:27Z</time>
      </trkpt>
      <trkpt lat="49.09087" lon="1.4976">
        <ele>17.2</ele>
        <time>2021-09-19T06:08:35Z</time>
      </trkpt>
      <trkpt lat="49.09063" lon="1.49801">
        <ele>17.4</ele>
        <time>2021-09-19T06:08:42Z</time>
      </trkpt>
      <trkpt lat="49.09036" lon="1.49839">
        <ele>17.6</ele>
        <time>2021-09-19T06:08:49Z</time>
      </trkpt>
      <trkpt lat="49.09011" lon="1.49867">
        <ele>17.4</ele>
        <time>2021-09-19T06:08:55Z</time>
      </trkpt>
      <trkpt lat="49.09007" lon="1.49873">
        <ele>17.4</ele>
        <time>2021-09-19T06:08:56Z</time>
      </trkpt>
      <trkpt lat="49.08974" lon="1.49927">
        <ele>17.2</ele>
        <time>2021-09-19T06:09:05Z</time>
      </trkpt>
      <trkpt lat="49.08939" lon="1.49976">
        <ele>17.4</ele>
        <time>2021-09-19T06:09:14Z</time>
      </trkpt>
      <trkpt lat="49.08901" lon="1.50017">
        <ele>17.4</ele>
        <time>2021-09-19T06:09:22Z</time>
      </trkpt>
      <trkpt lat="49.08858" lon="1.50058">
        <ele>17</ele>
        <time>2021-09-19T06:09:31Z</time>
      </trkpt>
      <trkpt lat="49.08832" lon="1.50095">
        <ele>16.8</ele>
        <time>2021-09-19T06:09:38Z</time>
      </trkpt>
      <trkpt lat="49.08809" lon="1.50138">
        <ele>17.4</ele>
        <time>2021-09-19T06:09:46Z</time>
      </trkpt>
      <trkpt lat="49.08783" lon="1.50187">
        <ele>17.2</ele>
        <time>2021-09-19T06:09:54Z</time>
      </trkpt>
      <trkpt lat="49.0876" lon="1.5024">
        <ele>16.6</ele>
        <time>2021-09-19T06:10:02Z</time>
      </trkpt>
      <trkpt lat="49.08737" lon="1.50303">
        <ele>16.8</ele>
        <time>2021-09-19T06:10:11Z</time>
      </trkpt>
      <trkpt lat="49.08729" lon="1.50325">
        <ele>16.8</ele>
        <time>2021-09-19T06:10:14Z</time>
      </trkpt>
      <trkpt lat="49.08728" lon="1.5034">
        <ele>16.8</ele>
        <time>2021-09-19T06:10:16Z</time>
      </trkpt>
      <trkpt lat="49.0873" lon="1.50364">
        <ele>16.8</ele>
        <time>2021-09-19T06:10:19Z</time>
      </trkpt>
      <trkpt lat="49.08731" lon="1.50372">
        <ele>16.8</ele>
        <time>2021-09-19T06:10:20Z</time>
      </trkpt>
      <trkpt lat="49.08746" lon="1.50442">
        <ele>16.8</ele>
        <time>2021-09-19T06:10:29Z</time>
      </trkpt>
      <trkpt lat="49.08761" lon="1.50514">
        <ele>17</ele>
        <time>2021-09-19T06:10:38Z</time>
      </trkpt>
      <trkpt lat="49.08775" lon="1.50575">
        <ele>17.2</ele>
        <time>2021-09-19T06:10:46Z</time>
      </trkpt>
      <trkpt lat="49.08776" lon="1.50583">
        <ele>17.2</ele>
        <time>2021-09-19T06:10:47Z</time>
      </trkpt>
      <trkpt lat="49.08773" lon="1.50628">
        <ele>17</ele>
        <time>2021-09-19T06:10:53Z</time>
      </trkpt>
      <trkpt lat="49.08768" lon="1.50683">
        <ele>17.8</ele>
        <time>2021-09-19T06:11:01Z</time>
      </trkpt>
      <trkpt lat="49.08758" lon="1.50747">
        <ele>18</ele>
        <time>2021-09-19T06:11:10Z</time>
      </trkpt>
      <trkpt lat="49.08751" lon="1.50776">
        <ele>18</ele>
        <time>2021-09-19T06:11:14Z</time>
      </trkpt>
      <trkpt lat="49.08743" lon="1.50803">
        <ele>18</ele>
        <time>2021-09-19T06:11:18Z</time>
      </trkpt>
      <trkpt lat="49.08722" lon="1.50867">
        <ele>18</ele>
        <time>2021-09-19T06:11:28Z</time>
      </trkpt>
      <trkpt lat="49.08713" lon="1.50889">
        <ele>17.8</ele>
        <time>2021-09-19T06:11:33Z</time>
      </trkpt>
      <trkpt lat="49.08709" lon="1.50897">
        <ele>17.6</ele>
        <time>2021-09-19T06:11:36Z</time>
      </trkpt>
      <trkpt lat="49.08707" lon="1.50899">
        <ele>17.6</ele>
        <time>2021-09-19T06:11:37Z</time>
      </trkpt>
      <trkpt lat="49.08703" lon="1.5091">
        <ele>17.6</ele>
        <time>2021-09-19T06:11:40Z</time>
      </trkpt>
      <trkpt lat="49.08702" lon="1.50918">
        <ele>17.6</ele>
        <time>2021-09-19T06:11:42Z</time>
      </trkpt>
      <trkpt lat="49.08705" lon="1.50938">
        <ele>17.6</ele>
        <time>2021-09-19T06:11:48Z</time>
      </trkpt>
      <trkpt lat="49.08719" lon="1.50952">
        <ele>18.2</ele>
        <time>2021-09-19T06:11:53Z</time>
      </trkpt>
      <trkpt lat="49.08728" lon="1.50961">
        <ele>18.8</ele>
        <time>2021-09-19T06:11:56Z</time>
      </trkpt>
      <trkpt lat="49.08738" lon="1.50971">
        <ele>19</ele>
        <time>2021-09-19T06:12:00Z</time>
      </trkpt>
      <trkpt lat="49.08761" lon="1.5099">
        <ele>20.2</ele>
        <time>2021-09-19T06:12:09Z</time>
      </trkpt>
      <trkpt lat="49.08771" lon="1.50997">
        <ele>21.4</ele>
        <time>2021-09-19T06:12:13Z</time>
      </trkpt>
      <trkpt lat="49.08777" lon="1.51002">
        <ele>22</ele>
        <time>2021-09-19T06:12:16Z</time>
      </trkpt>
      <trkpt lat="49.08779" lon="1.51002">
        <ele>22.2</ele>
        <time>2021-09-19T06:12:17Z</time>
      </trkpt>
      <trkpt lat="49.08786" lon="1.51002">
        <ele>23</ele>
        <time>2021-09-19T06:12:20Z</time>
      </trkpt>
      <trkpt lat="49.08788" lon="1.50999">
        <ele>23.4</ele>
        <time>2021-09-19T06:12:21Z</time>
      </trkpt>
      <trkpt lat="49.08795" lon="1.50989">
        <ele>24.6</ele>
        <time>2021-09-19T06:12:25Z</time>
      </trkpt>
      <trkpt lat="49.088" lon="1.50981">
        <ele>25.4</ele>
        <time>2021-09-19T06:12:28Z</time>
      </trkpt>
      <trkpt lat="49.08803" lon="1.50976">
        <ele>25.8</ele>
        <time>2021-09-19T06:12:30Z</time>
      </trkpt>
      <trkpt lat="49.08808" lon="1.50967">
        <ele>27</ele>
        <time>2021-09-19T06:12:34Z</time>
      </trkpt>
      <trkpt lat="49.0881" lon="1.50963">
        <ele>27.4</ele>
        <time>2021-09-19T06:12:36Z</time>
      </trkpt>
      <trkpt lat="49.08814" lon="1.50958">
        <ele>28.4</ele>
        <time>2021-09-19T06:12:39Z</time>
      </trkpt>
      <trkpt lat="49.08819" lon="1.50956">
        <ele>29.4</ele>
        <time>2021-09-19T06:12:43Z</time>
      </trkpt>
      <trkpt lat="49.0882" lon="1.50957">
        <ele>29.6</ele>
        <time>2021-09-19T06:12:44Z</time>
      </trkpt>
      <trkpt lat="49.08823" lon="1.50966">
        <ele>30.6</ele>
        <time>2021-09-19T06:12:50Z</time>
      </trkpt>
      <trkpt lat="49.0882" lon="1.50977">
        <ele>31.6</ele>
        <time>2021-09-19T06:12:56Z</time>
      </trkpt>
      <trkpt lat="49.0882" lon="1.50984">
        <ele>32.4</ele>
        <time>2021-09-19T06:12:59Z</time>
      </trkpt>
      <trkpt lat="49.08822" lon="1.50988">
        <ele>32.6</ele>
        <time>2021-09-19T06:13:01Z</time>
      </trkpt>
      <trkpt lat="49.08822" lon="1.50991">
        <ele>32.8</ele>
        <time>2021-09-19T06:13:02Z</time>
      </trkpt>
      <trkpt lat="49.08823" lon="1.50998">
        <ele>33.4</ele>
        <time>2021-09-19T06:13:05Z</time>
      </trkpt>
      <trkpt lat="49.08824" lon="1.51003">
        <ele>34.2</ele>
        <time>2021-09-19T06:13:07Z</time>
      </trkpt>
      <trkpt lat="49.08825" lon="1.51007">
        <ele>34.6</ele>
        <time>2021-09-19T06:13:09Z</time>
      </trkpt>
      <trkpt lat="49.08826" lon="1.51016">
        <ele>35</ele>
        <time>2021-09-19T06:13:12Z</time>
      </trkpt>
      <trkpt lat="49.08826" lon="1.51021">
        <ele>35.2</ele>
        <time>2021-09-19T06:13:14Z</time>
      </trkpt>
      <trkpt lat="49.08826" lon="1.51024">
        <ele>35.4</ele>
        <time>2021-09-19T06:13:15Z</time>
      </trkpt>
      <trkpt lat="49.08826" lon="1.51031">
        <ele>36</ele>
        <time>2021-09-19T06:13:18Z</time>
      </trkpt>
      <trkpt lat="49.08826" lon="1.51041">
        <ele>36.8</ele>
        <time>2021-09-19T06:13:22Z</time>
      </trkpt>
      <trkpt lat="49.08826" lon="1.51047">
        <ele>37.2</ele>
        <time>2021-09-19T06:13:24Z</time>
      </trkpt>
      <trkpt lat="49.08827" lon="1.51063">
        <ele>38.2</ele>
        <time>2021-09-19T06:13:30Z</time>
      </trkpt>
      <trkpt lat="49.08827" lon="1.51076">
        <ele>39.4</ele>
        <time>2021-09-19T06:13:36Z</time>
      </trkpt>
      <trkpt lat="49.08827" lon="1.51078">
        <ele>39.6</ele>
        <time>2021-09-19T06:13:37Z</time>
      </trkpt>
      <trkpt lat="49.08825" lon="1.51086">
        <ele>40.4</ele>
        <time>2021-09-19T06:13:42Z</time>
      </trkpt>
      <trkpt lat="49.08822" lon="1.51089">
        <ele>41.2</ele>
        <time>2021-09-19T06:13:45Z</time>
      </trkpt>
      <trkpt lat="49.0882" lon="1.5109">
        <ele>41.6</ele>
        <time>2021-09-19T06:13:46Z</time>
      </trkpt>
      <trkpt lat="49.08816" lon="1.51091">
        <ele>42.6</ele>
        <time>2021-09-19T06:13:49Z</time>
      </trkpt>
      <trkpt lat="49.08815" lon="1.51092">
        <ele>43</ele>
        <time>2021-09-19T06:13:50Z</time>
      </trkpt>
      <trkpt lat="49.08814" lon="1.51092">
        <ele>43.2</ele>
        <time>2021-09-19T06:13:51Z</time>
      </trkpt>
      <trkpt lat="49.08811" lon="1.51092">
        <ele>43.8</ele>
        <time>2021-09-19T06:13:53Z</time>
      </trkpt>
      <trkpt lat="49.08807" lon="1.51093">
        <ele>44.4</ele>
        <time>2021-09-19T06:13:56Z</time>
      </trkpt>
      <trkpt lat="49.08804" lon="1.51093">
        <ele>44.8</ele>
        <time>2021-09-19T06:13:58Z</time>
      </trkpt>
      <trkpt lat="49.08799" lon="1.51093">
        <ele>45.8</ele>
        <time>2021-09-19T06:14:02Z</time>
      </trkpt>
      <trkpt lat="49.08798" lon="1.51094">
        <ele>46.4</ele>
        <time>2021-09-19T06:14:04Z</time>
      </trkpt>
      <trkpt lat="49.08797" lon="1.51094">
        <ele>46.8</ele>
        <time>2021-09-19T06:14:05Z</time>
      </trkpt>
      <trkpt lat="49.0879" lon="1.51096">
        <ele>48</ele>
        <time>2021-09-19T06:14:10Z</time>
      </trkpt>
      <trkpt lat="49.08789" lon="1.51096">
        <ele>48.4</ele>
        <time>2021-09-19T06:14:11Z</time>
      </trkpt>
      <trkpt lat="49.08785" lon="1.51096">
        <ele>49.2</ele>
        <time>2021-09-19T06:14:14Z</time>
      </trkpt>
      <trkpt lat="49.08781" lon="1.51098">
        <ele>50.2</ele>
        <time>2021-09-19T06:14:18Z</time>
      </trkpt>
      <trkpt lat="49.0878" lon="1.51099">
        <ele>50.4</ele>
        <time>2021-09-19T06:14:19Z</time>
      </trkpt>
      <trkpt lat="49.08781" lon="1.51104">
        <ele>51.2</ele>
        <time>2021-09-19T06:14:23Z</time>
      </trkpt>
      <trkpt lat="49.08782" lon="1.51106">
        <ele>51.4</ele>
        <time>2021-09-19T06:14:24Z</time>
      </trkpt>
      <trkpt lat="49.08784" lon="1.51113">
        <ele>52.4</ele>
        <time>2021-09-19T06:14:29Z</time>
      </trkpt>
      <trkpt lat="49.08784" lon="1.51114">
        <ele>52.6</ele>
        <time>2021-09-19T06:14:30Z</time>
      </trkpt>
      <trkpt lat="49.08785" lon="1.51117">
        <ele>53.4</ele>
        <time>2021-09-19T06:14:33Z</time>
      </trkpt>
      <trkpt lat="49.08787" lon="1.51122">
        <ele>54.4</ele>
        <time>2021-09-19T06:14:37Z</time>
      </trkpt>
      <trkpt lat="49.08787" lon="1.51123">
        <ele>54.6</ele>
        <time>2021-09-19T06:14:38Z</time>
      </trkpt>
      <trkpt lat="49.08789" lon="1.51127">
        <ele>55.6</ele>
        <time>2021-09-19T06:14:43Z</time>
      </trkpt>
      <trkpt lat="49.0879" lon="1.51129">
        <ele>56</ele>
        <time>2021-09-19T06:14:45Z</time>
      </trkpt>
      <trkpt lat="49.08792" lon="1.51131">
        <ele>56.6</ele>
        <time>2021-09-19T06:14:48Z</time>
      </trkpt>
      <trkpt lat="49.08795" lon="1.51136">
        <ele>57.8</ele>
        <time>2021-09-19T06:14:53Z</time>
      </trkpt>
      <trkpt lat="49.08798" lon="1.5114">
        <ele>58.8</ele>
        <time>2021-09-19T06:14:58Z</time>
      </trkpt>
      <trkpt lat="49.088" lon="1.51143">
        <ele>60</ele>
        <time>2021-09-19T06:15:02Z</time>
      </trkpt>
      <trkpt lat="49.088" lon="1.51144">
        <ele>60.6</ele>
        <time>2021-09-19T06:15:04Z</time>
      </trkpt>
      <trkpt lat="49.08802" lon="1.51148">
        <ele>62</ele>
        <time>2021-09-19T06:15:18Z</time>
      </trkpt>
      <trkpt lat="49.08804" lon="1.51154">
        <ele>62.2</ele>
        <time>2021-09-19T06:15:22Z</time>
      </trkpt>
      <trkpt lat="49.08808" lon="1.51166">
        <ele>63.2</ele>
        <time>2021-09-19T06:15:30Z</time>
      </trkpt>
      <trkpt lat="49.08809" lon="1.5117">
        <ele>64</ele>
        <time>2021-09-19T06:15:32Z</time>
      </trkpt>
      <trkpt lat="49.0881" lon="1.51174">
        <ele>64.6</ele>
        <time>2021-09-19T06:15:34Z</time>
      </trkpt>
      <trkpt lat="49.08813" lon="1.5118">
        <ele>65.8</ele>
        <time>2021-09-19T06:15:37Z</time>
      </trkpt>
      <trkpt lat="49.08816" lon="1.51183">
        <ele>66.4</ele>
        <time>2021-09-19T06:15:40Z</time>
      </trkpt>
      <trkpt lat="49.08818" lon="1.51184">
        <ele>66.8</ele>
        <time>2021-09-19T06:15:42Z</time>
      </trkpt>
      <trkpt lat="49.08822" lon="1.51181">
        <ele>67</ele>
        <time>2021-09-19T06:15:47Z</time>
      </trkpt>
      <trkpt lat="49.0883" lon="1.51181">
        <ele>67.8</ele>
        <time>2021-09-19T06:15:53Z</time>
      </trkpt>
      <trkpt lat="49.08832" lon="1.5118">
        <ele>67.8</ele>
        <time>2021-09-19T06:15:54Z</time>
      </trkpt>
      <trkpt lat="49.08835" lon="1.51179">
        <ele>68</ele>
        <time>2021-09-19T06:15:56Z</time>
      </trkpt>
      <trkpt lat="49.08841" lon="1.51181">
        <ele>68.6</ele>
        <time>2021-09-19T06:16:00Z</time>
      </trkpt>
      <trkpt lat="49.08843" lon="1.51183">
        <ele>68.8</ele>
        <time>2021-09-19T06:16:02Z</time>
      </trkpt>
      <trkpt lat="49.08844" lon="1.51185">
        <ele>68.8</ele>
        <time>2021-09-19T06:16:03Z</time>
      </trkpt>
      <trkpt lat="49.08846" lon="1.51189">
        <ele>69.2</ele>
        <time>2021-09-19T06:16:06Z</time>
      </trkpt>
      <trkpt lat="49.08847" lon="1.51195">
        <ele>70</ele>
        <time>2021-09-19T06:16:10Z</time>
      </trkpt>
      <trkpt lat="49.08848" lon="1.512">
        <ele>70.4</ele>
        <time>2021-09-19T06:16:12Z</time>
      </trkpt>
      <trkpt lat="49.08849" lon="1.51206">
        <ele>71</ele>
        <time>2021-09-19T06:16:15Z</time>
      </trkpt>
      <trkpt lat="49.08849" lon="1.51209">
        <ele>71.4</ele>
        <time>2021-09-19T06:16:17Z</time>
      </trkpt>
      <trkpt lat="49.08849" lon="1.51213">
        <ele>72.2</ele>
        <time>2021-09-19T06:16:20Z</time>
      </trkpt>
      <trkpt lat="49.08849" lon="1.51221">
        <ele>73.4</ele>
        <time>2021-09-19T06:16:25Z</time>
      </trkpt>
      <trkpt lat="49.08848" lon="1.51226">
        <ele>74.4</ele>
        <time>2021-09-19T06:16:28Z</time>
      </trkpt>
      <trkpt lat="49.08848" lon="1.51227">
        <ele>74.6</ele>
        <time>2021-09-19T06:16:29Z</time>
      </trkpt>
      <trkpt lat="49.08849" lon="1.51236">
        <ele>75.4</ele>
        <time>2021-09-19T06:16:34Z</time>
      </trkpt>
      <trkpt lat="49.08848" lon="1.51243">
        <ele>76.2</ele>
        <time>2021-09-19T06:16:37Z</time>
      </trkpt>
      <trkpt lat="49.08848" lon="1.51247">
        <ele>76.6</ele>
        <time>2021-09-19T06:16:39Z</time>
      </trkpt>
      <trkpt lat="49.08847" lon="1.51256">
        <ele>77.6</ele>
        <time>2021-09-19T06:16:43Z</time>
      </trkpt>
      <trkpt lat="49.08848" lon="1.51264">
        <ele>78.8</ele>
        <time>2021-09-19T06:16:47Z</time>
      </trkpt>
      <trkpt lat="49.08848" lon="1.51266">
        <ele>79.2</ele>
        <time>2021-09-19T06:16:48Z</time>
      </trkpt>
      <trkpt lat="49.08848" lon="1.5127">
        <ele>79.8</ele>
        <time>2021-09-19T06:16:50Z</time>
      </trkpt>
      <trkpt lat="49.08848" lon="1.51272">
        <ele>80.2</ele>
        <time>2021-09-19T06:16:51Z</time>
      </trkpt>
      <trkpt lat="49.08848" lon="1.51277">
        <ele>81</ele>
        <time>2021-09-19T06:16:53Z</time>
      </trkpt>
      <trkpt lat="49.08848" lon="1.51279">
        <ele>81.2</ele>
        <time>2021-09-19T06:16:54Z</time>
      </trkpt>
      <trkpt lat="49.08849" lon="1.51286">
        <ele>82</ele>
        <time>2021-09-19T06:16:58Z</time>
      </trkpt>
      <trkpt lat="49.08849" lon="1.51291">
        <ele>82.4</ele>
        <time>2021-09-19T06:17:00Z</time>
      </trkpt>
      <trkpt lat="49.0885" lon="1.51299">
        <ele>83</ele>
        <time>2021-09-19T06:17:03Z</time>
      </trkpt>
      <trkpt lat="49.0885" lon="1.51308">
        <ele>84.2</ele>
        <time>2021-09-19T06:17:07Z</time>
      </trkpt>
      <trkpt lat="49.08853" lon="1.51323">
        <ele>85</ele>
        <time>2021-09-19T06:17:12Z</time>
      </trkpt>
      <trkpt lat="49.08854" lon="1.51325">
        <ele>85</ele>
        <time>2021-09-19T06:17:13Z</time>
      </trkpt>
      <trkpt lat="49.08854" lon="1.5133">
        <ele>85.4</ele>
        <time>2021-09-19T06:17:15Z</time>
      </trkpt>
      <trkpt lat="49.08856" lon="1.51338">
        <ele>85.8</ele>
        <time>2021-09-19T06:17:18Z</time>
      </trkpt>
      <trkpt lat="49.0886" lon="1.51349">
        <ele>86.2</ele>
        <time>2021-09-19T06:17:22Z</time>
      </trkpt>
      <trkpt lat="49.08861" lon="1.51352">
        <ele>86.2</ele>
        <time>2021-09-19T06:17:23Z</time>
      </trkpt>
      <trkpt lat="49.08862" lon="1.51363">
        <ele>87</ele>
        <time>2021-09-19T06:17:28Z</time>
      </trkpt>
      <trkpt lat="49.08863" lon="1.51366">
        <ele>87.2</ele>
        <time>2021-09-19T06:17:29Z</time>
      </trkpt>
      <trkpt lat="49.08864" lon="1.51378">
        <ele>88</ele>
        <time>2021-09-19T06:17:33Z</time>
      </trkpt>
      <trkpt lat="49.08864" lon="1.51385">
        <ele>88.4</ele>
        <time>2021-09-19T06:17:36Z</time>
      </trkpt>
      <trkpt lat="49.08865" lon="1.51387">
        <ele>88.6</ele>
        <time>2021-09-19T06:17:37Z</time>
      </trkpt>
      <trkpt lat="49.08866" lon="1.5139">
        <ele>88.8</ele>
        <time>2021-09-19T06:17:38Z</time>
      </trkpt>
      <trkpt lat="49.08867" lon="1.51396">
        <ele>89</ele>
        <time>2021-09-19T06:17:41Z</time>
      </trkpt>
      <trkpt lat="49.08866" lon="1.514">
        <ele>89.2</ele>
        <time>2021-09-19T06:17:43Z</time>
      </trkpt>
      <trkpt lat="49.08866" lon="1.51401">
        <ele>89.2</ele>
        <time>2021-09-19T06:17:44Z</time>
      </trkpt>
      <trkpt lat="49.08866" lon="1.51401">
        <ele>89.4</ele>
        <time>2021-09-19T06:17:45Z</time>
      </trkpt>
      <trkpt lat="49.08866" lon="1.51418">
        <ele>91.2</ele>
        <time>2021-09-19T06:17:59Z</time>
      </trkpt>
      <trkpt lat="49.08866" lon="1.51422">
        <ele>91.4</ele>
        <time>2021-09-19T06:18:01Z</time>
      </trkpt>
      <trkpt lat="49.08866" lon="1.51428">
        <ele>91.2</ele>
        <time>2021-09-19T06:18:03Z</time>
      </trkpt>
      <trkpt lat="49.08867" lon="1.51436">
        <ele>91.4</ele>
        <time>2021-09-19T06:18:06Z</time>
      </trkpt>
      <trkpt lat="49.0887" lon="1.51448">
        <ele>91.6</ele>
        <time>2021-09-19T06:18:10Z</time>
      </trkpt>
      <trkpt lat="49.08871" lon="1.51453">
        <ele>91.8</ele>
        <time>2021-09-19T06:18:12Z</time>
      </trkpt>
      <trkpt lat="49.08872" lon="1.51456">
        <ele>92</ele>
        <time>2021-09-19T06:18:13Z</time>
      </trkpt>
      <trkpt lat="49.08872" lon="1.51459">
        <ele>92.2</ele>
        <time>2021-09-19T06:18:14Z</time>
      </trkpt>
      <trkpt lat="49.08874" lon="1.51468">
        <ele>92.6</ele>
        <time>2021-09-19T06:18:17Z</time>
      </trkpt>
      <trkpt lat="49.08875" lon="1.51475">
        <ele>92.8</ele>
        <time>2021-09-19T06:18:19Z</time>
      </trkpt>
      <trkpt lat="49.08876" lon="1.51481">
        <ele>93</ele>
        <time>2021-09-19T06:18:21Z</time>
      </trkpt>
      <trkpt lat="49.08876" lon="1.51486">
        <ele>93.2</ele>
        <time>2021-09-19T06:18:23Z</time>
      </trkpt>
      <trkpt lat="49.08876" lon="1.51494">
        <ele>93.8</ele>
        <time>2021-09-19T06:18:26Z</time>
      </trkpt>
      <trkpt lat="49.08877" lon="1.51497">
        <ele>94.2</ele>
        <time>2021-09-19T06:18:28Z</time>
      </trkpt>
      <trkpt lat="49.08878" lon="1.51509">
        <ele>94.6</ele>
        <time>2021-09-19T06:18:32Z</time>
      </trkpt>
      <trkpt lat="49.08877" lon="1.51521">
        <ele>95</ele>
        <time>2021-09-19T06:18:35Z</time>
      </trkpt>
      <trkpt lat="49.08877" lon="1.51529">
        <ele>95.4</ele>
        <time>2021-09-19T06:18:37Z</time>
      </trkpt>
      <trkpt lat="49.08878" lon="1.51534">
        <ele>95.6</ele>
        <time>2021-09-19T06:18:38Z</time>
      </trkpt>
      <trkpt lat="49.08882" lon="1.51549">
        <ele>96.2</ele>
        <time>2021-09-19T06:18:41Z</time>
      </trkpt>
      <trkpt lat="49.08887" lon="1.51568">
        <ele>97</ele>
        <time>2021-09-19T06:18:45Z</time>
      </trkpt>
      <trkpt lat="49.08889" lon="1.51574">
        <ele>97.4</ele>
        <time>2021-09-19T06:18:46Z</time>
      </trkpt>
      <trkpt lat="49.08897" lon="1.51603">
        <ele>98.4</ele>
        <time>2021-09-19T06:18:51Z</time>
      </trkpt>
      <trkpt lat="49.08899" lon="1.51608">
        <ele>98.6</ele>
        <time>2021-09-19T06:18:52Z</time>
      </trkpt>
      <trkpt lat="49.08902" lon="1.51615">
        <ele>99.2</ele>
        <time>2021-09-19T06:18:54Z</time>
      </trkpt>
      <trkpt lat="49.08905" lon="1.5162">
        <ele>99.4</ele>
        <time>2021-09-19T06:18:56Z</time>
      </trkpt>
      <trkpt lat="49.08907" lon="1.51627">
        <ele>99.4</ele>
        <time>2021-09-19T06:18:58Z</time>
      </trkpt>
      <trkpt lat="49.08908" lon="1.5163">
        <ele>99.6</ele>
        <time>2021-09-19T06:18:59Z</time>
      </trkpt>
      <trkpt lat="49.08909" lon="1.51638">
        <ele>99.8</ele>
        <time>2021-09-19T06:19:01Z</time>
      </trkpt>
      <trkpt lat="49.08912" lon="1.51649">
        <ele>100</ele>
        <time>2021-09-19T06:19:04Z</time>
      </trkpt>
      <trkpt lat="49.08916" lon="1.51654">
        <ele>100.2</ele>
        <time>2021-09-19T06:19:06Z</time>
      </trkpt>
      <trkpt lat="49.08924" lon="1.51666">
        <ele>100.2</ele>
        <time>2021-09-19T06:19:10Z</time>
      </trkpt>
      <trkpt lat="49.0893" lon="1.51671">
        <ele>100.4</ele>
        <time>2021-09-19T06:19:12Z</time>
      </trkpt>
      <trkpt lat="49.08938" lon="1.51676">
        <ele>100.6</ele>
        <time>2021-09-19T06:19:15Z</time>
      </trkpt>
      <trkpt lat="49.0894" lon="1.51679">
        <ele>100.6</ele>
        <time>2021-09-19T06:19:17Z</time>
      </trkpt>
      <trkpt lat="49.08942" lon="1.51685">
        <ele>100.6</ele>
        <time>2021-09-19T06:19:19Z</time>
      </trkpt>
      <trkpt lat="49.08941" lon="1.51692">
        <ele>100.8</ele>
        <time>2021-09-19T06:19:21Z</time>
      </trkpt>
      <trkpt lat="49.08942" lon="1.51704">
        <ele>101.2</ele>
        <time>2021-09-19T06:19:24Z</time>
      </trkpt>
      <trkpt lat="49.08944" lon="1.51708">
        <ele>101.4</ele>
        <time>2021-09-19T06:19:25Z</time>
      </trkpt>
      <trkpt lat="49.08949" lon="1.51712">
        <ele>101.4</ele>
        <time>2021-09-19T06:19:28Z</time>
      </trkpt>
      <trkpt lat="49.08953" lon="1.5172">
        <ele>101.8</ele>
        <time>2021-09-19T06:19:33Z</time>
      </trkpt>
      <trkpt lat="49.08955" lon="1.51724">
        <ele>102.2</ele>
        <time>2021-09-19T06:19:36Z</time>
      </trkpt>
      <trkpt lat="49.08957" lon="1.51726">
        <ele>102.2</ele>
        <time>2021-09-19T06:19:37Z</time>
      </trkpt>
      <trkpt lat="49.08962" lon="1.51735">
        <ele>102.4</ele>
        <time>2021-09-19T06:19:41Z</time>
      </trkpt>
      <trkpt lat="49.08962" lon="1.51737">
        <ele>102.4</ele>
        <time>2021-09-19T06:19:42Z</time>
      </trkpt>
      <trkpt lat="49.08961" lon="1.51751">
        <ele>102.6</ele>
        <time>2021-09-19T06:19:47Z</time>
      </trkpt>
      <trkpt lat="49.0896" lon="1.51756">
        <ele>102.6</ele>
        <time>2021-09-19T06:19:48Z</time>
      </trkpt>
      <trkpt lat="49.08962" lon="1.51775">
        <ele>102.8</ele>
        <time>2021-09-19T06:19:52Z</time>
      </trkpt>
      <trkpt lat="49.08964" lon="1.51789">
        <ele>103</ele>
        <time>2021-09-19T06:19:55Z</time>
      </trkpt>
      <trkpt lat="49.08966" lon="1.51792">
        <ele>103</ele>
        <time>2021-09-19T06:19:56Z</time>
      </trkpt>
      <trkpt lat="49.08969" lon="1.51796">
        <ele>103</ele>
        <time>2021-09-19T06:19:58Z</time>
      </trkpt>
      <trkpt lat="49.08977" lon="1.51803">
        <ele>103.4</ele>
        <time>2021-09-19T06:20:02Z</time>
      </trkpt>
      <trkpt lat="49.08985" lon="1.5181">
        <ele>104</ele>
        <time>2021-09-19T06:20:06Z</time>
      </trkpt>
      <trkpt lat="49.08987" lon="1.51812">
        <ele>104</ele>
        <time>2021-09-19T06:20:07Z</time>
      </trkpt>
      <trkpt lat="49.0899" lon="1.51813">
        <ele>104.4</ele>
        <time>2021-09-19T06:20:09Z</time>
      </trkpt>
      <trkpt lat="49.08995" lon="1.51814">
        <ele>105.2</ele>
        <time>2021-09-19T06:20:12Z</time>
      </trkpt>
      <trkpt lat="49.09004" lon="1.51822">
        <ele>106.4</ele>
        <time>2021-09-19T06:20:16Z</time>
      </trkpt>
      <trkpt lat="49.09006" lon="1.51823">
        <ele>106.8</ele>
        <time>2021-09-19T06:20:17Z</time>
      </trkpt>
      <trkpt lat="49.09012" lon="1.51828">
        <ele>107.4</ele>
        <time>2021-09-19T06:20:20Z</time>
      </trkpt>
      <trkpt lat="49.09014" lon="1.51829">
        <ele>107.8</ele>
        <time>2021-09-19T06:20:21Z</time>
      </trkpt>
      <trkpt lat="49.09018" lon="1.51833">
        <ele>108.6</ele>
        <time>2021-09-19T06:20:24Z</time>
      </trkpt>
      <trkpt lat="49.09027" lon="1.51835">
        <ele>109.4</ele>
        <time>2021-09-19T06:20:28Z</time>
      </trkpt>
      <trkpt lat="49.09029" lon="1.51836">
        <ele>109.6</ele>
        <time>2021-09-19T06:20:29Z</time>
      </trkpt>
      <trkpt lat="49.09034" lon="1.51841">
        <ele>110</ele>
        <time>2021-09-19T06:20:32Z</time>
      </trkpt>
      <trkpt lat="49.09038" lon="1.51844">
        <ele>110.6</ele>
        <time>2021-09-19T06:20:34Z</time>
      </trkpt>
      <trkpt lat="49.09043" lon="1.5185">
        <ele>110.8</ele>
        <time>2021-09-19T06:20:36Z</time>
      </trkpt>
      <trkpt lat="49.09054" lon="1.51869">
        <ele>111.6</ele>
        <time>2021-09-19T06:20:41Z</time>
      </trkpt>
      <trkpt lat="49.09065" lon="1.51896">
        <ele>112.4</ele>
        <time>2021-09-19T06:20:47Z</time>
      </trkpt>
      <trkpt lat="49.09065" lon="1.51904">
        <ele>112.8</ele>
        <time>2021-09-19T06:20:49Z</time>
      </trkpt>
      <trkpt lat="49.0906" lon="1.51911">
        <ele>113</ele>
        <time>2021-09-19T06:20:51Z</time>
      </trkpt>
      <trkpt lat="49.09055" lon="1.51916">
        <ele>113.4</ele>
        <time>2021-09-19T06:20:53Z</time>
      </trkpt>
      <trkpt lat="49.09047" lon="1.51925">
        <ele>113.8</ele>
        <time>2021-09-19T06:20:56Z</time>
      </trkpt>
      <trkpt lat="49.09026" lon="1.51946">
        <ele>113.6</ele>
        <time>2021-09-19T06:21:01Z</time>
      </trkpt>
      <trkpt lat="49.09001" lon="1.51972">
        <ele>113.4</ele>
        <time>2021-09-19T06:21:06Z</time>
      </trkpt>
      <trkpt lat="49.08995" lon="1.5199">
        <ele>112</ele>
        <time>2021-09-19T06:21:09Z</time>
      </trkpt>
      <trkpt lat="49.08995" lon="1.51994">
        <ele>111.6</ele>
        <time>2021-09-19T06:21:10Z</time>
      </trkpt>
      <trkpt lat="49.08994" lon="1.52005">
        <ele>111</ele>
        <time>2021-09-19T06:21:12Z</time>
      </trkpt>
      <trkpt lat="49.08993" lon="1.52014">
        <ele>110.8</ele>
        <time>2021-09-19T06:21:14Z</time>
      </trkpt>
      <trkpt lat="49.08989" lon="1.52046">
        <ele>110.8</ele>
        <time>2021-09-19T06:21:19Z</time>
      </trkpt>
      <trkpt lat="49.08985" lon="1.52081">
        <ele>110.8</ele>
        <time>2021-09-19T06:21:24Z</time>
      </trkpt>
      <trkpt lat="49.08981" lon="1.52096">
        <ele>110.8</ele>
        <time>2021-09-19T06:21:26Z</time>
      </trkpt>
      <trkpt lat="49.08976" lon="1.52119">
        <ele>111.2</ele>
        <time>2021-09-19T06:21:29Z</time>
      </trkpt>
      <trkpt lat="49.08975" lon="1.52127">
        <ele>111.2</ele>
        <time>2021-09-19T06:21:30Z</time>
      </trkpt>
      <trkpt lat="49.08973" lon="1.52141">
        <ele>111.6</ele>
        <time>2021-09-19T06:21:32Z</time>
      </trkpt>
      <trkpt lat="49.08971" lon="1.52155">
        <ele>111.8</ele>
        <time>2021-09-19T06:21:34Z</time>
      </trkpt>
      <trkpt lat="49.08967" lon="1.52186">
        <ele>112</ele>
        <time>2021-09-19T06:21:38Z</time>
      </trkpt>
      <trkpt lat="49.08965" lon="1.52195">
        <ele>112</ele>
        <time>2021-09-19T06:21:39Z</time>
      </trkpt>
      <trkpt lat="49.08962" lon="1.52214">
        <ele>112.2</ele>
        <time>2021-09-19T06:21:41Z</time>
      </trkpt>
      <trkpt lat="49.08961" lon="1.52233">
        <ele>112.2</ele>
        <time>2021-09-19T06:21:43Z</time>
      </trkpt>
      <trkpt lat="49.08955" lon="1.52282">
        <ele>112.2</ele>
        <time>2021-09-19T06:21:49Z</time>
      </trkpt>
      <trkpt lat="49.08949" lon="1.52332">
        <ele>112.8</ele>
        <time>2021-09-19T06:21:55Z</time>
      </trkpt>
      <trkpt lat="49.08948" lon="1.5234">
        <ele>113</ele>
        <time>2021-09-19T06:21:56Z</time>
      </trkpt>
      <trkpt lat="49.08943" lon="1.52376">
        <ele>114</ele>
        <time>2021-09-19T06:22:01Z</time>
      </trkpt>
      <trkpt lat="49.08942" lon="1.52383">
        <ele>114</ele>
        <time>2021-09-19T06:22:02Z</time>
      </trkpt>
      <trkpt lat="49.08936" lon="1.52424">
        <ele>114.6</ele>
        <time>2021-09-19T06:22:08Z</time>
      </trkpt>
      <trkpt lat="49.08932" lon="1.52448">
        <ele>115.2</ele>
        <time>2021-09-19T06:22:12Z</time>
      </trkpt>
      <trkpt lat="49.08929" lon="1.52465">
        <ele>115.6</ele>
        <time>2021-09-19T06:22:15Z</time>
      </trkpt>
      <trkpt lat="49.08925" lon="1.52496">
        <ele>116.4</ele>
        <time>2021-09-19T06:22:20Z</time>
      </trkpt>
      <trkpt lat="49.08923" lon="1.52506">
        <ele>116.8</ele>
        <time>2021-09-19T06:22:22Z</time>
      </trkpt>
      <trkpt lat="49.0892" lon="1.52537">
        <ele>117.4</ele>
        <time>2021-09-19T06:22:27Z</time>
      </trkpt>
      <trkpt lat="49.08919" lon="1.52544">
        <ele>117.6</ele>
        <time>2021-09-19T06:22:28Z</time>
      </trkpt>
      <trkpt lat="49.08917" lon="1.52563">
        <ele>118</ele>
        <time>2021-09-19T06:22:31Z</time>
      </trkpt>
      <trkpt lat="49.08914" lon="1.52595">
        <ele>118.2</ele>
        <time>2021-09-19T06:22:36Z</time>
      </trkpt>
      <trkpt lat="49.08913" lon="1.52607">
        <ele>118.4</ele>
        <time>2021-09-19T06:22:38Z</time>
      </trkpt>
      <trkpt lat="49.0891" lon="1.5262">
        <ele>118.4</ele>
        <time>2021-09-19T06:22:40Z</time>
      </trkpt>
      <trkpt lat="49.08908" lon="1.52628">
        <ele>118.4</ele>
        <time>2021-09-19T06:22:41Z</time>
      </trkpt>
      <trkpt lat="49.08899" lon="1.52674">
        <ele>118.4</ele>
        <time>2021-09-19T06:22:46Z</time>
      </trkpt>
      <trkpt lat="49.08898" lon="1.52683">
        <ele>118.4</ele>
        <time>2021-09-19T06:22:47Z</time>
      </trkpt>
      <trkpt lat="49.08892" lon="1.52717">
        <ele>118.2</ele>
        <time>2021-09-19T06:22:51Z</time>
      </trkpt>
      <trkpt lat="49.08886" lon="1.52757">
        <ele>117.4</ele>
        <time>2021-09-19T06:22:56Z</time>
      </trkpt>
      <trkpt lat="49.08885" lon="1.52764">
        <ele>117.4</ele>
        <time>2021-09-19T06:22:57Z</time>
      </trkpt>
      <trkpt lat="49.0888" lon="1.52804">
        <ele>117.4</ele>
        <time>2021-09-19T06:23:02Z</time>
      </trkpt>
      <trkpt lat="49.08874" lon="1.52844">
        <ele>118.2</ele>
        <time>2021-09-19T06:23:07Z</time>
      </trkpt>
      <trkpt lat="49.08873" lon="1.52851">
        <ele>118.4</ele>
        <time>2021-09-19T06:23:08Z</time>
      </trkpt>
      <trkpt lat="49.08866" lon="1.52869">
        <ele>119</ele>
        <time>2021-09-19T06:23:11Z</time>
      </trkpt>
      <trkpt lat="49.0886" lon="1.52879">
        <ele>119.2</ele>
        <time>2021-09-19T06:23:13Z</time>
      </trkpt>
      <trkpt lat="49.08855" lon="1.52892">
        <ele>119.6</ele>
        <time>2021-09-19T06:23:15Z</time>
      </trkpt>
      <trkpt lat="49.08852" lon="1.52898">
        <ele>119.4</ele>
        <time>2021-09-19T06:23:16Z</time>
      </trkpt>
      <trkpt lat="49.0884" lon="1.52928">
        <ele>120.6</ele>
        <time>2021-09-19T06:23:22Z</time>
      </trkpt>
      <trkpt lat="49.0883" lon="1.5295">
        <ele>121.8</ele>
        <time>2021-09-19T06:23:27Z</time>
      </trkpt>
      <trkpt lat="49.08824" lon="1.52963">
        <ele>122.6</ele>
        <time>2021-09-19T06:23:30Z</time>
      </trkpt>
      <trkpt lat="49.08814" lon="1.52984">
        <ele>123.2</ele>
        <time>2021-09-19T06:23:35Z</time>
      </trkpt>
      <trkpt lat="49.08798" lon="1.53019">
        <ele>123.8</ele>
        <time>2021-09-19T06:23:41Z</time>
      </trkpt>
      <trkpt lat="49.08783" lon="1.53055">
        <ele>124</ele>
        <time>2021-09-19T06:23:47Z</time>
      </trkpt>
      <trkpt lat="49.08769" lon="1.53082">
        <ele>124.6</ele>
        <time>2021-09-19T06:23:52Z</time>
      </trkpt>
      <trkpt lat="49.08761" lon="1.53097">
        <ele>125.2</ele>
        <time>2021-09-19T06:23:55Z</time>
      </trkpt>
      <trkpt lat="49.08753" lon="1.53112">
        <ele>125.4</ele>
        <time>2021-09-19T06:23:58Z</time>
      </trkpt>
      <trkpt lat="49.08741" lon="1.53131">
        <ele>126.2</ele>
        <time>2021-09-19T06:24:02Z</time>
      </trkpt>
      <trkpt lat="49.08738" lon="1.53136">
        <ele>126.2</ele>
        <time>2021-09-19T06:24:03Z</time>
      </trkpt>
      <trkpt lat="49.08718" lon="1.5317">
        <ele>127</ele>
        <time>2021-09-19T06:24:10Z</time>
      </trkpt>
      <trkpt lat="49.08713" lon="1.53179">
        <ele>127.2</ele>
        <time>2021-09-19T06:24:12Z</time>
      </trkpt>
      <trkpt lat="49.08699" lon="1.53204">
        <ele>127.8</ele>
        <time>2021-09-19T06:24:17Z</time>
      </trkpt>
      <trkpt lat="49.08688" lon="1.53224">
        <ele>128.4</ele>
        <time>2021-09-19T06:24:21Z</time>
      </trkpt>
      <trkpt lat="49.08673" lon="1.53248">
        <ele>129.2</ele>
        <time>2021-09-19T06:24:26Z</time>
      </trkpt>
      <trkpt lat="49.08662" lon="1.53268">
        <ele>129.4</ele>
        <time>2021-09-19T06:24:30Z</time>
      </trkpt>
      <trkpt lat="49.08649" lon="1.5329">
        <ele>129.8</ele>
        <time>2021-09-19T06:24:35Z</time>
      </trkpt>
      <trkpt lat="49.08638" lon="1.5331">
        <ele>130</ele>
        <time>2021-09-19T06:24:41Z</time>
      </trkpt>
      <trkpt lat="49.08634" lon="1.53316">
        <ele>130.4</ele>
        <time>2021-09-19T06:24:45Z</time>
      </trkpt>
      <trkpt lat="49.08634" lon="1.53316">
        <ele>130.6</ele>
        <time>2021-09-19T06:24:46Z</time>
      </trkpt>
      <trkpt lat="49.08632" lon="1.53322">
        <ele>130.4</ele>
        <time>2021-09-19T06:26:28Z</time>
      </trkpt>
      <trkpt lat="49.08628" lon="1.5333">
        <ele>130.4</ele>
        <time>2021-09-19T06:26:30Z</time>
      </trkpt>
      <trkpt lat="49.08607" lon="1.53363">
        <ele>130.4</ele>
        <time>2021-09-19T06:26:36Z</time>
      </trkpt>
      <trkpt lat="49.08577" lon="1.53415">
        <ele>130</ele>
        <time>2021-09-19T06:26:45Z</time>
      </trkpt>
      <trkpt lat="49.08549" lon="1.53469">
        <ele>130.2</ele>
        <time>2021-09-19T06:26:54Z</time>
      </trkpt>
      <trkpt lat="49.08528" lon="1.53511">
        <ele>130.2</ele>
        <time>2021-09-19T06:27:01Z</time>
      </trkpt>
      <trkpt lat="49.08512" lon="1.53562">
        <ele>130.2</ele>
        <time>2021-09-19T06:27:08Z</time>
      </trkpt>
      <trkpt lat="49.08507" lon="1.53576">
        <ele>130.2</ele>
        <time>2021-09-19T06:27:10Z</time>
      </trkpt>
      <trkpt lat="49.08503" lon="1.5359">
        <ele>130</ele>
        <time>2021-09-19T06:27:12Z</time>
      </trkpt>
      <trkpt lat="49.08492" lon="1.53633">
        <ele>129.8</ele>
        <time>2021-09-19T06:27:18Z</time>
      </trkpt>
      <trkpt lat="49.08478" lon="1.53681">
        <ele>129.6</ele>
        <time>2021-09-19T06:27:24Z</time>
      </trkpt>
      <trkpt lat="49.08471" lon="1.53708">
        <ele>129.4</ele>
        <time>2021-09-19T06:27:27Z</time>
      </trkpt>
      <trkpt lat="49.0847" lon="1.53727">
        <ele>129.2</ele>
        <time>2021-09-19T06:27:29Z</time>
      </trkpt>
      <trkpt lat="49.0847" lon="1.53738">
        <ele>129</ele>
        <time>2021-09-19T06:27:30Z</time>
      </trkpt>
      <trkpt lat="49.08471" lon="1.53792">
        <ele>128</ele>
        <time>2021-09-19T06:27:35Z</time>
      </trkpt>
      <trkpt lat="49.08471" lon="1.53801">
        <ele>127.6</ele>
        <time>2021-09-19T06:27:36Z</time>
      </trkpt>
      <trkpt lat="49.08471" lon="1.5382">
        <ele>126.6</ele>
        <time>2021-09-19T06:27:39Z</time>
      </trkpt>
      <trkpt lat="49.08472" lon="1.53825">
        <ele>126.4</ele>
        <time>2021-09-19T06:27:40Z</time>
      </trkpt>
      <trkpt lat="49.08472" lon="1.53832">
        <ele>125.4</ele>
        <time>2021-09-19T06:27:42Z</time>
      </trkpt>
      <trkpt lat="49.08473" lon="1.5384">
        <ele>124.6</ele>
        <time>2021-09-19T06:27:45Z</time>
      </trkpt>
      <trkpt lat="49.08474" lon="1.53846">
        <ele>124.2</ele>
        <time>2021-09-19T06:27:47Z</time>
      </trkpt>
      <trkpt lat="49.08477" lon="1.53859">
        <ele>124.2</ele>
        <time>2021-09-19T06:27:51Z</time>
      </trkpt>
      <trkpt lat="49.08477" lon="1.53862">
        <ele>124.2</ele>
        <time>2021-09-19T06:27:52Z</time>
      </trkpt>
      <trkpt lat="49.08478" lon="1.53872">
        <ele>124.2</ele>
        <time>2021-09-19T06:27:56Z</time>
      </trkpt>
      <trkpt lat="49.08475" lon="1.53886">
        <ele>125</ele>
        <time>2021-09-19T06:28:01Z</time>
      </trkpt>
      <trkpt lat="49.08472" lon="1.53889">
        <ele>125.4</ele>
        <time>2021-09-19T06:28:02Z</time>
      </trkpt>
      <trkpt lat="49.08463" lon="1.53898">
        <ele>126.8</ele>
        <time>2021-09-19T06:28:06Z</time>
      </trkpt>
      <trkpt lat="49.08457" lon="1.53906">
        <ele>128</ele>
        <time>2021-09-19T06:28:09Z</time>
      </trkpt>
      <trkpt lat="49.08454" lon="1.53913">
        <ele>128.4</ele>
        <time>2021-09-19T06:28:11Z</time>
      </trkpt>
      <trkpt lat="49.08444" lon="1.53926">
        <ele>129.2</ele>
        <time>2021-09-19T06:28:15Z</time>
      </trkpt>
      <trkpt lat="49.08435" lon="1.53945">
        <ele>129.8</ele>
        <time>2021-09-19T06:28:20Z</time>
      </trkpt>
      <trkpt lat="49.08423" lon="1.53952">
        <ele>130.2</ele>
        <time>2021-09-19T06:28:24Z</time>
      </trkpt>
      <trkpt lat="49.08421" lon="1.53955">
        <ele>130.4</ele>
        <time>2021-09-19T06:28:25Z</time>
      </trkpt>
      <trkpt lat="49.08419" lon="1.53958">
        <ele>130.4</ele>
        <time>2021-09-19T06:28:26Z</time>
      </trkpt>
      <trkpt lat="49.08417" lon="1.53965">
        <ele>130.6</ele>
        <time>2021-09-19T06:28:28Z</time>
      </trkpt>
      <trkpt lat="49.08409" lon="1.53974">
        <ele>131</ele>
        <time>2021-09-19T06:28:31Z</time>
      </trkpt>
      <trkpt lat="49.08406" lon="1.53978">
        <ele>131.2</ele>
        <time>2021-09-19T06:28:32Z</time>
      </trkpt>
      <trkpt lat="49.08402" lon="1.53987">
        <ele>131.4</ele>
        <time>2021-09-19T06:28:34Z</time>
      </trkpt>
      <trkpt lat="49.08399" lon="1.53999">
        <ele>131.6</ele>
        <time>2021-09-19T06:28:36Z</time>
      </trkpt>
      <trkpt lat="49.08381" lon="1.54037">
        <ele>132</ele>
        <time>2021-09-19T06:28:43Z</time>
      </trkpt>
      <trkpt lat="49.08379" lon="1.54044">
        <ele>132</ele>
        <time>2021-09-19T06:28:44Z</time>
      </trkpt>
      <trkpt lat="49.08376" lon="1.5406">
        <ele>132.2</ele>
        <time>2021-09-19T06:28:47Z</time>
      </trkpt>
      <trkpt lat="49.08373" lon="1.54085">
        <ele>132.2</ele>
        <time>2021-09-19T06:28:51Z</time>
      </trkpt>
      <trkpt lat="49.08372" lon="1.54098">
        <ele>132.2</ele>
        <time>2021-09-19T06:28:53Z</time>
      </trkpt>
      <trkpt lat="49.08371" lon="1.54126">
        <ele>132.6</ele>
        <time>2021-09-19T06:28:57Z</time>
      </trkpt>
      <trkpt lat="49.08369" lon="1.54133">
        <ele>132.6</ele>
        <time>2021-09-19T06:28:58Z</time>
      </trkpt>
      <trkpt lat="49.08365" lon="1.54154">
        <ele>132.8</ele>
        <time>2021-09-19T06:29:01Z</time>
      </trkpt>
      <trkpt lat="49.08363" lon="1.5416">
        <ele>132.8</ele>
        <time>2021-09-19T06:29:02Z</time>
      </trkpt>
      <trkpt lat="49.08354" lon="1.54187">
        <ele>133.2</ele>
        <time>2021-09-19T06:29:06Z</time>
      </trkpt>
      <trkpt lat="49.08351" lon="1.54193">
        <ele>133.2</ele>
        <time>2021-09-19T06:29:07Z</time>
      </trkpt>
      <trkpt lat="49.08349" lon="1.54198">
        <ele>133.4</ele>
        <time>2021-09-19T06:29:08Z</time>
      </trkpt>
      <trkpt lat="49.08342" lon="1.54218">
        <ele>133.6</ele>
        <time>2021-09-19T06:29:11Z</time>
      </trkpt>
      <trkpt lat="49.08339" lon="1.54233">
        <ele>133.6</ele>
        <time>2021-09-19T06:29:13Z</time>
      </trkpt>
      <trkpt lat="49.08338" lon="1.5424">
        <ele>133.6</ele>
        <time>2021-09-19T06:29:14Z</time>
      </trkpt>
      <trkpt lat="49.08336" lon="1.54277">
        <ele>133.6</ele>
        <time>2021-09-19T06:29:18Z</time>
      </trkpt>
      <trkpt lat="49.08334" lon="1.54337">
        <ele>133.4</ele>
        <time>2021-09-19T06:29:25Z</time>
      </trkpt>
      <trkpt lat="49.08328" lon="1.54385">
        <ele>133.2</ele>
        <time>2021-09-19T06:29:31Z</time>
      </trkpt>
      <trkpt lat="49.08322" lon="1.5444">
        <ele>133.6</ele>
        <time>2021-09-19T06:29:38Z</time>
      </trkpt>
      <trkpt lat="49.0832" lon="1.54455">
        <ele>133.8</ele>
        <time>2021-09-19T06:29:40Z</time>
      </trkpt>
      <trkpt lat="49.08313" lon="1.54531">
        <ele>134</ele>
        <time>2021-09-19T06:29:49Z</time>
      </trkpt>
      <trkpt lat="49.08311" lon="1.54549">
        <ele>134.2</ele>
        <time>2021-09-19T06:29:51Z</time>
      </trkpt>
      <trkpt lat="49.08309" lon="1.54597">
        <ele>134.2</ele>
        <time>2021-09-19T06:29:56Z</time>
      </trkpt>
      <trkpt lat="49.08308" lon="1.54653">
        <ele>134.2</ele>
        <time>2021-09-19T06:30:02Z</time>
      </trkpt>
      <trkpt lat="49.08308" lon="1.54662">
        <ele>134</ele>
        <time>2021-09-19T06:30:03Z</time>
      </trkpt>
      <trkpt lat="49.08303" lon="1.54676">
        <ele>134</ele>
        <time>2021-09-19T06:30:05Z</time>
      </trkpt>
      <trkpt lat="49.08294" lon="1.54673">
        <ele>134</ele>
        <time>2021-09-19T06:30:08Z</time>
      </trkpt>
      <trkpt lat="49.08291" lon="1.5467">
        <ele>134</ele>
        <time>2021-09-19T06:30:09Z</time>
      </trkpt>
      <trkpt lat="49.08284" lon="1.54665">
        <ele>134</ele>
        <time>2021-09-19T06:30:11Z</time>
      </trkpt>
      <trkpt lat="49.08281" lon="1.54665">
        <ele>134</ele>
        <time>2021-09-19T06:30:12Z</time>
      </trkpt>
      <trkpt lat="49.08279" lon="1.54675">
        <ele>134.2</ele>
        <time>2021-09-19T06:30:15Z</time>
      </trkpt>
      <trkpt lat="49.08281" lon="1.54695">
        <ele>134.2</ele>
        <time>2021-09-19T06:30:20Z</time>
      </trkpt>
      <trkpt lat="49.08281" lon="1.547">
        <ele>134.2</ele>
        <time>2021-09-19T06:30:21Z</time>
      </trkpt>
      <trkpt lat="49.08281" lon="1.54723">
        <ele>134.2</ele>
        <time>2021-09-19T06:30:25Z</time>
      </trkpt>
      <trkpt lat="49.08282" lon="1.54736">
        <ele>134</ele>
        <time>2021-09-19T06:30:27Z</time>
      </trkpt>
      <trkpt lat="49.08282" lon="1.54748">
        <ele>134</ele>
        <time>2021-09-19T06:30:29Z</time>
      </trkpt>
      <trkpt lat="49.08286" lon="1.54774">
        <ele>133.6</ele>
        <time>2021-09-19T06:30:33Z</time>
      </trkpt>
      <trkpt lat="49.08287" lon="1.54783">
        <ele>133.4</ele>
        <time>2021-09-19T06:30:34Z</time>
      </trkpt>
      <trkpt lat="49.08288" lon="1.54791">
        <ele>133.4</ele>
        <time>2021-09-19T06:30:35Z</time>
      </trkpt>
      <trkpt lat="49.08292" lon="1.54813">
        <ele>133.4</ele>
        <time>2021-09-19T06:30:38Z</time>
      </trkpt>
      <trkpt lat="49.08297" lon="1.54835">
        <ele>133.2</ele>
        <time>2021-09-19T06:30:41Z</time>
      </trkpt>
      <trkpt lat="49.08298" lon="1.54843">
        <ele>133</ele>
        <time>2021-09-19T06:30:42Z</time>
      </trkpt>
      <trkpt lat="49.08298" lon="1.5485">
        <ele>133</ele>
        <time>2021-09-19T06:30:43Z</time>
      </trkpt>
      <trkpt lat="49.08301" lon="1.54859">
        <ele>132.6</ele>
        <time>2021-09-19T06:30:46Z</time>
      </trkpt>
      <trkpt lat="49.08317" lon="1.54861">
        <ele>132.2</ele>
        <time>2021-09-19T06:30:51Z</time>
      </trkpt>
      <trkpt lat="49.08321" lon="1.54881">
        <ele>132.2</ele>
        <time>2021-09-19T06:30:54Z</time>
      </trkpt>
      <trkpt lat="49.08324" lon="1.54913">
        <ele>132.4</ele>
        <time>2021-09-19T06:30:58Z</time>
      </trkpt>
      <trkpt lat="49.08325" lon="1.5492">
        <ele>132.4</ele>
        <time>2021-09-19T06:30:59Z</time>
      </trkpt>
      <trkpt lat="49.08329" lon="1.54954">
        <ele>132.8</ele>
        <time>2021-09-19T06:31:04Z</time>
      </trkpt>
      <trkpt lat="49.08333" lon="1.54966">
        <ele>132.8</ele>
        <time>2021-09-19T06:31:06Z</time>
      </trkpt>
      <trkpt lat="49.08338" lon="1.54987">
        <ele>133</ele>
        <time>2021-09-19T06:31:09Z</time>
      </trkpt>
      <trkpt lat="49.08339" lon="1.55016">
        <ele>133.6</ele>
        <time>2021-09-19T06:31:13Z</time>
      </trkpt>
      <trkpt lat="49.08337" lon="1.5504">
        <ele>133.8</ele>
        <time>2021-09-19T06:31:17Z</time>
      </trkpt>
      <trkpt lat="49.08339" lon="1.55068">
        <ele>134</ele>
        <time>2021-09-19T06:31:22Z</time>
      </trkpt>
      <trkpt lat="49.0834" lon="1.55093">
        <ele>134</ele>
        <time>2021-09-19T06:31:26Z</time>
      </trkpt>
      <trkpt lat="49.08341" lon="1.551">
        <ele>134</ele>
        <time>2021-09-19T06:31:27Z</time>
      </trkpt>
      <trkpt lat="49.08343" lon="1.5513">
        <ele>134.2</ele>
        <time>2021-09-19T06:31:31Z</time>
      </trkpt>
      <trkpt lat="49.08345" lon="1.55153">
        <ele>134.2</ele>
        <time>2021-09-19T06:31:34Z</time>
      </trkpt>
      <trkpt lat="49.08344" lon="1.55175">
        <ele>134.2</ele>
        <time>2021-09-19T06:31:37Z</time>
      </trkpt>
      <trkpt lat="49.08343" lon="1.55183">
        <ele>134.2</ele>
        <time>2021-09-19T06:31:38Z</time>
      </trkpt>
      <trkpt lat="49.0834" lon="1.55204">
        <ele>134.4</ele>
        <time>2021-09-19T06:31:41Z</time>
      </trkpt>
      <trkpt lat="49.08337" lon="1.55218">
        <ele>134.4</ele>
        <time>2021-09-19T06:31:43Z</time>
      </trkpt>
      <trkpt lat="49.08333" lon="1.55232">
        <ele>134.4</ele>
        <time>2021-09-19T06:31:45Z</time>
      </trkpt>
      <trkpt lat="49.08328" lon="1.55253">
        <ele>134.4</ele>
        <time>2021-09-19T06:31:48Z</time>
      </trkpt>
      <trkpt lat="49.08323" lon="1.55282">
        <ele>134.4</ele>
        <time>2021-09-19T06:31:52Z</time>
      </trkpt>
      <trkpt lat="49.08321" lon="1.55297">
        <ele>134.4</ele>
        <time>2021-09-19T06:31:54Z</time>
      </trkpt>
      <trkpt lat="49.08319" lon="1.55311">
        <ele>134.4</ele>
        <time>2021-09-19T06:31:56Z</time>
      </trkpt>
      <trkpt lat="49.08314" lon="1.55337">
        <ele>134</ele>
        <time>2021-09-19T06:32:00Z</time>
      </trkpt>
      <trkpt lat="49.08312" lon="1.55362">
        <ele>133.8</ele>
        <time>2021-09-19T06:32:03Z</time>
      </trkpt>
      <trkpt lat="49.08313" lon="1.55378">
        <ele>133.8</ele>
        <time>2021-09-19T06:32:05Z</time>
      </trkpt>
      <trkpt lat="49.08316" lon="1.55417">
        <ele>133.4</ele>
        <time>2021-09-19T06:32:10Z</time>
      </trkpt>
      <trkpt lat="49.08317" lon="1.55425">
        <ele>133.4</ele>
        <time>2021-09-19T06:32:11Z</time>
      </trkpt>
      <trkpt lat="49.08321" lon="1.55439">
        <ele>133.2</ele>
        <time>2021-09-19T06:32:13Z</time>
      </trkpt>
      <trkpt lat="49.08327" lon="1.5546">
        <ele>133.2</ele>
        <time>2021-09-19T06:32:16Z</time>
      </trkpt>
      <trkpt lat="49.08329" lon="1.55467">
        <ele>133.2</ele>
        <time>2021-09-19T06:32:17Z</time>
      </trkpt>
      <trkpt lat="49.08334" lon="1.55481">
        <ele>133</ele>
        <time>2021-09-19T06:32:19Z</time>
      </trkpt>
      <trkpt lat="49.08344" lon="1.55505">
        <ele>133</ele>
        <time>2021-09-19T06:32:23Z</time>
      </trkpt>
      <trkpt lat="49.08345" lon="1.5553">
        <ele>133</ele>
        <time>2021-09-19T06:32:27Z</time>
      </trkpt>
      <trkpt lat="49.08348" lon="1.55555">
        <ele>133</ele>
        <time>2021-09-19T06:32:31Z</time>
      </trkpt>
      <trkpt lat="49.08349" lon="1.55575">
        <ele>133.2</ele>
        <time>2021-09-19T06:32:34Z</time>
      </trkpt>
      <trkpt lat="49.08347" lon="1.55594">
        <ele>133.4</ele>
        <time>2021-09-19T06:32:37Z</time>
      </trkpt>
      <trkpt lat="49.08341" lon="1.55617">
        <ele>133.4</ele>
        <time>2021-09-19T06:32:41Z</time>
      </trkpt>
      <trkpt lat="49.0834" lon="1.55622">
        <ele>133.4</ele>
        <time>2021-09-19T06:32:42Z</time>
      </trkpt>
      <trkpt lat="49.08338" lon="1.55644">
        <ele>133.4</ele>
        <time>2021-09-19T06:32:46Z</time>
      </trkpt>
      <trkpt lat="49.08332" lon="1.5566">
        <ele>133.4</ele>
        <time>2021-09-19T06:32:49Z</time>
      </trkpt>
      <trkpt lat="49.08332" lon="1.55667">
        <ele>133.2</ele>
        <time>2021-09-19T06:32:50Z</time>
      </trkpt>
      <trkpt lat="49.0833" lon="1.55684">
        <ele>133.2</ele>
        <time>2021-09-19T06:32:53Z</time>
      </trkpt>
      <trkpt lat="49.0833" lon="1.5569">
        <ele>133.2</ele>
        <time>2021-09-19T06:32:54Z</time>
      </trkpt>
      <trkpt lat="49.08329" lon="1.55713">
        <ele>133</ele>
        <time>2021-09-19T06:32:58Z</time>
      </trkpt>
      <trkpt lat="49.08329" lon="1.55718">
        <ele>132.8</ele>
        <time>2021-09-19T06:32:59Z</time>
      </trkpt>
      <trkpt lat="49.08331" lon="1.5573">
        <ele>132.6</ele>
        <time>2021-09-19T06:33:01Z</time>
      </trkpt>
      <trkpt lat="49.08332" lon="1.55737">
        <ele>132.4</ele>
        <time>2021-09-19T06:33:02Z</time>
      </trkpt>
      <trkpt lat="49.08334" lon="1.55753">
        <ele>132.4</ele>
        <time>2021-09-19T06:33:04Z</time>
      </trkpt>
      <trkpt lat="49.08335" lon="1.55761">
        <ele>132.4</ele>
        <time>2021-09-19T06:33:05Z</time>
      </trkpt>
      <trkpt lat="49.08335" lon="1.55769">
        <ele>132.4</ele>
        <time>2021-09-19T06:33:06Z</time>
      </trkpt>
      <trkpt lat="49.08339" lon="1.55793">
        <ele>132.4</ele>
        <time>2021-09-19T06:33:09Z</time>
      </trkpt>
      <trkpt lat="49.08342" lon="1.55818">
        <ele>132</ele>
        <time>2021-09-19T06:33:12Z</time>
      </trkpt>
      <trkpt lat="49.08343" lon="1.55833">
        <ele>131.8</ele>
        <time>2021-09-19T06:33:14Z</time>
      </trkpt>
      <trkpt lat="49.08347" lon="1.55858">
        <ele>131.4</ele>
        <time>2021-09-19T06:33:17Z</time>
      </trkpt>
      <trkpt lat="49.08353" lon="1.55883">
        <ele>131.2</ele>
        <time>2021-09-19T06:33:20Z</time>
      </trkpt>
      <trkpt lat="49.08355" lon="1.55891">
        <ele>131.2</ele>
        <time>2021-09-19T06:33:21Z</time>
      </trkpt>
      <trkpt lat="49.0837" lon="1.55948">
        <ele>130.8</ele>
        <time>2021-09-19T06:33:28Z</time>
      </trkpt>
      <trkpt lat="49.0838" lon="1.55991">
        <ele>130.6</ele>
        <time>2021-09-19T06:33:33Z</time>
      </trkpt>
      <trkpt lat="49.08383" lon="1.56">
        <ele>130.6</ele>
        <time>2021-09-19T06:33:34Z</time>
      </trkpt>
      <trkpt lat="49.08401" lon="1.56055">
        <ele>130.4</ele>
        <time>2021-09-19T06:33:41Z</time>
      </trkpt>
      <trkpt lat="49.08407" lon="1.56071">
        <ele>130.4</ele>
        <time>2021-09-19T06:33:43Z</time>
      </trkpt>
      <trkpt lat="49.08415" lon="1.56096">
        <ele>130</ele>
        <time>2021-09-19T06:33:46Z</time>
      </trkpt>
      <trkpt lat="49.08433" lon="1.56153">
        <ele>129.8</ele>
        <time>2021-09-19T06:33:53Z</time>
      </trkpt>
      <trkpt lat="49.08442" lon="1.56215">
        <ele>129.6</ele>
        <time>2021-09-19T06:34:00Z</time>
      </trkpt>
      <trkpt lat="49.08446" lon="1.56248">
        <ele>129.4</ele>
        <time>2021-09-19T06:34:04Z</time>
      </trkpt>
      <trkpt lat="49.0845" lon="1.56264">
        <ele>129.2</ele>
        <time>2021-09-19T06:34:06Z</time>
      </trkpt>
      <trkpt lat="49.08453" lon="1.5628">
        <ele>129.2</ele>
        <time>2021-09-19T06:34:08Z</time>
      </trkpt>
      <trkpt lat="49.08455" lon="1.56287">
        <ele>129.2</ele>
        <time>2021-09-19T06:34:09Z</time>
      </trkpt>
      <trkpt lat="49.08457" lon="1.56294">
        <ele>129.2</ele>
        <time>2021-09-19T06:34:10Z</time>
      </trkpt>
      <trkpt lat="49.08458" lon="1.56301">
        <ele>129.2</ele>
        <time>2021-09-19T06:34:11Z</time>
      </trkpt>
      <trkpt lat="49.08461" lon="1.56308">
        <ele>129.2</ele>
        <time>2021-09-19T06:34:12Z</time>
      </trkpt>
      <trkpt lat="49.08466" lon="1.56321">
        <ele>129</ele>
        <time>2021-09-19T06:34:14Z</time>
      </trkpt>
      <trkpt lat="49.08471" lon="1.56336">
        <ele>128.8</ele>
        <time>2021-09-19T06:34:16Z</time>
      </trkpt>
      <trkpt lat="49.08473" lon="1.56356">
        <ele>128.8</ele>
        <time>2021-09-19T06:34:19Z</time>
      </trkpt>
      <trkpt lat="49.08466" lon="1.56367">
        <ele>128.8</ele>
        <time>2021-09-19T06:34:22Z</time>
      </trkpt>
      <trkpt lat="49.08456" lon="1.56369">
        <ele>128.6</ele>
        <time>2021-09-19T06:34:24Z</time>
      </trkpt>
      <trkpt lat="49.08445" lon="1.56373">
        <ele>128.6</ele>
        <time>2021-09-19T06:34:26Z</time>
      </trkpt>
      <trkpt lat="49.08409" lon="1.56387">
        <ele>128.6</ele>
        <time>2021-09-19T06:34:32Z</time>
      </trkpt>
      <trkpt lat="49.08378" lon="1.56399">
        <ele>128.4</ele>
        <time>2021-09-19T06:34:37Z</time>
      </trkpt>
      <trkpt lat="49.08365" lon="1.56403">
        <ele>128.2</ele>
        <time>2021-09-19T06:34:39Z</time>
      </trkpt>
      <trkpt lat="49.08347" lon="1.56411">
        <ele>128</ele>
        <time>2021-09-19T06:34:42Z</time>
      </trkpt>
      <trkpt lat="49.08323" lon="1.56422">
        <ele>127.8</ele>
        <time>2021-09-19T06:34:46Z</time>
      </trkpt>
      <trkpt lat="49.08317" lon="1.56424">
        <ele>127.8</ele>
        <time>2021-09-19T06:34:47Z</time>
      </trkpt>
      <trkpt lat="49.08305" lon="1.56429">
        <ele>127.6</ele>
        <time>2021-09-19T06:34:49Z</time>
      </trkpt>
      <trkpt lat="49.08301" lon="1.56433">
        <ele>127.6</ele>
        <time>2021-09-19T06:34:50Z</time>
      </trkpt>
      <trkpt lat="49.08296" lon="1.56458">
        <ele>127.4</ele>
        <time>2021-09-19T06:34:53Z</time>
      </trkpt>
      <trkpt lat="49.083" lon="1.56475">
        <ele>127.2</ele>
        <time>2021-09-19T06:34:55Z</time>
      </trkpt>
      <trkpt lat="49.08304" lon="1.56492">
        <ele>127.2</ele>
        <time>2021-09-19T06:34:57Z</time>
      </trkpt>
      <trkpt lat="49.08306" lon="1.56502">
        <ele>127.2</ele>
        <time>2021-09-19T06:34:58Z</time>
      </trkpt>
      <trkpt lat="49.0831" lon="1.56536">
        <ele>127.2</ele>
        <time>2021-09-19T06:35:01Z</time>
      </trkpt>
      <trkpt lat="49.08319" lon="1.56591">
        <ele>127</ele>
        <time>2021-09-19T06:35:06Z</time>
      </trkpt>
      <trkpt lat="49.08323" lon="1.56612">
        <ele>126.8</ele>
        <time>2021-09-19T06:35:08Z</time>
      </trkpt>
      <trkpt lat="49.08327" lon="1.56633">
        <ele>125.8</ele>
        <time>2021-09-19T06:35:10Z</time>
      </trkpt>
      <trkpt lat="49.0834" lon="1.56706">
        <ele>125.2</ele>
        <time>2021-09-19T06:35:17Z</time>
      </trkpt>
      <trkpt lat="49.08349" lon="1.56775">
        <ele>125</ele>
        <time>2021-09-19T06:35:24Z</time>
      </trkpt>
      <trkpt lat="49.08362" lon="1.56845">
        <ele>125</ele>
        <time>2021-09-19T06:35:31Z</time>
      </trkpt>
      <trkpt lat="49.08376" lon="1.56913">
        <ele>124.8</ele>
        <time>2021-09-19T06:35:38Z</time>
      </trkpt>
      <trkpt lat="49.08378" lon="1.56923">
        <ele>124.8</ele>
        <time>2021-09-19T06:35:39Z</time>
      </trkpt>
      <trkpt lat="49.08391" lon="1.57005">
        <ele>124.4</ele>
        <time>2021-09-19T06:35:47Z</time>
      </trkpt>
      <trkpt lat="49.08395" lon="1.57026">
        <ele>124.2</ele>
        <time>2021-09-19T06:35:49Z</time>
      </trkpt>
      <trkpt lat="49.08409" lon="1.57115">
        <ele>123.8</ele>
        <time>2021-09-19T06:35:57Z</time>
      </trkpt>
      <trkpt lat="49.0841" lon="1.57126">
        <ele>123.8</ele>
        <time>2021-09-19T06:35:58Z</time>
      </trkpt>
      <trkpt lat="49.08425" lon="1.57194">
        <ele>122.6</ele>
        <time>2021-09-19T06:36:04Z</time>
      </trkpt>
      <trkpt lat="49.08427" lon="1.57206">
        <ele>122.2</ele>
        <time>2021-09-19T06:36:05Z</time>
      </trkpt>
      <trkpt lat="49.08431" lon="1.5724">
        <ele>121.2</ele>
        <time>2021-09-19T06:36:08Z</time>
      </trkpt>
      <trkpt lat="49.08438" lon="1.57287">
        <ele>120</ele>
        <time>2021-09-19T06:36:12Z</time>
      </trkpt>
      <trkpt lat="49.08441" lon="1.57298">
        <ele>119.8</ele>
        <time>2021-09-19T06:36:13Z</time>
      </trkpt>
      <trkpt lat="49.08452" lon="1.57328">
        <ele>119.4</ele>
        <time>2021-09-19T06:36:16Z</time>
      </trkpt>
      <trkpt lat="49.08458" lon="1.57347">
        <ele>118.6</ele>
        <time>2021-09-19T06:36:18Z</time>
      </trkpt>
      <trkpt lat="49.0846" lon="1.57367">
        <ele>118</ele>
        <time>2021-09-19T06:36:20Z</time>
      </trkpt>
      <trkpt lat="49.0846" lon="1.57379">
        <ele>117.6</ele>
        <time>2021-09-19T06:36:21Z</time>
      </trkpt>
      <trkpt lat="49.08457" lon="1.57404">
        <ele>116.6</ele>
        <time>2021-09-19T06:36:23Z</time>
      </trkpt>
      <trkpt lat="49.08456" lon="1.57416">
        <ele>116</ele>
        <time>2021-09-19T06:36:24Z</time>
      </trkpt>
      <trkpt lat="49.08453" lon="1.57442">
        <ele>115.6</ele>
        <time>2021-09-19T06:36:26Z</time>
      </trkpt>
      <trkpt lat="49.08449" lon="1.57486">
        <ele>114.8</ele>
        <time>2021-09-19T06:36:29Z</time>
      </trkpt>
      <trkpt lat="49.08447" lon="1.57501">
        <ele>114</ele>
        <time>2021-09-19T06:36:30Z</time>
      </trkpt>
      <trkpt lat="49.08445" lon="1.57534">
        <ele>112.4</ele>
        <time>2021-09-19T06:36:32Z</time>
      </trkpt>
      <trkpt lat="49.08443" lon="1.57551">
        <ele>111</ele>
        <time>2021-09-19T06:36:33Z</time>
      </trkpt>
      <trkpt lat="49.08441" lon="1.57567">
        <ele>110.2</ele>
        <time>2021-09-19T06:36:34Z</time>
      </trkpt>
      <trkpt lat="49.08438" lon="1.57584">
        <ele>109.2</ele>
        <time>2021-09-19T06:36:35Z</time>
      </trkpt>
      <trkpt lat="49.08437" lon="1.576">
        <ele>108.2</ele>
        <time>2021-09-19T06:36:36Z</time>
      </trkpt>
      <trkpt lat="49.08436" lon="1.57615">
        <ele>107</ele>
        <time>2021-09-19T06:36:37Z</time>
      </trkpt>
      <trkpt lat="49.08435" lon="1.5763">
        <ele>106</ele>
        <time>2021-09-19T06:36:38Z</time>
      </trkpt>
      <trkpt lat="49.08434" lon="1.57644">
        <ele>104.8</ele>
        <time>2021-09-19T06:36:39Z</time>
      </trkpt>
      <trkpt lat="49.08432" lon="1.57658">
        <ele>103.6</ele>
        <time>2021-09-19T06:36:40Z</time>
      </trkpt>
      <trkpt lat="49.08429" lon="1.57673">
        <ele>102.4</ele>
        <time>2021-09-19T06:36:41Z</time>
      </trkpt>
      <trkpt lat="49.08427" lon="1.57689">
        <ele>101</ele>
        <time>2021-09-19T06:36:42Z</time>
      </trkpt>
      <trkpt lat="49.08424" lon="1.57705">
        <ele>99.8</ele>
        <time>2021-09-19T06:36:43Z</time>
      </trkpt>
      <trkpt lat="49.0842" lon="1.5772">
        <ele>98.8</ele>
        <time>2021-09-19T06:36:44Z</time>
      </trkpt>
      <trkpt lat="49.08413" lon="1.57746">
        <ele>97</ele>
        <time>2021-09-19T06:36:46Z</time>
      </trkpt>
      <trkpt lat="49.08403" lon="1.5777">
        <ele>95.8</ele>
        <time>2021-09-19T06:36:48Z</time>
      </trkpt>
      <trkpt lat="49.08393" lon="1.57792">
        <ele>94</ele>
        <time>2021-09-19T06:36:50Z</time>
      </trkpt>
      <trkpt lat="49.08389" lon="1.57804">
        <ele>93.2</ele>
        <time>2021-09-19T06:36:51Z</time>
      </trkpt>
      <trkpt lat="49.08386" lon="1.57817">
        <ele>92</ele>
        <time>2021-09-19T06:36:52Z</time>
      </trkpt>
      <trkpt lat="49.08382" lon="1.5783">
        <ele>90.8</ele>
        <time>2021-09-19T06:36:53Z</time>
      </trkpt>
      <trkpt lat="49.08375" lon="1.5786">
        <ele>88.8</ele>
        <time>2021-09-19T06:36:55Z</time>
      </trkpt>
      <trkpt lat="49.0837" lon="1.57891">
        <ele>87.2</ele>
        <time>2021-09-19T06:36:57Z</time>
      </trkpt>
      <trkpt lat="49.08366" lon="1.57922">
        <ele>85.4</ele>
        <time>2021-09-19T06:36:59Z</time>
      </trkpt>
      <trkpt lat="49.08365" lon="1.57938">
        <ele>84.4</ele>
        <time>2021-09-19T06:37:00Z</time>
      </trkpt>
      <trkpt lat="49.08364" lon="1.57954">
        <ele>82.2</ele>
        <time>2021-09-19T06:37:01Z</time>
      </trkpt>
      <trkpt lat="49.08364" lon="1.5797">
        <ele>80.6</ele>
        <time>2021-09-19T06:37:02Z</time>
      </trkpt>
      <trkpt lat="49.08364" lon="1.57985">
        <ele>79.2</ele>
        <time>2021-09-19T06:37:03Z</time>
      </trkpt>
      <trkpt lat="49.08363" lon="1.58002">
        <ele>77.6</ele>
        <time>2021-09-19T06:37:04Z</time>
      </trkpt>
      <trkpt lat="49.08362" lon="1.58016">
        <ele>76</ele>
        <time>2021-09-19T06:37:05Z</time>
      </trkpt>
      <trkpt lat="49.0836" lon="1.58031">
        <ele>74.8</ele>
        <time>2021-09-19T06:37:06Z</time>
      </trkpt>
      <trkpt lat="49.08356" lon="1.58045">
        <ele>73.6</ele>
        <time>2021-09-19T06:37:07Z</time>
      </trkpt>
      <trkpt lat="49.08353" lon="1.58059">
        <ele>72.4</ele>
        <time>2021-09-19T06:37:08Z</time>
      </trkpt>
      <trkpt lat="49.08351" lon="1.58072">
        <ele>71.2</ele>
        <time>2021-09-19T06:37:09Z</time>
      </trkpt>
      <trkpt lat="49.0835" lon="1.58083">
        <ele>70</ele>
        <time>2021-09-19T06:37:10Z</time>
      </trkpt>
      <trkpt lat="49.08351" lon="1.58093">
        <ele>68.6</ele>
        <time>2021-09-19T06:37:11Z</time>
      </trkpt>
      <trkpt lat="49.08353" lon="1.58103">
        <ele>67.2</ele>
        <time>2021-09-19T06:37:12Z</time>
      </trkpt>
      <trkpt lat="49.08355" lon="1.58113">
        <ele>66.2</ele>
        <time>2021-09-19T06:37:13Z</time>
      </trkpt>
      <trkpt lat="49.08356" lon="1.58123">
        <ele>65.2</ele>
        <time>2021-09-19T06:37:14Z</time>
      </trkpt>
      <trkpt lat="49.08356" lon="1.58134">
        <ele>64.4</ele>
        <time>2021-09-19T06:37:15Z</time>
      </trkpt>
      <trkpt lat="49.08358" lon="1.58155">
        <ele>63</ele>
        <time>2021-09-19T06:37:17Z</time>
      </trkpt>
      <trkpt lat="49.0836" lon="1.58174">
        <ele>62.2</ele>
        <time>2021-09-19T06:37:19Z</time>
      </trkpt>
      <trkpt lat="49.08362" lon="1.58184">
        <ele>61.8</ele>
        <time>2021-09-19T06:37:20Z</time>
      </trkpt>
      <trkpt lat="49.08362" lon="1.58205">
        <ele>61</ele>
        <time>2021-09-19T06:37:22Z</time>
      </trkpt>
      <trkpt lat="49.0836" lon="1.58217">
        <ele>60.2</ele>
        <time>2021-09-19T06:37:23Z</time>
      </trkpt>
      <trkpt lat="49.08356" lon="1.58241">
        <ele>58.2</ele>
        <time>2021-09-19T06:37:25Z</time>
      </trkpt>
      <trkpt lat="49.08346" lon="1.58262">
        <ele>56.8</ele>
        <time>2021-09-19T06:37:27Z</time>
      </trkpt>
      <trkpt lat="49.08337" lon="1.58274">
        <ele>55</ele>
        <time>2021-09-19T06:37:29Z</time>
      </trkpt>
      <trkpt lat="49.08334" lon="1.58279">
        <ele>54</ele>
        <time>2021-09-19T06:37:30Z</time>
      </trkpt>
      <trkpt lat="49.08332" lon="1.58283">
        <ele>52.4</ele>
        <time>2021-09-19T06:37:31Z</time>
      </trkpt>
      <trkpt lat="49.08334" lon="1.58287">
        <ele>50.8</ele>
        <time>2021-09-19T06:37:32Z</time>
      </trkpt>
      <trkpt lat="49.08336" lon="1.58289">
        <ele>49</ele>
        <time>2021-09-19T06:37:33Z</time>
      </trkpt>
      <trkpt lat="49.08338" lon="1.58288">
        <ele>47.4</ele>
        <time>2021-09-19T06:37:34Z</time>
      </trkpt>
      <trkpt lat="49.08341" lon="1.58286">
        <ele>46.2</ele>
        <time>2021-09-19T06:37:35Z</time>
      </trkpt>
      <trkpt lat="49.08348" lon="1.58281">
        <ele>45</ele>
        <time>2021-09-19T06:37:37Z</time>
      </trkpt>
      <trkpt lat="49.08352" lon="1.58278">
        <ele>44.8</ele>
        <time>2021-09-19T06:37:38Z</time>
      </trkpt>
      <trkpt lat="49.08357" lon="1.58275">
        <ele>44.6</ele>
        <time>2021-09-19T06:37:39Z</time>
      </trkpt>
      <trkpt lat="49.0838" lon="1.58275">
        <ele>44</ele>
        <time>2021-09-19T06:37:43Z</time>
      </trkpt>
      <trkpt lat="49.08398" lon="1.5829">
        <ele>43.8</ele>
        <time>2021-09-19T06:37:46Z</time>
      </trkpt>
      <trkpt lat="49.08409" lon="1.58303">
        <ele>43</ele>
        <time>2021-09-19T06:37:48Z</time>
      </trkpt>
      <trkpt lat="49.0842" lon="1.58317">
        <ele>42</ele>
        <time>2021-09-19T06:37:50Z</time>
      </trkpt>
      <trkpt lat="49.0843" lon="1.58331">
        <ele>40.6</ele>
        <time>2021-09-19T06:37:52Z</time>
      </trkpt>
      <trkpt lat="49.08433" lon="1.5834">
        <ele>40</ele>
        <time>2021-09-19T06:37:53Z</time>
      </trkpt>
      <trkpt lat="49.08434" lon="1.58349">
        <ele>39.4</ele>
        <time>2021-09-19T06:37:54Z</time>
      </trkpt>
      <trkpt lat="49.08431" lon="1.58368">
        <ele>38.6</ele>
        <time>2021-09-19T06:37:56Z</time>
      </trkpt>
      <trkpt lat="49.08429" lon="1.58377">
        <ele>38</ele>
        <time>2021-09-19T06:37:57Z</time>
      </trkpt>
      <trkpt lat="49.08415" lon="1.58428">
        <ele>37.2</ele>
        <time>2021-09-19T06:38:03Z</time>
      </trkpt>
      <trkpt lat="49.08406" lon="1.58445">
        <ele>37</ele>
        <time>2021-09-19T06:38:06Z</time>
      </trkpt>
      <trkpt lat="49.08403" lon="1.58451">
        <ele>36.8</ele>
        <time>2021-09-19T06:38:07Z</time>
      </trkpt>
      <trkpt lat="49.08398" lon="1.58456">
        <ele>36.6</ele>
        <time>2021-09-19T06:38:08Z</time>
      </trkpt>
      <trkpt lat="49.08371" lon="1.58485">
        <ele>36.2</ele>
        <time>2021-09-19T06:38:13Z</time>
      </trkpt>
      <trkpt lat="49.0835" lon="1.58502">
        <ele>35.6</ele>
        <time>2021-09-19T06:38:16Z</time>
      </trkpt>
      <trkpt lat="49.08343" lon="1.58506">
        <ele>35.2</ele>
        <time>2021-09-19T06:38:17Z</time>
      </trkpt>
      <trkpt lat="49.08335" lon="1.58508">
        <ele>34.8</ele>
        <time>2021-09-19T06:38:18Z</time>
      </trkpt>
      <trkpt lat="49.08328" lon="1.5851">
        <ele>34.2</ele>
        <time>2021-09-19T06:38:19Z</time>
      </trkpt>
      <trkpt lat="49.08316" lon="1.58516">
        <ele>33</ele>
        <time>2021-09-19T06:38:21Z</time>
      </trkpt>
      <trkpt lat="49.08311" lon="1.58522">
        <ele>32</ele>
        <time>2021-09-19T06:38:23Z</time>
      </trkpt>
      <trkpt lat="49.0831" lon="1.58527">
        <ele>31.4</ele>
        <time>2021-09-19T06:38:24Z</time>
      </trkpt>
      <trkpt lat="49.08311" lon="1.58532">
        <ele>30.4</ele>
        <time>2021-09-19T06:38:25Z</time>
      </trkpt>
      <trkpt lat="49.08318" lon="1.58547">
        <ele>29.2</ele>
        <time>2021-09-19T06:38:28Z</time>
      </trkpt>
      <trkpt lat="49.08341" lon="1.58584">
        <ele>28.6</ele>
        <time>2021-09-19T06:38:34Z</time>
      </trkpt>
      <trkpt lat="49.08354" lon="1.58605">
        <ele>28.2</ele>
        <time>2021-09-19T06:38:37Z</time>
      </trkpt>
      <trkpt lat="49.08373" lon="1.58645">
        <ele>28</ele>
        <time>2021-09-19T06:38:42Z</time>
      </trkpt>
      <trkpt lat="49.08397" lon="1.58696">
        <ele>27</ele>
        <time>2021-09-19T06:38:48Z</time>
      </trkpt>
      <trkpt lat="49.08405" lon="1.58713">
        <ele>26.6</ele>
        <time>2021-09-19T06:38:50Z</time>
      </trkpt>
      <trkpt lat="49.0842" lon="1.58748">
        <ele>25.4</ele>
        <time>2021-09-19T06:38:54Z</time>
      </trkpt>
      <trkpt lat="49.0844" lon="1.5879">
        <ele>24.4</ele>
        <time>2021-09-19T06:38:59Z</time>
      </trkpt>
      <trkpt lat="49.08449" lon="1.58807">
        <ele>24</ele>
        <time>2021-09-19T06:39:01Z</time>
      </trkpt>
      <trkpt lat="49.08476" lon="1.58859">
        <ele>24</ele>
        <time>2021-09-19T06:39:08Z</time>
      </trkpt>
      <trkpt lat="49.08498" lon="1.58912">
        <ele>23.8</ele>
        <time>2021-09-19T06:39:15Z</time>
      </trkpt>
      <trkpt lat="49.08518" lon="1.58966">
        <ele>24.2</ele>
        <time>2021-09-19T06:39:22Z</time>
      </trkpt>
      <trkpt lat="49.08532" lon="1.59032">
        <ele>24.2</ele>
        <time>2021-09-19T06:39:30Z</time>
      </trkpt>
      <trkpt lat="49.08542" lon="1.59048">
        <ele>24.2</ele>
        <time>2021-09-19T06:39:33Z</time>
      </trkpt>
      <trkpt lat="49.08552" lon="1.59054">
        <ele>24.2</ele>
        <time>2021-09-19T06:39:35Z</time>
      </trkpt>
      <trkpt lat="49.08556" lon="1.59057">
        <ele>24.2</ele>
        <time>2021-09-19T06:39:36Z</time>
      </trkpt>
      <trkpt lat="49.0856" lon="1.59062">
        <ele>24.2</ele>
        <time>2021-09-19T06:39:37Z</time>
      </trkpt>
      <trkpt lat="49.0858" lon="1.59099">
        <ele>24.4</ele>
        <time>2021-09-19T06:39:43Z</time>
      </trkpt>
      <trkpt lat="49.08607" lon="1.59157">
        <ele>24.6</ele>
        <time>2021-09-19T06:39:51Z</time>
      </trkpt>
      <trkpt lat="49.08629" lon="1.59209">
        <ele>24.6</ele>
        <time>2021-09-19T06:39:58Z</time>
      </trkpt>
      <trkpt lat="49.08657" lon="1.59276">
        <ele>24.4</ele>
        <time>2021-09-19T06:40:07Z</time>
      </trkpt>
      <trkpt lat="49.08686" lon="1.59346">
        <ele>24.2</ele>
        <time>2021-09-19T06:40:16Z</time>
      </trkpt>
      <trkpt lat="49.08692" lon="1.59361">
        <ele>24.2</ele>
        <time>2021-09-19T06:40:18Z</time>
      </trkpt>
      <trkpt lat="49.08704" lon="1.59388">
        <ele>24.2</ele>
        <time>2021-09-19T06:40:22Z</time>
      </trkpt>
      <trkpt lat="49.08711" lon="1.59395">
        <ele>24.2</ele>
        <time>2021-09-19T06:40:24Z</time>
      </trkpt>
      <trkpt lat="49.08719" lon="1.5939">
        <ele>24.2</ele>
        <time>2021-09-19T06:40:27Z</time>
      </trkpt>
      <trkpt lat="49.08726" lon="1.59387">
        <ele>24.4</ele>
        <time>2021-09-19T06:40:32Z</time>
      </trkpt>
      <trkpt lat="49.08729" lon="1.59385">
        <ele>24.6</ele>
        <time>2021-09-19T06:40:35Z</time>
      </trkpt>
      <trkpt lat="49.08729" lon="1.59383">
        <ele>24.8</ele>
        <time>2021-09-19T06:40:36Z</time>
      </trkpt>
      <trkpt lat="49.08728" lon="1.59382">
        <ele>25</ele>
        <time>2021-09-19T06:40:37Z</time>
      </trkpt>
      <trkpt lat="49.08719" lon="1.59388">
        <ele>25.2</ele>
        <time>2021-09-19T06:40:40Z</time>
      </trkpt>
      <trkpt lat="49.08713" lon="1.5941">
        <ele>25.2</ele>
        <time>2021-09-19T06:40:44Z</time>
      </trkpt>
      <trkpt lat="49.08718" lon="1.59425">
        <ele>25.2</ele>
        <time>2021-09-19T06:40:46Z</time>
      </trkpt>
      <trkpt lat="49.08724" lon="1.5944">
        <ele>25</ele>
        <time>2021-09-19T06:40:48Z</time>
      </trkpt>
      <trkpt lat="49.08753" lon="1.59511">
        <ele>24.4</ele>
        <time>2021-09-19T06:40:57Z</time>
      </trkpt>
      <trkpt lat="49.08756" lon="1.59519">
        <ele>24.4</ele>
        <time>2021-09-19T06:40:58Z</time>
      </trkpt>
      <trkpt lat="49.08786" lon="1.59592">
        <ele>24.6</ele>
        <time>2021-09-19T06:41:08Z</time>
      </trkpt>
      <trkpt lat="49.08789" lon="1.596">
        <ele>24.6</ele>
        <time>2021-09-19T06:41:09Z</time>
      </trkpt>
      <trkpt lat="49.08807" lon="1.59641">
        <ele>24.8</ele>
        <time>2021-09-19T06:41:15Z</time>
      </trkpt>
      <trkpt lat="49.0881" lon="1.59646">
        <ele>25</ele>
        <time>2021-09-19T06:41:16Z</time>
      </trkpt>
      <trkpt lat="49.08813" lon="1.59651">
        <ele>25</ele>
        <time>2021-09-19T06:41:17Z</time>
      </trkpt>
      <trkpt lat="49.08814" lon="1.59662">
        <ele>25</ele>
        <time>2021-09-19T06:41:19Z</time>
      </trkpt>
      <trkpt lat="49.08809" lon="1.59669">
        <ele>25.2</ele>
        <time>2021-09-19T06:41:22Z</time>
      </trkpt>
      <trkpt lat="49.08807" lon="1.59671">
        <ele>25.2</ele>
        <time>2021-09-19T06:41:23Z</time>
      </trkpt>
      <trkpt lat="49.08795" lon="1.59688">
        <ele>25.2</ele>
        <time>2021-09-19T06:41:29Z</time>
      </trkpt>
      <trkpt lat="49.08781" lon="1.59706">
        <ele>25</ele>
        <time>2021-09-19T06:41:34Z</time>
      </trkpt>
      <trkpt lat="49.08777" lon="1.5971">
        <ele>25</ele>
        <time>2021-09-19T06:41:35Z</time>
      </trkpt>
      <trkpt lat="49.08763" lon="1.59728">
        <ele>24.8</ele>
        <time>2021-09-19T06:41:39Z</time>
      </trkpt>
      <trkpt lat="49.08755" lon="1.59736">
        <ele>24.6</ele>
        <time>2021-09-19T06:41:41Z</time>
      </trkpt>
      <trkpt lat="49.08727" lon="1.59773">
        <ele>24.2</ele>
        <time>2021-09-19T06:41:48Z</time>
      </trkpt>
      <trkpt lat="49.08723" lon="1.59779">
        <ele>24</ele>
        <time>2021-09-19T06:41:49Z</time>
      </trkpt>
      <trkpt lat="49.08716" lon="1.59799">
        <ele>23.8</ele>
        <time>2021-09-19T06:41:52Z</time>
      </trkpt>
      <trkpt lat="49.08713" lon="1.59806">
        <ele>23.8</ele>
        <time>2021-09-19T06:41:53Z</time>
      </trkpt>
      <trkpt lat="49.08702" lon="1.59823">
        <ele>23.6</ele>
        <time>2021-09-19T06:41:56Z</time>
      </trkpt>
      <trkpt lat="49.08693" lon="1.59832">
        <ele>23.6</ele>
        <time>2021-09-19T06:41:58Z</time>
      </trkpt>
      <trkpt lat="49.0868" lon="1.59844">
        <ele>23.4</ele>
        <time>2021-09-19T06:42:01Z</time>
      </trkpt>
      <trkpt lat="49.08673" lon="1.59853">
        <ele>23.2</ele>
        <time>2021-09-19T06:42:04Z</time>
      </trkpt>
      <trkpt lat="49.08671" lon="1.59854">
        <ele>23.2</ele>
        <time>2021-09-19T06:42:05Z</time>
      </trkpt>
      <trkpt lat="49.08667" lon="1.59853">
        <ele>23.2</ele>
        <time>2021-09-19T06:42:08Z</time>
      </trkpt>
      <trkpt lat="49.08668" lon="1.59851">
        <ele>23</ele>
        <time>2021-09-19T06:42:11Z</time>
      </trkpt>
      <trkpt lat="49.08668" lon="1.59849">
        <ele>23</ele>
        <time>2021-09-19T06:42:12Z</time>
      </trkpt>
      <trkpt lat="49.08664" lon="1.59849">
        <ele>23</ele>
        <time>2021-09-19T06:42:15Z</time>
      </trkpt>
      <trkpt lat="49.08649" lon="1.59858">
        <ele>23</ele>
        <time>2021-09-19T06:42:20Z</time>
      </trkpt>
      <trkpt lat="49.08645" lon="1.59861">
        <ele>23</ele>
        <time>2021-09-19T06:42:21Z</time>
      </trkpt>
      <trkpt lat="49.08627" lon="1.59875">
        <ele>22.8</ele>
        <time>2021-09-19T06:42:25Z</time>
      </trkpt>
      <trkpt lat="49.08619" lon="1.59882">
        <ele>22.8</ele>
        <time>2021-09-19T06:42:27Z</time>
      </trkpt>
      <trkpt lat="49.08615" lon="1.59894">
        <ele>22.8</ele>
        <time>2021-09-19T06:42:29Z</time>
      </trkpt>
      <trkpt lat="49.08619" lon="1.59914">
        <ele>22.2</ele>
        <time>2021-09-19T06:42:32Z</time>
      </trkpt>
      <trkpt lat="49.08622" lon="1.59921">
        <ele>22.2</ele>
        <time>2021-09-19T06:42:33Z</time>
      </trkpt>
      <trkpt lat="49.08636" lon="1.59956">
        <ele>22</ele>
        <time>2021-09-19T06:42:38Z</time>
      </trkpt>
      <trkpt lat="49.08648" lon="1.59994">
        <ele>22</ele>
        <time>2021-09-19T06:42:43Z</time>
      </trkpt>
      <trkpt lat="49.08652" lon="1.60009">
        <ele>22</ele>
        <time>2021-09-19T06:42:45Z</time>
      </trkpt>
      <trkpt lat="49.08659" lon="1.60031">
        <ele>22</ele>
        <time>2021-09-19T06:42:48Z</time>
      </trkpt>
      <trkpt lat="49.0868" lon="1.60071">
        <ele>22</ele>
        <time>2021-09-19T06:42:54Z</time>
      </trkpt>
      <trkpt lat="49.08711" lon="1.60141">
        <ele>22</ele>
        <time>2021-09-19T06:43:04Z</time>
      </trkpt>
      <trkpt lat="49.08722" lon="1.60171">
        <ele>22.2</ele>
        <time>2021-09-19T06:43:08Z</time>
      </trkpt>
      <trkpt lat="49.08724" lon="1.60179">
        <ele>22.2</ele>
        <time>2021-09-19T06:43:09Z</time>
      </trkpt>
      <trkpt lat="49.0873" lon="1.60201">
        <ele>22.2</ele>
        <time>2021-09-19T06:43:12Z</time>
      </trkpt>
      <trkpt lat="49.08732" lon="1.60208">
        <ele>22.2</ele>
        <time>2021-09-19T06:43:13Z</time>
      </trkpt>
      <trkpt lat="49.08753" lon="1.60258">
        <ele>22.2</ele>
        <time>2021-09-19T06:43:20Z</time>
      </trkpt>
      <trkpt lat="49.08773" lon="1.60309">
        <ele>22</ele>
        <time>2021-09-19T06:43:27Z</time>
      </trkpt>
      <trkpt lat="49.08775" lon="1.60317">
        <ele>22.2</ele>
        <time>2021-09-19T06:43:28Z</time>
      </trkpt>
      <trkpt lat="49.08786" lon="1.60362">
        <ele>22.2</ele>
        <time>2021-09-19T06:43:34Z</time>
      </trkpt>
      <trkpt lat="49.0879" lon="1.60377">
        <ele>22.2</ele>
        <time>2021-09-19T06:43:36Z</time>
      </trkpt>
      <trkpt lat="49.08797" lon="1.60399">
        <ele>22.2</ele>
        <time>2021-09-19T06:43:39Z</time>
      </trkpt>
      <trkpt lat="49.08799" lon="1.60407">
        <ele>22.2</ele>
        <time>2021-09-19T06:43:40Z</time>
      </trkpt>
      <trkpt lat="49.0881" lon="1.60437">
        <ele>22.8</ele>
        <time>2021-09-19T06:43:44Z</time>
      </trkpt>
      <trkpt lat="49.08833" lon="1.60495">
        <ele>22.8</ele>
        <time>2021-09-19T06:43:52Z</time>
      </trkpt>
      <trkpt lat="49.08846" lon="1.60523">
        <ele>23</ele>
        <time>2021-09-19T06:43:56Z</time>
      </trkpt>
      <trkpt lat="49.0885" lon="1.60539">
        <ele>23</ele>
        <time>2021-09-19T06:43:58Z</time>
      </trkpt>
      <trkpt lat="49.08857" lon="1.60572">
        <ele>22.8</ele>
        <time>2021-09-19T06:44:02Z</time>
      </trkpt>
      <trkpt lat="49.08863" lon="1.60595">
        <ele>22.8</ele>
        <time>2021-09-19T06:44:05Z</time>
      </trkpt>
      <trkpt lat="49.0887" lon="1.60602">
        <ele>22.6</ele>
        <time>2021-09-19T06:44:07Z</time>
      </trkpt>
      <trkpt lat="49.0888" lon="1.60597">
        <ele>22.6</ele>
        <time>2021-09-19T06:44:10Z</time>
      </trkpt>
      <trkpt lat="49.08882" lon="1.60595">
        <ele>22.6</ele>
        <time>2021-09-19T06:44:11Z</time>
      </trkpt>
      <trkpt lat="49.08899" lon="1.60585">
        <ele>22.8</ele>
        <time>2021-09-19T06:44:17Z</time>
      </trkpt>
      <trkpt lat="49.08903" lon="1.60599">
        <ele>23.2</ele>
        <time>2021-09-19T06:44:20Z</time>
      </trkpt>
      <trkpt lat="49.08904" lon="1.60626">
        <ele>23.6</ele>
        <time>2021-09-19T06:44:24Z</time>
      </trkpt>
      <trkpt lat="49.08905" lon="1.60633">
        <ele>23.8</ele>
        <time>2021-09-19T06:44:25Z</time>
      </trkpt>
      <trkpt lat="49.08906" lon="1.60646">
        <ele>23.8</ele>
        <time>2021-09-19T06:44:27Z</time>
      </trkpt>
      <trkpt lat="49.08911" lon="1.60657">
        <ele>23.8</ele>
        <time>2021-09-19T06:44:29Z</time>
      </trkpt>
      <trkpt lat="49.08919" lon="1.60664">
        <ele>23.8</ele>
        <time>2021-09-19T06:44:31Z</time>
      </trkpt>
      <trkpt lat="49.08922" lon="1.60668">
        <ele>23.8</ele>
        <time>2021-09-19T06:44:32Z</time>
      </trkpt>
      <trkpt lat="49.08924" lon="1.60673">
        <ele>23.8</ele>
        <time>2021-09-19T06:44:33Z</time>
      </trkpt>
      <trkpt lat="49.08924" lon="1.60694">
        <ele>23.8</ele>
        <time>2021-09-19T06:44:36Z</time>
      </trkpt>
      <trkpt lat="49.08911" lon="1.60718">
        <ele>23.4</ele>
        <time>2021-09-19T06:44:40Z</time>
      </trkpt>
      <trkpt lat="49.08882" lon="1.60748">
        <ele>22.8</ele>
        <time>2021-09-19T06:44:46Z</time>
      </trkpt>
      <trkpt lat="49.08851" lon="1.60769">
        <ele>22.2</ele>
        <time>2021-09-19T06:44:51Z</time>
      </trkpt>
      <trkpt lat="49.08833" lon="1.60781">
        <ele>22</ele>
        <time>2021-09-19T06:44:54Z</time>
      </trkpt>
      <trkpt lat="49.0879" lon="1.6082">
        <ele>21.8</ele>
        <time>2021-09-19T06:45:02Z</time>
      </trkpt>
      <trkpt lat="49.08748" lon="1.60859">
        <ele>21.8</ele>
        <time>2021-09-19T06:45:09Z</time>
      </trkpt>
      <trkpt lat="49.08701" lon="1.60908">
        <ele>21.6</ele>
        <time>2021-09-19T06:45:17Z</time>
      </trkpt>
      <trkpt lat="49.08685" lon="1.6093">
        <ele>21.2</ele>
        <time>2021-09-19T06:45:20Z</time>
      </trkpt>
      <trkpt lat="49.08657" lon="1.60972">
        <ele>21</ele>
        <time>2021-09-19T06:45:26Z</time>
      </trkpt>
      <trkpt lat="49.08652" lon="1.60979">
        <ele>21</ele>
        <time>2021-09-19T06:45:27Z</time>
      </trkpt>
      <trkpt lat="49.08637" lon="1.60993">
        <ele>21</ele>
        <time>2021-09-19T06:45:30Z</time>
      </trkpt>
      <trkpt lat="49.08605" lon="1.61021">
        <ele>21.6</ele>
        <time>2021-09-19T06:45:36Z</time>
      </trkpt>
      <trkpt lat="49.0857" lon="1.61053">
        <ele>21.8</ele>
        <time>2021-09-19T06:45:42Z</time>
      </trkpt>
      <trkpt lat="49.08535" lon="1.61088">
        <ele>21.8</ele>
        <time>2021-09-19T06:45:47Z</time>
      </trkpt>
      <trkpt lat="49.08504" lon="1.61118">
        <ele>21.2</ele>
        <time>2021-09-19T06:45:52Z</time>
      </trkpt>
      <trkpt lat="49.08463" lon="1.61154">
        <ele>21</ele>
        <time>2021-09-19T06:45:59Z</time>
      </trkpt>
      <trkpt lat="49.08432" lon="1.61185">
        <ele>21</ele>
        <time>2021-09-19T06:46:05Z</time>
      </trkpt>
      <trkpt lat="49.08407" lon="1.61209">
        <ele>21.6</ele>
        <time>2021-09-19T06:46:11Z</time>
      </trkpt>
      <trkpt lat="49.08402" lon="1.61216">
        <ele>22.2</ele>
        <time>2021-09-19T06:46:15Z</time>
      </trkpt>
      <trkpt lat="49.08402" lon="1.61216">
        <ele>22.4</ele>
        <time>2021-09-19T06:46:16Z</time>
      </trkpt>
      <trkpt lat="49.08401" lon="1.61219">
        <ele>23.2</ele>
        <time>2021-09-19T06:46:20Z</time>
      </trkpt>
      <trkpt lat="49.084" lon="1.61219">
        <ele>23.4</ele>
        <time>2021-09-19T06:46:21Z</time>
      </trkpt>
      <trkpt lat="49.084" lon="1.6122">
        <ele>24.4</ele>
        <time>2021-09-19T06:46:23Z</time>
      </trkpt>
      <trkpt lat="49.084" lon="1.61222">
        <ele>24.8</ele>
        <time>2021-09-19T06:46:25Z</time>
      </trkpt>
      <trkpt lat="49.08399" lon="1.61223">
        <ele>25.2</ele>
        <time>2021-09-19T06:46:28Z</time>
      </trkpt>
      <trkpt lat="49.08398" lon="1.61227">
        <ele>25.6</ele>
        <time>2021-09-19T06:46:32Z</time>
      </trkpt>
      <trkpt lat="49.08397" lon="1.61229">
        <ele>25.6</ele>
        <time>2021-09-19T06:46:33Z</time>
      </trkpt>
      <trkpt lat="49.0839" lon="1.61242">
        <ele>26.6</ele>
        <time>2021-09-19T06:46:38Z</time>
      </trkpt>
      <trkpt lat="49.08388" lon="1.61246">
        <ele>26.6</ele>
        <time>2021-09-19T06:46:40Z</time>
      </trkpt>
      <trkpt lat="49.08383" lon="1.61253">
        <ele>27</ele>
        <time>2021-09-19T06:46:46Z</time>
      </trkpt>
      <trkpt lat="49.0838" lon="1.61258">
        <ele>27.8</ele>
        <time>2021-09-19T06:46:49Z</time>
      </trkpt>
      <trkpt lat="49.08379" lon="1.61262">
        <ele>28.6</ele>
        <time>2021-09-19T06:46:51Z</time>
      </trkpt>
      <trkpt lat="49.08378" lon="1.61264">
        <ele>28.8</ele>
        <time>2021-09-19T06:46:52Z</time>
      </trkpt>
      <trkpt lat="49.08378" lon="1.61265">
        <ele>29</ele>
        <time>2021-09-19T06:46:53Z</time>
      </trkpt>
      <trkpt lat="49.08375" lon="1.61271">
        <ele>30.2</ele>
        <time>2021-09-19T06:46:57Z</time>
      </trkpt>
      <trkpt lat="49.08372" lon="1.61276">
        <ele>30.8</ele>
        <time>2021-09-19T06:47:00Z</time>
      </trkpt>
      <trkpt lat="49.0837" lon="1.61279">
        <ele>31.2</ele>
        <time>2021-09-19T06:47:02Z</time>
      </trkpt>
      <trkpt lat="49.08366" lon="1.61285">
        <ele>32.4</ele>
        <time>2021-09-19T06:47:07Z</time>
      </trkpt>
      <trkpt lat="49.08365" lon="1.61286">
        <ele>32.8</ele>
        <time>2021-09-19T06:47:08Z</time>
      </trkpt>
      <trkpt lat="49.08362" lon="1.61289">
        <ele>33.6</ele>
        <time>2021-09-19T06:47:11Z</time>
      </trkpt>
      <trkpt lat="49.08361" lon="1.61294">
        <ele>34.4</ele>
        <time>2021-09-19T06:47:14Z</time>
      </trkpt>
      <trkpt lat="49.0836" lon="1.61295">
        <ele>34.8</ele>
        <time>2021-09-19T06:47:15Z</time>
      </trkpt>
      <trkpt lat="49.08358" lon="1.613">
        <ele>36</ele>
        <time>2021-09-19T06:47:19Z</time>
      </trkpt>
      <trkpt lat="49.08356" lon="1.61304">
        <ele>36.6</ele>
        <time>2021-09-19T06:47:22Z</time>
      </trkpt>
      <trkpt lat="49.08354" lon="1.61306">
        <ele>37</ele>
        <time>2021-09-19T06:47:24Z</time>
      </trkpt>
      <trkpt lat="49.08352" lon="1.61311">
        <ele>38</ele>
        <time>2021-09-19T06:47:28Z</time>
      </trkpt>
      <trkpt lat="49.08349" lon="1.61314">
        <ele>39</ele>
        <time>2021-09-19T06:47:31Z</time>
      </trkpt>
      <trkpt lat="49.08348" lon="1.61315">
        <ele>39.4</ele>
        <time>2021-09-19T06:47:32Z</time>
      </trkpt>
      <trkpt lat="49.08346" lon="1.61317">
        <ele>40.2</ele>
        <time>2021-09-19T06:47:34Z</time>
      </trkpt>
      <trkpt lat="49.08344" lon="1.61321">
        <ele>41.2</ele>
        <time>2021-09-19T06:47:37Z</time>
      </trkpt>
      <trkpt lat="49.08341" lon="1.61326">
        <ele>42.2</ele>
        <time>2021-09-19T06:47:40Z</time>
      </trkpt>
      <trkpt lat="49.0834" lon="1.61329">
        <ele>42.8</ele>
        <time>2021-09-19T06:47:42Z</time>
      </trkpt>
      <trkpt lat="49.08338" lon="1.61332">
        <ele>43.4</ele>
        <time>2021-09-19T06:47:44Z</time>
      </trkpt>
      <trkpt lat="49.08335" lon="1.61338">
        <ele>44.8</ele>
        <time>2021-09-19T06:47:47Z</time>
      </trkpt>
      <trkpt lat="49.08332" lon="1.61342">
        <ele>45.4</ele>
        <time>2021-09-19T06:47:49Z</time>
      </trkpt>
      <trkpt lat="49.08331" lon="1.61344">
        <ele>45.8</ele>
        <time>2021-09-19T06:47:50Z</time>
      </trkpt>
      <trkpt lat="49.08328" lon="1.61348">
        <ele>47.2</ele>
        <time>2021-09-19T06:47:53Z</time>
      </trkpt>
      <trkpt lat="49.08327" lon="1.6135">
        <ele>47.4</ele>
        <time>2021-09-19T06:47:54Z</time>
      </trkpt>
      <trkpt lat="49.08325" lon="1.61357">
        <ele>48.4</ele>
        <time>2021-09-19T06:47:58Z</time>
      </trkpt>
      <trkpt lat="49.08324" lon="1.61359">
        <ele>48.6</ele>
        <time>2021-09-19T06:47:59Z</time>
      </trkpt>
      <trkpt lat="49.08322" lon="1.61362">
        <ele>49.2</ele>
        <time>2021-09-19T06:48:01Z</time>
      </trkpt>
      <trkpt lat="49.08321" lon="1.61364">
        <ele>49.4</ele>
        <time>2021-09-19T06:48:02Z</time>
      </trkpt>
      <trkpt lat="49.08317" lon="1.61371">
        <ele>50.4</ele>
        <time>2021-09-19T06:48:07Z</time>
      </trkpt>
      <trkpt lat="49.08315" lon="1.61374">
        <ele>50.8</ele>
        <time>2021-09-19T06:48:09Z</time>
      </trkpt>
      <trkpt lat="49.0831" lon="1.61382">
        <ele>51.4</ele>
        <time>2021-09-19T06:48:13Z</time>
      </trkpt>
      <trkpt lat="49.08305" lon="1.61389">
        <ele>52.6</ele>
        <time>2021-09-19T06:48:17Z</time>
      </trkpt>
      <trkpt lat="49.08303" lon="1.61391">
        <ele>52.8</ele>
        <time>2021-09-19T06:48:18Z</time>
      </trkpt>
      <trkpt lat="49.08298" lon="1.61398">
        <ele>53.6</ele>
        <time>2021-09-19T06:48:22Z</time>
      </trkpt>
      <trkpt lat="49.08289" lon="1.61409">
        <ele>54.8</ele>
        <time>2021-09-19T06:48:28Z</time>
      </trkpt>
      <trkpt lat="49.08286" lon="1.61413">
        <ele>55</ele>
        <time>2021-09-19T06:48:30Z</time>
      </trkpt>
      <trkpt lat="49.0828" lon="1.61422">
        <ele>56</ele>
        <time>2021-09-19T06:48:35Z</time>
      </trkpt>
      <trkpt lat="49.08273" lon="1.61429">
        <ele>56.8</ele>
        <time>2021-09-19T06:48:40Z</time>
      </trkpt>
      <trkpt lat="49.08271" lon="1.61431">
        <ele>57</ele>
        <time>2021-09-19T06:48:41Z</time>
      </trkpt>
      <trkpt lat="49.08264" lon="1.6144">
        <ele>58.2</ele>
        <time>2021-09-19T06:48:46Z</time>
      </trkpt>
      <trkpt lat="49.0826" lon="1.61445">
        <ele>58.6</ele>
        <time>2021-09-19T06:48:49Z</time>
      </trkpt>
      <trkpt lat="49.08255" lon="1.61451">
        <ele>59.2</ele>
        <time>2021-09-19T06:48:53Z</time>
      </trkpt>
      <trkpt lat="49.08246" lon="1.61461">
        <ele>60.4</ele>
        <time>2021-09-19T06:48:59Z</time>
      </trkpt>
      <trkpt lat="49.08239" lon="1.61469">
        <ele>61.4</ele>
        <time>2021-09-19T06:49:04Z</time>
      </trkpt>
      <trkpt lat="49.08234" lon="1.61476">
        <ele>62</ele>
        <time>2021-09-19T06:49:08Z</time>
      </trkpt>
      <trkpt lat="49.08231" lon="1.61479">
        <ele>62.4</ele>
        <time>2021-09-19T06:49:10Z</time>
      </trkpt>
      <trkpt lat="49.08223" lon="1.6149">
        <ele>63.6</ele>
        <time>2021-09-19T06:49:16Z</time>
      </trkpt>
      <trkpt lat="49.08218" lon="1.61495">
        <ele>64.2</ele>
        <time>2021-09-19T06:49:19Z</time>
      </trkpt>
      <trkpt lat="49.08214" lon="1.615">
        <ele>64.8</ele>
        <time>2021-09-19T06:49:22Z</time>
      </trkpt>
      <trkpt lat="49.08205" lon="1.61513">
        <ele>65.8</ele>
        <time>2021-09-19T06:49:29Z</time>
      </trkpt>
      <trkpt lat="49.08204" lon="1.61515">
        <ele>66</ele>
        <time>2021-09-19T06:49:30Z</time>
      </trkpt>
      <trkpt lat="49.08202" lon="1.61519">
        <ele>66.4</ele>
        <time>2021-09-19T06:49:32Z</time>
      </trkpt>
      <trkpt lat="49.08203" lon="1.61524">
        <ele>66.6</ele>
        <time>2021-09-19T06:49:34Z</time>
      </trkpt>
      <trkpt lat="49.08207" lon="1.6153">
        <ele>67</ele>
        <time>2021-09-19T06:49:36Z</time>
      </trkpt>
      <trkpt lat="49.08217" lon="1.61544">
        <ele>68</ele>
        <time>2021-09-19T06:49:41Z</time>
      </trkpt>
      <trkpt lat="49.08219" lon="1.61548">
        <ele>68.2</ele>
        <time>2021-09-19T06:49:42Z</time>
      </trkpt>
      <trkpt lat="49.08233" lon="1.61573">
        <ele>68.4</ele>
        <time>2021-09-19T06:49:49Z</time>
      </trkpt>
      <trkpt lat="49.08243" lon="1.61593">
        <ele>68.8</ele>
        <time>2021-09-19T06:49:54Z</time>
      </trkpt>
      <trkpt lat="49.08246" lon="1.616">
        <ele>69</ele>
        <time>2021-09-19T06:49:58Z</time>
      </trkpt>
      <trkpt lat="49.08247" lon="1.61601">
        <ele>70.2</ele>
        <time>2021-09-19T06:51:07Z</time>
      </trkpt>
      <trkpt lat="49.08249" lon="1.61605">
        <ele>70.2</ele>
        <time>2021-09-19T06:51:09Z</time>
      </trkpt>
      <trkpt lat="49.08259" lon="1.61624">
        <ele>70.2</ele>
        <time>2021-09-19T06:51:13Z</time>
      </trkpt>
      <trkpt lat="49.08278" lon="1.61664">
        <ele>69.6</ele>
        <time>2021-09-19T06:51:20Z</time>
      </trkpt>
      <trkpt lat="49.08281" lon="1.6167">
        <ele>69.2</ele>
        <time>2021-09-19T06:51:21Z</time>
      </trkpt>
      <trkpt lat="49.083" lon="1.6171">
        <ele>68.4</ele>
        <time>2021-09-19T06:51:27Z</time>
      </trkpt>
      <trkpt lat="49.08326" lon="1.6176">
        <ele>68.2</ele>
        <time>2021-09-19T06:51:35Z</time>
      </trkpt>
      <trkpt lat="49.08329" lon="1.61766">
        <ele>68.2</ele>
        <time>2021-09-19T06:51:36Z</time>
      </trkpt>
      <trkpt lat="49.08357" lon="1.61818">
        <ele>68.4</ele>
        <time>2021-09-19T06:51:45Z</time>
      </trkpt>
      <trkpt lat="49.08375" lon="1.61857">
        <ele>69.4</ele>
        <time>2021-09-19T06:51:52Z</time>
      </trkpt>
      <trkpt lat="49.08381" lon="1.61869">
        <ele>69.6</ele>
        <time>2021-09-19T06:51:54Z</time>
      </trkpt>
      <trkpt lat="49.08415" lon="1.61941">
        <ele>70.4</ele>
        <time>2021-09-19T06:52:06Z</time>
      </trkpt>
      <trkpt lat="49.08418" lon="1.61947">
        <ele>70.4</ele>
        <time>2021-09-19T06:52:07Z</time>
      </trkpt>
      <trkpt lat="49.08448" lon="1.62012">
        <ele>69.6</ele>
        <time>2021-09-19T06:52:16Z</time>
      </trkpt>
      <trkpt lat="49.08465" lon="1.62045">
        <ele>68.4</ele>
        <time>2021-09-19T06:52:21Z</time>
      </trkpt>
      <trkpt lat="49.08474" lon="1.62065">
        <ele>67.8</ele>
        <time>2021-09-19T06:52:24Z</time>
      </trkpt>
      <trkpt lat="49.08494" lon="1.62106">
        <ele>67.6</ele>
        <time>2021-09-19T06:52:31Z</time>
      </trkpt>
      <trkpt lat="49.08512" lon="1.62145">
        <ele>68.4</ele>
        <time>2021-09-19T06:52:39Z</time>
      </trkpt>
      <trkpt lat="49.08517" lon="1.62168">
        <ele>69</ele>
        <time>2021-09-19T06:52:44Z</time>
      </trkpt>
      <trkpt lat="49.08516" lon="1.62175">
        <ele>69.6</ele>
        <time>2021-09-19T06:52:46Z</time>
      </trkpt>
      <trkpt lat="49.08514" lon="1.62188">
        <ele>70.8</ele>
        <time>2021-09-19T06:52:50Z</time>
      </trkpt>
      <trkpt lat="49.08513" lon="1.62201">
        <ele>71.8</ele>
        <time>2021-09-19T06:52:54Z</time>
      </trkpt>
      <trkpt lat="49.08513" lon="1.62209">
        <ele>73.2</ele>
        <time>2021-09-19T06:52:57Z</time>
      </trkpt>
      <trkpt lat="49.08514" lon="1.62211">
        <ele>73.4</ele>
        <time>2021-09-19T06:52:58Z</time>
      </trkpt>
      <trkpt lat="49.08519" lon="1.62219">
        <ele>74.2</ele>
        <time>2021-09-19T06:53:01Z</time>
      </trkpt>
      <trkpt lat="49.08523" lon="1.62225">
        <ele>74.8</ele>
        <time>2021-09-19T06:53:03Z</time>
      </trkpt>
      <trkpt lat="49.08527" lon="1.62232">
        <ele>75.4</ele>
        <time>2021-09-19T06:53:05Z</time>
      </trkpt>
      <trkpt lat="49.08538" lon="1.62248">
        <ele>75.6</ele>
        <time>2021-09-19T06:53:09Z</time>
      </trkpt>
      <trkpt lat="49.08557" lon="1.62277">
        <ele>75.8</ele>
        <time>2021-09-19T06:53:14Z</time>
      </trkpt>
      <trkpt lat="49.08585" lon="1.62318">
        <ele>75</ele>
        <time>2021-09-19T06:53:19Z</time>
      </trkpt>
      <trkpt lat="49.08595" lon="1.62334">
        <ele>74.2</ele>
        <time>2021-09-19T06:53:21Z</time>
      </trkpt>
      <trkpt lat="49.08603" lon="1.62345">
        <ele>73.2</ele>
        <time>2021-09-19T06:53:23Z</time>
      </trkpt>
      <trkpt lat="49.08606" lon="1.6235">
        <ele>72</ele>
        <time>2021-09-19T06:53:24Z</time>
      </trkpt>
      <trkpt lat="49.08612" lon="1.6236">
        <ele>71.6</ele>
        <time>2021-09-19T06:53:27Z</time>
      </trkpt>
      <trkpt lat="49.08621" lon="1.62373">
        <ele>71.6</ele>
        <time>2021-09-19T06:53:33Z</time>
      </trkpt>
      <trkpt lat="49.08625" lon="1.62379">
        <ele>73.4</ele>
        <time>2021-09-19T06:53:36Z</time>
      </trkpt>
      <trkpt lat="49.08629" lon="1.62384">
        <ele>74.8</ele>
        <time>2021-09-19T06:53:39Z</time>
      </trkpt>
      <trkpt lat="49.08631" lon="1.62388">
        <ele>75.4</ele>
        <time>2021-09-19T06:53:41Z</time>
      </trkpt>
      <trkpt lat="49.08634" lon="1.62392">
        <ele>76</ele>
        <time>2021-09-19T06:53:43Z</time>
      </trkpt>
      <trkpt lat="49.08639" lon="1.62399">
        <ele>77</ele>
        <time>2021-09-19T06:53:47Z</time>
      </trkpt>
      <trkpt lat="49.08644" lon="1.62406">
        <ele>78.2</ele>
        <time>2021-09-19T06:53:51Z</time>
      </trkpt>
      <trkpt lat="49.08646" lon="1.6241">
        <ele>79.2</ele>
        <time>2021-09-19T06:53:53Z</time>
      </trkpt>
      <trkpt lat="49.08651" lon="1.62417">
        <ele>80.2</ele>
        <time>2021-09-19T06:53:57Z</time>
      </trkpt>
      <trkpt lat="49.08654" lon="1.62421">
        <ele>80.8</ele>
        <time>2021-09-19T06:53:59Z</time>
      </trkpt>
      <trkpt lat="49.08657" lon="1.62426">
        <ele>81.4</ele>
        <time>2021-09-19T06:54:02Z</time>
      </trkpt>
      <trkpt lat="49.08665" lon="1.62436">
        <ele>82.6</ele>
        <time>2021-09-19T06:54:08Z</time>
      </trkpt>
      <trkpt lat="49.08672" lon="1.62447">
        <ele>83.6</ele>
        <time>2021-09-19T06:54:14Z</time>
      </trkpt>
      <trkpt lat="49.08676" lon="1.6245">
        <ele>84.4</ele>
        <time>2021-09-19T06:54:17Z</time>
      </trkpt>
      <trkpt lat="49.0868" lon="1.62451">
        <ele>84.8</ele>
        <time>2021-09-19T06:54:19Z</time>
      </trkpt>
      <trkpt lat="49.08688" lon="1.6245">
        <ele>85.6</ele>
        <time>2021-09-19T06:54:23Z</time>
      </trkpt>
      <trkpt lat="49.08691" lon="1.6245">
        <ele>85.8</ele>
        <time>2021-09-19T06:54:24Z</time>
      </trkpt>
      <trkpt lat="49.08707" lon="1.62446">
        <ele>86.4</ele>
        <time>2021-09-19T06:54:30Z</time>
      </trkpt>
      <trkpt lat="49.08732" lon="1.62449">
        <ele>86.4</ele>
        <time>2021-09-19T06:54:38Z</time>
      </trkpt>
      <trkpt lat="49.08753" lon="1.62462">
        <ele>86.4</ele>
        <time>2021-09-19T06:54:45Z</time>
      </trkpt>
      <trkpt lat="49.08777" lon="1.62488">
        <ele>86.8</ele>
        <time>2021-09-19T06:54:54Z</time>
      </trkpt>
      <trkpt lat="49.08779" lon="1.62492">
        <ele>86.8</ele>
        <time>2021-09-19T06:54:55Z</time>
      </trkpt>
      <trkpt lat="49.08797" lon="1.62516">
        <ele>87.6</ele>
        <time>2021-09-19T06:55:01Z</time>
      </trkpt>
      <trkpt lat="49.08817" lon="1.62538">
        <ele>87.8</ele>
        <time>2021-09-19T06:55:06Z</time>
      </trkpt>
      <trkpt lat="49.08828" lon="1.62546">
        <ele>87.8</ele>
        <time>2021-09-19T06:55:08Z</time>
      </trkpt>
      <trkpt lat="49.08841" lon="1.62551">
        <ele>87.8</ele>
        <time>2021-09-19T06:55:10Z</time>
      </trkpt>
      <trkpt lat="49.0888" lon="1.62559">
        <ele>86.4</ele>
        <time>2021-09-19T06:55:15Z</time>
      </trkpt>
      <trkpt lat="49.08888" lon="1.62562">
        <ele>84.8</ele>
        <time>2021-09-19T06:55:16Z</time>
      </trkpt>
      <trkpt lat="49.08897" lon="1.62566">
        <ele>84</ele>
        <time>2021-09-19T06:55:17Z</time>
      </trkpt>
      <trkpt lat="49.08905" lon="1.6257">
        <ele>83.2</ele>
        <time>2021-09-19T06:55:18Z</time>
      </trkpt>
      <trkpt lat="49.08922" lon="1.62581">
        <ele>81.8</ele>
        <time>2021-09-19T06:55:20Z</time>
      </trkpt>
      <trkpt lat="49.08931" lon="1.62587">
        <ele>80.8</ele>
        <time>2021-09-19T06:55:21Z</time>
      </trkpt>
      <trkpt lat="49.08947" lon="1.62599">
        <ele>79.4</ele>
        <time>2021-09-19T06:55:23Z</time>
      </trkpt>
      <trkpt lat="49.08963" lon="1.62609">
        <ele>77.8</ele>
        <time>2021-09-19T06:55:25Z</time>
      </trkpt>
      <trkpt lat="49.08979" lon="1.62615">
        <ele>76.2</ele>
        <time>2021-09-19T06:55:27Z</time>
      </trkpt>
      <trkpt lat="49.08995" lon="1.62619">
        <ele>74.4</ele>
        <time>2021-09-19T06:55:29Z</time>
      </trkpt>
      <trkpt lat="49.09003" lon="1.6262">
        <ele>73.2</ele>
        <time>2021-09-19T06:55:30Z</time>
      </trkpt>
      <trkpt lat="49.0901" lon="1.62624">
        <ele>72</ele>
        <time>2021-09-19T06:55:31Z</time>
      </trkpt>
      <trkpt lat="49.09016" lon="1.62628">
        <ele>71</ele>
        <time>2021-09-19T06:55:32Z</time>
      </trkpt>
      <trkpt lat="49.0902" lon="1.62635">
        <ele>70</ele>
        <time>2021-09-19T06:55:33Z</time>
      </trkpt>
      <trkpt lat="49.09025" lon="1.62652">
        <ele>68.4</ele>
        <time>2021-09-19T06:55:35Z</time>
      </trkpt>
      <trkpt lat="49.09026" lon="1.62673">
        <ele>66.4</ele>
        <time>2021-09-19T06:55:37Z</time>
      </trkpt>
      <trkpt lat="49.09026" lon="1.62683">
        <ele>65.4</ele>
        <time>2021-09-19T06:55:38Z</time>
      </trkpt>
      <trkpt lat="49.09026" lon="1.62692">
        <ele>64.4</ele>
        <time>2021-09-19T06:55:39Z</time>
      </trkpt>
      <trkpt lat="49.09026" lon="1.62702">
        <ele>63.2</ele>
        <time>2021-09-19T06:55:40Z</time>
      </trkpt>
      <trkpt lat="49.09026" lon="1.62721">
        <ele>61.6</ele>
        <time>2021-09-19T06:55:42Z</time>
      </trkpt>
      <trkpt lat="49.09026" lon="1.62742">
        <ele>59.6</ele>
        <time>2021-09-19T06:55:44Z</time>
      </trkpt>
      <trkpt lat="49.09027" lon="1.62752">
        <ele>59</ele>
        <time>2021-09-19T06:55:45Z</time>
      </trkpt>
      <trkpt lat="49.09028" lon="1.62763">
        <ele>58.6</ele>
        <time>2021-09-19T06:55:46Z</time>
      </trkpt>
      <trkpt lat="49.09034" lon="1.62784">
        <ele>57.4</ele>
        <time>2021-09-19T06:55:48Z</time>
      </trkpt>
      <trkpt lat="49.09045" lon="1.62802">
        <ele>56.2</ele>
        <time>2021-09-19T06:55:50Z</time>
      </trkpt>
      <trkpt lat="49.0905" lon="1.62809">
        <ele>55.6</ele>
        <time>2021-09-19T06:55:51Z</time>
      </trkpt>
      <trkpt lat="49.09054" lon="1.62813">
        <ele>55</ele>
        <time>2021-09-19T06:55:52Z</time>
      </trkpt>
      <trkpt lat="49.09056" lon="1.6282">
        <ele>53.6</ele>
        <time>2021-09-19T06:55:54Z</time>
      </trkpt>
      <trkpt lat="49.09054" lon="1.62826">
        <ele>52</ele>
        <time>2021-09-19T06:55:56Z</time>
      </trkpt>
      <trkpt lat="49.09053" lon="1.62827">
        <ele>51</ele>
        <time>2021-09-19T06:55:57Z</time>
      </trkpt>
      <trkpt lat="49.09052" lon="1.62827">
        <ele>49.6</ele>
        <time>2021-09-19T06:55:58Z</time>
      </trkpt>
      <trkpt lat="49.09047" lon="1.62829">
        <ele>48.4</ele>
        <time>2021-09-19T06:56:00Z</time>
      </trkpt>
      <trkpt lat="49.09045" lon="1.62831">
        <ele>48.2</ele>
        <time>2021-09-19T06:56:01Z</time>
      </trkpt>
      <trkpt lat="49.09029" lon="1.62847">
        <ele>48</ele>
        <time>2021-09-19T06:56:07Z</time>
      </trkpt>
      <trkpt lat="49.09012" lon="1.62868">
        <ele>49.4</ele>
        <time>2021-09-19T06:56:15Z</time>
      </trkpt>
      <trkpt lat="49.0901" lon="1.6287">
        <ele>49.6</ele>
        <time>2021-09-19T06:56:16Z</time>
      </trkpt>
      <trkpt lat="49.09002" lon="1.62882">
        <ele>50.6</ele>
        <time>2021-09-19T06:56:20Z</time>
      </trkpt>
      <trkpt lat="49.08995" lon="1.62894">
        <ele>51.4</ele>
        <time>2021-09-19T06:56:24Z</time>
      </trkpt>
      <trkpt lat="49.08993" lon="1.62896">
        <ele>51.6</ele>
        <time>2021-09-19T06:56:25Z</time>
      </trkpt>
      <trkpt lat="49.08983" lon="1.6291">
        <ele>52.8</ele>
        <time>2021-09-19T06:56:30Z</time>
      </trkpt>
      <trkpt lat="49.08982" lon="1.62913">
        <ele>53.2</ele>
        <time>2021-09-19T06:56:31Z</time>
      </trkpt>
      <trkpt lat="49.08977" lon="1.62921">
        <ele>54</ele>
        <time>2021-09-19T06:56:34Z</time>
      </trkpt>
      <trkpt lat="49.0897" lon="1.62932">
        <ele>55</ele>
        <time>2021-09-19T06:56:38Z</time>
      </trkpt>
      <trkpt lat="49.08969" lon="1.62935">
        <ele>55.2</ele>
        <time>2021-09-19T06:56:39Z</time>
      </trkpt>
      <trkpt lat="49.08963" lon="1.62946">
        <ele>56.2</ele>
        <time>2021-09-19T06:56:43Z</time>
      </trkpt>
      <trkpt lat="49.08958" lon="1.62955">
        <ele>57.2</ele>
        <time>2021-09-19T06:56:47Z</time>
      </trkpt>
      <trkpt lat="49.08957" lon="1.62958">
        <ele>57.4</ele>
        <time>2021-09-19T06:56:48Z</time>
      </trkpt>
      <trkpt lat="49.08952" lon="1.62967">
        <ele>58.4</ele>
        <time>2021-09-19T06:56:52Z</time>
      </trkpt>
      <trkpt lat="49.08945" lon="1.62979">
        <ele>59.6</ele>
        <time>2021-09-19T06:56:57Z</time>
      </trkpt>
      <trkpt lat="49.08937" lon="1.62992">
        <ele>60.6</ele>
        <time>2021-09-19T06:57:03Z</time>
      </trkpt>
      <trkpt lat="49.08931" lon="1.63">
        <ele>61.6</ele>
        <time>2021-09-19T06:57:07Z</time>
      </trkpt>
      <trkpt lat="49.0893" lon="1.63002">
        <ele>62</ele>
        <time>2021-09-19T06:57:08Z</time>
      </trkpt>
      <trkpt lat="49.08923" lon="1.63012">
        <ele>63</ele>
        <time>2021-09-19T06:57:13Z</time>
      </trkpt>
      <trkpt lat="49.08921" lon="1.63014">
        <ele>63.2</ele>
        <time>2021-09-19T06:57:14Z</time>
      </trkpt>
      <trkpt lat="49.08914" lon="1.63021">
        <ele>64</ele>
        <time>2021-09-19T06:57:18Z</time>
      </trkpt>
      <trkpt lat="49.08903" lon="1.63027">
        <ele>65</ele>
        <time>2021-09-19T06:57:24Z</time>
      </trkpt>
      <trkpt lat="49.08901" lon="1.63027">
        <ele>65.2</ele>
        <time>2021-09-19T06:57:25Z</time>
      </trkpt>
      <trkpt lat="49.08891" lon="1.63025">
        <ele>66.2</ele>
        <time>2021-09-19T06:57:30Z</time>
      </trkpt>
      <trkpt lat="49.08889" lon="1.63025">
        <ele>66.4</ele>
        <time>2021-09-19T06:57:31Z</time>
      </trkpt>
      <trkpt lat="49.08881" lon="1.63024">
        <ele>67.2</ele>
        <time>2021-09-19T06:57:35Z</time>
      </trkpt>
      <trkpt lat="49.0888" lon="1.63026">
        <ele>67.4</ele>
        <time>2021-09-19T06:57:36Z</time>
      </trkpt>
      <trkpt lat="49.0888" lon="1.63029">
        <ele>67.8</ele>
        <time>2021-09-19T06:57:37Z</time>
      </trkpt>
      <trkpt lat="49.08884" lon="1.63036">
        <ele>68.2</ele>
        <time>2021-09-19T06:57:40Z</time>
      </trkpt>
      <trkpt lat="49.08886" lon="1.63038">
        <ele>68.4</ele>
        <time>2021-09-19T06:57:41Z</time>
      </trkpt>
      <trkpt lat="49.08887" lon="1.6304">
        <ele>68.6</ele>
        <time>2021-09-19T06:57:42Z</time>
      </trkpt>
      <trkpt lat="49.08901" lon="1.63058">
        <ele>69.4</ele>
        <time>2021-09-19T06:57:50Z</time>
      </trkpt>
      <trkpt lat="49.08914" lon="1.63075">
        <ele>70.6</ele>
        <time>2021-09-19T06:57:58Z</time>
      </trkpt>
      <trkpt lat="49.08919" lon="1.63081">
        <ele>71</ele>
        <time>2021-09-19T06:58:01Z</time>
      </trkpt>
      <trkpt lat="49.08924" lon="1.63087">
        <ele>71.6</ele>
        <time>2021-09-19T06:58:05Z</time>
      </trkpt>
      <trkpt lat="49.0893" lon="1.63096">
        <ele>72.4</ele>
        <time>2021-09-19T06:58:10Z</time>
      </trkpt>
      <trkpt lat="49.08932" lon="1.63098">
        <ele>72.8</ele>
        <time>2021-09-19T06:58:11Z</time>
      </trkpt>
      <trkpt lat="49.08937" lon="1.63104">
        <ele>74</ele>
        <time>2021-09-19T06:58:15Z</time>
      </trkpt>
      <trkpt lat="49.08941" lon="1.63108">
        <ele>74.4</ele>
        <time>2021-09-19T06:58:18Z</time>
      </trkpt>
      <trkpt lat="49.08944" lon="1.63113">
        <ele>75</ele>
        <time>2021-09-19T06:58:21Z</time>
      </trkpt>
      <trkpt lat="49.08951" lon="1.63123">
        <ele>76.2</ele>
        <time>2021-09-19T06:58:27Z</time>
      </trkpt>
      <trkpt lat="49.08956" lon="1.6313">
        <ele>77.2</ele>
        <time>2021-09-19T06:58:32Z</time>
      </trkpt>
      <trkpt lat="49.08961" lon="1.63137">
        <ele>78.2</ele>
        <time>2021-09-19T06:58:36Z</time>
      </trkpt>
      <trkpt lat="49.08964" lon="1.6314">
        <ele>78.6</ele>
        <time>2021-09-19T06:58:38Z</time>
      </trkpt>
      <trkpt lat="49.08968" lon="1.63145">
        <ele>79.4</ele>
        <time>2021-09-19T06:58:41Z</time>
      </trkpt>
      <trkpt lat="49.08972" lon="1.63152">
        <ele>80.4</ele>
        <time>2021-09-19T06:58:45Z</time>
      </trkpt>
      <trkpt lat="49.08973" lon="1.63153">
        <ele>80.6</ele>
        <time>2021-09-19T06:58:46Z</time>
      </trkpt>
      <trkpt lat="49.08978" lon="1.6316">
        <ele>81.6</ele>
        <time>2021-09-19T06:58:50Z</time>
      </trkpt>
      <trkpt lat="49.08984" lon="1.63167">
        <ele>82.8</ele>
        <time>2021-09-19T06:58:55Z</time>
      </trkpt>
      <trkpt lat="49.08986" lon="1.63168">
        <ele>83</ele>
        <time>2021-09-19T06:58:56Z</time>
      </trkpt>
      <trkpt lat="49.08993" lon="1.63165">
        <ele>83.8</ele>
        <time>2021-09-19T06:59:00Z</time>
      </trkpt>
      <trkpt lat="49.08997" lon="1.63161">
        <ele>84.4</ele>
        <time>2021-09-19T06:59:02Z</time>
      </trkpt>
      <trkpt lat="49.09002" lon="1.63156">
        <ele>84.8</ele>
        <time>2021-09-19T06:59:04Z</time>
      </trkpt>
      <trkpt lat="49.09014" lon="1.63144">
        <ele>85.4</ele>
        <time>2021-09-19T06:59:08Z</time>
      </trkpt>
      <trkpt lat="49.09028" lon="1.63127">
        <ele>85.4</ele>
        <time>2021-09-19T06:59:12Z</time>
      </trkpt>
      <trkpt lat="49.09031" lon="1.63122">
        <ele>85.4</ele>
        <time>2021-09-19T06:59:13Z</time>
      </trkpt>
      <trkpt lat="49.09035" lon="1.63117">
        <ele>85.4</ele>
        <time>2021-09-19T06:59:14Z</time>
      </trkpt>
      <trkpt lat="49.0905" lon="1.63101">
        <ele>85</ele>
        <time>2021-09-19T06:59:18Z</time>
      </trkpt>
      <trkpt lat="49.09066" lon="1.63086">
        <ele>84.4</ele>
        <time>2021-09-19T06:59:22Z</time>
      </trkpt>
      <trkpt lat="49.09073" lon="1.63078">
        <ele>84</ele>
        <time>2021-09-19T06:59:24Z</time>
      </trkpt>
      <trkpt lat="49.09084" lon="1.63067">
        <ele>83.8</ele>
        <time>2021-09-19T06:59:27Z</time>
      </trkpt>
      <trkpt lat="49.09096" lon="1.63053">
        <ele>83.2</ele>
        <time>2021-09-19T06:59:30Z</time>
      </trkpt>
      <trkpt lat="49.09114" lon="1.63027">
        <ele>82.8</ele>
        <time>2021-09-19T06:59:34Z</time>
      </trkpt>
      <trkpt lat="49.09118" lon="1.63021">
        <ele>82.6</ele>
        <time>2021-09-19T06:59:35Z</time>
      </trkpt>
      <trkpt lat="49.09127" lon="1.63007">
        <ele>82.4</ele>
        <time>2021-09-19T06:59:37Z</time>
      </trkpt>
      <trkpt lat="49.09146" lon="1.62981">
        <ele>81.4</ele>
        <time>2021-09-19T06:59:41Z</time>
      </trkpt>
      <trkpt lat="49.09162" lon="1.62961">
        <ele>80.2</ele>
        <time>2021-09-19T06:59:44Z</time>
      </trkpt>
      <trkpt lat="49.09173" lon="1.62947">
        <ele>79.2</ele>
        <time>2021-09-19T06:59:46Z</time>
      </trkpt>
      <trkpt lat="49.09184" lon="1.62933">
        <ele>78.4</ele>
        <time>2021-09-19T06:59:48Z</time>
      </trkpt>
      <trkpt lat="49.09189" lon="1.62926">
        <ele>77.8</ele>
        <time>2021-09-19T06:59:49Z</time>
      </trkpt>
      <trkpt lat="49.09206" lon="1.62904">
        <ele>76.6</ele>
        <time>2021-09-19T06:59:52Z</time>
      </trkpt>
      <trkpt lat="49.09223" lon="1.62884">
        <ele>75.4</ele>
        <time>2021-09-19T06:59:55Z</time>
      </trkpt>
      <trkpt lat="49.09233" lon="1.62872">
        <ele>74.4</ele>
        <time>2021-09-19T06:59:57Z</time>
      </trkpt>
      <trkpt lat="49.09237" lon="1.62867">
        <ele>74.2</ele>
        <time>2021-09-19T06:59:58Z</time>
      </trkpt>
      <trkpt lat="49.09241" lon="1.62863">
        <ele>74</ele>
        <time>2021-09-19T06:59:59Z</time>
      </trkpt>
      <trkpt lat="49.09248" lon="1.6286">
        <ele>73.4</ele>
        <time>2021-09-19T07:00:01Z</time>
      </trkpt>
      <trkpt lat="49.09251" lon="1.62861">
        <ele>73.2</ele>
        <time>2021-09-19T07:00:02Z</time>
      </trkpt>
      <trkpt lat="49.09257" lon="1.62868">
        <ele>72.6</ele>
        <time>2021-09-19T07:00:05Z</time>
      </trkpt>
      <trkpt lat="49.09266" lon="1.62887">
        <ele>72.6</ele>
        <time>2021-09-19T07:00:12Z</time>
      </trkpt>
      <trkpt lat="49.09273" lon="1.62902">
        <ele>74.4</ele>
        <time>2021-09-19T07:00:19Z</time>
      </trkpt>
      <trkpt lat="49.09274" lon="1.62906">
        <ele>74.8</ele>
        <time>2021-09-19T07:00:21Z</time>
      </trkpt>
      <trkpt lat="49.09277" lon="1.62912">
        <ele>75.4</ele>
        <time>2021-09-19T07:00:24Z</time>
      </trkpt>
      <trkpt lat="49.09279" lon="1.62917">
        <ele>76.4</ele>
        <time>2021-09-19T07:00:27Z</time>
      </trkpt>
      <trkpt lat="49.09283" lon="1.62927">
        <ele>77.6</ele>
        <time>2021-09-19T07:00:32Z</time>
      </trkpt>
      <trkpt lat="49.09288" lon="1.62938">
        <ele>78.8</ele>
        <time>2021-09-19T07:00:38Z</time>
      </trkpt>
      <trkpt lat="49.09292" lon="1.62946">
        <ele>79.8</ele>
        <time>2021-09-19T07:00:42Z</time>
      </trkpt>
      <trkpt lat="49.09292" lon="1.62948">
        <ele>80</ele>
        <time>2021-09-19T07:00:43Z</time>
      </trkpt>
      <trkpt lat="49.09295" lon="1.62954">
        <ele>81</ele>
        <time>2021-09-19T07:00:47Z</time>
      </trkpt>
      <trkpt lat="49.09299" lon="1.62963">
        <ele>82</ele>
        <time>2021-09-19T07:00:52Z</time>
      </trkpt>
      <trkpt lat="49.09299" lon="1.62965">
        <ele>82.2</ele>
        <time>2021-09-19T07:00:53Z</time>
      </trkpt>
      <trkpt lat="49.09302" lon="1.6297">
        <ele>83.2</ele>
        <time>2021-09-19T07:00:56Z</time>
      </trkpt>
      <trkpt lat="49.09305" lon="1.62978">
        <ele>84.2</ele>
        <time>2021-09-19T07:01:00Z</time>
      </trkpt>
      <trkpt lat="49.09307" lon="1.62981">
        <ele>84.8</ele>
        <time>2021-09-19T07:01:02Z</time>
      </trkpt>
      <trkpt lat="49.09309" lon="1.62987">
        <ele>85.4</ele>
        <time>2021-09-19T07:01:05Z</time>
      </trkpt>
      <trkpt lat="49.09312" lon="1.62994">
        <ele>86.4</ele>
        <time>2021-09-19T07:01:09Z</time>
      </trkpt>
      <trkpt lat="49.09313" lon="1.62997">
        <ele>87</ele>
        <time>2021-09-19T07:01:11Z</time>
      </trkpt>
      <trkpt lat="49.09315" lon="1.63001">
        <ele>87.6</ele>
        <time>2021-09-19T07:01:13Z</time>
      </trkpt>
      <trkpt lat="49.09317" lon="1.63009">
        <ele>88.8</ele>
        <time>2021-09-19T07:01:17Z</time>
      </trkpt>
      <trkpt lat="49.09317" lon="1.63013">
        <ele>89.2</ele>
        <time>2021-09-19T07:01:19Z</time>
      </trkpt>
      <trkpt lat="49.09317" lon="1.63015">
        <ele>89.4</ele>
        <time>2021-09-19T07:01:20Z</time>
      </trkpt>
      <trkpt lat="49.09317" lon="1.63016">
        <ele>89.8</ele>
        <time>2021-09-19T07:01:21Z</time>
      </trkpt>
      <trkpt lat="49.09317" lon="1.63017">
        <ele>90.8</ele>
        <time>2021-09-19T07:01:23Z</time>
      </trkpt>
      <trkpt lat="49.09317" lon="1.6302">
        <ele>91.4</ele>
        <time>2021-09-19T07:01:25Z</time>
      </trkpt>
      <trkpt lat="49.09317" lon="1.63027">
        <ele>92.6</ele>
        <time>2021-09-19T07:01:28Z</time>
      </trkpt>
      <trkpt lat="49.09317" lon="1.6303">
        <ele>93</ele>
        <time>2021-09-19T07:01:29Z</time>
      </trkpt>
      <trkpt lat="49.09316" lon="1.63032">
        <ele>93.6</ele>
        <time>2021-09-19T07:01:30Z</time>
      </trkpt>
      <trkpt lat="49.09316" lon="1.63034">
        <ele>93.8</ele>
        <time>2021-09-19T07:01:31Z</time>
      </trkpt>
      <trkpt lat="49.09313" lon="1.63039">
        <ele>94.2</ele>
        <time>2021-09-19T07:01:34Z</time>
      </trkpt>
      <trkpt lat="49.09311" lon="1.63044">
        <ele>95</ele>
        <time>2021-09-19T07:01:37Z</time>
      </trkpt>
      <trkpt lat="49.09309" lon="1.63048">
        <ele>96.2</ele>
        <time>2021-09-19T07:01:40Z</time>
      </trkpt>
      <trkpt lat="49.09306" lon="1.63057">
        <ele>97.2</ele>
        <time>2021-09-19T07:01:45Z</time>
      </trkpt>
      <trkpt lat="49.09306" lon="1.63059">
        <ele>97.4</ele>
        <time>2021-09-19T07:01:46Z</time>
      </trkpt>
      <trkpt lat="49.09305" lon="1.63061">
        <ele>97.6</ele>
        <time>2021-09-19T07:01:47Z</time>
      </trkpt>
      <trkpt lat="49.09304" lon="1.63066">
        <ele>98.4</ele>
        <time>2021-09-19T07:01:51Z</time>
      </trkpt>
      <trkpt lat="49.09304" lon="1.63069">
        <ele>98.8</ele>
        <time>2021-09-19T07:01:53Z</time>
      </trkpt>
      <trkpt lat="49.09307" lon="1.63072">
        <ele>99.6</ele>
        <time>2021-09-19T07:01:56Z</time>
      </trkpt>
      <trkpt lat="49.09308" lon="1.63072">
        <ele>99.8</ele>
        <time>2021-09-19T07:01:57Z</time>
      </trkpt>
      <trkpt lat="49.09314" lon="1.63069">
        <ele>100.6</ele>
        <time>2021-09-19T07:02:00Z</time>
      </trkpt>
      <trkpt lat="49.09315" lon="1.63068">
        <ele>101.2</ele>
        <time>2021-09-19T07:02:03Z</time>
      </trkpt>
      <trkpt lat="49.09318" lon="1.63064">
        <ele>102.4</ele>
        <time>2021-09-19T07:02:13Z</time>
      </trkpt>
      <trkpt lat="49.09327" lon="1.63053">
        <ele>102.2</ele>
        <time>2021-09-19T07:02:16Z</time>
      </trkpt>
      <trkpt lat="49.09343" lon="1.63041">
        <ele>102</ele>
        <time>2021-09-19T07:02:20Z</time>
      </trkpt>
      <trkpt lat="49.09353" lon="1.63032">
        <ele>101.2</ele>
        <time>2021-09-19T07:02:23Z</time>
      </trkpt>
      <trkpt lat="49.09356" lon="1.63028">
        <ele>100.8</ele>
        <time>2021-09-19T07:02:24Z</time>
      </trkpt>
      <trkpt lat="49.09366" lon="1.63021">
        <ele>100</ele>
        <time>2021-09-19T07:02:26Z</time>
      </trkpt>
      <trkpt lat="49.09375" lon="1.63017">
        <ele>99.8</ele>
        <time>2021-09-19T07:02:28Z</time>
      </trkpt>
      <trkpt lat="49.09389" lon="1.63015">
        <ele>99.4</ele>
        <time>2021-09-19T07:02:32Z</time>
      </trkpt>
      <trkpt lat="49.09393" lon="1.63022">
        <ele>99.2</ele>
        <time>2021-09-19T07:02:36Z</time>
      </trkpt>
      <trkpt lat="49.094" lon="1.63029">
        <ele>99.2</ele>
        <time>2021-09-19T07:02:42Z</time>
      </trkpt>
      <trkpt lat="49.09401" lon="1.6303">
        <ele>99.6</ele>
        <time>2021-09-19T07:02:43Z</time>
      </trkpt>
      <trkpt lat="49.09404" lon="1.63035">
        <ele>101.2</ele>
        <time>2021-09-19T07:02:46Z</time>
      </trkpt>
      <trkpt lat="49.09405" lon="1.63037">
        <ele>101.4</ele>
        <time>2021-09-19T07:02:47Z</time>
      </trkpt>
      <trkpt lat="49.09409" lon="1.63045">
        <ele>102.2</ele>
        <time>2021-09-19T07:02:51Z</time>
      </trkpt>
      <trkpt lat="49.0941" lon="1.63048">
        <ele>102.2</ele>
        <time>2021-09-19T07:02:52Z</time>
      </trkpt>
      <trkpt lat="49.09411" lon="1.6305">
        <ele>102.4</ele>
        <time>2021-09-19T07:02:53Z</time>
      </trkpt>
      <trkpt lat="49.09417" lon="1.6306">
        <ele>103.2</ele>
        <time>2021-09-19T07:02:58Z</time>
      </trkpt>
      <trkpt lat="49.09419" lon="1.63061">
        <ele>103.4</ele>
        <time>2021-09-19T07:02:59Z</time>
      </trkpt>
      <trkpt lat="49.09425" lon="1.63066">
        <ele>104.4</ele>
        <time>2021-09-19T07:03:03Z</time>
      </trkpt>
      <trkpt lat="49.09426" lon="1.63066">
        <ele>104.6</ele>
        <time>2021-09-19T07:03:04Z</time>
      </trkpt>
      <trkpt lat="49.09436" lon="1.63072">
        <ele>105.6</ele>
        <time>2021-09-19T07:03:09Z</time>
      </trkpt>
      <trkpt lat="49.09438" lon="1.63075">
        <ele>105.8</ele>
        <time>2021-09-19T07:03:10Z</time>
      </trkpt>
      <trkpt lat="49.09448" lon="1.63083">
        <ele>106.4</ele>
        <time>2021-09-19T07:03:14Z</time>
      </trkpt>
      <trkpt lat="49.09451" lon="1.63086">
        <ele>106.6</ele>
        <time>2021-09-19T07:03:15Z</time>
      </trkpt>
      <trkpt lat="49.0946" lon="1.63095">
        <ele>106.6</ele>
        <time>2021-09-19T07:03:18Z</time>
      </trkpt>
      <trkpt lat="49.09477" lon="1.63111">
        <ele>106.4</ele>
        <time>2021-09-19T07:03:23Z</time>
      </trkpt>
      <trkpt lat="49.09489" lon="1.63126">
        <ele>105.4</ele>
        <time>2021-09-19T07:03:28Z</time>
      </trkpt>
      <trkpt lat="49.09502" lon="1.63138">
        <ele>105.4</ele>
        <time>2021-09-19T07:03:33Z</time>
      </trkpt>
      <trkpt lat="49.09505" lon="1.63141">
        <ele>105.4</ele>
        <time>2021-09-19T07:03:34Z</time>
      </trkpt>
      <trkpt lat="49.09513" lon="1.63151">
        <ele>105.2</ele>
        <time>2021-09-19T07:03:37Z</time>
      </trkpt>
      <trkpt lat="49.09516" lon="1.63155">
        <ele>105.2</ele>
        <time>2021-09-19T07:03:38Z</time>
      </trkpt>
      <trkpt lat="49.09531" lon="1.63172">
        <ele>105.2</ele>
        <time>2021-09-19T07:03:42Z</time>
      </trkpt>
      <trkpt lat="49.09535" lon="1.63176">
        <ele>105.2</ele>
        <time>2021-09-19T07:03:43Z</time>
      </trkpt>
      <trkpt lat="49.09544" lon="1.63184">
        <ele>105</ele>
        <time>2021-09-19T07:03:45Z</time>
      </trkpt>
      <trkpt lat="49.09553" lon="1.63193">
        <ele>104.6</ele>
        <time>2021-09-19T07:03:47Z</time>
      </trkpt>
      <trkpt lat="49.09558" lon="1.63196">
        <ele>104.6</ele>
        <time>2021-09-19T07:03:48Z</time>
      </trkpt>
      <trkpt lat="49.09573" lon="1.63201">
        <ele>104.6</ele>
        <time>2021-09-19T07:03:51Z</time>
      </trkpt>
      <trkpt lat="49.09579" lon="1.63202">
        <ele>104.6</ele>
        <time>2021-09-19T07:03:52Z</time>
      </trkpt>
      <trkpt lat="49.0959" lon="1.63205">
        <ele>104.4</ele>
        <time>2021-09-19T07:03:54Z</time>
      </trkpt>
      <trkpt lat="49.09604" lon="1.63208">
        <ele>104.2</ele>
        <time>2021-09-19T07:03:56Z</time>
      </trkpt>
      <trkpt lat="49.09611" lon="1.63212">
        <ele>104.2</ele>
        <time>2021-09-19T07:03:57Z</time>
      </trkpt>
      <trkpt lat="49.09619" lon="1.63219">
        <ele>104.2</ele>
        <time>2021-09-19T07:03:59Z</time>
      </trkpt>
      <trkpt lat="49.09625" lon="1.6323">
        <ele>104.4</ele>
        <time>2021-09-19T07:04:02Z</time>
      </trkpt>
      <trkpt lat="49.09631" lon="1.63245">
        <ele>104.8</ele>
        <time>2021-09-19T07:04:06Z</time>
      </trkpt>
      <trkpt lat="49.09634" lon="1.63248">
        <ele>104.8</ele>
        <time>2021-09-19T07:04:07Z</time>
      </trkpt>
      <trkpt lat="49.09639" lon="1.63255">
        <ele>105.8</ele>
        <time>2021-09-19T07:04:09Z</time>
      </trkpt>
      <trkpt lat="49.09644" lon="1.63263">
        <ele>107.2</ele>
        <time>2021-09-19T07:04:11Z</time>
      </trkpt>
      <trkpt lat="49.09646" lon="1.63267">
        <ele>107.4</ele>
        <time>2021-09-19T07:04:12Z</time>
      </trkpt>
      <trkpt lat="49.0966" lon="1.63276">
        <ele>107.8</ele>
        <time>2021-09-19T07:04:16Z</time>
      </trkpt>
      <trkpt lat="49.09669" lon="1.63281">
        <ele>108</ele>
        <time>2021-09-19T07:04:18Z</time>
      </trkpt>
      <trkpt lat="49.09685" lon="1.63291">
        <ele>108</ele>
        <time>2021-09-19T07:04:21Z</time>
      </trkpt>
      <trkpt lat="49.09689" lon="1.63294">
        <ele>108</ele>
        <time>2021-09-19T07:04:22Z</time>
      </trkpt>
      <trkpt lat="49.09718" lon="1.63317">
        <ele>107.2</ele>
        <time>2021-09-19T07:04:28Z</time>
      </trkpt>
      <trkpt lat="49.09729" lon="1.63325">
        <ele>106.4</ele>
        <time>2021-09-19T07:04:30Z</time>
      </trkpt>
      <trkpt lat="49.09747" lon="1.63338">
        <ele>105.4</ele>
        <time>2021-09-19T07:04:33Z</time>
      </trkpt>
      <trkpt lat="49.09753" lon="1.63342">
        <ele>105.2</ele>
        <time>2021-09-19T07:04:34Z</time>
      </trkpt>
      <trkpt lat="49.09766" lon="1.63351">
        <ele>104.4</ele>
        <time>2021-09-19T07:04:36Z</time>
      </trkpt>
      <trkpt lat="49.09774" lon="1.63355">
        <ele>103.6</ele>
        <time>2021-09-19T07:04:37Z</time>
      </trkpt>
      <trkpt lat="49.09798" lon="1.63368">
        <ele>102.2</ele>
        <time>2021-09-19T07:04:40Z</time>
      </trkpt>
      <trkpt lat="49.09807" lon="1.63372">
        <ele>101.8</ele>
        <time>2021-09-19T07:04:41Z</time>
      </trkpt>
      <trkpt lat="49.09823" lon="1.63382">
        <ele>100.8</ele>
        <time>2021-09-19T07:04:43Z</time>
      </trkpt>
      <trkpt lat="49.09842" lon="1.63393">
        <ele>99.6</ele>
        <time>2021-09-19T07:04:45Z</time>
      </trkpt>
      <trkpt lat="49.0986" lon="1.63404">
        <ele>98.6</ele>
        <time>2021-09-19T07:04:47Z</time>
      </trkpt>
      <trkpt lat="49.09887" lon="1.63423">
        <ele>97.2</ele>
        <time>2021-09-19T07:04:50Z</time>
      </trkpt>
      <trkpt lat="49.09896" lon="1.63429">
        <ele>96.4</ele>
        <time>2021-09-19T07:04:51Z</time>
      </trkpt>
      <trkpt lat="49.09906" lon="1.63435">
        <ele>95.8</ele>
        <time>2021-09-19T07:04:52Z</time>
      </trkpt>
      <trkpt lat="49.09925" lon="1.63447">
        <ele>94.6</ele>
        <time>2021-09-19T07:04:54Z</time>
      </trkpt>
      <trkpt lat="49.09934" lon="1.63454">
        <ele>93.8</ele>
        <time>2021-09-19T07:04:55Z</time>
      </trkpt>
      <trkpt lat="49.09943" lon="1.6346">
        <ele>93.2</ele>
        <time>2021-09-19T07:04:56Z</time>
      </trkpt>
      <trkpt lat="49.09951" lon="1.63465">
        <ele>92.4</ele>
        <time>2021-09-19T07:04:57Z</time>
      </trkpt>
      <trkpt lat="49.09959" lon="1.63468">
        <ele>91.4</ele>
        <time>2021-09-19T07:04:58Z</time>
      </trkpt>
      <trkpt lat="49.09966" lon="1.6347">
        <ele>90.4</ele>
        <time>2021-09-19T07:04:59Z</time>
      </trkpt>
      <trkpt lat="49.09973" lon="1.63472">
        <ele>89.4</ele>
        <time>2021-09-19T07:05:00Z</time>
      </trkpt>
      <trkpt lat="49.09981" lon="1.63473">
        <ele>88.4</ele>
        <time>2021-09-19T07:05:01Z</time>
      </trkpt>
      <trkpt lat="49.09989" lon="1.63474">
        <ele>87.6</ele>
        <time>2021-09-19T07:05:02Z</time>
      </trkpt>
      <trkpt lat="49.09997" lon="1.63477">
        <ele>86.8</ele>
        <time>2021-09-19T07:05:03Z</time>
      </trkpt>
      <trkpt lat="49.10014" lon="1.63484">
        <ele>84.6</ele>
        <time>2021-09-19T07:05:05Z</time>
      </trkpt>
      <trkpt lat="49.10033" lon="1.63493">
        <ele>83.6</ele>
        <time>2021-09-19T07:05:07Z</time>
      </trkpt>
      <trkpt lat="49.10042" lon="1.635">
        <ele>82.8</ele>
        <time>2021-09-19T07:05:08Z</time>
      </trkpt>
      <trkpt lat="49.10059" lon="1.63512">
        <ele>81</ele>
        <time>2021-09-19T07:05:10Z</time>
      </trkpt>
      <trkpt lat="49.10077" lon="1.63522">
        <ele>78.8</ele>
        <time>2021-09-19T07:05:12Z</time>
      </trkpt>
      <trkpt lat="49.10084" lon="1.63526">
        <ele>77.8</ele>
        <time>2021-09-19T07:05:13Z</time>
      </trkpt>
      <trkpt lat="49.10092" lon="1.6353">
        <ele>76.6</ele>
        <time>2021-09-19T07:05:14Z</time>
      </trkpt>
      <trkpt lat="49.101" lon="1.63534">
        <ele>75.4</ele>
        <time>2021-09-19T07:05:15Z</time>
      </trkpt>
      <trkpt lat="49.10109" lon="1.63539">
        <ele>74</ele>
        <time>2021-09-19T07:05:16Z</time>
      </trkpt>
      <trkpt lat="49.10117" lon="1.63545">
        <ele>72.8</ele>
        <time>2021-09-19T07:05:17Z</time>
      </trkpt>
      <trkpt lat="49.10125" lon="1.63552">
        <ele>71.8</ele>
        <time>2021-09-19T07:05:18Z</time>
      </trkpt>
      <trkpt lat="49.10133" lon="1.6356">
        <ele>71</ele>
        <time>2021-09-19T07:05:19Z</time>
      </trkpt>
      <trkpt lat="49.1014" lon="1.63569">
        <ele>70.4</ele>
        <time>2021-09-19T07:05:20Z</time>
      </trkpt>
      <trkpt lat="49.10146" lon="1.63579">
        <ele>70.2</ele>
        <time>2021-09-19T07:05:21Z</time>
      </trkpt>
      <trkpt lat="49.1017" lon="1.63614">
        <ele>69.4</ele>
        <time>2021-09-19T07:05:25Z</time>
      </trkpt>
      <trkpt lat="49.10177" lon="1.63619">
        <ele>69.4</ele>
        <time>2021-09-19T07:05:26Z</time>
      </trkpt>
      <trkpt lat="49.10193" lon="1.63638">
        <ele>68.2</ele>
        <time>2021-09-19T07:05:29Z</time>
      </trkpt>
      <trkpt lat="49.10202" lon="1.6367">
        <ele>66.8</ele>
        <time>2021-09-19T07:05:32Z</time>
      </trkpt>
      <trkpt lat="49.10202" lon="1.63705">
        <ele>66</ele>
        <time>2021-09-19T07:05:35Z</time>
      </trkpt>
      <trkpt lat="49.10199" lon="1.63716">
        <ele>65.6</ele>
        <time>2021-09-19T07:05:36Z</time>
      </trkpt>
      <trkpt lat="49.10196" lon="1.63726">
        <ele>65.4</ele>
        <time>2021-09-19T07:05:37Z</time>
      </trkpt>
      <trkpt lat="49.10186" lon="1.63761">
        <ele>64.8</ele>
        <time>2021-09-19T07:05:40Z</time>
      </trkpt>
      <trkpt lat="49.10185" lon="1.63772">
        <ele>64.6</ele>
        <time>2021-09-19T07:05:41Z</time>
      </trkpt>
      <trkpt lat="49.10182" lon="1.63781">
        <ele>64.2</ele>
        <time>2021-09-19T07:05:42Z</time>
      </trkpt>
      <trkpt lat="49.10176" lon="1.63799">
        <ele>63.4</ele>
        <time>2021-09-19T07:05:44Z</time>
      </trkpt>
      <trkpt lat="49.10174" lon="1.63808">
        <ele>63</ele>
        <time>2021-09-19T07:05:45Z</time>
      </trkpt>
      <trkpt lat="49.1017" lon="1.63831">
        <ele>62.4</ele>
        <time>2021-09-19T07:05:47Z</time>
      </trkpt>
      <trkpt lat="49.10168" lon="1.63844">
        <ele>62.2</ele>
        <time>2021-09-19T07:05:48Z</time>
      </trkpt>
      <trkpt lat="49.10161" lon="1.63881">
        <ele>62</ele>
        <time>2021-09-19T07:05:51Z</time>
      </trkpt>
      <trkpt lat="49.10159" lon="1.63894">
        <ele>61.8</ele>
        <time>2021-09-19T07:05:52Z</time>
      </trkpt>
      <trkpt lat="49.1015" lon="1.63935">
        <ele>61.4</ele>
        <time>2021-09-19T07:05:55Z</time>
      </trkpt>
      <trkpt lat="49.10144" lon="1.63963">
        <ele>60</ele>
        <time>2021-09-19T07:05:57Z</time>
      </trkpt>
      <trkpt lat="49.10141" lon="1.63975">
        <ele>59.4</ele>
        <time>2021-09-19T07:05:58Z</time>
      </trkpt>
      <trkpt lat="49.10137" lon="1.63988">
        <ele>58.8</ele>
        <time>2021-09-19T07:05:59Z</time>
      </trkpt>
      <trkpt lat="49.10127" lon="1.64011">
        <ele>56.2</ele>
        <time>2021-09-19T07:06:01Z</time>
      </trkpt>
      <trkpt lat="49.10123" lon="1.64021">
        <ele>55.2</ele>
        <time>2021-09-19T07:06:02Z</time>
      </trkpt>
      <trkpt lat="49.1012" lon="1.6403">
        <ele>54</ele>
        <time>2021-09-19T07:06:03Z</time>
      </trkpt>
      <trkpt lat="49.10115" lon="1.64046">
        <ele>52.8</ele>
        <time>2021-09-19T07:06:05Z</time>
      </trkpt>
      <trkpt lat="49.10113" lon="1.64051">
        <ele>52.6</ele>
        <time>2021-09-19T07:06:06Z</time>
      </trkpt>
      <trkpt lat="49.10113" lon="1.64055">
        <ele>52.4</ele>
        <time>2021-09-19T07:06:07Z</time>
      </trkpt>
      <trkpt lat="49.10117" lon="1.6406">
        <ele>52.4</ele>
        <time>2021-09-19T07:06:09Z</time>
      </trkpt>
      <trkpt lat="49.10127" lon="1.6406">
        <ele>52.4</ele>
        <time>2021-09-19T07:06:12Z</time>
      </trkpt>
      <trkpt lat="49.10131" lon="1.64058">
        <ele>52.4</ele>
        <time>2021-09-19T07:06:13Z</time>
      </trkpt>
      <trkpt lat="49.10141" lon="1.64054">
        <ele>52.6</ele>
        <time>2021-09-19T07:06:15Z</time>
      </trkpt>
      <trkpt lat="49.10152" lon="1.6405">
        <ele>52.6</ele>
        <time>2021-09-19T07:06:17Z</time>
      </trkpt>
      <trkpt lat="49.10164" lon="1.64045">
        <ele>52.6</ele>
        <time>2021-09-19T07:06:19Z</time>
      </trkpt>
      <trkpt lat="49.10171" lon="1.64045">
        <ele>52.6</ele>
        <time>2021-09-19T07:06:20Z</time>
      </trkpt>
      <trkpt lat="49.10197" lon="1.6405">
        <ele>52.6</ele>
        <time>2021-09-19T07:06:23Z</time>
      </trkpt>
      <trkpt lat="49.10206" lon="1.64055">
        <ele>52.4</ele>
        <time>2021-09-19T07:06:24Z</time>
      </trkpt>
      <trkpt lat="49.10225" lon="1.64061">
        <ele>51</ele>
        <time>2021-09-19T07:06:26Z</time>
      </trkpt>
      <trkpt lat="49.10244" lon="1.64068">
        <ele>49.6</ele>
        <time>2021-09-19T07:06:28Z</time>
      </trkpt>
      <trkpt lat="49.10253" lon="1.64071">
        <ele>48</ele>
        <time>2021-09-19T07:06:29Z</time>
      </trkpt>
      <trkpt lat="49.10272" lon="1.64077">
        <ele>46.4</ele>
        <time>2021-09-19T07:06:31Z</time>
      </trkpt>
      <trkpt lat="49.10282" lon="1.6408">
        <ele>45.8</ele>
        <time>2021-09-19T07:06:32Z</time>
      </trkpt>
      <trkpt lat="49.10292" lon="1.64083">
        <ele>45</ele>
        <time>2021-09-19T07:06:33Z</time>
      </trkpt>
      <trkpt lat="49.10313" lon="1.64088">
        <ele>43.8</ele>
        <time>2021-09-19T07:06:35Z</time>
      </trkpt>
      <trkpt lat="49.10334" lon="1.64092">
        <ele>42.6</ele>
        <time>2021-09-19T07:06:37Z</time>
      </trkpt>
      <trkpt lat="49.10344" lon="1.64093">
        <ele>42</ele>
        <time>2021-09-19T07:06:38Z</time>
      </trkpt>
      <trkpt lat="49.10355" lon="1.64093">
        <ele>41.4</ele>
        <time>2021-09-19T07:06:39Z</time>
      </trkpt>
      <trkpt lat="49.10377" lon="1.64093">
        <ele>39.8</ele>
        <time>2021-09-19T07:06:41Z</time>
      </trkpt>
      <trkpt lat="49.10387" lon="1.64093">
        <ele>38.8</ele>
        <time>2021-09-19T07:06:42Z</time>
      </trkpt>
      <trkpt lat="49.10408" lon="1.64091">
        <ele>36.8</ele>
        <time>2021-09-19T07:06:44Z</time>
      </trkpt>
      <trkpt lat="49.10418" lon="1.6409">
        <ele>35.8</ele>
        <time>2021-09-19T07:06:45Z</time>
      </trkpt>
      <trkpt lat="49.10438" lon="1.64088">
        <ele>34</ele>
        <time>2021-09-19T07:06:47Z</time>
      </trkpt>
      <trkpt lat="49.10457" lon="1.64087">
        <ele>32.4</ele>
        <time>2021-09-19T07:06:49Z</time>
      </trkpt>
      <trkpt lat="49.10476" lon="1.64086">
        <ele>31.2</ele>
        <time>2021-09-19T07:06:51Z</time>
      </trkpt>
      <trkpt lat="49.10485" lon="1.64086">
        <ele>30.6</ele>
        <time>2021-09-19T07:06:52Z</time>
      </trkpt>
      <trkpt lat="49.10501" lon="1.64086">
        <ele>30</ele>
        <time>2021-09-19T07:06:54Z</time>
      </trkpt>
      <trkpt lat="49.10514" lon="1.64085">
        <ele>29.4</ele>
        <time>2021-09-19T07:06:56Z</time>
      </trkpt>
      <trkpt lat="49.10521" lon="1.64087">
        <ele>29.4</ele>
        <time>2021-09-19T07:06:58Z</time>
      </trkpt>
      <trkpt lat="49.10523" lon="1.6409">
        <ele>29.4</ele>
        <time>2021-09-19T07:06:59Z</time>
      </trkpt>
      <trkpt lat="49.10518" lon="1.641">
        <ele>29.4</ele>
        <time>2021-09-19T07:07:02Z</time>
      </trkpt>
      <trkpt lat="49.10514" lon="1.64103">
        <ele>29.4</ele>
        <time>2021-09-19T07:07:03Z</time>
      </trkpt>
      <trkpt lat="49.10504" lon="1.64112">
        <ele>30.4</ele>
        <time>2021-09-19T07:07:06Z</time>
      </trkpt>
      <trkpt lat="49.105" lon="1.64114">
        <ele>31</ele>
        <time>2021-09-19T07:07:07Z</time>
      </trkpt>
      <trkpt lat="49.10496" lon="1.64117">
        <ele>31.6</ele>
        <time>2021-09-19T07:07:08Z</time>
      </trkpt>
      <trkpt lat="49.10489" lon="1.64125">
        <ele>32.2</ele>
        <time>2021-09-19T07:07:10Z</time>
      </trkpt>
      <trkpt lat="49.10466" lon="1.64149">
        <ele>32.6</ele>
        <time>2021-09-19T07:07:16Z</time>
      </trkpt>
      <trkpt lat="49.10462" lon="1.64153">
        <ele>32.6</ele>
        <time>2021-09-19T07:07:17Z</time>
      </trkpt>
      <trkpt lat="49.10442" lon="1.64172">
        <ele>32.6</ele>
        <time>2021-09-19T07:07:22Z</time>
      </trkpt>
      <trkpt lat="49.10438" lon="1.64175">
        <ele>32.6</ele>
        <time>2021-09-19T07:07:23Z</time>
      </trkpt>
      <trkpt lat="49.10416" lon="1.64194">
        <ele>32.6</ele>
        <time>2021-09-19T07:07:28Z</time>
      </trkpt>
      <trkpt lat="49.10394" lon="1.64214">
        <ele>32.8</ele>
        <time>2021-09-19T07:07:33Z</time>
      </trkpt>
      <trkpt lat="49.10386" lon="1.64221">
        <ele>32.8</ele>
        <time>2021-09-19T07:07:35Z</time>
      </trkpt>
      <trkpt lat="49.10368" lon="1.64231">
        <ele>32.8</ele>
        <time>2021-09-19T07:07:39Z</time>
      </trkpt>
      <trkpt lat="49.10335" lon="1.64255">
        <ele>33.2</ele>
        <time>2021-09-19T07:07:47Z</time>
      </trkpt>
      <trkpt lat="49.10332" lon="1.64258">
        <ele>33</ele>
        <time>2021-09-19T07:07:48Z</time>
      </trkpt>
      <trkpt lat="49.10307" lon="1.64277">
        <ele>34</ele>
        <time>2021-09-19T07:07:55Z</time>
      </trkpt>
      <trkpt lat="49.10297" lon="1.64284">
        <ele>34</ele>
        <time>2021-09-19T07:07:58Z</time>
      </trkpt>
      <trkpt lat="49.10281" lon="1.64295">
        <ele>34.6</ele>
        <time>2021-09-19T07:08:03Z</time>
      </trkpt>
      <trkpt lat="49.10275" lon="1.643">
        <ele>35</ele>
        <time>2021-09-19T07:08:05Z</time>
      </trkpt>
      <trkpt lat="49.10258" lon="1.64313">
        <ele>35.8</ele>
        <time>2021-09-19T07:08:11Z</time>
      </trkpt>
      <trkpt lat="49.10253" lon="1.64318">
        <ele>36.2</ele>
        <time>2021-09-19T07:08:13Z</time>
      </trkpt>
      <trkpt lat="49.10242" lon="1.64327">
        <ele>36.6</ele>
        <time>2021-09-19T07:08:17Z</time>
      </trkpt>
      <trkpt lat="49.10233" lon="1.64335">
        <ele>37.2</ele>
        <time>2021-09-19T07:08:21Z</time>
      </trkpt>
      <trkpt lat="49.10231" lon="1.64337">
        <ele>37.6</ele>
        <time>2021-09-19T07:08:22Z</time>
      </trkpt>
      <trkpt lat="49.10222" lon="1.64348">
        <ele>38.4</ele>
        <time>2021-09-19T07:08:27Z</time>
      </trkpt>
      <trkpt lat="49.10215" lon="1.64356">
        <ele>39.2</ele>
        <time>2021-09-19T07:08:31Z</time>
      </trkpt>
      <trkpt lat="49.10211" lon="1.6436">
        <ele>39.6</ele>
        <time>2021-09-19T07:08:33Z</time>
      </trkpt>
      <trkpt lat="49.10203" lon="1.64371">
        <ele>40.6</ele>
        <time>2021-09-19T07:08:38Z</time>
      </trkpt>
      <trkpt lat="49.10195" lon="1.64383">
        <ele>41.6</ele>
        <time>2021-09-19T07:08:43Z</time>
      </trkpt>
      <trkpt lat="49.10192" lon="1.64388">
        <ele>41.8</ele>
        <time>2021-09-19T07:08:45Z</time>
      </trkpt>
      <trkpt lat="49.10188" lon="1.64395">
        <ele>42.6</ele>
        <time>2021-09-19T07:08:48Z</time>
      </trkpt>
      <trkpt lat="49.10183" lon="1.64406">
        <ele>43.4</ele>
        <time>2021-09-19T07:08:52Z</time>
      </trkpt>
      <trkpt lat="49.10181" lon="1.64412">
        <ele>43.8</ele>
        <time>2021-09-19T07:08:54Z</time>
      </trkpt>
      <trkpt lat="49.10178" lon="1.64426">
        <ele>44.6</ele>
        <time>2021-09-19T07:08:58Z</time>
      </trkpt>
      <trkpt lat="49.10176" lon="1.64433">
        <ele>45</ele>
        <time>2021-09-19T07:09:00Z</time>
      </trkpt>
      <trkpt lat="49.10173" lon="1.64453">
        <ele>45.6</ele>
        <time>2021-09-19T07:09:04Z</time>
      </trkpt>
      <trkpt lat="49.10171" lon="1.64463">
        <ele>46</ele>
        <time>2021-09-19T07:09:06Z</time>
      </trkpt>
      <trkpt lat="49.10166" lon="1.6449">
        <ele>46.6</ele>
        <time>2021-09-19T07:09:11Z</time>
      </trkpt>
      <trkpt lat="49.10162" lon="1.64519">
        <ele>46.8</ele>
        <time>2021-09-19T07:09:16Z</time>
      </trkpt>
      <trkpt lat="49.10161" lon="1.64531">
        <ele>47</ele>
        <time>2021-09-19T07:09:18Z</time>
      </trkpt>
      <trkpt lat="49.10159" lon="1.64544">
        <ele>47</ele>
        <time>2021-09-19T07:09:20Z</time>
      </trkpt>
      <trkpt lat="49.10158" lon="1.64551">
        <ele>47</ele>
        <time>2021-09-19T07:09:21Z</time>
      </trkpt>
      <trkpt lat="49.10155" lon="1.64571">
        <ele>47</ele>
        <time>2021-09-19T07:09:24Z</time>
      </trkpt>
      <trkpt lat="49.10152" lon="1.64584">
        <ele>47</ele>
        <time>2021-09-19T07:09:26Z</time>
      </trkpt>
      <trkpt lat="49.10143" lon="1.64623">
        <ele>46.6</ele>
        <time>2021-09-19T07:09:32Z</time>
      </trkpt>
      <trkpt lat="49.10133" lon="1.64656">
        <ele>45.8</ele>
        <time>2021-09-19T07:09:37Z</time>
      </trkpt>
      <trkpt lat="49.1012" lon="1.64687">
        <ele>45.8</ele>
        <time>2021-09-19T07:09:43Z</time>
      </trkpt>
      <trkpt lat="49.10111" lon="1.64712">
        <ele>46</ele>
        <time>2021-09-19T07:09:48Z</time>
      </trkpt>
      <trkpt lat="49.10107" lon="1.64735">
        <ele>46.6</ele>
        <time>2021-09-19T07:09:52Z</time>
      </trkpt>
      <trkpt lat="49.10106" lon="1.64743">
        <ele>47</ele>
        <time>2021-09-19T07:09:53Z</time>
      </trkpt>
      <trkpt lat="49.10106" lon="1.64752">
        <ele>47.2</ele>
        <time>2021-09-19T07:09:54Z</time>
      </trkpt>
      <trkpt lat="49.10106" lon="1.64761">
        <ele>47.2</ele>
        <time>2021-09-19T07:09:55Z</time>
      </trkpt>
      <trkpt lat="49.10099" lon="1.6481">
        <ele>47.2</ele>
        <time>2021-09-19T07:10:00Z</time>
      </trkpt>
      <trkpt lat="49.10087" lon="1.6484">
        <ele>46.6</ele>
        <time>2021-09-19T07:10:04Z</time>
      </trkpt>
      <trkpt lat="49.10084" lon="1.64845">
        <ele>46</ele>
        <time>2021-09-19T07:10:05Z</time>
      </trkpt>
      <trkpt lat="49.10081" lon="1.64849">
        <ele>45.6</ele>
        <time>2021-09-19T07:10:06Z</time>
      </trkpt>
      <trkpt lat="49.10076" lon="1.64859">
        <ele>45.2</ele>
        <time>2021-09-19T07:10:08Z</time>
      </trkpt>
      <trkpt lat="49.10072" lon="1.64864">
        <ele>45.2</ele>
        <time>2021-09-19T07:10:09Z</time>
      </trkpt>
      <trkpt lat="49.10049" lon="1.64897">
        <ele>45</ele>
        <time>2021-09-19T07:10:15Z</time>
      </trkpt>
      <trkpt lat="49.10035" lon="1.64913">
        <ele>45</ele>
        <time>2021-09-19T07:10:18Z</time>
      </trkpt>
      <trkpt lat="49.1002" lon="1.64926">
        <ele>45</ele>
        <time>2021-09-19T07:10:21Z</time>
      </trkpt>
      <trkpt lat="49.1001" lon="1.64936">
        <ele>45</ele>
        <time>2021-09-19T07:10:23Z</time>
      </trkpt>
      <trkpt lat="49.09997" lon="1.64948">
        <ele>45</ele>
        <time>2021-09-19T07:10:26Z</time>
      </trkpt>
      <trkpt lat="49.09993" lon="1.64952">
        <ele>45</ele>
        <time>2021-09-19T07:10:27Z</time>
      </trkpt>
      <trkpt lat="49.09971" lon="1.64969">
        <ele>45</ele>
        <time>2021-09-19T07:10:32Z</time>
      </trkpt>
      <trkpt lat="49.09963" lon="1.64976">
        <ele>45.2</ele>
        <time>2021-09-19T07:10:34Z</time>
      </trkpt>
      <trkpt lat="49.0995" lon="1.64987">
        <ele>45.8</ele>
        <time>2021-09-19T07:10:37Z</time>
      </trkpt>
      <trkpt lat="49.09939" lon="1.64997">
        <ele>46.4</ele>
        <time>2021-09-19T07:10:40Z</time>
      </trkpt>
      <trkpt lat="49.09917" lon="1.65018">
        <ele>47</ele>
        <time>2021-09-19T07:10:46Z</time>
      </trkpt>
      <trkpt lat="49.09895" lon="1.65043">
        <ele>47.4</ele>
        <time>2021-09-19T07:10:53Z</time>
      </trkpt>
      <trkpt lat="49.09892" lon="1.65047">
        <ele>47.4</ele>
        <time>2021-09-19T07:10:54Z</time>
      </trkpt>
      <trkpt lat="49.0988" lon="1.6506">
        <ele>47.8</ele>
        <time>2021-09-19T07:10:58Z</time>
      </trkpt>
      <trkpt lat="49.09868" lon="1.65068">
        <ele>48.4</ele>
        <time>2021-09-19T07:11:02Z</time>
      </trkpt>
      <trkpt lat="49.09852" lon="1.65078">
        <ele>49.2</ele>
        <time>2021-09-19T07:11:07Z</time>
      </trkpt>
      <trkpt lat="49.09841" lon="1.65086">
        <ele>49.6</ele>
        <time>2021-09-19T07:11:10Z</time>
      </trkpt>
      <trkpt lat="49.0983" lon="1.65092">
        <ele>49.6</ele>
        <time>2021-09-19T07:11:13Z</time>
      </trkpt>
      <trkpt lat="49.09827" lon="1.65092">
        <ele>49.8</ele>
        <time>2021-09-19T07:11:14Z</time>
      </trkpt>
      <trkpt lat="49.09821" lon="1.65089">
        <ele>49.8</ele>
        <time>2021-09-19T07:11:17Z</time>
      </trkpt>
      <trkpt lat="49.0981" lon="1.65087">
        <ele>50</ele>
        <time>2021-09-19T07:11:22Z</time>
      </trkpt>
      <trkpt lat="49.09809" lon="1.65086">
        <ele>50</ele>
        <time>2021-09-19T07:11:23Z</time>
      </trkpt>
      <trkpt lat="49.09804" lon="1.65081">
        <ele>50.4</ele>
        <time>2021-09-19T07:11:26Z</time>
      </trkpt>
      <trkpt lat="49.09803" lon="1.6508">
        <ele>50.6</ele>
        <time>2021-09-19T07:11:27Z</time>
      </trkpt>
      <trkpt lat="49.09795" lon="1.65075">
        <ele>51.6</ele>
        <time>2021-09-19T07:11:31Z</time>
      </trkpt>
      <trkpt lat="49.09781" lon="1.65077">
        <ele>52.8</ele>
        <time>2021-09-19T07:11:35Z</time>
      </trkpt>
      <trkpt lat="49.09777" lon="1.65078">
        <ele>53.2</ele>
        <time>2021-09-19T07:11:36Z</time>
      </trkpt>
      <trkpt lat="49.09767" lon="1.65079">
        <ele>53.8</ele>
        <time>2021-09-19T07:11:40Z</time>
      </trkpt>
      <trkpt lat="49.09758" lon="1.65076">
        <ele>54.4</ele>
        <time>2021-09-19T07:11:45Z</time>
      </trkpt>
      <trkpt lat="49.09755" lon="1.65072">
        <ele>54.6</ele>
        <time>2021-09-19T07:11:48Z</time>
      </trkpt>
      <trkpt lat="49.09753" lon="1.65069">
        <ele>55.2</ele>
        <time>2021-09-19T07:11:50Z</time>
      </trkpt>
      <trkpt lat="49.09749" lon="1.65067">
        <ele>56.2</ele>
        <time>2021-09-19T07:11:53Z</time>
      </trkpt>
      <trkpt lat="49.09746" lon="1.65067">
        <ele>56.8</ele>
        <time>2021-09-19T07:11:55Z</time>
      </trkpt>
      <trkpt lat="49.09743" lon="1.65067">
        <ele>57.4</ele>
        <time>2021-09-19T07:11:57Z</time>
      </trkpt>
      <trkpt lat="49.09739" lon="1.65066">
        <ele>58.2</ele>
        <time>2021-09-19T07:12:00Z</time>
      </trkpt>
      <trkpt lat="49.09738" lon="1.65065">
        <ele>58.4</ele>
        <time>2021-09-19T07:12:01Z</time>
      </trkpt>
      <trkpt lat="49.09733" lon="1.65063">
        <ele>59.6</ele>
        <time>2021-09-19T07:12:05Z</time>
      </trkpt>
      <trkpt lat="49.09728" lon="1.65061">
        <ele>60.8</ele>
        <time>2021-09-19T07:12:09Z</time>
      </trkpt>
      <trkpt lat="49.09727" lon="1.6506">
        <ele>61</ele>
        <time>2021-09-19T07:12:10Z</time>
      </trkpt>
      <trkpt lat="49.09722" lon="1.65059">
        <ele>61.8</ele>
        <time>2021-09-19T07:12:13Z</time>
      </trkpt>
      <trkpt lat="49.09717" lon="1.65056">
        <ele>62.4</ele>
        <time>2021-09-19T07:12:16Z</time>
      </trkpt>
      <trkpt lat="49.09714" lon="1.65055">
        <ele>62.8</ele>
        <time>2021-09-19T07:12:18Z</time>
      </trkpt>
      <trkpt lat="49.09707" lon="1.65053">
        <ele>63.8</ele>
        <time>2021-09-19T07:12:22Z</time>
      </trkpt>
      <trkpt lat="49.09706" lon="1.65052">
        <ele>64.2</ele>
        <time>2021-09-19T07:12:23Z</time>
      </trkpt>
      <trkpt lat="49.097" lon="1.65047">
        <ele>65.2</ele>
        <time>2021-09-19T07:12:28Z</time>
      </trkpt>
      <trkpt lat="49.097" lon="1.65047">
        <ele>65.4</ele>
        <time>2021-09-19T07:12:29Z</time>
      </trkpt>
      <trkpt lat="49.09693" lon="1.65044">
        <ele>66.4</ele>
        <time>2021-09-19T07:12:33Z</time>
      </trkpt>
      <trkpt lat="49.09689" lon="1.65042">
        <ele>67</ele>
        <time>2021-09-19T07:12:36Z</time>
      </trkpt>
      <trkpt lat="49.09686" lon="1.65041">
        <ele>67.2</ele>
        <time>2021-09-19T07:12:38Z</time>
      </trkpt>
      <trkpt lat="49.0968" lon="1.65038">
        <ele>68.2</ele>
        <time>2021-09-19T07:12:43Z</time>
      </trkpt>
      <trkpt lat="49.09673" lon="1.65034">
        <ele>69.4</ele>
        <time>2021-09-19T07:12:49Z</time>
      </trkpt>
      <trkpt lat="49.09669" lon="1.65032">
        <ele>70.2</ele>
        <time>2021-09-19T07:12:53Z</time>
      </trkpt>
      <trkpt lat="49.09667" lon="1.65031">
        <ele>70.6</ele>
        <time>2021-09-19T07:12:55Z</time>
      </trkpt>
      <trkpt lat="49.09659" lon="1.65028">
        <ele>71.8</ele>
        <time>2021-09-19T07:13:00Z</time>
      </trkpt>
      <trkpt lat="49.09656" lon="1.65027">
        <ele>72.8</ele>
        <time>2021-09-19T07:13:02Z</time>
      </trkpt>
      <trkpt lat="49.09655" lon="1.65027">
        <ele>73</ele>
        <time>2021-09-19T07:13:03Z</time>
      </trkpt>
      <trkpt lat="49.09651" lon="1.65025">
        <ele>73.6</ele>
        <time>2021-09-19T07:13:06Z</time>
      </trkpt>
      <trkpt lat="49.0965" lon="1.65024">
        <ele>74</ele>
        <time>2021-09-19T07:13:07Z</time>
      </trkpt>
      <trkpt lat="49.09649" lon="1.65024">
        <ele>74.2</ele>
        <time>2021-09-19T07:13:08Z</time>
      </trkpt>
      <trkpt lat="49.09642" lon="1.65022">
        <ele>75.2</ele>
        <time>2021-09-19T07:13:12Z</time>
      </trkpt>
      <trkpt lat="49.09636" lon="1.6502">
        <ele>76</ele>
        <time>2021-09-19T07:13:16Z</time>
      </trkpt>
      <trkpt lat="49.09635" lon="1.65019">
        <ele>76.2</ele>
        <time>2021-09-19T07:13:17Z</time>
      </trkpt>
      <trkpt lat="49.09631" lon="1.65017">
        <ele>77.4</ele>
        <time>2021-09-19T07:13:21Z</time>
      </trkpt>
      <trkpt lat="49.09626" lon="1.65015">
        <ele>78.4</ele>
        <time>2021-09-19T07:13:25Z</time>
      </trkpt>
      <trkpt lat="49.09625" lon="1.65015">
        <ele>78.6</ele>
        <time>2021-09-19T07:13:26Z</time>
      </trkpt>
      <trkpt lat="49.09621" lon="1.65013">
        <ele>79.8</ele>
        <time>2021-09-19T07:13:29Z</time>
      </trkpt>
      <trkpt lat="49.09616" lon="1.65012">
        <ele>80.8</ele>
        <time>2021-09-19T07:13:33Z</time>
      </trkpt>
      <trkpt lat="49.09613" lon="1.65011">
        <ele>81.4</ele>
        <time>2021-09-19T07:13:35Z</time>
      </trkpt>
      <trkpt lat="49.09611" lon="1.65009">
        <ele>82</ele>
        <time>2021-09-19T07:13:37Z</time>
      </trkpt>
      <trkpt lat="49.09606" lon="1.65008">
        <ele>83.2</ele>
        <time>2021-09-19T07:13:41Z</time>
      </trkpt>
      <trkpt lat="49.09603" lon="1.65007">
        <ele>83.8</ele>
        <time>2021-09-19T07:13:43Z</time>
      </trkpt>
      <trkpt lat="49.096" lon="1.65006">
        <ele>84.2</ele>
        <time>2021-09-19T07:13:45Z</time>
      </trkpt>
      <trkpt lat="49.09597" lon="1.65003">
        <ele>84.8</ele>
        <time>2021-09-19T07:13:48Z</time>
      </trkpt>
      <trkpt lat="49.09595" lon="1.65003">
        <ele>85.2</ele>
        <time>2021-09-19T07:13:49Z</time>
      </trkpt>
      <trkpt lat="49.09594" lon="1.65002">
        <ele>85.4</ele>
        <time>2021-09-19T07:13:50Z</time>
      </trkpt>
      <trkpt lat="49.09588" lon="1.65001">
        <ele>86</ele>
        <time>2021-09-19T07:13:54Z</time>
      </trkpt>
      <trkpt lat="49.09585" lon="1.65001">
        <ele>86.4</ele>
        <time>2021-09-19T07:13:56Z</time>
      </trkpt>
      <trkpt lat="49.09584" lon="1.65">
        <ele>86.4</ele>
        <time>2021-09-19T07:13:57Z</time>
      </trkpt>
      <trkpt lat="49.0958" lon="1.64998">
        <ele>86.8</ele>
        <time>2021-09-19T07:14:00Z</time>
      </trkpt>
      <trkpt lat="49.09578" lon="1.64997">
        <ele>87</ele>
        <time>2021-09-19T07:14:01Z</time>
      </trkpt>
      <trkpt lat="49.09575" lon="1.64994">
        <ele>87.4</ele>
        <time>2021-09-19T07:14:04Z</time>
      </trkpt>
      <trkpt lat="49.09572" lon="1.64992">
        <ele>87.4</ele>
        <time>2021-09-19T07:14:06Z</time>
      </trkpt>
      <trkpt lat="49.09564" lon="1.64987">
        <ele>88.4</ele>
        <time>2021-09-19T07:14:13Z</time>
      </trkpt>
      <trkpt lat="49.0956" lon="1.64983">
        <ele>89.4</ele>
        <time>2021-09-19T07:14:17Z</time>
      </trkpt>
      <trkpt lat="49.09555" lon="1.6498">
        <ele>90.2</ele>
        <time>2021-09-19T07:14:21Z</time>
      </trkpt>
      <trkpt lat="49.09553" lon="1.6498">
        <ele>90.6</ele>
        <time>2021-09-19T07:14:22Z</time>
      </trkpt>
      <trkpt lat="49.09545" lon="1.64976">
        <ele>91.8</ele>
        <time>2021-09-19T07:14:26Z</time>
      </trkpt>
      <trkpt lat="49.0954" lon="1.64973">
        <ele>92.8</ele>
        <time>2021-09-19T07:14:29Z</time>
      </trkpt>
      <trkpt lat="49.09538" lon="1.64972">
        <ele>93</ele>
        <time>2021-09-19T07:14:30Z</time>
      </trkpt>
      <trkpt lat="49.09532" lon="1.6497">
        <ele>94.2</ele>
        <time>2021-09-19T07:14:34Z</time>
      </trkpt>
      <trkpt lat="49.0953" lon="1.64969">
        <ele>94.6</ele>
        <time>2021-09-19T07:14:35Z</time>
      </trkpt>
      <trkpt lat="49.09526" lon="1.64967">
        <ele>95.4</ele>
        <time>2021-09-19T07:14:38Z</time>
      </trkpt>
      <trkpt lat="49.09523" lon="1.64966">
        <ele>95.8</ele>
        <time>2021-09-19T07:14:40Z</time>
      </trkpt>
      <trkpt lat="49.09519" lon="1.64964">
        <ele>96.4</ele>
        <time>2021-09-19T07:14:43Z</time>
      </trkpt>
      <trkpt lat="49.09515" lon="1.64961">
        <ele>97</ele>
        <time>2021-09-19T07:14:46Z</time>
      </trkpt>
      <trkpt lat="49.09513" lon="1.64959">
        <ele>97.4</ele>
        <time>2021-09-19T07:14:48Z</time>
      </trkpt>
      <trkpt lat="49.09507" lon="1.64955">
        <ele>98.2</ele>
        <time>2021-09-19T07:14:52Z</time>
      </trkpt>
      <trkpt lat="49.09504" lon="1.64953">
        <ele>98.8</ele>
        <time>2021-09-19T07:14:54Z</time>
      </trkpt>
      <trkpt lat="49.09494" lon="1.64948">
        <ele>99.6</ele>
        <time>2021-09-19T07:15:00Z</time>
      </trkpt>
      <trkpt lat="49.0949" lon="1.64946">
        <ele>99.8</ele>
        <time>2021-09-19T07:15:02Z</time>
      </trkpt>
      <trkpt lat="49.0948" lon="1.64943">
        <ele>100.4</ele>
        <time>2021-09-19T07:15:07Z</time>
      </trkpt>
      <trkpt lat="49.09473" lon="1.6494">
        <ele>101</ele>
        <time>2021-09-19T07:15:11Z</time>
      </trkpt>
      <trkpt lat="49.09468" lon="1.64939">
        <ele>101.2</ele>
        <time>2021-09-19T07:15:13Z</time>
      </trkpt>
      <trkpt lat="49.0946" lon="1.64933">
        <ele>101.8</ele>
        <time>2021-09-19T07:15:17Z</time>
      </trkpt>
      <trkpt lat="49.09454" lon="1.6493">
        <ele>102.2</ele>
        <time>2021-09-19T07:15:20Z</time>
      </trkpt>
      <trkpt lat="49.09443" lon="1.64926">
        <ele>102.8</ele>
        <time>2021-09-19T07:15:24Z</time>
      </trkpt>
      <trkpt lat="49.09439" lon="1.64922">
        <ele>103.4</ele>
        <time>2021-09-19T07:15:26Z</time>
      </trkpt>
      <trkpt lat="49.09427" lon="1.64916">
        <ele>103.8</ele>
        <time>2021-09-19T07:15:30Z</time>
      </trkpt>
      <trkpt lat="49.09412" lon="1.64908">
        <ele>104</ele>
        <time>2021-09-19T07:15:35Z</time>
      </trkpt>
      <trkpt lat="49.09406" lon="1.64904">
        <ele>104.2</ele>
        <time>2021-09-19T07:15:37Z</time>
      </trkpt>
      <trkpt lat="49.09399" lon="1.64901">
        <ele>104.2</ele>
        <time>2021-09-19T07:15:39Z</time>
      </trkpt>
      <trkpt lat="49.09383" lon="1.64893">
        <ele>104.6</ele>
        <time>2021-09-19T07:15:43Z</time>
      </trkpt>
      <trkpt lat="49.09367" lon="1.64885">
        <ele>104.8</ele>
        <time>2021-09-19T07:15:47Z</time>
      </trkpt>
      <trkpt lat="49.09361" lon="1.64883">
        <ele>104.8</ele>
        <time>2021-09-19T07:15:48Z</time>
      </trkpt>
      <trkpt lat="49.09349" lon="1.64879">
        <ele>105</ele>
        <time>2021-09-19T07:15:51Z</time>
      </trkpt>
      <trkpt lat="49.09327" lon="1.6487">
        <ele>105.2</ele>
        <time>2021-09-19T07:15:56Z</time>
      </trkpt>
      <trkpt lat="49.09323" lon="1.64867">
        <ele>105.2</ele>
        <time>2021-09-19T07:15:57Z</time>
      </trkpt>
      <trkpt lat="49.09299" lon="1.64854">
        <ele>105.4</ele>
        <time>2021-09-19T07:16:03Z</time>
      </trkpt>
      <trkpt lat="49.09277" lon="1.64844">
        <ele>105.8</ele>
        <time>2021-09-19T07:16:08Z</time>
      </trkpt>
      <trkpt lat="49.09262" lon="1.64838">
        <ele>106.2</ele>
        <time>2021-09-19T07:16:12Z</time>
      </trkpt>
      <trkpt lat="49.09253" lon="1.64834">
        <ele>106.4</ele>
        <time>2021-09-19T07:16:14Z</time>
      </trkpt>
      <trkpt lat="49.09232" lon="1.64824">
        <ele>106.8</ele>
        <time>2021-09-19T07:16:19Z</time>
      </trkpt>
      <trkpt lat="49.09222" lon="1.6482">
        <ele>107</ele>
        <time>2021-09-19T07:16:21Z</time>
      </trkpt>
      <trkpt lat="49.09208" lon="1.64814">
        <ele>107.4</ele>
        <time>2021-09-19T07:16:24Z</time>
      </trkpt>
      <trkpt lat="49.09186" lon="1.64815">
        <ele>108.2</ele>
        <time>2021-09-19T07:16:29Z</time>
      </trkpt>
      <trkpt lat="49.09163" lon="1.64821">
        <ele>108.4</ele>
        <time>2021-09-19T07:16:34Z</time>
      </trkpt>
      <trkpt lat="49.09148" lon="1.64825">
        <ele>108.6</ele>
        <time>2021-09-19T07:16:39Z</time>
      </trkpt>
      <trkpt lat="49.09131" lon="1.64831">
        <ele>109.2</ele>
        <time>2021-09-19T07:16:43Z</time>
      </trkpt>
      <trkpt lat="49.09111" lon="1.64839">
        <ele>109.6</ele>
        <time>2021-09-19T07:16:48Z</time>
      </trkpt>
      <trkpt lat="49.09093" lon="1.64848">
        <ele>109.8</ele>
        <time>2021-09-19T07:16:52Z</time>
      </trkpt>
      <trkpt lat="49.09078" lon="1.64855">
        <ele>110</ele>
        <time>2021-09-19T07:16:56Z</time>
      </trkpt>
      <trkpt lat="49.09066" lon="1.64858">
        <ele>110</ele>
        <time>2021-09-19T07:17:00Z</time>
      </trkpt>
      <trkpt lat="49.09064" lon="1.64857">
        <ele>109.8</ele>
        <time>2021-09-19T07:17:01Z</time>
      </trkpt>
      <trkpt lat="49.09065" lon="1.64842">
        <ele>109.4</ele>
        <time>2021-09-19T07:17:05Z</time>
      </trkpt>
      <trkpt lat="49.09067" lon="1.64823">
        <ele>109.2</ele>
        <time>2021-09-19T07:17:09Z</time>
      </trkpt>
      <trkpt lat="49.09067" lon="1.64808">
        <ele>108.8</ele>
        <time>2021-09-19T07:17:13Z</time>
      </trkpt>
      <trkpt lat="49.09067" lon="1.64803">
        <ele>107.8</ele>
        <time>2021-09-19T07:17:15Z</time>
      </trkpt>
      <trkpt lat="49.09065" lon="1.64793">
        <ele>107.2</ele>
        <time>2021-09-19T07:17:18Z</time>
      </trkpt>
      <trkpt lat="49.09061" lon="1.64782">
        <ele>106.8</ele>
        <time>2021-09-19T07:17:22Z</time>
      </trkpt>
      <trkpt lat="49.0906" lon="1.64773">
        <ele>106.8</ele>
        <time>2021-09-19T07:17:24Z</time>
      </trkpt>
      <trkpt lat="49.09057" lon="1.64741">
        <ele>106.6</ele>
        <time>2021-09-19T07:17:30Z</time>
      </trkpt>
      <trkpt lat="49.09055" lon="1.64716">
        <ele>106.4</ele>
        <time>2021-09-19T07:17:35Z</time>
      </trkpt>
      <trkpt lat="49.09054" lon="1.64693">
        <ele>106.8</ele>
        <time>2021-09-19T07:17:40Z</time>
      </trkpt>
      <trkpt lat="49.09054" lon="1.64668">
        <ele>107</ele>
        <time>2021-09-19T07:17:45Z</time>
      </trkpt>
      <trkpt lat="49.09051" lon="1.64631">
        <ele>107.6</ele>
        <time>2021-09-19T07:17:52Z</time>
      </trkpt>
      <trkpt lat="49.09051" lon="1.64625">
        <ele>107.8</ele>
        <time>2021-09-19T07:17:53Z</time>
      </trkpt>
      <trkpt lat="49.0905" lon="1.64604">
        <ele>108.4</ele>
        <time>2021-09-19T07:17:58Z</time>
      </trkpt>
      <trkpt lat="49.09049" lon="1.64596">
        <ele>108.8</ele>
        <time>2021-09-19T07:18:00Z</time>
      </trkpt>
      <trkpt lat="49.09049" lon="1.64572">
        <ele>109.4</ele>
        <time>2021-09-19T07:18:05Z</time>
      </trkpt>
      <trkpt lat="49.09045" lon="1.64552">
        <ele>110</ele>
        <time>2021-09-19T07:18:10Z</time>
      </trkpt>
      <trkpt lat="49.09045" lon="1.64547">
        <ele>110</ele>
        <time>2021-09-19T07:18:11Z</time>
      </trkpt>
      <trkpt lat="49.09045" lon="1.6452">
        <ele>110.4</ele>
        <time>2021-09-19T07:18:16Z</time>
      </trkpt>
      <trkpt lat="49.09045" lon="1.64492">
        <ele>111</ele>
        <time>2021-09-19T07:18:21Z</time>
      </trkpt>
      <trkpt lat="49.09045" lon="1.64488">
        <ele>110.8</ele>
        <time>2021-09-19T07:18:22Z</time>
      </trkpt>
      <trkpt lat="49.09046" lon="1.64469">
        <ele>111.2</ele>
        <time>2021-09-19T07:18:26Z</time>
      </trkpt>
      <trkpt lat="49.09046" lon="1.64445">
        <ele>111.4</ele>
        <time>2021-09-19T07:18:31Z</time>
      </trkpt>
      <trkpt lat="49.09045" lon="1.64438">
        <ele>111.8</ele>
        <time>2021-09-19T07:18:33Z</time>
      </trkpt>
      <trkpt lat="49.09041" lon="1.64434">
        <ele>112</ele>
        <time>2021-09-19T07:18:35Z</time>
      </trkpt>
      <trkpt lat="49.09028" lon="1.64427">
        <ele>112.8</ele>
        <time>2021-09-19T07:18:40Z</time>
      </trkpt>
      <trkpt lat="49.09026" lon="1.64426">
        <ele>113</ele>
        <time>2021-09-19T07:18:41Z</time>
      </trkpt>
      <trkpt lat="49.09019" lon="1.64421">
        <ele>113.6</ele>
        <time>2021-09-19T07:18:44Z</time>
      </trkpt>
      <trkpt lat="49.09004" lon="1.64416">
        <ele>113.8</ele>
        <time>2021-09-19T07:18:49Z</time>
      </trkpt>
      <trkpt lat="49.0899" lon="1.64412">
        <ele>114.2</ele>
        <time>2021-09-19T07:18:53Z</time>
      </trkpt>
      <trkpt lat="49.08987" lon="1.64412">
        <ele>114.4</ele>
        <time>2021-09-19T07:18:54Z</time>
      </trkpt>
      <trkpt lat="49.08979" lon="1.64409">
        <ele>114.6</ele>
        <time>2021-09-19T07:18:57Z</time>
      </trkpt>
      <trkpt lat="49.08976" lon="1.64409">
        <ele>114.6</ele>
        <time>2021-09-19T07:18:58Z</time>
      </trkpt>
      <trkpt lat="49.08961" lon="1.64404">
        <ele>114.8</ele>
        <time>2021-09-19T07:19:03Z</time>
      </trkpt>
      <trkpt lat="49.08958" lon="1.64403">
        <ele>115</ele>
        <time>2021-09-19T07:19:04Z</time>
      </trkpt>
      <trkpt lat="49.08941" lon="1.644">
        <ele>115.8</ele>
        <time>2021-09-19T07:19:08Z</time>
      </trkpt>
      <trkpt lat="49.08922" lon="1.64395">
        <ele>116</ele>
        <time>2021-09-19T07:19:13Z</time>
      </trkpt>
      <trkpt lat="49.08915" lon="1.64393">
        <ele>116.4</ele>
        <time>2021-09-19T07:19:15Z</time>
      </trkpt>
      <trkpt lat="49.08897" lon="1.64389">
        <ele>116.8</ele>
        <time>2021-09-19T07:19:20Z</time>
      </trkpt>
      <trkpt lat="49.08883" lon="1.64385">
        <ele>117.2</ele>
        <time>2021-09-19T07:19:24Z</time>
      </trkpt>
      <trkpt lat="49.08872" lon="1.64384">
        <ele>117.8</ele>
        <time>2021-09-19T07:19:28Z</time>
      </trkpt>
      <trkpt lat="49.08858" lon="1.64382">
        <ele>118.2</ele>
        <time>2021-09-19T07:19:32Z</time>
      </trkpt>
      <trkpt lat="49.08854" lon="1.64381">
        <ele>118.2</ele>
        <time>2021-09-19T07:19:33Z</time>
      </trkpt>
      <trkpt lat="49.08835" lon="1.64379">
        <ele>119.2</ele>
        <time>2021-09-19T07:19:39Z</time>
      </trkpt>
      <trkpt lat="49.0883" lon="1.64379">
        <ele>119.4</ele>
        <time>2021-09-19T07:19:40Z</time>
      </trkpt>
      <trkpt lat="49.08812" lon="1.64378">
        <ele>119.6</ele>
        <time>2021-09-19T07:19:44Z</time>
      </trkpt>
      <trkpt lat="49.08785" lon="1.64373">
        <ele>120</ele>
        <time>2021-09-19T07:19:50Z</time>
      </trkpt>
      <trkpt lat="49.08767" lon="1.64371">
        <ele>120.2</ele>
        <time>2021-09-19T07:19:54Z</time>
      </trkpt>
      <trkpt lat="49.08744" lon="1.64367">
        <ele>120.6</ele>
        <time>2021-09-19T07:19:59Z</time>
      </trkpt>
      <trkpt lat="49.08722" lon="1.64363">
        <ele>121</ele>
        <time>2021-09-19T07:20:04Z</time>
      </trkpt>
      <trkpt lat="49.08715" lon="1.64359">
        <ele>121.2</ele>
        <time>2021-09-19T07:20:09Z</time>
      </trkpt>
      <trkpt lat="49.08712" lon="1.64358">
        <ele>121.2</ele>
        <time>2021-09-19T07:20:10Z</time>
      </trkpt>
      <trkpt lat="49.08703" lon="1.64357">
        <ele>121.2</ele>
        <time>2021-09-19T07:20:13Z</time>
      </trkpt>
      <trkpt lat="49.087" lon="1.64357">
        <ele>121.2</ele>
        <time>2021-09-19T07:20:14Z</time>
      </trkpt>
      <trkpt lat="49.08684" lon="1.64357">
        <ele>121.2</ele>
        <time>2021-09-19T07:20:19Z</time>
      </trkpt>
      <trkpt lat="49.08677" lon="1.64359">
        <ele>121.2</ele>
        <time>2021-09-19T07:20:21Z</time>
      </trkpt>
      <trkpt lat="49.08672" lon="1.6436">
        <ele>121</ele>
        <time>2021-09-19T07:20:22Z</time>
      </trkpt>
      <trkpt lat="49.08662" lon="1.64352">
        <ele>120.8</ele>
        <time>2021-09-19T07:20:25Z</time>
      </trkpt>
      <trkpt lat="49.08656" lon="1.64347">
        <ele>119.4</ele>
        <time>2021-09-19T07:20:30Z</time>
      </trkpt>
      <trkpt lat="49.08654" lon="1.64346">
        <ele>118</ele>
        <time>2021-09-19T07:20:32Z</time>
      </trkpt>
      <trkpt lat="49.08652" lon="1.64344">
        <ele>116.8</ele>
        <time>2021-09-19T07:20:34Z</time>
      </trkpt>
      <trkpt lat="49.0865" lon="1.64347">
        <ele>115.4</ele>
        <time>2021-09-19T07:20:37Z</time>
      </trkpt>
      <trkpt lat="49.0865" lon="1.64361">
        <ele>114.2</ele>
        <time>2021-09-19T07:20:41Z</time>
      </trkpt>
      <trkpt lat="49.08649" lon="1.64381">
        <ele>113.2</ele>
        <time>2021-09-19T07:20:45Z</time>
      </trkpt>
      <trkpt lat="49.08648" lon="1.64387">
        <ele>112.6</ele>
        <time>2021-09-19T07:20:48Z</time>
      </trkpt>
      <trkpt lat="49.08648" lon="1.64389">
        <ele>112.4</ele>
        <time>2021-09-19T07:20:50Z</time>
      </trkpt>
      <trkpt lat="49.08648" lon="1.64394">
        <ele>112</ele>
        <time>2021-09-19T07:20:55Z</time>
      </trkpt>
      <trkpt lat="49.08648" lon="1.64395">
        <ele>112</ele>
        <time>2021-09-19T07:20:57Z</time>
      </trkpt>
      <trkpt lat="49.08647" lon="1.64397">
        <ele>112.4</ele>
        <time>2021-09-19T07:22:10Z</time>
      </trkpt>
      <trkpt lat="49.08647" lon="1.64403">
        <ele>112.4</ele>
        <time>2021-09-19T07:22:13Z</time>
      </trkpt>
      <trkpt lat="49.08649" lon="1.64425">
        <ele>112.6</ele>
        <time>2021-09-19T07:22:19Z</time>
      </trkpt>
      <trkpt lat="49.08652" lon="1.64453">
        <ele>112.6</ele>
        <time>2021-09-19T07:22:25Z</time>
      </trkpt>
      <trkpt lat="49.08655" lon="1.6448">
        <ele>112.6</ele>
        <time>2021-09-19T07:22:31Z</time>
      </trkpt>
      <trkpt lat="49.08655" lon="1.64485">
        <ele>112.6</ele>
        <time>2021-09-19T07:22:32Z</time>
      </trkpt>
      <trkpt lat="49.08657" lon="1.645">
        <ele>112.6</ele>
        <time>2021-09-19T07:22:35Z</time>
      </trkpt>
      <trkpt lat="49.08658" lon="1.64507">
        <ele>112.6</ele>
        <time>2021-09-19T07:22:37Z</time>
      </trkpt>
      <trkpt lat="49.08659" lon="1.64511">
        <ele>112.6</ele>
        <time>2021-09-19T07:22:38Z</time>
      </trkpt>
      <trkpt lat="49.08659" lon="1.64531">
        <ele>112.6</ele>
        <time>2021-09-19T07:22:42Z</time>
      </trkpt>
      <trkpt lat="49.08657" lon="1.64559">
        <ele>112.6</ele>
        <time>2021-09-19T07:22:47Z</time>
      </trkpt>
      <trkpt lat="49.08657" lon="1.64575">
        <ele>112.6</ele>
        <time>2021-09-19T07:22:51Z</time>
      </trkpt>
      <trkpt lat="49.08658" lon="1.64577">
        <ele>112.8</ele>
        <time>2021-09-19T07:22:53Z</time>
      </trkpt>
      <trkpt lat="49.08658" lon="1.64581">
        <ele>113.4</ele>
        <time>2021-09-19T07:23:36Z</time>
      </trkpt>
      <trkpt lat="49.08658" lon="1.64584">
        <ele>113.4</ele>
        <time>2021-09-19T07:23:37Z</time>
      </trkpt>
      <trkpt lat="49.08655" lon="1.64608">
        <ele>113.4</ele>
        <time>2021-09-19T07:23:42Z</time>
      </trkpt>
      <trkpt lat="49.08655" lon="1.64615">
        <ele>113.2</ele>
        <time>2021-09-19T07:23:43Z</time>
      </trkpt>
      <trkpt lat="49.08652" lon="1.64632">
        <ele>112.8</ele>
        <time>2021-09-19T07:23:46Z</time>
      </trkpt>
      <trkpt lat="49.08647" lon="1.64648">
        <ele>111.8</ele>
        <time>2021-09-19T07:23:50Z</time>
      </trkpt>
      <trkpt lat="49.08645" lon="1.6465">
        <ele>111.4</ele>
        <time>2021-09-19T07:23:51Z</time>
      </trkpt>
      <trkpt lat="49.08644" lon="1.64652">
        <ele>110.8</ele>
        <time>2021-09-19T07:23:52Z</time>
      </trkpt>
      <trkpt lat="49.08639" lon="1.64661">
        <ele>110</ele>
        <time>2021-09-19T07:23:55Z</time>
      </trkpt>
      <trkpt lat="49.0863" lon="1.6467">
        <ele>108.8</ele>
        <time>2021-09-19T07:23:59Z</time>
      </trkpt>
      <trkpt lat="49.08626" lon="1.64676">
        <ele>108.2</ele>
        <time>2021-09-19T07:24:01Z</time>
      </trkpt>
      <trkpt lat="49.08621" lon="1.64681">
        <ele>107.4</ele>
        <time>2021-09-19T07:24:03Z</time>
      </trkpt>
      <trkpt lat="49.08616" lon="1.64685">
        <ele>106.6</ele>
        <time>2021-09-19T07:24:05Z</time>
      </trkpt>
      <trkpt lat="49.08613" lon="1.64686">
        <ele>106.2</ele>
        <time>2021-09-19T07:24:06Z</time>
      </trkpt>
      <trkpt lat="49.08611" lon="1.64689">
        <ele>106</ele>
        <time>2021-09-19T07:24:07Z</time>
      </trkpt>
      <trkpt lat="49.08599" lon="1.64702">
        <ele>105.6</ele>
        <time>2021-09-19T07:24:11Z</time>
      </trkpt>
      <trkpt lat="49.08588" lon="1.64716">
        <ele>105.2</ele>
        <time>2021-09-19T07:24:14Z</time>
      </trkpt>
      <trkpt lat="49.08581" lon="1.64725">
        <ele>105</ele>
        <time>2021-09-19T07:24:16Z</time>
      </trkpt>
      <trkpt lat="49.08573" lon="1.64732">
        <ele>103.8</ele>
        <time>2021-09-19T07:24:19Z</time>
      </trkpt>
      <trkpt lat="49.08571" lon="1.64734">
        <ele>103.2</ele>
        <time>2021-09-19T07:24:20Z</time>
      </trkpt>
      <trkpt lat="49.08568" lon="1.64734">
        <ele>102.4</ele>
        <time>2021-09-19T07:24:21Z</time>
      </trkpt>
      <trkpt lat="49.08558" lon="1.64732">
        <ele>101.4</ele>
        <time>2021-09-19T07:24:24Z</time>
      </trkpt>
      <trkpt lat="49.08555" lon="1.6473">
        <ele>101.4</ele>
        <time>2021-09-19T07:24:25Z</time>
      </trkpt>
      <trkpt lat="49.08546" lon="1.64732">
        <ele>100.8</ele>
        <time>2021-09-19T07:24:28Z</time>
      </trkpt>
      <trkpt lat="49.08544" lon="1.64742">
        <ele>100.6</ele>
        <time>2021-09-19T07:24:31Z</time>
      </trkpt>
      <trkpt lat="49.08545" lon="1.6475">
        <ele>100.2</ele>
        <time>2021-09-19T07:24:33Z</time>
      </trkpt>
      <trkpt lat="49.08545" lon="1.6476">
        <ele>99.4</ele>
        <time>2021-09-19T07:24:35Z</time>
      </trkpt>
      <trkpt lat="49.08546" lon="1.64766">
        <ele>99</ele>
        <time>2021-09-19T07:24:36Z</time>
      </trkpt>
      <trkpt lat="49.08551" lon="1.64784">
        <ele>98</ele>
        <time>2021-09-19T07:24:39Z</time>
      </trkpt>
      <trkpt lat="49.08553" lon="1.64789">
        <ele>98</ele>
        <time>2021-09-19T07:24:40Z</time>
      </trkpt>
      <trkpt lat="49.08554" lon="1.64795">
        <ele>97.8</ele>
        <time>2021-09-19T07:24:41Z</time>
      </trkpt>
      <trkpt lat="49.0856" lon="1.64813">
        <ele>96.4</ele>
        <time>2021-09-19T07:24:44Z</time>
      </trkpt>
      <trkpt lat="49.08563" lon="1.64822">
        <ele>94.6</ele>
        <time>2021-09-19T07:24:46Z</time>
      </trkpt>
      <trkpt lat="49.08562" lon="1.6483">
        <ele>93.8</ele>
        <time>2021-09-19T07:24:48Z</time>
      </trkpt>
      <trkpt lat="49.08561" lon="1.64833">
        <ele>93.6</ele>
        <time>2021-09-19T07:24:49Z</time>
      </trkpt>
      <trkpt lat="49.08555" lon="1.64844">
        <ele>92.6</ele>
        <time>2021-09-19T07:24:52Z</time>
      </trkpt>
      <trkpt lat="49.08553" lon="1.64848">
        <ele>92.6</ele>
        <time>2021-09-19T07:24:53Z</time>
      </trkpt>
      <trkpt lat="49.0855" lon="1.64852">
        <ele>92.6</ele>
        <time>2021-09-19T07:24:54Z</time>
      </trkpt>
      <trkpt lat="49.08541" lon="1.64867">
        <ele>92.2</ele>
        <time>2021-09-19T07:24:58Z</time>
      </trkpt>
      <trkpt lat="49.08534" lon="1.64885">
        <ele>92.4</ele>
        <time>2021-09-19T07:25:03Z</time>
      </trkpt>
      <trkpt lat="49.0853" lon="1.64901">
        <ele>92.4</ele>
        <time>2021-09-19T07:25:08Z</time>
      </trkpt>
      <trkpt lat="49.08531" lon="1.64906">
        <ele>92.8</ele>
        <time>2021-09-19T07:25:10Z</time>
      </trkpt>
      <trkpt lat="49.08535" lon="1.6491">
        <ele>93.6</ele>
        <time>2021-09-19T07:25:13Z</time>
      </trkpt>
      <trkpt lat="49.08537" lon="1.64911">
        <ele>94</ele>
        <time>2021-09-19T07:25:14Z</time>
      </trkpt>
      <trkpt lat="49.08545" lon="1.6492">
        <ele>94.8</ele>
        <time>2021-09-19T07:25:18Z</time>
      </trkpt>
      <trkpt lat="49.08547" lon="1.64921">
        <ele>95.2</ele>
        <time>2021-09-19T07:25:19Z</time>
      </trkpt>
      <trkpt lat="49.08554" lon="1.64924">
        <ele>96</ele>
        <time>2021-09-19T07:25:23Z</time>
      </trkpt>
      <trkpt lat="49.08555" lon="1.64924">
        <ele>96.2</ele>
        <time>2021-09-19T07:25:24Z</time>
      </trkpt>
      <trkpt lat="49.08565" lon="1.64925">
        <ele>96.6</ele>
        <time>2021-09-19T07:25:30Z</time>
      </trkpt>
      <trkpt lat="49.08569" lon="1.64926">
        <ele>97.2</ele>
        <time>2021-09-19T07:25:33Z</time>
      </trkpt>
      <trkpt lat="49.08572" lon="1.64926">
        <ele>98</ele>
        <time>2021-09-19T07:25:35Z</time>
      </trkpt>
      <trkpt lat="49.08573" lon="1.64927">
        <ele>98.8</ele>
        <time>2021-09-19T07:25:37Z</time>
      </trkpt>
      <trkpt lat="49.08574" lon="1.64929">
        <ele>99.6</ele>
        <time>2021-09-19T07:25:38Z</time>
      </trkpt>
      <trkpt lat="49.08575" lon="1.6493">
        <ele>100.2</ele>
        <time>2021-09-19T07:25:39Z</time>
      </trkpt>
      <trkpt lat="49.08578" lon="1.64932">
        <ele>101.2</ele>
        <time>2021-09-19T07:25:41Z</time>
      </trkpt>
      <trkpt lat="49.08582" lon="1.64934">
        <ele>102.6</ele>
        <time>2021-09-19T07:25:44Z</time>
      </trkpt>
      <trkpt lat="49.08583" lon="1.64937">
        <ele>103</ele>
        <time>2021-09-19T07:25:46Z</time>
      </trkpt>
      <trkpt lat="49.08588" lon="1.64943">
        <ele>103.8</ele>
        <time>2021-09-19T07:25:51Z</time>
      </trkpt>
      <trkpt lat="49.08591" lon="1.64948">
        <ele>104.8</ele>
        <time>2021-09-19T07:25:55Z</time>
      </trkpt>
      <trkpt lat="49.08592" lon="1.6495">
        <ele>105</ele>
        <time>2021-09-19T07:25:56Z</time>
      </trkpt>
      <trkpt lat="49.08594" lon="1.64954">
        <ele>105.4</ele>
        <time>2021-09-19T07:25:58Z</time>
      </trkpt>
      <trkpt lat="49.08592" lon="1.64962">
        <ele>106</ele>
        <time>2021-09-19T07:26:01Z</time>
      </trkpt>
      <trkpt lat="49.08592" lon="1.64967">
        <ele>106.6</ele>
        <time>2021-09-19T07:26:05Z</time>
      </trkpt>
      <trkpt lat="49.08597" lon="1.64983">
        <ele>109.6</ele>
        <time>2021-09-19T07:26:25Z</time>
      </trkpt>
      <trkpt lat="49.08597" lon="1.64985">
        <ele>109.8</ele>
        <time>2021-09-19T07:26:26Z</time>
      </trkpt>
      <trkpt lat="49.08597" lon="1.64991">
        <ele>110</ele>
        <time>2021-09-19T07:26:29Z</time>
      </trkpt>
      <trkpt lat="49.08596" lon="1.64998">
        <ele>110.2</ele>
        <time>2021-09-19T07:26:31Z</time>
      </trkpt>
      <trkpt lat="49.08596" lon="1.65022">
        <ele>110.2</ele>
        <time>2021-09-19T07:26:36Z</time>
      </trkpt>
      <trkpt lat="49.08597" lon="1.65034">
        <ele>109.8</ele>
        <time>2021-09-19T07:26:39Z</time>
      </trkpt>
      <trkpt lat="49.08596" lon="1.65037">
        <ele>109.4</ele>
        <time>2021-09-19T07:26:40Z</time>
      </trkpt>
      <trkpt lat="49.08597" lon="1.65044">
        <ele>108.4</ele>
        <time>2021-09-19T07:26:42Z</time>
      </trkpt>
      <trkpt lat="49.08598" lon="1.65051">
        <ele>107.4</ele>
        <time>2021-09-19T07:26:44Z</time>
      </trkpt>
      <trkpt lat="49.08598" lon="1.65055">
        <ele>106.8</ele>
        <time>2021-09-19T07:26:45Z</time>
      </trkpt>
      <trkpt lat="49.08597" lon="1.65059">
        <ele>106.2</ele>
        <time>2021-09-19T07:26:46Z</time>
      </trkpt>
      <trkpt lat="49.08596" lon="1.65074">
        <ele>105</ele>
        <time>2021-09-19T07:26:49Z</time>
      </trkpt>
      <trkpt lat="49.08595" lon="1.65081">
        <ele>104.4</ele>
        <time>2021-09-19T07:26:50Z</time>
      </trkpt>
      <trkpt lat="49.08593" lon="1.65094">
        <ele>103.8</ele>
        <time>2021-09-19T07:26:52Z</time>
      </trkpt>
      <trkpt lat="49.08591" lon="1.65113">
        <ele>102.6</ele>
        <time>2021-09-19T07:26:55Z</time>
      </trkpt>
      <trkpt lat="49.0859" lon="1.65125">
        <ele>101.4</ele>
        <time>2021-09-19T07:26:57Z</time>
      </trkpt>
      <trkpt lat="49.08587" lon="1.65138">
        <ele>99.8</ele>
        <time>2021-09-19T07:26:59Z</time>
      </trkpt>
      <trkpt lat="49.08586" lon="1.65145">
        <ele>99</ele>
        <time>2021-09-19T07:27:00Z</time>
      </trkpt>
      <trkpt lat="49.08584" lon="1.65153">
        <ele>98</ele>
        <time>2021-09-19T07:27:01Z</time>
      </trkpt>
      <trkpt lat="49.08583" lon="1.65159">
        <ele>96.4</ele>
        <time>2021-09-19T07:27:02Z</time>
      </trkpt>
      <trkpt lat="49.08581" lon="1.65168">
        <ele>94.8</ele>
        <time>2021-09-19T07:27:04Z</time>
      </trkpt>
      <trkpt lat="49.08578" lon="1.65174">
        <ele>92.8</ele>
        <time>2021-09-19T07:27:06Z</time>
      </trkpt>
      <trkpt lat="49.08577" lon="1.65178">
        <ele>91.6</ele>
        <time>2021-09-19T07:27:07Z</time>
      </trkpt>
      <trkpt lat="49.08575" lon="1.65182">
        <ele>90.4</ele>
        <time>2021-09-19T07:27:08Z</time>
      </trkpt>
      <trkpt lat="49.08573" lon="1.65184">
        <ele>89.4</ele>
        <time>2021-09-19T07:27:09Z</time>
      </trkpt>
      <trkpt lat="49.08571" lon="1.65187">
        <ele>88.4</ele>
        <time>2021-09-19T07:27:10Z</time>
      </trkpt>
      <trkpt lat="49.08566" lon="1.65194">
        <ele>86.8</ele>
        <time>2021-09-19T07:27:12Z</time>
      </trkpt>
      <trkpt lat="49.08562" lon="1.65199">
        <ele>85.6</ele>
        <time>2021-09-19T07:27:14Z</time>
      </trkpt>
      <trkpt lat="49.08558" lon="1.65206">
        <ele>84.2</ele>
        <time>2021-09-19T07:27:16Z</time>
      </trkpt>
      <trkpt lat="49.08557" lon="1.6521">
        <ele>83.2</ele>
        <time>2021-09-19T07:27:17Z</time>
      </trkpt>
      <trkpt lat="49.08557" lon="1.65214">
        <ele>82.4</ele>
        <time>2021-09-19T07:27:18Z</time>
      </trkpt>
      <trkpt lat="49.08557" lon="1.65219">
        <ele>80.8</ele>
        <time>2021-09-19T07:27:20Z</time>
      </trkpt>
      <trkpt lat="49.08558" lon="1.6522">
        <ele>79.8</ele>
        <time>2021-09-19T07:27:21Z</time>
      </trkpt>
      <trkpt lat="49.08559" lon="1.65222">
        <ele>78.8</ele>
        <time>2021-09-19T07:27:22Z</time>
      </trkpt>
      <trkpt lat="49.0856" lon="1.65225">
        <ele>77.8</ele>
        <time>2021-09-19T07:27:23Z</time>
      </trkpt>
      <trkpt lat="49.08562" lon="1.65229">
        <ele>76.2</ele>
        <time>2021-09-19T07:27:25Z</time>
      </trkpt>
      <trkpt lat="49.08564" lon="1.65232">
        <ele>74.6</ele>
        <time>2021-09-19T07:27:27Z</time>
      </trkpt>
      <trkpt lat="49.08567" lon="1.65235">
        <ele>73.4</ele>
        <time>2021-09-19T07:27:30Z</time>
      </trkpt>
      <trkpt lat="49.08571" lon="1.65239">
        <ele>73.2</ele>
        <time>2021-09-19T07:27:33Z</time>
      </trkpt>
      <trkpt lat="49.08573" lon="1.65242">
        <ele>73.2</ele>
        <time>2021-09-19T07:27:35Z</time>
      </trkpt>
      <trkpt lat="49.08577" lon="1.65245">
        <ele>73.6</ele>
        <time>2021-09-19T07:27:38Z</time>
      </trkpt>
      <trkpt lat="49.08581" lon="1.65248">
        <ele>74.4</ele>
        <time>2021-09-19T07:27:41Z</time>
      </trkpt>
      <trkpt lat="49.08582" lon="1.65249">
        <ele>74.8</ele>
        <time>2021-09-19T07:27:42Z</time>
      </trkpt>
      <trkpt lat="49.08587" lon="1.65251">
        <ele>75.8</ele>
        <time>2021-09-19T07:27:45Z</time>
      </trkpt>
      <trkpt lat="49.0859" lon="1.65255">
        <ele>76.4</ele>
        <time>2021-09-19T07:27:48Z</time>
      </trkpt>
      <trkpt lat="49.08592" lon="1.65257">
        <ele>76.8</ele>
        <time>2021-09-19T07:27:50Z</time>
      </trkpt>
      <trkpt lat="49.08597" lon="1.6526">
        <ele>78</ele>
        <time>2021-09-19T07:27:54Z</time>
      </trkpt>
      <trkpt lat="49.08598" lon="1.65261">
        <ele>78.2</ele>
        <time>2021-09-19T07:27:55Z</time>
      </trkpt>
      <trkpt lat="49.08602" lon="1.65263">
        <ele>79</ele>
        <time>2021-09-19T07:27:58Z</time>
      </trkpt>
      <trkpt lat="49.08606" lon="1.65265">
        <ele>80</ele>
        <time>2021-09-19T07:28:01Z</time>
      </trkpt>
      <trkpt lat="49.08607" lon="1.65266">
        <ele>80.2</ele>
        <time>2021-09-19T07:28:02Z</time>
      </trkpt>
      <trkpt lat="49.08613" lon="1.65269">
        <ele>81</ele>
        <time>2021-09-19T07:28:07Z</time>
      </trkpt>
      <trkpt lat="49.08615" lon="1.6527">
        <ele>81.2</ele>
        <time>2021-09-19T07:28:08Z</time>
      </trkpt>
      <trkpt lat="49.08621" lon="1.65275">
        <ele>82.4</ele>
        <time>2021-09-19T07:28:14Z</time>
      </trkpt>
      <trkpt lat="49.08622" lon="1.65276">
        <ele>82.6</ele>
        <time>2021-09-19T07:28:15Z</time>
      </trkpt>
      <trkpt lat="49.08627" lon="1.65284">
        <ele>83.6</ele>
        <time>2021-09-19T07:28:19Z</time>
      </trkpt>
      <trkpt lat="49.08629" lon="1.65287">
        <ele>83.8</ele>
        <time>2021-09-19T07:28:21Z</time>
      </trkpt>
      <trkpt lat="49.08634" lon="1.65293">
        <ele>84.6</ele>
        <time>2021-09-19T07:28:25Z</time>
      </trkpt>
      <trkpt lat="49.08637" lon="1.653">
        <ele>85.6</ele>
        <time>2021-09-19T07:28:28Z</time>
      </trkpt>
      <trkpt lat="49.08638" lon="1.65301">
        <ele>86</ele>
        <time>2021-09-19T07:28:29Z</time>
      </trkpt>
      <trkpt lat="49.08644" lon="1.65309">
        <ele>86.8</ele>
        <time>2021-09-19T07:28:34Z</time>
      </trkpt>
      <trkpt lat="49.08645" lon="1.65311">
        <ele>87</ele>
        <time>2021-09-19T07:28:35Z</time>
      </trkpt>
      <trkpt lat="49.08647" lon="1.65314">
        <ele>87.6</ele>
        <time>2021-09-19T07:28:37Z</time>
      </trkpt>
      <trkpt lat="49.08648" lon="1.65317">
        <ele>88</ele>
        <time>2021-09-19T07:28:39Z</time>
      </trkpt>
      <trkpt lat="49.08649" lon="1.65321">
        <ele>88</ele>
        <time>2021-09-19T07:28:41Z</time>
      </trkpt>
      <trkpt lat="49.0865" lon="1.65323">
        <ele>88.2</ele>
        <time>2021-09-19T07:28:42Z</time>
      </trkpt>
      <trkpt lat="49.08652" lon="1.65328">
        <ele>88.8</ele>
        <time>2021-09-19T07:28:45Z</time>
      </trkpt>
      <trkpt lat="49.08654" lon="1.65331">
        <ele>89.2</ele>
        <time>2021-09-19T07:28:47Z</time>
      </trkpt>
      <trkpt lat="49.08657" lon="1.65339">
        <ele>90</ele>
        <time>2021-09-19T07:28:51Z</time>
      </trkpt>
      <trkpt lat="49.08658" lon="1.65342">
        <ele>90.2</ele>
        <time>2021-09-19T07:28:53Z</time>
      </trkpt>
      <trkpt lat="49.08661" lon="1.65348">
        <ele>91</ele>
        <time>2021-09-19T07:28:56Z</time>
      </trkpt>
      <trkpt lat="49.08662" lon="1.65354">
        <ele>91.6</ele>
        <time>2021-09-19T07:28:59Z</time>
      </trkpt>
      <trkpt lat="49.08662" lon="1.6536">
        <ele>92.2</ele>
        <time>2021-09-19T07:29:02Z</time>
      </trkpt>
      <trkpt lat="49.08663" lon="1.65364">
        <ele>92.4</ele>
        <time>2021-09-19T07:29:04Z</time>
      </trkpt>
      <trkpt lat="49.08663" lon="1.65366">
        <ele>92.6</ele>
        <time>2021-09-19T07:29:05Z</time>
      </trkpt>
      <trkpt lat="49.08663" lon="1.65372">
        <ele>93.2</ele>
        <time>2021-09-19T07:29:08Z</time>
      </trkpt>
      <trkpt lat="49.08662" lon="1.6538">
        <ele>94.2</ele>
        <time>2021-09-19T07:29:12Z</time>
      </trkpt>
      <trkpt lat="49.08662" lon="1.65381">
        <ele>94.6</ele>
        <time>2021-09-19T07:29:13Z</time>
      </trkpt>
      <trkpt lat="49.08662" lon="1.65385">
        <ele>95</ele>
        <time>2021-09-19T07:29:15Z</time>
      </trkpt>
      <trkpt lat="49.08662" lon="1.6539">
        <ele>95.6</ele>
        <time>2021-09-19T07:29:18Z</time>
      </trkpt>
      <trkpt lat="49.08661" lon="1.65397">
        <ele>96.8</ele>
        <time>2021-09-19T07:29:22Z</time>
      </trkpt>
      <trkpt lat="49.08661" lon="1.654">
        <ele>97.4</ele>
        <time>2021-09-19T07:29:24Z</time>
      </trkpt>
      <trkpt lat="49.08661" lon="1.65402">
        <ele>97.6</ele>
        <time>2021-09-19T07:29:25Z</time>
      </trkpt>
      <trkpt lat="49.08661" lon="1.65405">
        <ele>98</ele>
        <time>2021-09-19T07:29:27Z</time>
      </trkpt>
      <trkpt lat="49.08661" lon="1.65409">
        <ele>98.6</ele>
        <time>2021-09-19T07:29:30Z</time>
      </trkpt>
      <trkpt lat="49.08661" lon="1.65412">
        <ele>99</ele>
        <time>2021-09-19T07:29:32Z</time>
      </trkpt>
      <trkpt lat="49.08662" lon="1.65418">
        <ele>100</ele>
        <time>2021-09-19T07:29:36Z</time>
      </trkpt>
      <trkpt lat="49.08662" lon="1.6542">
        <ele>100.2</ele>
        <time>2021-09-19T07:29:37Z</time>
      </trkpt>
      <trkpt lat="49.08662" lon="1.65427">
        <ele>101.4</ele>
        <time>2021-09-19T07:29:42Z</time>
      </trkpt>
      <trkpt lat="49.08661" lon="1.65433">
        <ele>102</ele>
        <time>2021-09-19T07:29:46Z</time>
      </trkpt>
      <trkpt lat="49.08661" lon="1.65435">
        <ele>102.4</ele>
        <time>2021-09-19T07:29:47Z</time>
      </trkpt>
      <trkpt lat="49.08661" lon="1.65439">
        <ele>103.6</ele>
        <time>2021-09-19T07:29:50Z</time>
      </trkpt>
      <trkpt lat="49.08662" lon="1.65449">
        <ele>104.8</ele>
        <time>2021-09-19T07:29:55Z</time>
      </trkpt>
      <trkpt lat="49.08662" lon="1.65451">
        <ele>105</ele>
        <time>2021-09-19T07:29:56Z</time>
      </trkpt>
      <trkpt lat="49.08662" lon="1.65459">
        <ele>106</ele>
        <time>2021-09-19T07:30:00Z</time>
      </trkpt>
      <trkpt lat="49.08661" lon="1.65466">
        <ele>106.8</ele>
        <time>2021-09-19T07:30:04Z</time>
      </trkpt>
      <trkpt lat="49.08661" lon="1.65468">
        <ele>107</ele>
        <time>2021-09-19T07:30:05Z</time>
      </trkpt>
      <trkpt lat="49.08663" lon="1.65478">
        <ele>108.2</ele>
        <time>2021-09-19T07:30:10Z</time>
      </trkpt>
      <trkpt lat="49.08665" lon="1.65483">
        <ele>108.8</ele>
        <time>2021-09-19T07:30:13Z</time>
      </trkpt>
      <trkpt lat="49.08665" lon="1.65487">
        <ele>109.2</ele>
        <time>2021-09-19T07:30:15Z</time>
      </trkpt>
      <trkpt lat="49.08665" lon="1.65492">
        <ele>110.4</ele>
        <time>2021-09-19T07:30:19Z</time>
      </trkpt>
      <trkpt lat="49.08665" lon="1.65496">
        <ele>111</ele>
        <time>2021-09-19T07:30:22Z</time>
      </trkpt>
      <trkpt lat="49.08665" lon="1.65499">
        <ele>111.4</ele>
        <time>2021-09-19T07:30:24Z</time>
      </trkpt>
      <trkpt lat="49.08664" lon="1.65507">
        <ele>112.6</ele>
        <time>2021-09-19T07:30:30Z</time>
      </trkpt>
      <trkpt lat="49.08665" lon="1.65509">
        <ele>112.8</ele>
        <time>2021-09-19T07:30:31Z</time>
      </trkpt>
      <trkpt lat="49.08665" lon="1.65517">
        <ele>113.8</ele>
        <time>2021-09-19T07:30:36Z</time>
      </trkpt>
      <trkpt lat="49.08665" lon="1.65526">
        <ele>114.4</ele>
        <time>2021-09-19T07:30:40Z</time>
      </trkpt>
      <trkpt lat="49.08665" lon="1.65528">
        <ele>114.8</ele>
        <time>2021-09-19T07:30:41Z</time>
      </trkpt>
      <trkpt lat="49.08665" lon="1.65539">
        <ele>116.2</ele>
        <time>2021-09-19T07:30:46Z</time>
      </trkpt>
      <trkpt lat="49.08665" lon="1.65541">
        <ele>116.4</ele>
        <time>2021-09-19T07:30:47Z</time>
      </trkpt>
      <trkpt lat="49.08665" lon="1.65549">
        <ele>117.2</ele>
        <time>2021-09-19T07:30:51Z</time>
      </trkpt>
      <trkpt lat="49.08666" lon="1.65562">
        <ele>118.6</ele>
        <time>2021-09-19T07:30:57Z</time>
      </trkpt>
      <trkpt lat="49.08667" lon="1.65566">
        <ele>119</ele>
        <time>2021-09-19T07:30:59Z</time>
      </trkpt>
      <trkpt lat="49.08669" lon="1.65573">
        <ele>119.8</ele>
        <time>2021-09-19T07:31:03Z</time>
      </trkpt>
      <trkpt lat="49.08671" lon="1.65577">
        <ele>120.6</ele>
        <time>2021-09-19T07:31:06Z</time>
      </trkpt>
      <trkpt lat="49.08671" lon="1.6558">
        <ele>121</ele>
        <time>2021-09-19T07:31:08Z</time>
      </trkpt>
      <trkpt lat="49.08674" lon="1.65591">
        <ele>122.4</ele>
        <time>2021-09-19T07:31:14Z</time>
      </trkpt>
      <trkpt lat="49.08676" lon="1.65595">
        <ele>123</ele>
        <time>2021-09-19T07:31:16Z</time>
      </trkpt>
      <trkpt lat="49.08678" lon="1.65601">
        <ele>123.6</ele>
        <time>2021-09-19T07:31:19Z</time>
      </trkpt>
      <trkpt lat="49.08682" lon="1.65609">
        <ele>124.8</ele>
        <time>2021-09-19T07:31:24Z</time>
      </trkpt>
      <trkpt lat="49.08684" lon="1.65616">
        <ele>125.6</ele>
        <time>2021-09-19T07:31:28Z</time>
      </trkpt>
      <trkpt lat="49.08684" lon="1.65618">
        <ele>125.8</ele>
        <time>2021-09-19T07:31:29Z</time>
      </trkpt>
      <trkpt lat="49.08683" lon="1.65631">
        <ele>126.8</ele>
        <time>2021-09-19T07:31:35Z</time>
      </trkpt>
      <trkpt lat="49.08684" lon="1.65635">
        <ele>127.2</ele>
        <time>2021-09-19T07:31:37Z</time>
      </trkpt>
      <trkpt lat="49.08684" lon="1.65644">
        <ele>128</ele>
        <time>2021-09-19T07:31:41Z</time>
      </trkpt>
      <trkpt lat="49.08684" lon="1.65654">
        <ele>129</ele>
        <time>2021-09-19T07:31:45Z</time>
      </trkpt>
      <trkpt lat="49.08684" lon="1.65656">
        <ele>129.4</ele>
        <time>2021-09-19T07:31:46Z</time>
      </trkpt>
      <trkpt lat="49.08684" lon="1.65663">
        <ele>130</ele>
        <time>2021-09-19T07:31:49Z</time>
      </trkpt>
      <trkpt lat="49.08684" lon="1.65673">
        <ele>131</ele>
        <time>2021-09-19T07:31:53Z</time>
      </trkpt>
      <trkpt lat="49.08683" lon="1.65676">
        <ele>131.2</ele>
        <time>2021-09-19T07:31:54Z</time>
      </trkpt>
      <trkpt lat="49.08682" lon="1.65689">
        <ele>131.6</ele>
        <time>2021-09-19T07:31:58Z</time>
      </trkpt>
      <trkpt lat="49.0868" lon="1.65711">
        <ele>132.2</ele>
        <time>2021-09-19T07:32:05Z</time>
      </trkpt>
      <trkpt lat="49.08679" lon="1.65714">
        <ele>132.4</ele>
        <time>2021-09-19T07:32:06Z</time>
      </trkpt>
      <trkpt lat="49.08679" lon="1.65717">
        <ele>132.4</ele>
        <time>2021-09-19T07:32:07Z</time>
      </trkpt>
      <trkpt lat="49.08678" lon="1.65731">
        <ele>132.6</ele>
        <time>2021-09-19T07:32:13Z</time>
      </trkpt>
      <trkpt lat="49.08677" lon="1.65734">
        <ele>132.8</ele>
        <time>2021-09-19T07:32:14Z</time>
      </trkpt>
      <trkpt lat="49.08671" lon="1.65751">
        <ele>132.8</ele>
        <time>2021-09-19T07:32:19Z</time>
      </trkpt>
      <trkpt lat="49.08665" lon="1.6578">
        <ele>133</ele>
        <time>2021-09-19T07:32:26Z</time>
      </trkpt>
      <trkpt lat="49.08662" lon="1.65804">
        <ele>133.2</ele>
        <time>2021-09-19T07:32:31Z</time>
      </trkpt>
      <trkpt lat="49.08655" lon="1.65827">
        <ele>133.2</ele>
        <time>2021-09-19T07:32:36Z</time>
      </trkpt>
      <trkpt lat="49.08648" lon="1.65846">
        <ele>133.2</ele>
        <time>2021-09-19T07:32:41Z</time>
      </trkpt>
      <trkpt lat="49.08644" lon="1.65866">
        <ele>133</ele>
        <time>2021-09-19T07:32:46Z</time>
      </trkpt>
      <trkpt lat="49.08641" lon="1.65874">
        <ele>133</ele>
        <time>2021-09-19T07:32:48Z</time>
      </trkpt>
      <trkpt lat="49.08639" lon="1.65883">
        <ele>132.8</ele>
        <time>2021-09-19T07:32:50Z</time>
      </trkpt>
      <trkpt lat="49.08634" lon="1.65892">
        <ele>132.8</ele>
        <time>2021-09-19T07:32:52Z</time>
      </trkpt>
      <trkpt lat="49.08632" lon="1.65904">
        <ele>132.8</ele>
        <time>2021-09-19T07:32:54Z</time>
      </trkpt>
      <trkpt lat="49.08635" lon="1.65925">
        <ele>132.6</ele>
        <time>2021-09-19T07:32:58Z</time>
      </trkpt>
      <trkpt lat="49.08635" lon="1.65937">
        <ele>132.6</ele>
        <time>2021-09-19T07:33:00Z</time>
      </trkpt>
      <trkpt lat="49.08635" lon="1.65951">
        <ele>132.2</ele>
        <time>2021-09-19T07:33:03Z</time>
      </trkpt>
      <trkpt lat="49.08635" lon="1.65968">
        <ele>132.2</ele>
        <time>2021-09-19T07:33:06Z</time>
      </trkpt>
      <trkpt lat="49.08635" lon="1.65973">
        <ele>132.2</ele>
        <time>2021-09-19T07:33:07Z</time>
      </trkpt>
      <trkpt lat="49.08633" lon="1.66">
        <ele>132.2</ele>
        <time>2021-09-19T07:33:12Z</time>
      </trkpt>
      <trkpt lat="49.08626" lon="1.66033">
        <ele>133.2</ele>
        <time>2021-09-19T07:33:18Z</time>
      </trkpt>
      <trkpt lat="49.08615" lon="1.66069">
        <ele>133.4</ele>
        <time>2021-09-19T07:33:25Z</time>
      </trkpt>
      <trkpt lat="49.08609" lon="1.66109">
        <ele>133.6</ele>
        <time>2021-09-19T07:33:31Z</time>
      </trkpt>
      <trkpt lat="49.08605" lon="1.66137">
        <ele>134.2</ele>
        <time>2021-09-19T07:33:36Z</time>
      </trkpt>
      <trkpt lat="49.08604" lon="1.66148">
        <ele>134.2</ele>
        <time>2021-09-19T07:33:38Z</time>
      </trkpt>
      <trkpt lat="49.08601" lon="1.6616">
        <ele>134.4</ele>
        <time>2021-09-19T07:33:40Z</time>
      </trkpt>
      <trkpt lat="49.08591" lon="1.66203">
        <ele>134.4</ele>
        <time>2021-09-19T07:33:47Z</time>
      </trkpt>
      <trkpt lat="49.08587" lon="1.66215">
        <ele>134.4</ele>
        <time>2021-09-19T07:33:49Z</time>
      </trkpt>
      <trkpt lat="49.08584" lon="1.66227">
        <ele>134.4</ele>
        <time>2021-09-19T07:33:51Z</time>
      </trkpt>
      <trkpt lat="49.08575" lon="1.66251">
        <ele>134.4</ele>
        <time>2021-09-19T07:33:55Z</time>
      </trkpt>
      <trkpt lat="49.08572" lon="1.66258">
        <ele>134.2</ele>
        <time>2021-09-19T07:33:56Z</time>
      </trkpt>
      <trkpt lat="49.08561" lon="1.66294">
        <ele>133.8</ele>
        <time>2021-09-19T07:34:01Z</time>
      </trkpt>
      <trkpt lat="49.08562" lon="1.66299">
        <ele>133.6</ele>
        <time>2021-09-19T07:34:02Z</time>
      </trkpt>
      <trkpt lat="49.08567" lon="1.66305">
        <ele>133.2</ele>
        <time>2021-09-19T07:34:04Z</time>
      </trkpt>
      <trkpt lat="49.08572" lon="1.66309">
        <ele>133.2</ele>
        <time>2021-09-19T07:34:06Z</time>
      </trkpt>
      <trkpt lat="49.08584" lon="1.6632">
        <ele>133.2</ele>
        <time>2021-09-19T07:34:10Z</time>
      </trkpt>
      <trkpt lat="49.08592" lon="1.66348">
        <ele>133.6</ele>
        <time>2021-09-19T07:34:15Z</time>
      </trkpt>
      <trkpt lat="49.08594" lon="1.66371">
        <ele>134.4</ele>
        <time>2021-09-19T07:34:19Z</time>
      </trkpt>
      <trkpt lat="49.08595" lon="1.66389">
        <ele>135</ele>
        <time>2021-09-19T07:34:22Z</time>
      </trkpt>
      <trkpt lat="49.08596" lon="1.66402">
        <ele>135.4</ele>
        <time>2021-09-19T07:34:24Z</time>
      </trkpt>
      <trkpt lat="49.08595" lon="1.66421">
        <ele>136.4</ele>
        <time>2021-09-19T07:34:27Z</time>
      </trkpt>
      <trkpt lat="49.08594" lon="1.66428">
        <ele>136.6</ele>
        <time>2021-09-19T07:34:28Z</time>
      </trkpt>
      <trkpt lat="49.08585" lon="1.66482">
        <ele>137</ele>
        <time>2021-09-19T07:34:35Z</time>
      </trkpt>
      <trkpt lat="49.08576" lon="1.6653">
        <ele>136.2</ele>
        <time>2021-09-19T07:34:41Z</time>
      </trkpt>
      <trkpt lat="49.08564" lon="1.66581">
        <ele>136</ele>
        <time>2021-09-19T07:34:48Z</time>
      </trkpt>
      <trkpt lat="49.08562" lon="1.66588">
        <ele>136</ele>
        <time>2021-09-19T07:34:49Z</time>
      </trkpt>
      <trkpt lat="49.08558" lon="1.666">
        <ele>136</ele>
        <time>2021-09-19T07:34:51Z</time>
      </trkpt>
      <trkpt lat="49.08553" lon="1.66612">
        <ele>136</ele>
        <time>2021-09-19T07:34:53Z</time>
      </trkpt>
      <trkpt lat="49.08535" lon="1.66649">
        <ele>136.2</ele>
        <time>2021-09-19T07:34:59Z</time>
      </trkpt>
      <trkpt lat="49.08512" lon="1.66684">
        <ele>136.8</ele>
        <time>2021-09-19T07:35:06Z</time>
      </trkpt>
      <trkpt lat="49.08492" lon="1.66722">
        <ele>137.4</ele>
        <time>2021-09-19T07:35:13Z</time>
      </trkpt>
      <trkpt lat="49.08489" lon="1.66727">
        <ele>137.4</ele>
        <time>2021-09-19T07:35:14Z</time>
      </trkpt>
      <trkpt lat="49.08482" lon="1.66737">
        <ele>138</ele>
        <time>2021-09-19T07:35:16Z</time>
      </trkpt>
      <trkpt lat="49.08475" lon="1.66754">
        <ele>138.2</ele>
        <time>2021-09-19T07:35:19Z</time>
      </trkpt>
      <trkpt lat="49.08473" lon="1.6676">
        <ele>138.2</ele>
        <time>2021-09-19T07:35:20Z</time>
      </trkpt>
      <trkpt lat="49.08467" lon="1.66787">
        <ele>138.6</ele>
        <time>2021-09-19T07:35:25Z</time>
      </trkpt>
      <trkpt lat="49.08465" lon="1.66801">
        <ele>139.2</ele>
        <time>2021-09-19T07:35:27Z</time>
      </trkpt>
      <trkpt lat="49.08462" lon="1.66821">
        <ele>139.4</ele>
        <time>2021-09-19T07:35:30Z</time>
      </trkpt>
      <trkpt lat="49.08458" lon="1.66846">
        <ele>139.6</ele>
        <time>2021-09-19T07:35:34Z</time>
      </trkpt>
      <trkpt lat="49.08455" lon="1.66852">
        <ele>139.6</ele>
        <time>2021-09-19T07:35:35Z</time>
      </trkpt>
      <trkpt lat="49.08453" lon="1.66874">
        <ele>139.6</ele>
        <time>2021-09-19T07:35:39Z</time>
      </trkpt>
      <trkpt lat="49.08449" lon="1.66884">
        <ele>139.6</ele>
        <time>2021-09-19T07:35:42Z</time>
      </trkpt>
      <trkpt lat="49.08448" lon="1.66887">
        <ele>139.6</ele>
        <time>2021-09-19T07:35:43Z</time>
      </trkpt>
      <trkpt lat="49.08439" lon="1.6691">
        <ele>139.6</ele>
        <time>2021-09-19T07:35:49Z</time>
      </trkpt>
      <trkpt lat="49.08434" lon="1.66919">
        <ele>140.2</ele>
        <time>2021-09-19T07:35:51Z</time>
      </trkpt>
      <trkpt lat="49.08427" lon="1.66931">
        <ele>141</ele>
        <time>2021-09-19T07:35:54Z</time>
      </trkpt>
      <trkpt lat="49.08415" lon="1.66951">
        <ele>141.2</ele>
        <time>2021-09-19T07:35:58Z</time>
      </trkpt>
      <trkpt lat="49.08412" lon="1.66956">
        <ele>141.2</ele>
        <time>2021-09-19T07:35:59Z</time>
      </trkpt>
      <trkpt lat="49.084" lon="1.66978">
        <ele>141.4</ele>
        <time>2021-09-19T07:36:03Z</time>
      </trkpt>
      <trkpt lat="49.08397" lon="1.66983">
        <ele>141.4</ele>
        <time>2021-09-19T07:36:04Z</time>
      </trkpt>
      <trkpt lat="49.08394" lon="1.66988">
        <ele>141.4</ele>
        <time>2021-09-19T07:36:05Z</time>
      </trkpt>
      <trkpt lat="49.08373" lon="1.67014">
        <ele>141.4</ele>
        <time>2021-09-19T07:36:11Z</time>
      </trkpt>
      <trkpt lat="49.08366" lon="1.67032">
        <ele>141.6</ele>
        <time>2021-09-19T07:36:15Z</time>
      </trkpt>
      <trkpt lat="49.08356" lon="1.67063">
        <ele>142.2</ele>
        <time>2021-09-19T07:36:21Z</time>
      </trkpt>
      <trkpt lat="49.08354" lon="1.67074">
        <ele>143</ele>
        <time>2021-09-19T07:36:23Z</time>
      </trkpt>
      <trkpt lat="49.08352" lon="1.67085">
        <ele>143.4</ele>
        <time>2021-09-19T07:36:25Z</time>
      </trkpt>
      <trkpt lat="49.08346" lon="1.67111">
        <ele>144.4</ele>
        <time>2021-09-19T07:36:30Z</time>
      </trkpt>
      <trkpt lat="49.08343" lon="1.67122">
        <ele>144.6</ele>
        <time>2021-09-19T07:36:32Z</time>
      </trkpt>
      <trkpt lat="49.08337" lon="1.67148">
        <ele>145</ele>
        <time>2021-09-19T07:36:37Z</time>
      </trkpt>
      <trkpt lat="49.08333" lon="1.67168">
        <ele>145.2</ele>
        <time>2021-09-19T07:36:41Z</time>
      </trkpt>
      <trkpt lat="49.08326" lon="1.67193">
        <ele>145.2</ele>
        <time>2021-09-19T07:36:46Z</time>
      </trkpt>
      <trkpt lat="49.08315" lon="1.67217">
        <ele>145.4</ele>
        <time>2021-09-19T07:36:51Z</time>
      </trkpt>
      <trkpt lat="49.08309" lon="1.67233">
        <ele>145.6</ele>
        <time>2021-09-19T07:36:54Z</time>
      </trkpt>
      <trkpt lat="49.08301" lon="1.67256">
        <ele>146</ele>
        <time>2021-09-19T07:36:58Z</time>
      </trkpt>
      <trkpt lat="49.083" lon="1.67263">
        <ele>146</ele>
        <time>2021-09-19T07:36:59Z</time>
      </trkpt>
      <trkpt lat="49.08297" lon="1.67285">
        <ele>146.4</ele>
        <time>2021-09-19T07:37:02Z</time>
      </trkpt>
      <trkpt lat="49.08287" lon="1.67313">
        <ele>146.6</ele>
        <time>2021-09-19T07:37:07Z</time>
      </trkpt>
      <trkpt lat="49.08282" lon="1.67324">
        <ele>146.8</ele>
        <time>2021-09-19T07:37:09Z</time>
      </trkpt>
      <trkpt lat="49.08278" lon="1.67336">
        <ele>147</ele>
        <time>2021-09-19T07:37:11Z</time>
      </trkpt>
      <trkpt lat="49.08274" lon="1.67349">
        <ele>147</ele>
        <time>2021-09-19T07:37:13Z</time>
      </trkpt>
      <trkpt lat="49.0826" lon="1.67391">
        <ele>147</ele>
        <time>2021-09-19T07:37:20Z</time>
      </trkpt>
      <trkpt lat="49.08241" lon="1.67451">
        <ele>146.8</ele>
        <time>2021-09-19T07:37:29Z</time>
      </trkpt>
      <trkpt lat="49.08227" lon="1.67503">
        <ele>146.8</ele>
        <time>2021-09-19T07:37:37Z</time>
      </trkpt>
      <trkpt lat="49.08219" lon="1.67531">
        <ele>147</ele>
        <time>2021-09-19T07:37:42Z</time>
      </trkpt>
      <trkpt lat="49.08211" lon="1.67555">
        <ele>147.2</ele>
        <time>2021-09-19T07:37:46Z</time>
      </trkpt>
      <trkpt lat="49.08208" lon="1.67569">
        <ele>147.2</ele>
        <time>2021-09-19T07:37:48Z</time>
      </trkpt>
      <trkpt lat="49.08202" lon="1.6761">
        <ele>147.4</ele>
        <time>2021-09-19T07:37:54Z</time>
      </trkpt>
      <trkpt lat="49.08192" lon="1.67645">
        <ele>147.2</ele>
        <time>2021-09-19T07:37:59Z</time>
      </trkpt>
      <trkpt lat="49.08191" lon="1.67652">
        <ele>147.2</ele>
        <time>2021-09-19T07:38:00Z</time>
      </trkpt>
      <trkpt lat="49.08192" lon="1.67684">
        <ele>146.8</ele>
        <time>2021-09-19T07:38:05Z</time>
      </trkpt>
      <trkpt lat="49.08188" lon="1.67701">
        <ele>146.8</ele>
        <time>2021-09-19T07:38:09Z</time>
      </trkpt>
      <trkpt lat="49.08188" lon="1.67703">
        <ele>146.6</ele>
        <time>2021-09-19T07:38:10Z</time>
      </trkpt>
      <trkpt lat="49.08189" lon="1.67707">
        <ele>146.6</ele>
        <time>2021-09-19T07:38:13Z</time>
      </trkpt>
      <trkpt lat="49.08192" lon="1.67711">
        <ele>146.6</ele>
        <time>2021-09-19T07:38:15Z</time>
      </trkpt>
      <trkpt lat="49.08196" lon="1.6772">
        <ele>146.6</ele>
        <time>2021-09-19T07:38:18Z</time>
      </trkpt>
      <trkpt lat="49.08205" lon="1.67736">
        <ele>146.6</ele>
        <time>2021-09-19T07:38:24Z</time>
      </trkpt>
      <trkpt lat="49.0821" lon="1.6774">
        <ele>146.2</ele>
        <time>2021-09-19T07:38:30Z</time>
      </trkpt>
      <trkpt lat="49.0821" lon="1.67743">
        <ele>145.8</ele>
        <time>2021-09-19T07:43:00Z</time>
      </trkpt>
      <trkpt lat="49.08214" lon="1.67748">
        <ele>145.8</ele>
        <time>2021-09-19T07:43:03Z</time>
      </trkpt>
      <trkpt lat="49.08227" lon="1.67766">
        <ele>145.6</ele>
        <time>2021-09-19T07:43:08Z</time>
      </trkpt>
      <trkpt lat="49.08233" lon="1.67777">
        <ele>145.6</ele>
        <time>2021-09-19T07:43:10Z</time>
      </trkpt>
      <trkpt lat="49.08241" lon="1.67786">
        <ele>145.4</ele>
        <time>2021-09-19T07:43:12Z</time>
      </trkpt>
      <trkpt lat="49.08259" lon="1.67809">
        <ele>144.6</ele>
        <time>2021-09-19T07:43:17Z</time>
      </trkpt>
      <trkpt lat="49.08267" lon="1.67818">
        <ele>144</ele>
        <time>2021-09-19T07:43:19Z</time>
      </trkpt>
      <trkpt lat="49.0827" lon="1.67822">
        <ele>143.8</ele>
        <time>2021-09-19T07:43:20Z</time>
      </trkpt>
      <trkpt lat="49.08281" lon="1.67836">
        <ele>143.6</ele>
        <time>2021-09-19T07:43:23Z</time>
      </trkpt>
      <trkpt lat="49.08289" lon="1.67846">
        <ele>143.6</ele>
        <time>2021-09-19T07:43:25Z</time>
      </trkpt>
      <trkpt lat="49.08307" lon="1.67873">
        <ele>143</ele>
        <time>2021-09-19T07:43:30Z</time>
      </trkpt>
      <trkpt lat="49.08322" lon="1.67895">
        <ele>142.4</ele>
        <time>2021-09-19T07:43:34Z</time>
      </trkpt>
      <trkpt lat="49.0833" lon="1.67906">
        <ele>142.2</ele>
        <time>2021-09-19T07:43:36Z</time>
      </trkpt>
      <trkpt lat="49.08352" lon="1.67937">
        <ele>141.2</ele>
        <time>2021-09-19T07:43:42Z</time>
      </trkpt>
      <trkpt lat="49.08366" lon="1.67958">
        <ele>140.6</ele>
        <time>2021-09-19T07:43:46Z</time>
      </trkpt>
      <trkpt lat="49.084" lon="1.67997">
        <ele>140.2</ele>
        <time>2021-09-19T07:43:54Z</time>
      </trkpt>
      <trkpt lat="49.08406" lon="1.68001">
        <ele>140</ele>
        <time>2021-09-19T07:43:55Z</time>
      </trkpt>
      <trkpt lat="49.08432" lon="1.68022">
        <ele>139.2</ele>
        <time>2021-09-19T07:44:00Z</time>
      </trkpt>
      <trkpt lat="49.08437" lon="1.68026">
        <ele>138.8</ele>
        <time>2021-09-19T07:44:01Z</time>
      </trkpt>
      <trkpt lat="49.08458" lon="1.68042">
        <ele>137.4</ele>
        <time>2021-09-19T07:44:05Z</time>
      </trkpt>
      <trkpt lat="49.08473" lon="1.68053">
        <ele>136.6</ele>
        <time>2021-09-19T07:44:08Z</time>
      </trkpt>
      <trkpt lat="49.08489" lon="1.68064">
        <ele>136.4</ele>
        <time>2021-09-19T07:44:11Z</time>
      </trkpt>
      <trkpt lat="49.08509" lon="1.68077">
        <ele>136</ele>
        <time>2021-09-19T07:44:14Z</time>
      </trkpt>
      <trkpt lat="49.08548" lon="1.68095">
        <ele>135</ele>
        <time>2021-09-19T07:44:20Z</time>
      </trkpt>
      <trkpt lat="49.08561" lon="1.68099">
        <ele>133.6</ele>
        <time>2021-09-19T07:44:22Z</time>
      </trkpt>
      <trkpt lat="49.08573" lon="1.68102">
        <ele>132.4</ele>
        <time>2021-09-19T07:44:24Z</time>
      </trkpt>
      <trkpt lat="49.08597" lon="1.68106">
        <ele>131.2</ele>
        <time>2021-09-19T07:44:28Z</time>
      </trkpt>
      <trkpt lat="49.08608" lon="1.68104">
        <ele>131.2</ele>
        <time>2021-09-19T07:44:30Z</time>
      </trkpt>
      <trkpt lat="49.08623" lon="1.68095">
        <ele>131.2</ele>
        <time>2021-09-19T07:44:33Z</time>
      </trkpt>
      <trkpt lat="49.08637" lon="1.68073">
        <ele>131.2</ele>
        <time>2021-09-19T07:44:37Z</time>
      </trkpt>
      <trkpt lat="49.08639" lon="1.68065">
        <ele>131</ele>
        <time>2021-09-19T07:44:38Z</time>
      </trkpt>
      <trkpt lat="49.08646" lon="1.68022">
        <ele>131</ele>
        <time>2021-09-19T07:44:43Z</time>
      </trkpt>
      <trkpt lat="49.08648" lon="1.68003">
        <ele>130.2</ele>
        <time>2021-09-19T07:44:45Z</time>
      </trkpt>
      <trkpt lat="49.08652" lon="1.67959">
        <ele>129.8</ele>
        <time>2021-09-19T07:44:50Z</time>
      </trkpt>
      <trkpt lat="49.08654" lon="1.67952">
        <ele>129.6</ele>
        <time>2021-09-19T07:44:51Z</time>
      </trkpt>
      <trkpt lat="49.08668" lon="1.67937">
        <ele>129.6</ele>
        <time>2021-09-19T07:44:54Z</time>
      </trkpt>
      <trkpt lat="49.08681" lon="1.67932">
        <ele>129.4</ele>
        <time>2021-09-19T07:44:56Z</time>
      </trkpt>
      <trkpt lat="49.087" lon="1.67929">
        <ele>129.4</ele>
        <time>2021-09-19T07:44:59Z</time>
      </trkpt>
      <trkpt lat="49.08714" lon="1.67928">
        <ele>129.2</ele>
        <time>2021-09-19T07:45:01Z</time>
      </trkpt>
      <trkpt lat="49.08721" lon="1.67928">
        <ele>128.8</ele>
        <time>2021-09-19T07:45:02Z</time>
      </trkpt>
      <trkpt lat="49.08734" lon="1.67935">
        <ele>128</ele>
        <time>2021-09-19T07:45:04Z</time>
      </trkpt>
      <trkpt lat="49.08755" lon="1.67952">
        <ele>126.8</ele>
        <time>2021-09-19T07:45:07Z</time>
      </trkpt>
      <trkpt lat="49.08767" lon="1.67964">
        <ele>126.4</ele>
        <time>2021-09-19T07:45:09Z</time>
      </trkpt>
      <trkpt lat="49.08773" lon="1.67968">
        <ele>126</ele>
        <time>2021-09-19T07:45:10Z</time>
      </trkpt>
      <trkpt lat="49.08778" lon="1.67971">
        <ele>125.6</ele>
        <time>2021-09-19T07:45:11Z</time>
      </trkpt>
      <trkpt lat="49.08784" lon="1.67972">
        <ele>125.2</ele>
        <time>2021-09-19T07:45:12Z</time>
      </trkpt>
      <trkpt lat="49.08789" lon="1.67973">
        <ele>124.6</ele>
        <time>2021-09-19T07:45:13Z</time>
      </trkpt>
      <trkpt lat="49.08798" lon="1.67975">
        <ele>123.2</ele>
        <time>2021-09-19T07:45:15Z</time>
      </trkpt>
      <trkpt lat="49.08801" lon="1.67978">
        <ele>121.8</ele>
        <time>2021-09-19T07:45:16Z</time>
      </trkpt>
      <trkpt lat="49.08809" lon="1.67991">
        <ele>120.4</ele>
        <time>2021-09-19T07:45:19Z</time>
      </trkpt>
      <trkpt lat="49.08811" lon="1.67996">
        <ele>119.8</ele>
        <time>2021-09-19T07:45:20Z</time>
      </trkpt>
      <trkpt lat="49.08813" lon="1.67999">
        <ele>119.4</ele>
        <time>2021-09-19T07:45:21Z</time>
      </trkpt>
      <trkpt lat="49.08816" lon="1.68001">
        <ele>119.2</ele>
        <time>2021-09-19T07:45:22Z</time>
      </trkpt>
      <trkpt lat="49.0882" lon="1.68002">
        <ele>119</ele>
        <time>2021-09-19T07:45:23Z</time>
      </trkpt>
      <trkpt lat="49.08829" lon="1.68002">
        <ele>118.8</ele>
        <time>2021-09-19T07:45:25Z</time>
      </trkpt>
      <trkpt lat="49.08848" lon="1.68001">
        <ele>118.6</ele>
        <time>2021-09-19T07:45:29Z</time>
      </trkpt>
      <trkpt lat="49.08881" lon="1.68002">
        <ele>118.2</ele>
        <time>2021-09-19T07:45:36Z</time>
      </trkpt>
      <trkpt lat="49.08885" lon="1.68002">
        <ele>118.2</ele>
        <time>2021-09-19T07:45:37Z</time>
      </trkpt>
      <trkpt lat="49.08915" lon="1.68006">
        <ele>119</ele>
        <time>2021-09-19T07:45:45Z</time>
      </trkpt>
      <trkpt lat="49.08918" lon="1.68007">
        <ele>119.2</ele>
        <time>2021-09-19T07:45:46Z</time>
      </trkpt>
      <trkpt lat="49.08928" lon="1.6801">
        <ele>120.2</ele>
        <time>2021-09-19T07:45:49Z</time>
      </trkpt>
      <trkpt lat="49.08939" lon="1.68014">
        <ele>120.8</ele>
        <time>2021-09-19T07:45:52Z</time>
      </trkpt>
      <trkpt lat="49.08946" lon="1.68017">
        <ele>121.4</ele>
        <time>2021-09-19T07:45:54Z</time>
      </trkpt>
      <trkpt lat="49.08961" lon="1.68024">
        <ele>122.4</ele>
        <time>2021-09-19T07:45:58Z</time>
      </trkpt>
      <trkpt lat="49.08969" lon="1.68028">
        <ele>123.2</ele>
        <time>2021-09-19T07:46:00Z</time>
      </trkpt>
      <trkpt lat="49.08973" lon="1.68029">
        <ele>123.4</ele>
        <time>2021-09-19T07:46:01Z</time>
      </trkpt>
      <trkpt lat="49.08977" lon="1.6803">
        <ele>123.8</ele>
        <time>2021-09-19T07:46:02Z</time>
      </trkpt>
      <trkpt lat="49.08985" lon="1.68033">
        <ele>124.2</ele>
        <time>2021-09-19T07:46:04Z</time>
      </trkpt>
      <trkpt lat="49.08999" lon="1.68041">
        <ele>124.8</ele>
        <time>2021-09-19T07:46:08Z</time>
      </trkpt>
      <trkpt lat="49.09009" lon="1.68046">
        <ele>125.8</ele>
        <time>2021-09-19T07:46:11Z</time>
      </trkpt>
      <trkpt lat="49.09029" lon="1.68058">
        <ele>127</ele>
        <time>2021-09-19T07:46:17Z</time>
      </trkpt>
      <trkpt lat="49.09037" lon="1.68063">
        <ele>127.4</ele>
        <time>2021-09-19T07:46:20Z</time>
      </trkpt>
      <trkpt lat="49.09051" lon="1.68066">
        <ele>128</ele>
        <time>2021-09-19T07:46:25Z</time>
      </trkpt>
      <trkpt lat="49.09056" lon="1.68062">
        <ele>128.2</ele>
        <time>2021-09-19T07:46:27Z</time>
      </trkpt>
      <trkpt lat="49.09061" lon="1.68054">
        <ele>128.6</ele>
        <time>2021-09-19T07:46:29Z</time>
      </trkpt>
      <trkpt lat="49.09064" lon="1.68049">
        <ele>128.8</ele>
        <time>2021-09-19T07:46:30Z</time>
      </trkpt>
      <trkpt lat="49.09074" lon="1.68034">
        <ele>129.2</ele>
        <time>2021-09-19T07:46:33Z</time>
      </trkpt>
      <trkpt lat="49.0909" lon="1.68006">
        <ele>129.8</ele>
        <time>2021-09-19T07:46:38Z</time>
      </trkpt>
      <trkpt lat="49.0911" lon="1.67974">
        <ele>129.8</ele>
        <time>2021-09-19T07:46:44Z</time>
      </trkpt>
      <trkpt lat="49.09138" lon="1.67925">
        <ele>129.2</ele>
        <time>2021-09-19T07:46:52Z</time>
      </trkpt>
      <trkpt lat="49.09161" lon="1.67896">
        <ele>128.2</ele>
        <time>2021-09-19T07:46:58Z</time>
      </trkpt>
      <trkpt lat="49.09165" lon="1.67892">
        <ele>128.2</ele>
        <time>2021-09-19T07:46:59Z</time>
      </trkpt>
      <trkpt lat="49.09183" lon="1.67871">
        <ele>127.6</ele>
        <time>2021-09-19T07:47:04Z</time>
      </trkpt>
      <trkpt lat="49.09202" lon="1.67847">
        <ele>127.4</ele>
        <time>2021-09-19T07:47:08Z</time>
      </trkpt>
      <trkpt lat="49.09207" lon="1.6784">
        <ele>127.2</ele>
        <time>2021-09-19T07:47:09Z</time>
      </trkpt>
      <trkpt lat="49.09212" lon="1.67834">
        <ele>127.2</ele>
        <time>2021-09-19T07:47:10Z</time>
      </trkpt>
      <trkpt lat="49.09222" lon="1.67822">
        <ele>126.8</ele>
        <time>2021-09-19T07:47:12Z</time>
      </trkpt>
      <trkpt lat="49.09232" lon="1.67809">
        <ele>126.4</ele>
        <time>2021-09-19T07:47:14Z</time>
      </trkpt>
      <trkpt lat="49.09237" lon="1.67802">
        <ele>126.2</ele>
        <time>2021-09-19T07:47:15Z</time>
      </trkpt>
      <trkpt lat="49.09269" lon="1.67753">
        <ele>125.2</ele>
        <time>2021-09-19T07:47:22Z</time>
      </trkpt>
      <trkpt lat="49.09273" lon="1.67746">
        <ele>124.8</ele>
        <time>2021-09-19T07:47:23Z</time>
      </trkpt>
      <trkpt lat="49.09305" lon="1.67691">
        <ele>124.4</ele>
        <time>2021-09-19T07:47:31Z</time>
      </trkpt>
      <trkpt lat="49.09326" lon="1.67654">
        <ele>124.8</ele>
        <time>2021-09-19T07:47:37Z</time>
      </trkpt>
      <trkpt lat="49.09345" lon="1.67621">
        <ele>126.2</ele>
        <time>2021-09-19T07:47:43Z</time>
      </trkpt>
      <trkpt lat="49.09355" lon="1.67605">
        <ele>127.4</ele>
        <time>2021-09-19T07:47:46Z</time>
      </trkpt>
      <trkpt lat="49.0938" lon="1.67574">
        <ele>128.4</ele>
        <time>2021-09-19T07:47:53Z</time>
      </trkpt>
      <trkpt lat="49.09408" lon="1.67553">
        <ele>129.4</ele>
        <time>2021-09-19T07:48:00Z</time>
      </trkpt>
      <trkpt lat="49.09412" lon="1.67551">
        <ele>129.6</ele>
        <time>2021-09-19T07:48:01Z</time>
      </trkpt>
      <trkpt lat="49.0943" lon="1.67539">
        <ele>130.2</ele>
        <time>2021-09-19T07:48:06Z</time>
      </trkpt>
      <trkpt lat="49.09426" lon="1.67524">
        <ele>130.4</ele>
        <time>2021-09-19T07:48:09Z</time>
      </trkpt>
      <trkpt lat="49.09423" lon="1.67519">
        <ele>130.4</ele>
        <time>2021-09-19T07:48:10Z</time>
      </trkpt>
      <trkpt lat="49.09413" lon="1.67498">
        <ele>130.6</ele>
        <time>2021-09-19T07:48:14Z</time>
      </trkpt>
      <trkpt lat="49.09405" lon="1.67482">
        <ele>131.2</ele>
        <time>2021-09-19T07:48:17Z</time>
      </trkpt>
      <trkpt lat="49.09381" lon="1.67438">
        <ele>131.6</ele>
        <time>2021-09-19T07:48:25Z</time>
      </trkpt>
      <trkpt lat="49.09358" lon="1.67398">
        <ele>131</ele>
        <time>2021-09-19T07:48:32Z</time>
      </trkpt>
      <trkpt lat="49.09331" lon="1.6735">
        <ele>130.4</ele>
        <time>2021-09-19T07:48:39Z</time>
      </trkpt>
      <trkpt lat="49.09324" lon="1.67335">
        <ele>130.2</ele>
        <time>2021-09-19T07:48:41Z</time>
      </trkpt>
      <trkpt lat="49.09317" lon="1.67311">
        <ele>129.8</ele>
        <time>2021-09-19T07:48:44Z</time>
      </trkpt>
      <trkpt lat="49.09318" lon="1.67294">
        <ele>129.4</ele>
        <time>2021-09-19T07:48:46Z</time>
      </trkpt>
      <trkpt lat="49.0932" lon="1.67287">
        <ele>129.2</ele>
        <time>2021-09-19T07:48:47Z</time>
      </trkpt>
      <trkpt lat="49.09333" lon="1.67252">
        <ele>128.6</ele>
        <time>2021-09-19T07:48:52Z</time>
      </trkpt>
      <trkpt lat="49.09335" lon="1.67244">
        <ele>128.4</ele>
        <time>2021-09-19T07:48:53Z</time>
      </trkpt>
      <trkpt lat="49.09337" lon="1.67235">
        <ele>128.2</ele>
        <time>2021-09-19T07:48:54Z</time>
      </trkpt>
      <trkpt lat="49.09338" lon="1.67217">
        <ele>128.2</ele>
        <time>2021-09-19T07:48:56Z</time>
      </trkpt>
      <trkpt lat="49.09338" lon="1.67207">
        <ele>128.2</ele>
        <time>2021-09-19T07:48:57Z</time>
      </trkpt>
      <trkpt lat="49.09341" lon="1.67178">
        <ele>128</ele>
        <time>2021-09-19T07:49:00Z</time>
      </trkpt>
      <trkpt lat="49.09351" lon="1.67141">
        <ele>127.6</ele>
        <time>2021-09-19T07:49:04Z</time>
      </trkpt>
      <trkpt lat="49.09354" lon="1.67132">
        <ele>127.2</ele>
        <time>2021-09-19T07:49:05Z</time>
      </trkpt>
      <trkpt lat="49.09372" lon="1.67058">
        <ele>126.4</ele>
        <time>2021-09-19T07:49:13Z</time>
      </trkpt>
      <trkpt lat="49.09376" lon="1.67044">
        <ele>126.4</ele>
        <time>2021-09-19T07:49:15Z</time>
      </trkpt>
      <trkpt lat="49.09379" lon="1.67042">
        <ele>126.4</ele>
        <time>2021-09-19T07:49:16Z</time>
      </trkpt>
      <trkpt lat="49.09386" lon="1.67042">
        <ele>126.4</ele>
        <time>2021-09-19T07:49:19Z</time>
      </trkpt>
      <trkpt lat="49.09393" lon="1.67044">
        <ele>126.4</ele>
        <time>2021-09-19T07:49:21Z</time>
      </trkpt>
      <trkpt lat="49.09398" lon="1.67045">
        <ele>126.4</ele>
        <time>2021-09-19T07:49:22Z</time>
      </trkpt>
      <trkpt lat="49.09402" lon="1.67045">
        <ele>126.4</ele>
        <time>2021-09-19T07:49:23Z</time>
      </trkpt>
      <trkpt lat="49.09417" lon="1.67046">
        <ele>126.4</ele>
        <time>2021-09-19T07:49:26Z</time>
      </trkpt>
      <trkpt lat="49.09423" lon="1.67047">
        <ele>126.4</ele>
        <time>2021-09-19T07:49:27Z</time>
      </trkpt>
      <trkpt lat="49.09444" lon="1.67037">
        <ele>126.4</ele>
        <time>2021-09-19T07:49:31Z</time>
      </trkpt>
      <trkpt lat="49.09463" lon="1.67026">
        <ele>125.8</ele>
        <time>2021-09-19T07:49:34Z</time>
      </trkpt>
      <trkpt lat="49.09469" lon="1.67021">
        <ele>125.6</ele>
        <time>2021-09-19T07:49:35Z</time>
      </trkpt>
      <trkpt lat="49.09475" lon="1.67014">
        <ele>125.4</ele>
        <time>2021-09-19T07:49:36Z</time>
      </trkpt>
      <trkpt lat="49.09487" lon="1.67">
        <ele>124.6</ele>
        <time>2021-09-19T07:49:38Z</time>
      </trkpt>
      <trkpt lat="49.09499" lon="1.66986">
        <ele>123.4</ele>
        <time>2021-09-19T07:49:40Z</time>
      </trkpt>
      <trkpt lat="49.0951" lon="1.66973">
        <ele>121.6</ele>
        <time>2021-09-19T07:49:42Z</time>
      </trkpt>
      <trkpt lat="49.09515" lon="1.66967">
        <ele>120.2</ele>
        <time>2021-09-19T07:49:43Z</time>
      </trkpt>
      <trkpt lat="49.09519" lon="1.66961">
        <ele>119</ele>
        <time>2021-09-19T07:49:44Z</time>
      </trkpt>
      <trkpt lat="49.09523" lon="1.66954">
        <ele>117.6</ele>
        <time>2021-09-19T07:49:45Z</time>
      </trkpt>
      <trkpt lat="49.09528" lon="1.66946">
        <ele>116.2</ele>
        <time>2021-09-19T07:49:46Z</time>
      </trkpt>
      <trkpt lat="49.09533" lon="1.66939">
        <ele>115.2</ele>
        <time>2021-09-19T07:49:47Z</time>
      </trkpt>
      <trkpt lat="49.09537" lon="1.6693">
        <ele>114.4</ele>
        <time>2021-09-19T07:49:48Z</time>
      </trkpt>
      <trkpt lat="49.09542" lon="1.66922">
        <ele>113.8</ele>
        <time>2021-09-19T07:49:49Z</time>
      </trkpt>
      <trkpt lat="49.0955" lon="1.66909">
        <ele>112.6</ele>
        <time>2021-09-19T07:49:51Z</time>
      </trkpt>
      <trkpt lat="49.09555" lon="1.66904">
        <ele>111.8</ele>
        <time>2021-09-19T07:49:52Z</time>
      </trkpt>
      <trkpt lat="49.09559" lon="1.66899">
        <ele>110.6</ele>
        <time>2021-09-19T07:49:53Z</time>
      </trkpt>
      <trkpt lat="49.09562" lon="1.66895">
        <ele>109.2</ele>
        <time>2021-09-19T07:49:54Z</time>
      </trkpt>
      <trkpt lat="49.09564" lon="1.66893">
        <ele>106.4</ele>
        <time>2021-09-19T07:49:55Z</time>
      </trkpt>
      <trkpt lat="49.09565" lon="1.66889">
        <ele>105.4</ele>
        <time>2021-09-19T07:49:56Z</time>
      </trkpt>
      <trkpt lat="49.09567" lon="1.66887">
        <ele>104.4</ele>
        <time>2021-09-19T07:49:57Z</time>
      </trkpt>
      <trkpt lat="49.09568" lon="1.66884">
        <ele>103.4</ele>
        <time>2021-09-19T07:49:58Z</time>
      </trkpt>
      <trkpt lat="49.0957" lon="1.66882">
        <ele>102.4</ele>
        <time>2021-09-19T07:49:59Z</time>
      </trkpt>
      <trkpt lat="49.09572" lon="1.6688">
        <ele>101.4</ele>
        <time>2021-09-19T07:50:00Z</time>
      </trkpt>
      <trkpt lat="49.09579" lon="1.66871">
        <ele>100.4</ele>
        <time>2021-09-19T07:50:03Z</time>
      </trkpt>
      <trkpt lat="49.09583" lon="1.66866">
        <ele>100.4</ele>
        <time>2021-09-19T07:50:04Z</time>
      </trkpt>
      <trkpt lat="49.09587" lon="1.66857">
        <ele>100.2</ele>
        <time>2021-09-19T07:50:06Z</time>
      </trkpt>
      <trkpt lat="49.09591" lon="1.66847">
        <ele>100.2</ele>
        <time>2021-09-19T07:50:08Z</time>
      </trkpt>
      <trkpt lat="49.09597" lon="1.66832">
        <ele>100.2</ele>
        <time>2021-09-19T07:50:13Z</time>
      </trkpt>
      <trkpt lat="49.09605" lon="1.66819">
        <ele>101</ele>
        <time>2021-09-19T07:50:20Z</time>
      </trkpt>
      <trkpt lat="49.09606" lon="1.66817">
        <ele>101.2</ele>
        <time>2021-09-19T07:50:21Z</time>
      </trkpt>
      <trkpt lat="49.09608" lon="1.66811">
        <ele>102.6</ele>
        <time>2021-09-19T07:50:24Z</time>
      </trkpt>
      <trkpt lat="49.09611" lon="1.66805">
        <ele>103.4</ele>
        <time>2021-09-19T07:50:27Z</time>
      </trkpt>
      <trkpt lat="49.09612" lon="1.66804">
        <ele>103.6</ele>
        <time>2021-09-19T07:50:28Z</time>
      </trkpt>
      <trkpt lat="49.09618" lon="1.66797">
        <ele>104.4</ele>
        <time>2021-09-19T07:50:32Z</time>
      </trkpt>
      <trkpt lat="49.09621" lon="1.66792">
        <ele>104.8</ele>
        <time>2021-09-19T07:50:34Z</time>
      </trkpt>
      <trkpt lat="49.09625" lon="1.66782">
        <ele>105.6</ele>
        <time>2021-09-19T07:50:38Z</time>
      </trkpt>
      <trkpt lat="49.09626" lon="1.6678">
        <ele>106</ele>
        <time>2021-09-19T07:50:39Z</time>
      </trkpt>
      <trkpt lat="49.0963" lon="1.66774">
        <ele>106.6</ele>
        <time>2021-09-19T07:50:43Z</time>
      </trkpt>
      <trkpt lat="49.09635" lon="1.66766">
        <ele>107</ele>
        <time>2021-09-19T07:50:46Z</time>
      </trkpt>
      <trkpt lat="49.09642" lon="1.66756">
        <ele>108</ele>
        <time>2021-09-19T07:50:50Z</time>
      </trkpt>
      <trkpt lat="49.09643" lon="1.66754">
        <ele>108.2</ele>
        <time>2021-09-19T07:50:51Z</time>
      </trkpt>
      <trkpt lat="49.09646" lon="1.66747">
        <ele>109.2</ele>
        <time>2021-09-19T07:50:55Z</time>
      </trkpt>
      <trkpt lat="49.09647" lon="1.66746">
        <ele>109.4</ele>
        <time>2021-09-19T07:50:56Z</time>
      </trkpt>
      <trkpt lat="49.09651" lon="1.66741">
        <ele>110.4</ele>
        <time>2021-09-19T07:51:00Z</time>
      </trkpt>
      <trkpt lat="49.09651" lon="1.66736">
        <ele>110.8</ele>
        <time>2021-09-19T07:51:02Z</time>
      </trkpt>
      <trkpt lat="49.09651" lon="1.66731">
        <ele>111.4</ele>
        <time>2021-09-19T07:51:04Z</time>
      </trkpt>
      <trkpt lat="49.09649" lon="1.66729">
        <ele>111.6</ele>
        <time>2021-09-19T07:51:05Z</time>
      </trkpt>
      <trkpt lat="49.09642" lon="1.66714">
        <ele>112</ele>
        <time>2021-09-19T07:51:10Z</time>
      </trkpt>
      <trkpt lat="49.09637" lon="1.66704">
        <ele>112</ele>
        <time>2021-09-19T07:51:13Z</time>
      </trkpt>
      <trkpt lat="49.09636" lon="1.667">
        <ele>112</ele>
        <time>2021-09-19T07:51:14Z</time>
      </trkpt>
      <trkpt lat="49.09634" lon="1.66684">
        <ele>111.6</ele>
        <time>2021-09-19T07:51:18Z</time>
      </trkpt>
      <trkpt lat="49.09632" lon="1.66661">
        <ele>110.6</ele>
        <time>2021-09-19T07:51:23Z</time>
      </trkpt>
      <trkpt lat="49.09632" lon="1.66647">
        <ele>110.6</ele>
        <time>2021-09-19T07:51:26Z</time>
      </trkpt>
      <trkpt lat="49.09632" lon="1.66642">
        <ele>110.6</ele>
        <time>2021-09-19T07:51:27Z</time>
      </trkpt>
      <trkpt lat="49.09634" lon="1.66611">
        <ele>110.6</ele>
        <time>2021-09-19T07:51:33Z</time>
      </trkpt>
      <trkpt lat="49.09633" lon="1.66585">
        <ele>110.6</ele>
        <time>2021-09-19T07:51:38Z</time>
      </trkpt>
      <trkpt lat="49.09633" lon="1.66561">
        <ele>111</ele>
        <time>2021-09-19T07:51:42Z</time>
      </trkpt>
      <trkpt lat="49.09632" lon="1.66545">
        <ele>111.6</ele>
        <time>2021-09-19T07:51:45Z</time>
      </trkpt>
      <trkpt lat="49.09632" lon="1.6653">
        <ele>111.8</ele>
        <time>2021-09-19T07:51:48Z</time>
      </trkpt>
      <trkpt lat="49.09634" lon="1.66506">
        <ele>111.8</ele>
        <time>2021-09-19T07:51:52Z</time>
      </trkpt>
      <trkpt lat="49.09635" lon="1.66502">
        <ele>111.8</ele>
        <time>2021-09-19T07:51:53Z</time>
      </trkpt>
      <trkpt lat="49.09641" lon="1.66485">
        <ele>111.8</ele>
        <time>2021-09-19T07:51:58Z</time>
      </trkpt>
      <trkpt lat="49.09642" lon="1.66483">
        <ele>111.8</ele>
        <time>2021-09-19T07:51:59Z</time>
      </trkpt>
      <trkpt lat="49.09643" lon="1.66481">
        <ele>111.8</ele>
        <time>2021-09-19T07:52:00Z</time>
      </trkpt>
      <trkpt lat="49.09646" lon="1.66475">
        <ele>112.2</ele>
        <time>2021-09-19T07:52:04Z</time>
      </trkpt>
      <trkpt lat="49.09648" lon="1.66471">
        <ele>112.8</ele>
        <time>2021-09-19T07:52:06Z</time>
      </trkpt>
      <trkpt lat="49.09652" lon="1.66467">
        <ele>113.8</ele>
        <time>2021-09-19T07:52:09Z</time>
      </trkpt>
      <trkpt lat="49.09655" lon="1.66462">
        <ele>114.8</ele>
        <time>2021-09-19T07:52:12Z</time>
      </trkpt>
      <trkpt lat="49.0966" lon="1.66455">
        <ele>116.2</ele>
        <time>2021-09-19T07:52:16Z</time>
      </trkpt>
      <trkpt lat="49.09665" lon="1.66451">
        <ele>117.2</ele>
        <time>2021-09-19T07:52:20Z</time>
      </trkpt>
      <trkpt lat="49.09671" lon="1.66449">
        <ele>118</ele>
        <time>2021-09-19T07:52:26Z</time>
      </trkpt>
      <trkpt lat="49.09672" lon="1.66448">
        <ele>118.2</ele>
        <time>2021-09-19T07:52:27Z</time>
      </trkpt>
      <trkpt lat="49.0968" lon="1.66445">
        <ele>119.4</ele>
        <time>2021-09-19T07:52:33Z</time>
      </trkpt>
      <trkpt lat="49.09684" lon="1.66445">
        <ele>120.2</ele>
        <time>2021-09-19T07:52:36Z</time>
      </trkpt>
      <trkpt lat="49.09686" lon="1.66445">
        <ele>120.4</ele>
        <time>2021-09-19T07:52:37Z</time>
      </trkpt>
      <trkpt lat="49.09696" lon="1.66447">
        <ele>121.4</ele>
        <time>2021-09-19T07:52:43Z</time>
      </trkpt>
      <trkpt lat="49.09697" lon="1.66446">
        <ele>121.6</ele>
        <time>2021-09-19T07:52:44Z</time>
      </trkpt>
      <trkpt lat="49.09705" lon="1.66447">
        <ele>122.8</ele>
        <time>2021-09-19T07:52:49Z</time>
      </trkpt>
      <trkpt lat="49.09708" lon="1.66449">
        <ele>123.2</ele>
        <time>2021-09-19T07:52:51Z</time>
      </trkpt>
      <trkpt lat="49.09714" lon="1.66449">
        <ele>123.8</ele>
        <time>2021-09-19T07:52:55Z</time>
      </trkpt>
      <trkpt lat="49.09717" lon="1.66451">
        <ele>124</ele>
        <time>2021-09-19T07:52:57Z</time>
      </trkpt>
      <trkpt lat="49.09722" lon="1.66457">
        <ele>124.6</ele>
        <time>2021-09-19T07:53:01Z</time>
      </trkpt>
      <trkpt lat="49.09724" lon="1.66459">
        <ele>124.8</ele>
        <time>2021-09-19T07:53:02Z</time>
      </trkpt>
      <trkpt lat="49.09725" lon="1.6646">
        <ele>125</ele>
        <time>2021-09-19T07:53:03Z</time>
      </trkpt>
      <trkpt lat="49.09734" lon="1.6647">
        <ele>125.8</ele>
        <time>2021-09-19T07:53:09Z</time>
      </trkpt>
      <trkpt lat="49.09735" lon="1.66472">
        <ele>125.8</ele>
        <time>2021-09-19T07:53:10Z</time>
      </trkpt>
      <trkpt lat="49.09742" lon="1.66475">
        <ele>126.4</ele>
        <time>2021-09-19T07:53:14Z</time>
      </trkpt>
      <trkpt lat="49.09745" lon="1.66477">
        <ele>126.8</ele>
        <time>2021-09-19T07:53:16Z</time>
      </trkpt>
      <trkpt lat="49.09751" lon="1.66478">
        <ele>128</ele>
        <time>2021-09-19T07:53:20Z</time>
      </trkpt>
      <trkpt lat="49.09753" lon="1.66477">
        <ele>128.4</ele>
        <time>2021-09-19T07:53:22Z</time>
      </trkpt>
      <trkpt lat="49.09756" lon="1.66472">
        <ele>129.2</ele>
        <time>2021-09-19T07:53:25Z</time>
      </trkpt>
      <trkpt lat="49.09759" lon="1.6647">
        <ele>129.6</ele>
        <time>2021-09-19T07:53:27Z</time>
      </trkpt>
      <trkpt lat="49.0976" lon="1.66469">
        <ele>129.8</ele>
        <time>2021-09-19T07:53:28Z</time>
      </trkpt>
      <trkpt lat="49.09763" lon="1.66469">
        <ele>130.2</ele>
        <time>2021-09-19T07:53:30Z</time>
      </trkpt>
      <trkpt lat="49.09774" lon="1.66468">
        <ele>131.4</ele>
        <time>2021-09-19T07:53:36Z</time>
      </trkpt>
      <trkpt lat="49.09776" lon="1.66467">
        <ele>131.6</ele>
        <time>2021-09-19T07:53:37Z</time>
      </trkpt>
      <trkpt lat="49.09782" lon="1.66465">
        <ele>132.4</ele>
        <time>2021-09-19T07:53:40Z</time>
      </trkpt>
      <trkpt lat="49.09788" lon="1.6646">
        <ele>133.6</ele>
        <time>2021-09-19T07:53:44Z</time>
      </trkpt>
      <trkpt lat="49.09801" lon="1.66456">
        <ele>134.4</ele>
        <time>2021-09-19T07:53:50Z</time>
      </trkpt>
      <trkpt lat="49.09805" lon="1.66453">
        <ele>134.6</ele>
        <time>2021-09-19T07:53:52Z</time>
      </trkpt>
      <trkpt lat="49.0981" lon="1.66447">
        <ele>134.8</ele>
        <time>2021-09-19T07:53:55Z</time>
      </trkpt>
      <trkpt lat="49.09819" lon="1.66433">
        <ele>135.4</ele>
        <time>2021-09-19T07:54:00Z</time>
      </trkpt>
      <trkpt lat="49.09826" lon="1.66423">
        <ele>136.4</ele>
        <time>2021-09-19T07:54:04Z</time>
      </trkpt>
      <trkpt lat="49.09827" lon="1.66421">
        <ele>136.6</ele>
        <time>2021-09-19T07:54:05Z</time>
      </trkpt>
      <trkpt lat="49.09832" lon="1.66404">
        <ele>137.4</ele>
        <time>2021-09-19T07:54:11Z</time>
      </trkpt>
      <trkpt lat="49.09834" lon="1.66401">
        <ele>137.6</ele>
        <time>2021-09-19T07:54:12Z</time>
      </trkpt>
      <trkpt lat="49.09838" lon="1.66387">
        <ele>138.2</ele>
        <time>2021-09-19T07:54:16Z</time>
      </trkpt>
      <trkpt lat="49.09843" lon="1.66366">
        <ele>138.4</ele>
        <time>2021-09-19T07:54:21Z</time>
      </trkpt>
      <trkpt lat="49.09844" lon="1.66357">
        <ele>138.8</ele>
        <time>2021-09-19T07:54:23Z</time>
      </trkpt>
      <trkpt lat="49.09845" lon="1.66343">
        <ele>139.2</ele>
        <time>2021-09-19T07:54:26Z</time>
      </trkpt>
      <trkpt lat="49.09846" lon="1.66339">
        <ele>139.4</ele>
        <time>2021-09-19T07:54:27Z</time>
      </trkpt>
      <trkpt lat="49.09849" lon="1.66314">
        <ele>139.6</ele>
        <time>2021-09-19T07:54:32Z</time>
      </trkpt>
      <trkpt lat="49.0985" lon="1.66309">
        <ele>139.8</ele>
        <time>2021-09-19T07:54:33Z</time>
      </trkpt>
      <trkpt lat="49.09855" lon="1.66284">
        <ele>140</ele>
        <time>2021-09-19T07:54:38Z</time>
      </trkpt>
      <trkpt lat="49.09857" lon="1.66261">
        <ele>140.2</ele>
        <time>2021-09-19T07:54:43Z</time>
      </trkpt>
      <trkpt lat="49.09862" lon="1.6623">
        <ele>140.4</ele>
        <time>2021-09-19T07:54:49Z</time>
      </trkpt>
      <trkpt lat="49.09866" lon="1.6621">
        <ele>140.6</ele>
        <time>2021-09-19T07:54:53Z</time>
      </trkpt>
      <trkpt lat="49.09867" lon="1.66207">
        <ele>140.8</ele>
        <time>2021-09-19T07:54:54Z</time>
      </trkpt>
      <trkpt lat="49.0987" lon="1.66205">
        <ele>140.8</ele>
        <time>2021-09-19T07:54:56Z</time>
      </trkpt>
      <trkpt lat="49.09872" lon="1.66206">
        <ele>140.8</ele>
        <time>2021-09-19T07:54:57Z</time>
      </trkpt>
      <trkpt lat="49.09876" lon="1.66208">
        <ele>141</ele>
        <time>2021-09-19T07:54:59Z</time>
      </trkpt>
      <trkpt lat="49.0989" lon="1.66215">
        <ele>141.8</ele>
        <time>2021-09-19T07:55:04Z</time>
      </trkpt>
      <trkpt lat="49.0991" lon="1.66231">
        <ele>142.6</ele>
        <time>2021-09-19T07:55:11Z</time>
      </trkpt>
      <trkpt lat="49.09916" lon="1.66236">
        <ele>142.8</ele>
        <time>2021-09-19T07:55:13Z</time>
      </trkpt>
      <trkpt lat="49.0993" lon="1.66249">
        <ele>143.2</ele>
        <time>2021-09-19T07:55:18Z</time>
      </trkpt>
      <trkpt lat="49.0995" lon="1.66267">
        <ele>143.8</ele>
        <time>2021-09-19T07:55:25Z</time>
      </trkpt>
      <trkpt lat="49.0997" lon="1.66287">
        <ele>144.4</ele>
        <time>2021-09-19T07:55:32Z</time>
      </trkpt>
      <trkpt lat="49.09992" lon="1.66309">
        <ele>145</ele>
        <time>2021-09-19T07:55:39Z</time>
      </trkpt>
      <trkpt lat="49.09999" lon="1.66316">
        <ele>145.2</ele>
        <time>2021-09-19T07:55:41Z</time>
      </trkpt>
      <trkpt lat="49.1001" lon="1.66327">
        <ele>145.2</ele>
        <time>2021-09-19T07:55:44Z</time>
      </trkpt>
      <trkpt lat="49.10028" lon="1.66348">
        <ele>145.4</ele>
        <time>2021-09-19T07:55:49Z</time>
      </trkpt>
      <trkpt lat="49.10036" lon="1.66358">
        <ele>145.4</ele>
        <time>2021-09-19T07:55:51Z</time>
      </trkpt>
      <trkpt lat="49.10063" lon="1.66389">
        <ele>145.4</ele>
        <time>2021-09-19T07:55:58Z</time>
      </trkpt>
      <trkpt lat="49.10088" lon="1.66416">
        <ele>145.4</ele>
        <time>2021-09-19T07:56:05Z</time>
      </trkpt>
      <trkpt lat="49.10097" lon="1.66428">
        <ele>145.4</ele>
        <time>2021-09-19T07:56:09Z</time>
      </trkpt>
      <trkpt lat="49.101" lon="1.66429">
        <ele>145.4</ele>
        <time>2021-09-19T07:56:10Z</time>
      </trkpt>
      <trkpt lat="49.10109" lon="1.66422">
        <ele>145.4</ele>
        <time>2021-09-19T07:56:13Z</time>
      </trkpt>
      <trkpt lat="49.10112" lon="1.66419">
        <ele>145.4</ele>
        <time>2021-09-19T07:56:14Z</time>
      </trkpt>
      <trkpt lat="49.10135" lon="1.6639">
        <ele>145.4</ele>
        <time>2021-09-19T07:56:21Z</time>
      </trkpt>
      <trkpt lat="49.10148" lon="1.66371">
        <ele>145.6</ele>
        <time>2021-09-19T07:56:25Z</time>
      </trkpt>
      <trkpt lat="49.10156" lon="1.66362">
        <ele>145.6</ele>
        <time>2021-09-19T07:56:27Z</time>
      </trkpt>
      <trkpt lat="49.10165" lon="1.66347">
        <ele>145.8</ele>
        <time>2021-09-19T07:56:30Z</time>
      </trkpt>
      <trkpt lat="49.10174" lon="1.66334">
        <ele>145.8</ele>
        <time>2021-09-19T07:56:33Z</time>
      </trkpt>
      <trkpt lat="49.10189" lon="1.66305">
        <ele>146</ele>
        <time>2021-09-19T07:56:38Z</time>
      </trkpt>
      <trkpt lat="49.10204" lon="1.66267">
        <ele>146.2</ele>
        <time>2021-09-19T07:56:44Z</time>
      </trkpt>
      <trkpt lat="49.10216" lon="1.66232">
        <ele>146.2</ele>
        <time>2021-09-19T07:56:50Z</time>
      </trkpt>
      <trkpt lat="49.10222" lon="1.66213">
        <ele>146.2</ele>
        <time>2021-09-19T07:56:53Z</time>
      </trkpt>
      <trkpt lat="49.10231" lon="1.66196">
        <ele>146.4</ele>
        <time>2021-09-19T07:56:56Z</time>
      </trkpt>
      <trkpt lat="49.10234" lon="1.66191">
        <ele>146.4</ele>
        <time>2021-09-19T07:56:57Z</time>
      </trkpt>
      <trkpt lat="49.10252" lon="1.66162">
        <ele>146.2</ele>
        <time>2021-09-19T07:57:03Z</time>
      </trkpt>
      <trkpt lat="49.10265" lon="1.66155">
        <ele>146.4</ele>
        <time>2021-09-19T07:57:07Z</time>
      </trkpt>
      <trkpt lat="49.10284" lon="1.6615">
        <ele>146.2</ele>
        <time>2021-09-19T07:57:12Z</time>
      </trkpt>
      <trkpt lat="49.10293" lon="1.66146">
        <ele>146</ele>
        <time>2021-09-19T07:57:14Z</time>
      </trkpt>
      <trkpt lat="49.10305" lon="1.66135">
        <ele>146</ele>
        <time>2021-09-19T07:57:17Z</time>
      </trkpt>
      <trkpt lat="49.10312" lon="1.66115">
        <ele>146</ele>
        <time>2021-09-19T07:57:20Z</time>
      </trkpt>
      <trkpt lat="49.10314" lon="1.661">
        <ele>145.8</ele>
        <time>2021-09-19T07:57:22Z</time>
      </trkpt>
      <trkpt lat="49.1032" lon="1.66061">
        <ele>145</ele>
        <time>2021-09-19T07:57:27Z</time>
      </trkpt>
      <trkpt lat="49.10329" lon="1.66003">
        <ele>145.2</ele>
        <time>2021-09-19T07:57:35Z</time>
      </trkpt>
      <trkpt lat="49.10339" lon="1.65952">
        <ele>145.2</ele>
        <time>2021-09-19T07:57:42Z</time>
      </trkpt>
      <trkpt lat="49.10343" lon="1.65938">
        <ele>145.2</ele>
        <time>2021-09-19T07:57:44Z</time>
      </trkpt>
      <trkpt lat="49.10355" lon="1.65914">
        <ele>145</ele>
        <time>2021-09-19T07:57:48Z</time>
      </trkpt>
      <trkpt lat="49.10372" lon="1.65881">
        <ele>144.4</ele>
        <time>2021-09-19T07:57:54Z</time>
      </trkpt>
      <trkpt lat="49.10378" lon="1.65874">
        <ele>144.4</ele>
        <time>2021-09-19T07:57:56Z</time>
      </trkpt>
      <trkpt lat="49.10388" lon="1.65879">
        <ele>144.4</ele>
        <time>2021-09-19T07:57:59Z</time>
      </trkpt>
      <trkpt lat="49.10395" lon="1.65884">
        <ele>144.4</ele>
        <time>2021-09-19T07:58:01Z</time>
      </trkpt>
      <trkpt lat="49.10403" lon="1.65888">
        <ele>144.4</ele>
        <time>2021-09-19T07:58:03Z</time>
      </trkpt>
      <trkpt lat="49.10407" lon="1.65889">
        <ele>144.4</ele>
        <time>2021-09-19T07:58:04Z</time>
      </trkpt>
      <trkpt lat="49.10443" lon="1.65903">
        <ele>144</ele>
        <time>2021-09-19T07:58:12Z</time>
      </trkpt>
      <trkpt lat="49.10492" lon="1.65923">
        <ele>143.4</ele>
        <time>2021-09-19T07:58:21Z</time>
      </trkpt>
      <trkpt lat="49.10519" lon="1.65932">
        <ele>142.2</ele>
        <time>2021-09-19T07:58:25Z</time>
      </trkpt>
      <trkpt lat="49.10526" lon="1.65934">
        <ele>142</ele>
        <time>2021-09-19T07:58:26Z</time>
      </trkpt>
      <trkpt lat="49.10556" lon="1.65945">
        <ele>141</ele>
        <time>2021-09-19T07:58:30Z</time>
      </trkpt>
      <trkpt lat="49.10571" lon="1.65951">
        <ele>140.2</ele>
        <time>2021-09-19T07:58:32Z</time>
      </trkpt>
      <trkpt lat="49.10579" lon="1.65954">
        <ele>140</ele>
        <time>2021-09-19T07:58:33Z</time>
      </trkpt>
      <trkpt lat="49.10603" lon="1.65963">
        <ele>138.6</ele>
        <time>2021-09-19T07:58:36Z</time>
      </trkpt>
      <trkpt lat="49.10627" lon="1.65972">
        <ele>137.2</ele>
        <time>2021-09-19T07:58:39Z</time>
      </trkpt>
      <trkpt lat="49.10643" lon="1.65979">
        <ele>135.6</ele>
        <time>2021-09-19T07:58:41Z</time>
      </trkpt>
      <trkpt lat="49.10668" lon="1.65989">
        <ele>134.2</ele>
        <time>2021-09-19T07:58:44Z</time>
      </trkpt>
      <trkpt lat="49.10686" lon="1.65996">
        <ele>133</ele>
        <time>2021-09-19T07:58:46Z</time>
      </trkpt>
      <trkpt lat="49.10702" lon="1.66001">
        <ele>131.2</ele>
        <time>2021-09-19T07:58:48Z</time>
      </trkpt>
      <trkpt lat="49.1071" lon="1.66">
        <ele>130.6</ele>
        <time>2021-09-19T07:58:49Z</time>
      </trkpt>
      <trkpt lat="49.10718" lon="1.65995">
        <ele>129.8</ele>
        <time>2021-09-19T07:58:50Z</time>
      </trkpt>
      <trkpt lat="49.10731" lon="1.65979">
        <ele>128</ele>
        <time>2021-09-19T07:58:52Z</time>
      </trkpt>
      <trkpt lat="49.10738" lon="1.65969">
        <ele>126.8</ele>
        <time>2021-09-19T07:58:53Z</time>
      </trkpt>
      <trkpt lat="49.10751" lon="1.65948">
        <ele>124.8</ele>
        <time>2021-09-19T07:58:55Z</time>
      </trkpt>
      <trkpt lat="49.10762" lon="1.65937">
        <ele>123</ele>
        <time>2021-09-19T07:58:57Z</time>
      </trkpt>
      <trkpt lat="49.10767" lon="1.65936">
        <ele>122.4</ele>
        <time>2021-09-19T07:58:58Z</time>
      </trkpt>
      <trkpt lat="49.10773" lon="1.65938">
        <ele>121.8</ele>
        <time>2021-09-19T07:58:59Z</time>
      </trkpt>
      <trkpt lat="49.10779" lon="1.65943">
        <ele>120.8</ele>
        <time>2021-09-19T07:59:00Z</time>
      </trkpt>
      <trkpt lat="49.10785" lon="1.65948">
        <ele>119.8</ele>
        <time>2021-09-19T07:59:01Z</time>
      </trkpt>
      <trkpt lat="49.10792" lon="1.65953">
        <ele>118.4</ele>
        <time>2021-09-19T07:59:02Z</time>
      </trkpt>
      <trkpt lat="49.108" lon="1.65957">
        <ele>117.2</ele>
        <time>2021-09-19T07:59:03Z</time>
      </trkpt>
      <trkpt lat="49.10808" lon="1.65962">
        <ele>116</ele>
        <time>2021-09-19T07:59:04Z</time>
      </trkpt>
      <trkpt lat="49.10825" lon="1.65972">
        <ele>114.6</ele>
        <time>2021-09-19T07:59:06Z</time>
      </trkpt>
      <trkpt lat="49.10842" lon="1.65983">
        <ele>113.4</ele>
        <time>2021-09-19T07:59:08Z</time>
      </trkpt>
      <trkpt lat="49.10861" lon="1.65993">
        <ele>111.8</ele>
        <time>2021-09-19T07:59:10Z</time>
      </trkpt>
      <trkpt lat="49.10879" lon="1.66004">
        <ele>109.6</ele>
        <time>2021-09-19T07:59:12Z</time>
      </trkpt>
      <trkpt lat="49.10888" lon="1.6601">
        <ele>108.6</ele>
        <time>2021-09-19T07:59:13Z</time>
      </trkpt>
      <trkpt lat="49.10896" lon="1.66017">
        <ele>107.4</ele>
        <time>2021-09-19T07:59:14Z</time>
      </trkpt>
      <trkpt lat="49.10905" lon="1.66024">
        <ele>105.2</ele>
        <time>2021-09-19T07:59:15Z</time>
      </trkpt>
      <trkpt lat="49.10921" lon="1.66038">
        <ele>103.6</ele>
        <time>2021-09-19T07:59:17Z</time>
      </trkpt>
      <trkpt lat="49.10929" lon="1.66045">
        <ele>103</ele>
        <time>2021-09-19T07:59:18Z</time>
      </trkpt>
      <trkpt lat="49.10936" lon="1.66052">
        <ele>102.2</ele>
        <time>2021-09-19T07:59:19Z</time>
      </trkpt>
      <trkpt lat="49.10951" lon="1.66065">
        <ele>100.6</ele>
        <time>2021-09-19T07:59:21Z</time>
      </trkpt>
      <trkpt lat="49.10965" lon="1.66077">
        <ele>99.2</ele>
        <time>2021-09-19T07:59:23Z</time>
      </trkpt>
      <trkpt lat="49.10972" lon="1.6608">
        <ele>98.6</ele>
        <time>2021-09-19T07:59:24Z</time>
      </trkpt>
      <trkpt lat="49.10979" lon="1.66079">
        <ele>97.8</ele>
        <time>2021-09-19T07:59:25Z</time>
      </trkpt>
      <trkpt lat="49.10992" lon="1.66071">
        <ele>96.6</ele>
        <time>2021-09-19T07:59:27Z</time>
      </trkpt>
      <trkpt lat="49.10998" lon="1.66066">
        <ele>96.4</ele>
        <time>2021-09-19T07:59:28Z</time>
      </trkpt>
      <trkpt lat="49.11005" lon="1.66061">
        <ele>96</ele>
        <time>2021-09-19T07:59:30Z</time>
      </trkpt>
      <trkpt lat="49.1101" lon="1.66057">
        <ele>95.6</ele>
        <time>2021-09-19T07:59:32Z</time>
      </trkpt>
      <trkpt lat="49.11014" lon="1.66052">
        <ele>95.4</ele>
        <time>2021-09-19T07:59:35Z</time>
      </trkpt>
      <trkpt lat="49.11009" lon="1.6604">
        <ele>95.4</ele>
        <time>2021-09-19T07:59:39Z</time>
      </trkpt>
      <trkpt lat="49.10996" lon="1.66019">
        <ele>96</ele>
        <time>2021-09-19T07:59:45Z</time>
      </trkpt>
      <trkpt lat="49.10995" lon="1.66014">
        <ele>96</ele>
        <time>2021-09-19T07:59:46Z</time>
      </trkpt>
      <trkpt lat="49.10998" lon="1.66005">
        <ele>96</ele>
        <time>2021-09-19T07:59:48Z</time>
      </trkpt>
      <trkpt lat="49.11" lon="1.65999">
        <ele>96</ele>
        <time>2021-09-19T07:59:49Z</time>
      </trkpt>
      <trkpt lat="49.11008" lon="1.65979">
        <ele>96</ele>
        <time>2021-09-19T07:59:52Z</time>
      </trkpt>
      <trkpt lat="49.1103" lon="1.65931">
        <ele>95</ele>
        <time>2021-09-19T07:59:58Z</time>
      </trkpt>
      <trkpt lat="49.11038" lon="1.65914">
        <ele>94.2</ele>
        <time>2021-09-19T08:00:00Z</time>
      </trkpt>
      <trkpt lat="49.11045" lon="1.65895">
        <ele>93.2</ele>
        <time>2021-09-19T08:00:02Z</time>
      </trkpt>
      <trkpt lat="49.1105" lon="1.65877">
        <ele>92.2</ele>
        <time>2021-09-19T08:00:04Z</time>
      </trkpt>
      <trkpt lat="49.11058" lon="1.65852">
        <ele>91</ele>
        <time>2021-09-19T08:00:07Z</time>
      </trkpt>
      <trkpt lat="49.11061" lon="1.65846">
        <ele>90.6</ele>
        <time>2021-09-19T08:00:08Z</time>
      </trkpt>
      <trkpt lat="49.11064" lon="1.65838">
        <ele>89.8</ele>
        <time>2021-09-19T08:00:10Z</time>
      </trkpt>
      <trkpt lat="49.11067" lon="1.65831">
        <ele>89.4</ele>
        <time>2021-09-19T08:00:12Z</time>
      </trkpt>
      <trkpt lat="49.11076" lon="1.65807">
        <ele>89.2</ele>
        <time>2021-09-19T08:00:16Z</time>
      </trkpt>
      <trkpt lat="49.111" lon="1.65757">
        <ele>89</ele>
        <time>2021-09-19T08:00:24Z</time>
      </trkpt>
      <trkpt lat="49.11104" lon="1.65752">
        <ele>89</ele>
        <time>2021-09-19T08:00:25Z</time>
      </trkpt>
      <trkpt lat="49.11116" lon="1.65725">
        <ele>89</ele>
        <time>2021-09-19T08:00:29Z</time>
      </trkpt>
      <trkpt lat="49.11134" lon="1.65679">
        <ele>89</ele>
        <time>2021-09-19T08:00:36Z</time>
      </trkpt>
      <trkpt lat="49.11148" lon="1.65653">
        <ele>90.2</ele>
        <time>2021-09-19T08:00:41Z</time>
      </trkpt>
      <trkpt lat="49.11154" lon="1.65647">
        <ele>90.6</ele>
        <time>2021-09-19T08:00:43Z</time>
      </trkpt>
      <trkpt lat="49.11161" lon="1.65648">
        <ele>91</ele>
        <time>2021-09-19T08:00:45Z</time>
      </trkpt>
      <trkpt lat="49.11165" lon="1.6565">
        <ele>91</ele>
        <time>2021-09-19T08:00:46Z</time>
      </trkpt>
      <trkpt lat="49.1117" lon="1.65651">
        <ele>91</ele>
        <time>2021-09-19T08:00:47Z</time>
      </trkpt>
      <trkpt lat="49.11195" lon="1.65659">
        <ele>91</ele>
        <time>2021-09-19T08:00:51Z</time>
      </trkpt>
      <trkpt lat="49.1122" lon="1.65664">
        <ele>91</ele>
        <time>2021-09-19T08:00:55Z</time>
      </trkpt>
      <trkpt lat="49.11227" lon="1.65665">
        <ele>90.6</ele>
        <time>2021-09-19T08:00:56Z</time>
      </trkpt>
      <trkpt lat="49.1124" lon="1.65666">
        <ele>89.4</ele>
        <time>2021-09-19T08:00:58Z</time>
      </trkpt>
      <trkpt lat="49.11254" lon="1.65668">
        <ele>88.2</ele>
        <time>2021-09-19T08:01:00Z</time>
      </trkpt>
      <trkpt lat="49.11261" lon="1.65668">
        <ele>87.6</ele>
        <time>2021-09-19T08:01:01Z</time>
      </trkpt>
      <trkpt lat="49.11268" lon="1.65666">
        <ele>87</ele>
        <time>2021-09-19T08:01:02Z</time>
      </trkpt>
      <trkpt lat="49.11286" lon="1.65661">
        <ele>85.8</ele>
        <time>2021-09-19T08:01:05Z</time>
      </trkpt>
      <trkpt lat="49.11292" lon="1.65659">
        <ele>85.4</ele>
        <time>2021-09-19T08:01:06Z</time>
      </trkpt>
      <trkpt lat="49.11299" lon="1.65657">
        <ele>84.4</ele>
        <time>2021-09-19T08:01:07Z</time>
      </trkpt>
      <trkpt lat="49.11328" lon="1.65646">
        <ele>83.4</ele>
        <time>2021-09-19T08:01:11Z</time>
      </trkpt>
      <trkpt lat="49.11342" lon="1.65637">
        <ele>83.2</ele>
        <time>2021-09-19T08:01:13Z</time>
      </trkpt>
      <trkpt lat="49.11355" lon="1.65625">
        <ele>83</ele>
        <time>2021-09-19T08:01:15Z</time>
      </trkpt>
      <trkpt lat="49.11361" lon="1.6562">
        <ele>82.6</ele>
        <time>2021-09-19T08:01:16Z</time>
      </trkpt>
      <trkpt lat="49.11366" lon="1.65616">
        <ele>82</ele>
        <time>2021-09-19T08:01:17Z</time>
      </trkpt>
      <trkpt lat="49.11372" lon="1.65612">
        <ele>81.6</ele>
        <time>2021-09-19T08:01:18Z</time>
      </trkpt>
      <trkpt lat="49.11378" lon="1.65611">
        <ele>81.2</ele>
        <time>2021-09-19T08:01:19Z</time>
      </trkpt>
      <trkpt lat="49.11384" lon="1.6561">
        <ele>80.8</ele>
        <time>2021-09-19T08:01:20Z</time>
      </trkpt>
      <trkpt lat="49.11396" lon="1.65611">
        <ele>79.8</ele>
        <time>2021-09-19T08:01:22Z</time>
      </trkpt>
      <trkpt lat="49.11407" lon="1.6561">
        <ele>78.8</ele>
        <time>2021-09-19T08:01:24Z</time>
      </trkpt>
      <trkpt lat="49.11411" lon="1.65608">
        <ele>78.4</ele>
        <time>2021-09-19T08:01:25Z</time>
      </trkpt>
      <trkpt lat="49.11422" lon="1.65599">
        <ele>77.4</ele>
        <time>2021-09-19T08:01:27Z</time>
      </trkpt>
      <trkpt lat="49.11429" lon="1.65592">
        <ele>77</ele>
        <time>2021-09-19T08:01:28Z</time>
      </trkpt>
      <trkpt lat="49.11445" lon="1.65576">
        <ele>75.8</ele>
        <time>2021-09-19T08:01:30Z</time>
      </trkpt>
      <trkpt lat="49.11459" lon="1.65563">
        <ele>74.2</ele>
        <time>2021-09-19T08:01:32Z</time>
      </trkpt>
      <trkpt lat="49.11465" lon="1.65558">
        <ele>73.4</ele>
        <time>2021-09-19T08:01:33Z</time>
      </trkpt>
      <trkpt lat="49.11472" lon="1.65554">
        <ele>71.8</ele>
        <time>2021-09-19T08:01:34Z</time>
      </trkpt>
      <trkpt lat="49.11485" lon="1.65548">
        <ele>69.8</ele>
        <time>2021-09-19T08:01:36Z</time>
      </trkpt>
      <trkpt lat="49.11491" lon="1.65546">
        <ele>68.6</ele>
        <time>2021-09-19T08:01:37Z</time>
      </trkpt>
      <trkpt lat="49.11503" lon="1.65541">
        <ele>66.8</ele>
        <time>2021-09-19T08:01:39Z</time>
      </trkpt>
      <trkpt lat="49.11513" lon="1.65537">
        <ele>65.6</ele>
        <time>2021-09-19T08:01:41Z</time>
      </trkpt>
      <trkpt lat="49.11518" lon="1.65535">
        <ele>65</ele>
        <time>2021-09-19T08:01:42Z</time>
      </trkpt>
      <trkpt lat="49.11522" lon="1.65531">
        <ele>64.2</ele>
        <time>2021-09-19T08:01:43Z</time>
      </trkpt>
      <trkpt lat="49.11534" lon="1.65524">
        <ele>63</ele>
        <time>2021-09-19T08:01:45Z</time>
      </trkpt>
      <trkpt lat="49.1154" lon="1.65521">
        <ele>62.4</ele>
        <time>2021-09-19T08:01:46Z</time>
      </trkpt>
      <trkpt lat="49.11545" lon="1.65519">
        <ele>62</ele>
        <time>2021-09-19T08:01:47Z</time>
      </trkpt>
      <trkpt lat="49.11558" lon="1.65516">
        <ele>60.8</ele>
        <time>2021-09-19T08:01:49Z</time>
      </trkpt>
      <trkpt lat="49.11565" lon="1.65514">
        <ele>59.8</ele>
        <time>2021-09-19T08:01:50Z</time>
      </trkpt>
      <trkpt lat="49.11571" lon="1.65512">
        <ele>58.8</ele>
        <time>2021-09-19T08:01:51Z</time>
      </trkpt>
      <trkpt lat="49.11584" lon="1.65507">
        <ele>57</ele>
        <time>2021-09-19T08:01:53Z</time>
      </trkpt>
      <trkpt lat="49.11597" lon="1.655">
        <ele>55</ele>
        <time>2021-09-19T08:01:55Z</time>
      </trkpt>
      <trkpt lat="49.11609" lon="1.65492">
        <ele>53.2</ele>
        <time>2021-09-19T08:01:57Z</time>
      </trkpt>
      <trkpt lat="49.11616" lon="1.65487">
        <ele>52.4</ele>
        <time>2021-09-19T08:01:58Z</time>
      </trkpt>
      <trkpt lat="49.11624" lon="1.65481">
        <ele>51.4</ele>
        <time>2021-09-19T08:01:59Z</time>
      </trkpt>
      <trkpt lat="49.11646" lon="1.65472">
        <ele>49.8</ele>
        <time>2021-09-19T08:02:01Z</time>
      </trkpt>
      <trkpt lat="49.11659" lon="1.65468">
        <ele>47.4</ele>
        <time>2021-09-19T08:02:02Z</time>
      </trkpt>
      <trkpt lat="49.11671" lon="1.65463">
        <ele>46.2</ele>
        <time>2021-09-19T08:02:03Z</time>
      </trkpt>
      <trkpt lat="49.11693" lon="1.65454">
        <ele>44.6</ele>
        <time>2021-09-19T08:02:05Z</time>
      </trkpt>
      <trkpt lat="49.11706" lon="1.65451">
        <ele>44</ele>
        <time>2021-09-19T08:02:06Z</time>
      </trkpt>
      <trkpt lat="49.11717" lon="1.65449">
        <ele>43.4</ele>
        <time>2021-09-19T08:02:07Z</time>
      </trkpt>
      <trkpt lat="49.11727" lon="1.65447">
        <ele>42.6</ele>
        <time>2021-09-19T08:02:08Z</time>
      </trkpt>
      <trkpt lat="49.11734" lon="1.65446">
        <ele>41.4</ele>
        <time>2021-09-19T08:02:09Z</time>
      </trkpt>
      <trkpt lat="49.11741" lon="1.65445">
        <ele>40.2</ele>
        <time>2021-09-19T08:02:10Z</time>
      </trkpt>
      <trkpt lat="49.11746" lon="1.65443">
        <ele>39</ele>
        <time>2021-09-19T08:02:11Z</time>
      </trkpt>
      <trkpt lat="49.1175" lon="1.65441">
        <ele>37.6</ele>
        <time>2021-09-19T08:02:12Z</time>
      </trkpt>
      <trkpt lat="49.11753" lon="1.65439">
        <ele>36.2</ele>
        <time>2021-09-19T08:02:13Z</time>
      </trkpt>
      <trkpt lat="49.11754" lon="1.65436">
        <ele>34.8</ele>
        <time>2021-09-19T08:02:14Z</time>
      </trkpt>
      <trkpt lat="49.11754" lon="1.65433">
        <ele>33.2</ele>
        <time>2021-09-19T08:02:15Z</time>
      </trkpt>
      <trkpt lat="49.11754" lon="1.6543">
        <ele>32</ele>
        <time>2021-09-19T08:02:16Z</time>
      </trkpt>
      <trkpt lat="49.11754" lon="1.65427">
        <ele>31</ele>
        <time>2021-09-19T08:02:17Z</time>
      </trkpt>
      <trkpt lat="49.11755" lon="1.65421">
        <ele>30</ele>
        <time>2021-09-19T08:02:19Z</time>
      </trkpt>
      <trkpt lat="49.11755" lon="1.65418">
        <ele>29.8</ele>
        <time>2021-09-19T08:02:20Z</time>
      </trkpt>
      <trkpt lat="49.11755" lon="1.65417">
        <ele>29.4</ele>
        <time>2021-09-19T08:02:22Z</time>
      </trkpt>
      <trkpt lat="49.11754" lon="1.65415">
        <ele>28.4</ele>
        <time>2021-09-19T08:02:56Z</time>
      </trkpt>
      <trkpt lat="49.11752" lon="1.65413">
        <ele>28.4</ele>
        <time>2021-09-19T08:02:57Z</time>
      </trkpt>
      <trkpt lat="49.11742" lon="1.654">
        <ele>28.4</ele>
        <time>2021-09-19T08:03:01Z</time>
      </trkpt>
      <trkpt lat="49.11725" lon="1.65375">
        <ele>28.4</ele>
        <time>2021-09-19T08:03:06Z</time>
      </trkpt>
      <trkpt lat="49.11713" lon="1.6535">
        <ele>28.2</ele>
        <time>2021-09-19T08:03:10Z</time>
      </trkpt>
      <trkpt lat="49.11712" lon="1.65342">
        <ele>28.2</ele>
        <time>2021-09-19T08:03:11Z</time>
      </trkpt>
      <trkpt lat="49.1172" lon="1.65313">
        <ele>27.6</ele>
        <time>2021-09-19T08:03:14Z</time>
      </trkpt>
      <trkpt lat="49.11725" lon="1.65303">
        <ele>27.4</ele>
        <time>2021-09-19T08:03:15Z</time>
      </trkpt>
      <trkpt lat="49.11729" lon="1.65292">
        <ele>27.4</ele>
        <time>2021-09-19T08:03:16Z</time>
      </trkpt>
      <trkpt lat="49.11743" lon="1.65262">
        <ele>27</ele>
        <time>2021-09-19T08:03:19Z</time>
      </trkpt>
      <trkpt lat="49.11756" lon="1.65232">
        <ele>26.4</ele>
        <time>2021-09-19T08:03:22Z</time>
      </trkpt>
      <trkpt lat="49.11767" lon="1.65203">
        <ele>25.2</ele>
        <time>2021-09-19T08:03:25Z</time>
      </trkpt>
      <trkpt lat="49.11775" lon="1.65183">
        <ele>23.6</ele>
        <time>2021-09-19T08:03:27Z</time>
      </trkpt>
      <trkpt lat="49.11782" lon="1.65165">
        <ele>22.6</ele>
        <time>2021-09-19T08:03:29Z</time>
      </trkpt>
      <trkpt lat="49.11786" lon="1.65156">
        <ele>22.2</ele>
        <time>2021-09-19T08:03:30Z</time>
      </trkpt>
      <trkpt lat="49.11799" lon="1.65122">
        <ele>21.6</ele>
        <time>2021-09-19T08:03:34Z</time>
      </trkpt>
      <trkpt lat="49.11809" lon="1.65097">
        <ele>21.4</ele>
        <time>2021-09-19T08:03:37Z</time>
      </trkpt>
      <trkpt lat="49.11836" lon="1.65028">
        <ele>21</ele>
        <time>2021-09-19T08:03:45Z</time>
      </trkpt>
      <trkpt lat="49.11855" lon="1.64986">
        <ele>20.8</ele>
        <time>2021-09-19T08:03:50Z</time>
      </trkpt>
      <trkpt lat="49.11858" lon="1.64979">
        <ele>20.8</ele>
        <time>2021-09-19T08:03:51Z</time>
      </trkpt>
      <trkpt lat="49.11872" lon="1.6495">
        <ele>20.8</ele>
        <time>2021-09-19T08:03:55Z</time>
      </trkpt>
      <trkpt lat="49.11891" lon="1.64903">
        <ele>21</ele>
        <time>2021-09-19T08:04:01Z</time>
      </trkpt>
      <trkpt lat="49.11908" lon="1.64865">
        <ele>21.4</ele>
        <time>2021-09-19T08:04:06Z</time>
      </trkpt>
      <trkpt lat="49.11912" lon="1.64858">
        <ele>21.4</ele>
        <time>2021-09-19T08:04:07Z</time>
      </trkpt>
      <trkpt lat="49.11929" lon="1.64823">
        <ele>21.4</ele>
        <time>2021-09-19T08:04:12Z</time>
      </trkpt>
      <trkpt lat="49.11935" lon="1.64811">
        <ele>21.4</ele>
        <time>2021-09-19T08:04:14Z</time>
      </trkpt>
      <trkpt lat="49.11949" lon="1.64796">
        <ele>21.4</ele>
        <time>2021-09-19T08:04:17Z</time>
      </trkpt>
      <trkpt lat="49.11967" lon="1.64773">
        <ele>21.4</ele>
        <time>2021-09-19T08:04:21Z</time>
      </trkpt>
      <trkpt lat="49.11974" lon="1.6476">
        <ele>21.4</ele>
        <time>2021-09-19T08:04:23Z</time>
      </trkpt>
      <trkpt lat="49.11981" lon="1.64746">
        <ele>21.6</ele>
        <time>2021-09-19T08:04:25Z</time>
      </trkpt>
      <trkpt lat="49.11994" lon="1.64715">
        <ele>21.6</ele>
        <time>2021-09-19T08:04:29Z</time>
      </trkpt>
      <trkpt lat="49.12016" lon="1.6466">
        <ele>22</ele>
        <time>2021-09-19T08:04:36Z</time>
      </trkpt>
      <trkpt lat="49.12037" lon="1.64615">
        <ele>22</ele>
        <time>2021-09-19T08:04:43Z</time>
      </trkpt>
      <trkpt lat="49.12047" lon="1.64589">
        <ele>21.8</ele>
        <time>2021-09-19T08:04:48Z</time>
      </trkpt>
      <trkpt lat="49.12049" lon="1.64569">
        <ele>21.8</ele>
        <time>2021-09-19T08:04:52Z</time>
      </trkpt>
      <trkpt lat="49.12047" lon="1.64566">
        <ele>21.8</ele>
        <time>2021-09-19T08:04:53Z</time>
      </trkpt>
      <trkpt lat="49.12038" lon="1.64552">
        <ele>22.2</ele>
        <time>2021-09-19T08:04:59Z</time>
      </trkpt>
      <trkpt lat="49.12032" lon="1.6454">
        <ele>22.6</ele>
        <time>2021-09-19T08:05:04Z</time>
      </trkpt>
      <trkpt lat="49.12029" lon="1.64535">
        <ele>22.8</ele>
        <time>2021-09-19T08:05:07Z</time>
      </trkpt>
      <trkpt lat="49.12028" lon="1.64533">
        <ele>22.8</ele>
        <time>2021-09-19T08:05:10Z</time>
      </trkpt>
      <trkpt lat="49.12028" lon="1.64537">
        <ele>20.8</ele>
        <time>2021-09-19T08:08:26Z</time>
      </trkpt>
      <trkpt lat="49.12034" lon="1.64541">
        <ele>20.8</ele>
        <time>2021-09-19T08:08:29Z</time>
      </trkpt>
      <trkpt lat="49.12043" lon="1.64532">
        <ele>20.8</ele>
        <time>2021-09-19T08:08:33Z</time>
      </trkpt>
      <trkpt lat="49.12045" lon="1.64528">
        <ele>20.8</ele>
        <time>2021-09-19T08:08:34Z</time>
      </trkpt>
      <trkpt lat="49.12045" lon="1.64519">
        <ele>20.8</ele>
        <time>2021-09-19T08:08:36Z</time>
      </trkpt>
      <trkpt lat="49.12038" lon="1.64493">
        <ele>21</ele>
        <time>2021-09-19T08:08:41Z</time>
      </trkpt>
      <trkpt lat="49.12036" lon="1.64487">
        <ele>21.2</ele>
        <time>2021-09-19T08:08:42Z</time>
      </trkpt>
      <trkpt lat="49.1202" lon="1.64469">
        <ele>21.2</ele>
        <time>2021-09-19T08:08:46Z</time>
      </trkpt>
      <trkpt lat="49.11983" lon="1.64436">
        <ele>21.2</ele>
        <time>2021-09-19T08:08:53Z</time>
      </trkpt>
      <trkpt lat="49.11964" lon="1.64414">
        <ele>20.4</ele>
        <time>2021-09-19T08:08:57Z</time>
      </trkpt>
      <trkpt lat="49.11961" lon="1.64407">
        <ele>20.4</ele>
        <time>2021-09-19T08:08:58Z</time>
      </trkpt>
      <trkpt lat="49.11957" lon="1.64378">
        <ele>20.4</ele>
        <time>2021-09-19T08:09:02Z</time>
      </trkpt>
      <trkpt lat="49.11966" lon="1.64349">
        <ele>20.4</ele>
        <time>2021-09-19T08:09:06Z</time>
      </trkpt>
      <trkpt lat="49.11976" lon="1.64328">
        <ele>20.6</ele>
        <time>2021-09-19T08:09:10Z</time>
      </trkpt>
      <trkpt lat="49.1197" lon="1.64317">
        <ele>21</ele>
        <time>2021-09-19T08:09:13Z</time>
      </trkpt>
      <trkpt lat="49.11955" lon="1.64311">
        <ele>21.2</ele>
        <time>2021-09-19T08:09:16Z</time>
      </trkpt>
      <trkpt lat="49.11942" lon="1.64305">
        <ele>21.4</ele>
        <time>2021-09-19T08:09:18Z</time>
      </trkpt>
      <trkpt lat="49.11929" lon="1.64295">
        <ele>21.6</ele>
        <time>2021-09-19T08:09:20Z</time>
      </trkpt>
      <trkpt lat="49.11918" lon="1.64283">
        <ele>21.6</ele>
        <time>2021-09-19T08:09:22Z</time>
      </trkpt>
      <trkpt lat="49.11913" lon="1.64276">
        <ele>21.6</ele>
        <time>2021-09-19T08:09:23Z</time>
      </trkpt>
      <trkpt lat="49.11908" lon="1.64268">
        <ele>21.6</ele>
        <time>2021-09-19T08:09:24Z</time>
      </trkpt>
      <trkpt lat="49.11894" lon="1.64232">
        <ele>21.6</ele>
        <time>2021-09-19T08:09:28Z</time>
      </trkpt>
      <trkpt lat="49.11879" lon="1.64174">
        <ele>20.6</ele>
        <time>2021-09-19T08:09:34Z</time>
      </trkpt>
      <trkpt lat="49.11875" lon="1.64166">
        <ele>20.6</ele>
        <time>2021-09-19T08:09:35Z</time>
      </trkpt>
      <trkpt lat="49.11839" lon="1.64118">
        <ele>20.6</ele>
        <time>2021-09-19T08:09:42Z</time>
      </trkpt>
      <trkpt lat="49.11802" lon="1.64063">
        <ele>20.4</ele>
        <time>2021-09-19T08:09:50Z</time>
      </trkpt>
      <trkpt lat="49.11787" lon="1.64039">
        <ele>20.4</ele>
        <time>2021-09-19T08:09:55Z</time>
      </trkpt>
      <trkpt lat="49.11785" lon="1.64033">
        <ele>20.4</ele>
        <time>2021-09-19T08:09:59Z</time>
      </trkpt>
      <trkpt lat="49.1178" lon="1.64023">
        <ele>21</ele>
        <time>2021-09-19T08:10:03Z</time>
      </trkpt>
      <trkpt lat="49.11775" lon="1.64012">
        <ele>21.8</ele>
        <time>2021-09-19T08:10:06Z</time>
      </trkpt>
      <trkpt lat="49.11771" lon="1.64001">
        <ele>21.8</ele>
        <time>2021-09-19T08:10:08Z</time>
      </trkpt>
      <trkpt lat="49.11752" lon="1.63965">
        <ele>22</ele>
        <time>2021-09-19T08:10:14Z</time>
      </trkpt>
      <trkpt lat="49.11739" lon="1.63937">
        <ele>21.6</ele>
        <time>2021-09-19T08:10:18Z</time>
      </trkpt>
      <trkpt lat="49.11732" lon="1.63927">
        <ele>21.4</ele>
        <time>2021-09-19T08:10:20Z</time>
      </trkpt>
      <trkpt lat="49.11725" lon="1.63916">
        <ele>21</ele>
        <time>2021-09-19T08:10:22Z</time>
      </trkpt>
      <trkpt lat="49.11718" lon="1.63906">
        <ele>20.6</ele>
        <time>2021-09-19T08:10:24Z</time>
      </trkpt>
      <trkpt lat="49.11714" lon="1.63901">
        <ele>20.6</ele>
        <time>2021-09-19T08:10:25Z</time>
      </trkpt>
      <trkpt lat="49.11699" lon="1.63881">
        <ele>20.2</ele>
        <time>2021-09-19T08:10:29Z</time>
      </trkpt>
      <trkpt lat="49.11696" lon="1.63876">
        <ele>20.2</ele>
        <time>2021-09-19T08:10:30Z</time>
      </trkpt>
      <trkpt lat="49.1168" lon="1.63847">
        <ele>20.2</ele>
        <time>2021-09-19T08:10:36Z</time>
      </trkpt>
      <trkpt lat="49.11669" lon="1.63825">
        <ele>20.2</ele>
        <time>2021-09-19T08:10:41Z</time>
      </trkpt>
      <trkpt lat="49.11664" lon="1.63813">
        <ele>20.2</ele>
        <time>2021-09-19T08:10:43Z</time>
      </trkpt>
      <trkpt lat="49.11661" lon="1.63805">
        <ele>20.2</ele>
        <time>2021-09-19T08:10:44Z</time>
      </trkpt>
      <trkpt lat="49.11656" lon="1.63773">
        <ele>20.2</ele>
        <time>2021-09-19T08:10:48Z</time>
      </trkpt>
      <trkpt lat="49.11655" lon="1.63764">
        <ele>20.2</ele>
        <time>2021-09-19T08:10:49Z</time>
      </trkpt>
      <trkpt lat="49.11646" lon="1.63705">
        <ele>19.6</ele>
        <time>2021-09-19T08:10:56Z</time>
      </trkpt>
      <trkpt lat="49.11629" lon="1.63654">
        <ele>19.6</ele>
        <time>2021-09-19T08:11:02Z</time>
      </trkpt>
      <trkpt lat="49.11616" lon="1.63632">
        <ele>19.6</ele>
        <time>2021-09-19T08:11:05Z</time>
      </trkpt>
      <trkpt lat="49.11606" lon="1.63617">
        <ele>19.6</ele>
        <time>2021-09-19T08:11:07Z</time>
      </trkpt>
      <trkpt lat="49.11579" lon="1.63577">
        <ele>19.4</ele>
        <time>2021-09-19T08:11:13Z</time>
      </trkpt>
      <trkpt lat="49.11574" lon="1.6357">
        <ele>19.4</ele>
        <time>2021-09-19T08:11:14Z</time>
      </trkpt>
      <trkpt lat="49.11567" lon="1.63552">
        <ele>19.2</ele>
        <time>2021-09-19T08:11:17Z</time>
      </trkpt>
      <trkpt lat="49.11572" lon="1.63538">
        <ele>19.2</ele>
        <time>2021-09-19T08:11:20Z</time>
      </trkpt>
      <trkpt lat="49.11589" lon="1.63515">
        <ele>19</ele>
        <time>2021-09-19T08:11:26Z</time>
      </trkpt>
      <trkpt lat="49.11608" lon="1.63488">
        <ele>19.4</ele>
        <time>2021-09-19T08:11:34Z</time>
      </trkpt>
      <trkpt lat="49.1162" lon="1.63473">
        <ele>19.8</ele>
        <time>2021-09-19T08:11:40Z</time>
      </trkpt>
      <trkpt lat="49.11628" lon="1.63463">
        <ele>20.6</ele>
        <time>2021-09-19T08:11:44Z</time>
      </trkpt>
      <trkpt lat="49.11632" lon="1.63457">
        <ele>21.6</ele>
        <time>2021-09-19T08:11:48Z</time>
      </trkpt>
      <trkpt lat="49.11633" lon="1.63455">
        <ele>21.8</ele>
        <time>2021-09-19T08:11:49Z</time>
      </trkpt>
      <trkpt lat="49.11633" lon="1.63455">
        <ele>22.4</ele>
        <time>2021-09-19T08:11:51Z</time>
      </trkpt>
      <trkpt lat="49.11631" lon="1.63456">
        <ele>24.4</ele>
        <time>2021-09-19T08:11:56Z</time>
      </trkpt>
      <trkpt lat="49.11631" lon="1.63456">
        <ele>24.6</ele>
        <time>2021-09-19T08:11:57Z</time>
      </trkpt>
      <trkpt lat="49.11631" lon="1.63456">
        <ele>24.8</ele>
        <time>2021-09-19T08:11:58Z</time>
      </trkpt>
      <trkpt lat="49.11629" lon="1.63456">
        <ele>24.8</ele>
        <time>2021-09-19T08:12:14Z</time>
      </trkpt>
      <trkpt lat="49.11627" lon="1.63454">
        <ele>24.8</ele>
        <time>2021-09-19T08:12:17Z</time>
      </trkpt>
      <trkpt lat="49.11627" lon="1.63455">
        <ele>24.6</ele>
        <time>2021-09-19T08:12:21Z</time>
      </trkpt>
      <trkpt lat="49.11626" lon="1.63454">
        <ele>22.8</ele>
        <time>2021-09-19T08:25:37Z</time>
      </trkpt>
      <trkpt lat="49.11635" lon="1.63451">
        <ele>23.4</ele>
        <time>2021-09-19T08:25:43Z</time>
      </trkpt>
      <trkpt lat="49.11638" lon="1.63447">
        <ele>23.6</ele>
        <time>2021-09-19T08:25:46Z</time>
      </trkpt>
      <trkpt lat="49.11643" lon="1.63442">
        <ele>23.8</ele>
        <time>2021-09-19T08:25:50Z</time>
      </trkpt>
      <trkpt lat="49.11645" lon="1.63441">
        <ele>23.8</ele>
        <time>2021-09-19T08:25:54Z</time>
      </trkpt>
      <trkpt lat="49.11645" lon="1.63442">
        <ele>25</ele>
        <time>2021-09-19T08:26:04Z</time>
      </trkpt>
      <trkpt lat="49.11652" lon="1.63452">
        <ele>25</ele>
        <time>2021-09-19T08:26:10Z</time>
      </trkpt>
      <trkpt lat="49.11662" lon="1.63469">
        <ele>25</ele>
        <time>2021-09-19T08:26:15Z</time>
      </trkpt>
      <trkpt lat="49.11668" lon="1.63479">
        <ele>25</ele>
        <time>2021-09-19T08:26:17Z</time>
      </trkpt>
      <trkpt lat="49.11673" lon="1.63489">
        <ele>25</ele>
        <time>2021-09-19T08:26:19Z</time>
      </trkpt>
      <trkpt lat="49.11674" lon="1.63495">
        <ele>25</ele>
        <time>2021-09-19T08:26:20Z</time>
      </trkpt>
      <trkpt lat="49.11682" lon="1.6351">
        <ele>25</ele>
        <time>2021-09-19T08:26:23Z</time>
      </trkpt>
      <trkpt lat="49.11688" lon="1.6352">
        <ele>24.8</ele>
        <time>2021-09-19T08:26:25Z</time>
      </trkpt>
      <trkpt lat="49.11715" lon="1.63566">
        <ele>24.4</ele>
        <time>2021-09-19T08:26:34Z</time>
      </trkpt>
      <trkpt lat="49.11731" lon="1.63592">
        <ele>24.2</ele>
        <time>2021-09-19T08:26:40Z</time>
      </trkpt>
      <trkpt lat="49.11767" lon="1.63639">
        <ele>24</ele>
        <time>2021-09-19T08:26:51Z</time>
      </trkpt>
      <trkpt lat="49.11788" lon="1.63666">
        <ele>24</ele>
        <time>2021-09-19T08:26:57Z</time>
      </trkpt>
      <trkpt lat="49.11792" lon="1.6367">
        <ele>24</ele>
        <time>2021-09-19T08:26:58Z</time>
      </trkpt>
      <trkpt lat="49.118" lon="1.63676">
        <ele>24</ele>
        <time>2021-09-19T08:27:00Z</time>
      </trkpt>
      <trkpt lat="49.11807" lon="1.63672">
        <ele>24</ele>
        <time>2021-09-19T08:27:02Z</time>
      </trkpt>
      <trkpt lat="49.11809" lon="1.63661">
        <ele>24</ele>
        <time>2021-09-19T08:27:04Z</time>
      </trkpt>
      <trkpt lat="49.11809" lon="1.63656">
        <ele>24</ele>
        <time>2021-09-19T08:27:05Z</time>
      </trkpt>
      <trkpt lat="49.11807" lon="1.63623">
        <ele>24.2</ele>
        <time>2021-09-19T08:27:10Z</time>
      </trkpt>
      <trkpt lat="49.11802" lon="1.63584">
        <ele>24.2</ele>
        <time>2021-09-19T08:27:16Z</time>
      </trkpt>
      <trkpt lat="49.11799" lon="1.63541">
        <ele>24.8</ele>
        <time>2021-09-19T08:27:24Z</time>
      </trkpt>
      <trkpt lat="49.11799" lon="1.63533">
        <ele>25</ele>
        <time>2021-09-19T08:27:26Z</time>
      </trkpt>
      <trkpt lat="49.11804" lon="1.63528">
        <ele>25.2</ele>
        <time>2021-09-19T08:27:28Z</time>
      </trkpt>
      <trkpt lat="49.11811" lon="1.63535">
        <ele>25.8</ele>
        <time>2021-09-19T08:27:31Z</time>
      </trkpt>
      <trkpt lat="49.11814" lon="1.63538">
        <ele>25.8</ele>
        <time>2021-09-19T08:27:32Z</time>
      </trkpt>
      <trkpt lat="49.11821" lon="1.63545">
        <ele>26</ele>
        <time>2021-09-19T08:27:34Z</time>
      </trkpt>
      <trkpt lat="49.11829" lon="1.63552">
        <ele>26.2</ele>
        <time>2021-09-19T08:27:36Z</time>
      </trkpt>
      <trkpt lat="49.11858" lon="1.6358">
        <ele>26.2</ele>
        <time>2021-09-19T08:27:43Z</time>
      </trkpt>
      <trkpt lat="49.11883" lon="1.63603">
        <ele>26.4</ele>
        <time>2021-09-19T08:27:50Z</time>
      </trkpt>
      <trkpt lat="49.11903" lon="1.63622">
        <ele>26.8</ele>
        <time>2021-09-19T08:27:57Z</time>
      </trkpt>
      <trkpt lat="49.11932" lon="1.63649">
        <ele>26.8</ele>
        <time>2021-09-19T08:28:04Z</time>
      </trkpt>
      <trkpt lat="49.11962" lon="1.63676">
        <ele>26.8</ele>
        <time>2021-09-19T08:28:11Z</time>
      </trkpt>
      <trkpt lat="49.1199" lon="1.63702">
        <ele>26.8</ele>
        <time>2021-09-19T08:28:18Z</time>
      </trkpt>
      <trkpt lat="49.12001" lon="1.63713">
        <ele>27</ele>
        <time>2021-09-19T08:28:21Z</time>
      </trkpt>
      <trkpt lat="49.12012" lon="1.63723">
        <ele>27.2</ele>
        <time>2021-09-19T08:28:24Z</time>
      </trkpt>
      <trkpt lat="49.12015" lon="1.63726">
        <ele>27.2</ele>
        <time>2021-09-19T08:28:25Z</time>
      </trkpt>
      <trkpt lat="49.12042" lon="1.63754">
        <ele>27.6</ele>
        <time>2021-09-19T08:28:33Z</time>
      </trkpt>
      <trkpt lat="49.12065" lon="1.6378">
        <ele>27.8</ele>
        <time>2021-09-19T08:28:41Z</time>
      </trkpt>
      <trkpt lat="49.12074" lon="1.63791">
        <ele>28</ele>
        <time>2021-09-19T08:28:46Z</time>
      </trkpt>
      <trkpt lat="49.12076" lon="1.63793">
        <ele>28.2</ele>
        <time>2021-09-19T08:28:47Z</time>
      </trkpt>
      <trkpt lat="49.12085" lon="1.63799">
        <ele>28.2</ele>
        <time>2021-09-19T08:28:50Z</time>
      </trkpt>
      <trkpt lat="49.12103" lon="1.63818">
        <ele>28.6</ele>
        <time>2021-09-19T08:28:55Z</time>
      </trkpt>
      <trkpt lat="49.12114" lon="1.63831">
        <ele>28.6</ele>
        <time>2021-09-19T08:28:58Z</time>
      </trkpt>
      <trkpt lat="49.1212" lon="1.63837">
        <ele>28.6</ele>
        <time>2021-09-19T08:29:00Z</time>
      </trkpt>
      <trkpt lat="49.12126" lon="1.63838">
        <ele>28.6</ele>
        <time>2021-09-19T08:29:03Z</time>
      </trkpt>
      <trkpt lat="49.12121" lon="1.63835">
        <ele>28.6</ele>
        <time>2021-09-19T08:29:06Z</time>
      </trkpt>
      <trkpt lat="49.12111" lon="1.63825">
        <ele>28.6</ele>
        <time>2021-09-19T08:29:10Z</time>
      </trkpt>
      <trkpt lat="49.12096" lon="1.63808">
        <ele>28.6</ele>
        <time>2021-09-19T08:29:16Z</time>
      </trkpt>
      <trkpt lat="49.12093" lon="1.63808">
        <ele>28.6</ele>
        <time>2021-09-19T08:29:19Z</time>
      </trkpt>
      <trkpt lat="49.12097" lon="1.63811">
        <ele>28.6</ele>
        <time>2021-09-19T08:29:21Z</time>
      </trkpt>
      <trkpt lat="49.121" lon="1.63814">
        <ele>28.6</ele>
        <time>2021-09-19T08:29:22Z</time>
      </trkpt>
      <trkpt lat="49.12126" lon="1.63839">
        <ele>28.6</ele>
        <time>2021-09-19T08:29:29Z</time>
      </trkpt>
      <trkpt lat="49.12153" lon="1.63866">
        <ele>28.2</ele>
        <time>2021-09-19T08:29:35Z</time>
      </trkpt>
      <trkpt lat="49.12169" lon="1.63881">
        <ele>28</ele>
        <time>2021-09-19T08:29:39Z</time>
      </trkpt>
      <trkpt lat="49.12179" lon="1.63893">
        <ele>28</ele>
        <time>2021-09-19T08:29:42Z</time>
      </trkpt>
      <trkpt lat="49.12183" lon="1.63898">
        <ele>28</ele>
        <time>2021-09-19T08:29:44Z</time>
      </trkpt>
      <trkpt lat="49.12184" lon="1.63898">
        <ele>28</ele>
        <time>2021-09-19T08:29:45Z</time>
      </trkpt>
      <trkpt lat="49.12187" lon="1.63894">
        <ele>28</ele>
        <time>2021-09-19T08:29:49Z</time>
      </trkpt>
      <trkpt lat="49.1219" lon="1.63892">
        <ele>28.2</ele>
        <time>2021-09-19T08:29:51Z</time>
      </trkpt>
      <trkpt lat="49.12192" lon="1.63889">
        <ele>28.4</ele>
        <time>2021-09-19T08:29:52Z</time>
      </trkpt>
      <trkpt lat="49.12203" lon="1.63866">
        <ele>28.6</ele>
        <time>2021-09-19T08:29:57Z</time>
      </trkpt>
      <trkpt lat="49.12205" lon="1.6386">
        <ele>28.8</ele>
        <time>2021-09-19T08:29:58Z</time>
      </trkpt>
      <trkpt lat="49.12216" lon="1.63839">
        <ele>28.8</ele>
        <time>2021-09-19T08:30:02Z</time>
      </trkpt>
      <trkpt lat="49.12221" lon="1.6383">
        <ele>28.6</ele>
        <time>2021-09-19T08:30:04Z</time>
      </trkpt>
      <trkpt lat="49.12224" lon="1.63827">
        <ele>28.6</ele>
        <time>2021-09-19T08:30:05Z</time>
      </trkpt>
      <trkpt lat="49.1223" lon="1.63828">
        <ele>28.6</ele>
        <time>2021-09-19T08:30:07Z</time>
      </trkpt>
      <trkpt lat="49.12246" lon="1.6384">
        <ele>28.8</ele>
        <time>2021-09-19T08:30:13Z</time>
      </trkpt>
      <trkpt lat="49.12251" lon="1.63841">
        <ele>28.8</ele>
        <time>2021-09-19T08:30:15Z</time>
      </trkpt>
      <trkpt lat="49.12262" lon="1.63844">
        <ele>29.8</ele>
        <time>2021-09-19T08:30:19Z</time>
      </trkpt>
      <trkpt lat="49.12265" lon="1.63845">
        <ele>30</ele>
        <time>2021-09-19T08:30:20Z</time>
      </trkpt>
      <trkpt lat="49.12284" lon="1.6385">
        <ele>30.8</ele>
        <time>2021-09-19T08:30:27Z</time>
      </trkpt>
      <trkpt lat="49.12286" lon="1.6385">
        <ele>31</ele>
        <time>2021-09-19T08:30:28Z</time>
      </trkpt>
      <trkpt lat="49.12297" lon="1.63849">
        <ele>31.6</ele>
        <time>2021-09-19T08:30:33Z</time>
      </trkpt>
      <trkpt lat="49.12303" lon="1.63849">
        <ele>32</ele>
        <time>2021-09-19T08:30:36Z</time>
      </trkpt>
      <trkpt lat="49.12308" lon="1.63849">
        <ele>32.6</ele>
        <time>2021-09-19T08:30:39Z</time>
      </trkpt>
      <trkpt lat="49.12312" lon="1.63849">
        <ele>33</ele>
        <time>2021-09-19T08:30:41Z</time>
      </trkpt>
      <trkpt lat="49.1232" lon="1.63849">
        <ele>34.2</ele>
        <time>2021-09-19T08:30:46Z</time>
      </trkpt>
      <trkpt lat="49.12321" lon="1.63849">
        <ele>34.4</ele>
        <time>2021-09-19T08:30:47Z</time>
      </trkpt>
      <trkpt lat="49.12327" lon="1.6385">
        <ele>35.2</ele>
        <time>2021-09-19T08:30:51Z</time>
      </trkpt>
      <trkpt lat="49.12331" lon="1.6385">
        <ele>36</ele>
        <time>2021-09-19T08:30:54Z</time>
      </trkpt>
      <trkpt lat="49.12334" lon="1.6385">
        <ele>36.2</ele>
        <time>2021-09-19T08:30:56Z</time>
      </trkpt>
      <trkpt lat="49.12344" lon="1.6385">
        <ele>37.4</ele>
        <time>2021-09-19T08:31:03Z</time>
      </trkpt>
      <trkpt lat="49.12352" lon="1.63851">
        <ele>38.4</ele>
        <time>2021-09-19T08:31:08Z</time>
      </trkpt>
      <trkpt lat="49.12357" lon="1.63851">
        <ele>39.2</ele>
        <time>2021-09-19T08:31:12Z</time>
      </trkpt>
      <trkpt lat="49.12359" lon="1.63851">
        <ele>39.4</ele>
        <time>2021-09-19T08:31:13Z</time>
      </trkpt>
      <trkpt lat="49.12366" lon="1.63852">
        <ele>40.6</ele>
        <time>2021-09-19T08:31:18Z</time>
      </trkpt>
      <trkpt lat="49.12371" lon="1.63853">
        <ele>41.4</ele>
        <time>2021-09-19T08:31:22Z</time>
      </trkpt>
      <trkpt lat="49.12373" lon="1.63853">
        <ele>41.6</ele>
        <time>2021-09-19T08:31:23Z</time>
      </trkpt>
      <trkpt lat="49.12381" lon="1.63854">
        <ele>42.6</ele>
        <time>2021-09-19T08:31:29Z</time>
      </trkpt>
      <trkpt lat="49.12384" lon="1.63854">
        <ele>43</ele>
        <time>2021-09-19T08:31:31Z</time>
      </trkpt>
      <trkpt lat="49.12388" lon="1.63855">
        <ele>43.6</ele>
        <time>2021-09-19T08:31:34Z</time>
      </trkpt>
      <trkpt lat="49.12396" lon="1.63855">
        <ele>44.8</ele>
        <time>2021-09-19T08:31:40Z</time>
      </trkpt>
      <trkpt lat="49.12404" lon="1.63854">
        <ele>46</ele>
        <time>2021-09-19T08:31:46Z</time>
      </trkpt>
      <trkpt lat="49.12408" lon="1.63852">
        <ele>46.8</ele>
        <time>2021-09-19T08:31:50Z</time>
      </trkpt>
      <trkpt lat="49.12409" lon="1.63851">
        <ele>47.2</ele>
        <time>2021-09-19T08:31:51Z</time>
      </trkpt>
      <trkpt lat="49.12413" lon="1.63846">
        <ele>48.2</ele>
        <time>2021-09-19T08:31:55Z</time>
      </trkpt>
      <trkpt lat="49.12416" lon="1.63842">
        <ele>48.8</ele>
        <time>2021-09-19T08:31:58Z</time>
      </trkpt>
      <trkpt lat="49.12418" lon="1.63837">
        <ele>49.8</ele>
        <time>2021-09-19T08:32:01Z</time>
      </trkpt>
      <trkpt lat="49.12421" lon="1.63831">
        <ele>50.8</ele>
        <time>2021-09-19T08:32:05Z</time>
      </trkpt>
      <trkpt lat="49.12422" lon="1.6383">
        <ele>51</ele>
        <time>2021-09-19T08:32:06Z</time>
      </trkpt>
      <trkpt lat="49.12426" lon="1.63823">
        <ele>52.2</ele>
        <time>2021-09-19T08:32:11Z</time>
      </trkpt>
      <trkpt lat="49.12428" lon="1.63821">
        <ele>52.8</ele>
        <time>2021-09-19T08:32:13Z</time>
      </trkpt>
      <trkpt lat="49.12433" lon="1.6382">
        <ele>53.4</ele>
        <time>2021-09-19T08:32:17Z</time>
      </trkpt>
      <trkpt lat="49.12435" lon="1.6382">
        <ele>53.6</ele>
        <time>2021-09-19T08:32:19Z</time>
      </trkpt>
      <trkpt lat="49.12441" lon="1.63821">
        <ele>54.4</ele>
        <time>2021-09-19T08:32:23Z</time>
      </trkpt>
      <trkpt lat="49.12444" lon="1.63824">
        <ele>54.8</ele>
        <time>2021-09-19T08:32:26Z</time>
      </trkpt>
      <trkpt lat="49.12448" lon="1.63826">
        <ele>55.4</ele>
        <time>2021-09-19T08:32:29Z</time>
      </trkpt>
      <trkpt lat="49.12457" lon="1.63833">
        <ele>56.4</ele>
        <time>2021-09-19T08:32:36Z</time>
      </trkpt>
      <trkpt lat="49.12467" lon="1.63841">
        <ele>57.4</ele>
        <time>2021-09-19T08:32:43Z</time>
      </trkpt>
      <trkpt lat="49.1247" lon="1.63843">
        <ele>57.8</ele>
        <time>2021-09-19T08:32:45Z</time>
      </trkpt>
      <trkpt lat="49.12476" lon="1.63848">
        <ele>58.6</ele>
        <time>2021-09-19T08:32:49Z</time>
      </trkpt>
      <trkpt lat="49.12486" lon="1.63856">
        <ele>59.2</ele>
        <time>2021-09-19T08:32:56Z</time>
      </trkpt>
      <trkpt lat="49.12492" lon="1.63857">
        <ele>59.8</ele>
        <time>2021-09-19T08:33:00Z</time>
      </trkpt>
      <trkpt lat="49.12496" lon="1.63855">
        <ele>60.2</ele>
        <time>2021-09-19T08:33:03Z</time>
      </trkpt>
      <trkpt lat="49.12501" lon="1.63849">
        <ele>60.8</ele>
        <time>2021-09-19T08:33:07Z</time>
      </trkpt>
      <trkpt lat="49.12505" lon="1.63842">
        <ele>61.2</ele>
        <time>2021-09-19T08:33:11Z</time>
      </trkpt>
      <trkpt lat="49.12512" lon="1.63832">
        <ele>62</ele>
        <time>2021-09-19T08:33:17Z</time>
      </trkpt>
      <trkpt lat="49.12516" lon="1.63826">
        <ele>62.8</ele>
        <time>2021-09-19T08:33:21Z</time>
      </trkpt>
      <trkpt lat="49.12517" lon="1.63825">
        <ele>63</ele>
        <time>2021-09-19T08:33:22Z</time>
      </trkpt>
      <trkpt lat="49.12523" lon="1.63816">
        <ele>64</ele>
        <time>2021-09-19T08:33:27Z</time>
      </trkpt>
      <trkpt lat="49.12529" lon="1.63807">
        <ele>64.6</ele>
        <time>2021-09-19T08:33:32Z</time>
      </trkpt>
      <trkpt lat="49.12532" lon="1.63802">
        <ele>65</ele>
        <time>2021-09-19T08:33:34Z</time>
      </trkpt>
      <trkpt lat="49.12542" lon="1.63787">
        <ele>65.8</ele>
        <time>2021-09-19T08:33:41Z</time>
      </trkpt>
      <trkpt lat="49.12544" lon="1.63785">
        <ele>66.2</ele>
        <time>2021-09-19T08:33:42Z</time>
      </trkpt>
      <trkpt lat="49.12553" lon="1.6377">
        <ele>67.4</ele>
        <time>2021-09-19T08:33:49Z</time>
      </trkpt>
      <trkpt lat="49.12557" lon="1.63765">
        <ele>68.2</ele>
        <time>2021-09-19T08:33:52Z</time>
      </trkpt>
      <trkpt lat="49.12559" lon="1.63761">
        <ele>68.8</ele>
        <time>2021-09-19T08:33:54Z</time>
      </trkpt>
      <trkpt lat="49.12566" lon="1.63756">
        <ele>70</ele>
        <time>2021-09-19T08:33:59Z</time>
      </trkpt>
      <trkpt lat="49.12572" lon="1.63764">
        <ele>71.2</ele>
        <time>2021-09-19T08:34:04Z</time>
      </trkpt>
      <trkpt lat="49.12582" lon="1.63781">
        <ele>72.4</ele>
        <time>2021-09-19T08:34:11Z</time>
      </trkpt>
      <trkpt lat="49.12584" lon="1.63784">
        <ele>72.6</ele>
        <time>2021-09-19T08:34:12Z</time>
      </trkpt>
      <trkpt lat="49.12596" lon="1.63805">
        <ele>73.2</ele>
        <time>2021-09-19T08:34:18Z</time>
      </trkpt>
      <trkpt lat="49.12605" lon="1.63822">
        <ele>73.6</ele>
        <time>2021-09-19T08:34:22Z</time>
      </trkpt>
      <trkpt lat="49.12613" lon="1.63839">
        <ele>74</ele>
        <time>2021-09-19T08:34:25Z</time>
      </trkpt>
      <trkpt lat="49.12634" lon="1.63885">
        <ele>74.2</ele>
        <time>2021-09-19T08:34:32Z</time>
      </trkpt>
      <trkpt lat="49.12657" lon="1.63934">
        <ele>73.8</ele>
        <time>2021-09-19T08:34:39Z</time>
      </trkpt>
      <trkpt lat="49.12676" lon="1.63968">
        <ele>73.4</ele>
        <time>2021-09-19T08:34:45Z</time>
      </trkpt>
      <trkpt lat="49.12705" lon="1.64018">
        <ele>73.8</ele>
        <time>2021-09-19T08:34:55Z</time>
      </trkpt>
      <trkpt lat="49.12721" lon="1.64041">
        <ele>74.4</ele>
        <time>2021-09-19T08:35:01Z</time>
      </trkpt>
      <trkpt lat="49.12726" lon="1.64049">
        <ele>74.6</ele>
        <time>2021-09-19T08:35:03Z</time>
      </trkpt>
      <trkpt lat="49.12738" lon="1.64072">
        <ele>75.6</ele>
        <time>2021-09-19T08:35:08Z</time>
      </trkpt>
      <trkpt lat="49.12749" lon="1.64089">
        <ele>76</ele>
        <time>2021-09-19T08:35:14Z</time>
      </trkpt>
      <trkpt lat="49.12756" lon="1.641">
        <ele>76.8</ele>
        <time>2021-09-19T08:35:18Z</time>
      </trkpt>
      <trkpt lat="49.12761" lon="1.64106">
        <ele>77.2</ele>
        <time>2021-09-19T08:35:20Z</time>
      </trkpt>
      <trkpt lat="49.12772" lon="1.6412">
        <ele>77.8</ele>
        <time>2021-09-19T08:35:24Z</time>
      </trkpt>
      <trkpt lat="49.12778" lon="1.64127">
        <ele>78</ele>
        <time>2021-09-19T08:35:26Z</time>
      </trkpt>
      <trkpt lat="49.12798" lon="1.64149">
        <ele>79</ele>
        <time>2021-09-19T08:35:33Z</time>
      </trkpt>
      <trkpt lat="49.12818" lon="1.6417">
        <ele>80</ele>
        <time>2021-09-19T08:35:40Z</time>
      </trkpt>
      <trkpt lat="49.1284" lon="1.64188">
        <ele>80.8</ele>
        <time>2021-09-19T08:35:47Z</time>
      </trkpt>
      <trkpt lat="49.12845" lon="1.64193">
        <ele>81</ele>
        <time>2021-09-19T08:35:49Z</time>
      </trkpt>
      <trkpt lat="49.12857" lon="1.64205">
        <ele>81.4</ele>
        <time>2021-09-19T08:35:53Z</time>
      </trkpt>
      <trkpt lat="49.1288" lon="1.6423">
        <ele>82</ele>
        <time>2021-09-19T08:36:00Z</time>
      </trkpt>
      <trkpt lat="49.12884" lon="1.64234">
        <ele>82</ele>
        <time>2021-09-19T08:36:01Z</time>
      </trkpt>
      <trkpt lat="49.12902" lon="1.64254">
        <ele>82.2</ele>
        <time>2021-09-19T08:36:06Z</time>
      </trkpt>
      <trkpt lat="49.12936" lon="1.64291">
        <ele>82.2</ele>
        <time>2021-09-19T08:36:15Z</time>
      </trkpt>
      <trkpt lat="49.1294" lon="1.64295">
        <ele>82.4</ele>
        <time>2021-09-19T08:36:16Z</time>
      </trkpt>
      <trkpt lat="49.12955" lon="1.6431">
        <ele>82.4</ele>
        <time>2021-09-19T08:36:20Z</time>
      </trkpt>
      <trkpt lat="49.1297" lon="1.64328">
        <ele>82.8</ele>
        <time>2021-09-19T08:36:25Z</time>
      </trkpt>
      <trkpt lat="49.12973" lon="1.64331">
        <ele>82.8</ele>
        <time>2021-09-19T08:36:26Z</time>
      </trkpt>
      <trkpt lat="49.12994" lon="1.64352">
        <ele>83.2</ele>
        <time>2021-09-19T08:36:32Z</time>
      </trkpt>
      <trkpt lat="49.13013" lon="1.64368">
        <ele>83.2</ele>
        <time>2021-09-19T08:36:37Z</time>
      </trkpt>
      <trkpt lat="49.13037" lon="1.64389">
        <ele>83.2</ele>
        <time>2021-09-19T08:36:44Z</time>
      </trkpt>
      <trkpt lat="49.13051" lon="1.64399">
        <ele>83.4</ele>
        <time>2021-09-19T08:36:48Z</time>
      </trkpt>
      <trkpt lat="49.13065" lon="1.6441">
        <ele>84</ele>
        <time>2021-09-19T08:36:52Z</time>
      </trkpt>
      <trkpt lat="49.13068" lon="1.64412">
        <ele>84.2</ele>
        <time>2021-09-19T08:36:53Z</time>
      </trkpt>
      <trkpt lat="49.13083" lon="1.64424">
        <ele>84.4</ele>
        <time>2021-09-19T08:36:58Z</time>
      </trkpt>
      <trkpt lat="49.13097" lon="1.6443">
        <ele>84.8</ele>
        <time>2021-09-19T08:37:04Z</time>
      </trkpt>
      <trkpt lat="49.13111" lon="1.64438">
        <ele>85.2</ele>
        <time>2021-09-19T08:37:10Z</time>
      </trkpt>
      <trkpt lat="49.13126" lon="1.64449">
        <ele>86.2</ele>
        <time>2021-09-19T08:37:17Z</time>
      </trkpt>
      <trkpt lat="49.1313" lon="1.64451">
        <ele>86.6</ele>
        <time>2021-09-19T08:37:19Z</time>
      </trkpt>
      <trkpt lat="49.13135" lon="1.64454">
        <ele>87.2</ele>
        <time>2021-09-19T08:37:22Z</time>
      </trkpt>
      <trkpt lat="49.13136" lon="1.64456">
        <ele>87.4</ele>
        <time>2021-09-19T08:37:23Z</time>
      </trkpt>
      <trkpt lat="49.13141" lon="1.6446">
        <ele>87.6</ele>
        <time>2021-09-19T08:37:25Z</time>
      </trkpt>
      <trkpt lat="49.13143" lon="1.64462">
        <ele>88</ele>
        <time>2021-09-19T08:37:26Z</time>
      </trkpt>
      <trkpt lat="49.13148" lon="1.64463">
        <ele>88.4</ele>
        <time>2021-09-19T08:37:29Z</time>
      </trkpt>
      <trkpt lat="49.13152" lon="1.64464">
        <ele>88.6</ele>
        <time>2021-09-19T08:37:31Z</time>
      </trkpt>
      <trkpt lat="49.1316" lon="1.6447">
        <ele>89.4</ele>
        <time>2021-09-19T08:37:38Z</time>
      </trkpt>
      <trkpt lat="49.13161" lon="1.64472">
        <ele>89.8</ele>
        <time>2021-09-19T08:37:39Z</time>
      </trkpt>
      <trkpt lat="49.13164" lon="1.64474">
        <ele>90.6</ele>
        <time>2021-09-19T08:37:42Z</time>
      </trkpt>
      <trkpt lat="49.13164" lon="1.64474">
        <ele>90.8</ele>
        <time>2021-09-19T08:37:43Z</time>
      </trkpt>
      <trkpt lat="49.1317" lon="1.64478">
        <ele>92</ele>
        <time>2021-09-19T08:38:04Z</time>
      </trkpt>
      <trkpt lat="49.13171" lon="1.64479">
        <ele>92</ele>
        <time>2021-09-19T08:38:05Z</time>
      </trkpt>
      <trkpt lat="49.13175" lon="1.64484">
        <ele>92.2</ele>
        <time>2021-09-19T08:38:13Z</time>
      </trkpt>
      <trkpt lat="49.1318" lon="1.64487">
        <ele>93</ele>
        <time>2021-09-19T08:38:22Z</time>
      </trkpt>
      <trkpt lat="49.13182" lon="1.64488">
        <ele>93</ele>
        <time>2021-09-19T08:38:24Z</time>
      </trkpt>
      <trkpt lat="49.13186" lon="1.6449">
        <ele>93</ele>
        <time>2021-09-19T08:38:27Z</time>
      </trkpt>
      <trkpt lat="49.13192" lon="1.64494">
        <ele>93.2</ele>
        <time>2021-09-19T08:38:31Z</time>
      </trkpt>
      <trkpt lat="49.13194" lon="1.64495">
        <ele>93.2</ele>
        <time>2021-09-19T08:38:32Z</time>
      </trkpt>
      <trkpt lat="49.13199" lon="1.64497">
        <ele>94</ele>
        <time>2021-09-19T08:38:35Z</time>
      </trkpt>
      <trkpt lat="49.13204" lon="1.64499">
        <ele>95</ele>
        <time>2021-09-19T08:38:39Z</time>
      </trkpt>
      <trkpt lat="49.13206" lon="1.64501">
        <ele>95.2</ele>
        <time>2021-09-19T08:38:40Z</time>
      </trkpt>
      <trkpt lat="49.13213" lon="1.64503">
        <ele>96.4</ele>
        <time>2021-09-19T08:38:46Z</time>
      </trkpt>
      <trkpt lat="49.13218" lon="1.64504">
        <ele>97.6</ele>
        <time>2021-09-19T08:38:50Z</time>
      </trkpt>
      <trkpt lat="49.13223" lon="1.64504">
        <ele>98.6</ele>
        <time>2021-09-19T08:38:54Z</time>
      </trkpt>
      <trkpt lat="49.13223" lon="1.64505">
        <ele>98.8</ele>
        <time>2021-09-19T08:38:55Z</time>
      </trkpt>
      <trkpt lat="49.13224" lon="1.64505">
        <ele>99</ele>
        <time>2021-09-19T08:38:56Z</time>
      </trkpt>
      <trkpt lat="49.13232" lon="1.64501">
        <ele>100.8</ele>
        <time>2021-09-19T08:39:08Z</time>
      </trkpt>
      <trkpt lat="49.13235" lon="1.64495">
        <ele>101</ele>
        <time>2021-09-19T08:39:12Z</time>
      </trkpt>
      <trkpt lat="49.13239" lon="1.64481">
        <ele>101.2</ele>
        <time>2021-09-19T08:39:19Z</time>
      </trkpt>
      <trkpt lat="49.13241" lon="1.64473">
        <ele>102</ele>
        <time>2021-09-19T08:39:24Z</time>
      </trkpt>
      <trkpt lat="49.13243" lon="1.64468">
        <ele>103</ele>
        <time>2021-09-19T08:39:27Z</time>
      </trkpt>
      <trkpt lat="49.13245" lon="1.64462">
        <ele>104.6</ele>
        <time>2021-09-19T08:39:31Z</time>
      </trkpt>
      <trkpt lat="49.13248" lon="1.64456">
        <ele>105.4</ele>
        <time>2021-09-19T08:39:35Z</time>
      </trkpt>
      <trkpt lat="49.13249" lon="1.64454">
        <ele>105.6</ele>
        <time>2021-09-19T08:39:36Z</time>
      </trkpt>
      <trkpt lat="49.13254" lon="1.64446">
        <ele>106.8</ele>
        <time>2021-09-19T08:39:41Z</time>
      </trkpt>
      <trkpt lat="49.13256" lon="1.64443">
        <ele>107.2</ele>
        <time>2021-09-19T08:39:43Z</time>
      </trkpt>
      <trkpt lat="49.13257" lon="1.6444">
        <ele>108</ele>
        <time>2021-09-19T08:39:45Z</time>
      </trkpt>
      <trkpt lat="49.13261" lon="1.64434">
        <ele>109.2</ele>
        <time>2021-09-19T08:39:49Z</time>
      </trkpt>
      <trkpt lat="49.13262" lon="1.64433">
        <ele>109.4</ele>
        <time>2021-09-19T08:39:50Z</time>
      </trkpt>
      <trkpt lat="49.13265" lon="1.64429">
        <ele>110.2</ele>
        <time>2021-09-19T08:39:53Z</time>
      </trkpt>
      <trkpt lat="49.13268" lon="1.64423">
        <ele>111</ele>
        <time>2021-09-19T08:39:57Z</time>
      </trkpt>
      <trkpt lat="49.13271" lon="1.6442">
        <ele>111.4</ele>
        <time>2021-09-19T08:39:59Z</time>
      </trkpt>
      <trkpt lat="49.13273" lon="1.64416">
        <ele>112</ele>
        <time>2021-09-19T08:40:02Z</time>
      </trkpt>
      <trkpt lat="49.13274" lon="1.6441">
        <ele>112.4</ele>
        <time>2021-09-19T08:40:05Z</time>
      </trkpt>
      <trkpt lat="49.13274" lon="1.64408">
        <ele>112.6</ele>
        <time>2021-09-19T08:40:06Z</time>
      </trkpt>
      <trkpt lat="49.13273" lon="1.64397">
        <ele>113.8</ele>
        <time>2021-09-19T08:40:11Z</time>
      </trkpt>
      <trkpt lat="49.13268" lon="1.6439">
        <ele>115</ele>
        <time>2021-09-19T08:40:15Z</time>
      </trkpt>
      <trkpt lat="49.13263" lon="1.64384">
        <ele>116</ele>
        <time>2021-09-19T08:40:18Z</time>
      </trkpt>
      <trkpt lat="49.13256" lon="1.64375">
        <ele>117</ele>
        <time>2021-09-19T08:40:24Z</time>
      </trkpt>
      <trkpt lat="49.13251" lon="1.64363">
        <ele>117</ele>
        <time>2021-09-19T08:40:30Z</time>
      </trkpt>
      <trkpt lat="49.13252" lon="1.64361">
        <ele>117</ele>
        <time>2021-09-19T08:40:31Z</time>
      </trkpt>
      <trkpt lat="49.13257" lon="1.64349">
        <ele>117</ele>
        <time>2021-09-19T08:40:37Z</time>
      </trkpt>
      <trkpt lat="49.13258" lon="1.64346">
        <ele>117</ele>
        <time>2021-09-19T08:40:38Z</time>
      </trkpt>
      <trkpt lat="49.1326" lon="1.64339">
        <ele>117.2</ele>
        <time>2021-09-19T08:40:41Z</time>
      </trkpt>
      <trkpt lat="49.13264" lon="1.64325">
        <ele>118.4</ele>
        <time>2021-09-19T08:40:47Z</time>
      </trkpt>
      <trkpt lat="49.13267" lon="1.64316">
        <ele>119.4</ele>
        <time>2021-09-19T08:40:51Z</time>
      </trkpt>
      <trkpt lat="49.1327" lon="1.64314">
        <ele>120</ele>
        <time>2021-09-19T08:40:53Z</time>
      </trkpt>
      <trkpt lat="49.13274" lon="1.6431">
        <ele>120.6</ele>
        <time>2021-09-19T08:40:55Z</time>
      </trkpt>
      <trkpt lat="49.13279" lon="1.64304">
        <ele>121.2</ele>
        <time>2021-09-19T08:40:58Z</time>
      </trkpt>
      <trkpt lat="49.13285" lon="1.64303">
        <ele>121.6</ele>
        <time>2021-09-19T08:41:01Z</time>
      </trkpt>
      <trkpt lat="49.13293" lon="1.64304">
        <ele>122</ele>
        <time>2021-09-19T08:41:04Z</time>
      </trkpt>
      <trkpt lat="49.13317" lon="1.64312">
        <ele>122</ele>
        <time>2021-09-19T08:41:11Z</time>
      </trkpt>
      <trkpt lat="49.13349" lon="1.64324">
        <ele>121.8</ele>
        <time>2021-09-19T08:41:20Z</time>
      </trkpt>
      <trkpt lat="49.13384" lon="1.64336">
        <ele>122.2</ele>
        <time>2021-09-19T08:41:30Z</time>
      </trkpt>
      <trkpt lat="49.13399" lon="1.6434">
        <ele>122.6</ele>
        <time>2021-09-19T08:41:34Z</time>
      </trkpt>
      <trkpt lat="49.13403" lon="1.64341">
        <ele>122.8</ele>
        <time>2021-09-19T08:41:35Z</time>
      </trkpt>
      <trkpt lat="49.13422" lon="1.64343">
        <ele>123.8</ele>
        <time>2021-09-19T08:41:40Z</time>
      </trkpt>
      <trkpt lat="49.13438" lon="1.64345">
        <ele>124.2</ele>
        <time>2021-09-19T08:41:44Z</time>
      </trkpt>
      <trkpt lat="49.13473" lon="1.64349">
        <ele>124.8</ele>
        <time>2021-09-19T08:41:52Z</time>
      </trkpt>
      <trkpt lat="49.13482" lon="1.64353">
        <ele>124.8</ele>
        <time>2021-09-19T08:41:54Z</time>
      </trkpt>
      <trkpt lat="49.13493" lon="1.64364">
        <ele>124.8</ele>
        <time>2021-09-19T08:41:57Z</time>
      </trkpt>
      <trkpt lat="49.13497" lon="1.64369">
        <ele>124.8</ele>
        <time>2021-09-19T08:41:58Z</time>
      </trkpt>
      <trkpt lat="49.135" lon="1.64374">
        <ele>124.8</ele>
        <time>2021-09-19T08:41:59Z</time>
      </trkpt>
      <trkpt lat="49.13509" lon="1.64391">
        <ele>124.8</ele>
        <time>2021-09-19T08:42:02Z</time>
      </trkpt>
      <trkpt lat="49.13511" lon="1.64397">
        <ele>124.8</ele>
        <time>2021-09-19T08:42:03Z</time>
      </trkpt>
      <trkpt lat="49.13526" lon="1.64443">
        <ele>124.6</ele>
        <time>2021-09-19T08:42:10Z</time>
      </trkpt>
      <trkpt lat="49.1353" lon="1.64457">
        <ele>124.6</ele>
        <time>2021-09-19T08:42:12Z</time>
      </trkpt>
      <trkpt lat="49.1354" lon="1.64483">
        <ele>124.4</ele>
        <time>2021-09-19T08:42:16Z</time>
      </trkpt>
      <trkpt lat="49.13559" lon="1.64534">
        <ele>124</ele>
        <time>2021-09-19T08:42:24Z</time>
      </trkpt>
      <trkpt lat="49.13579" lon="1.64589">
        <ele>123.8</ele>
        <time>2021-09-19T08:42:31Z</time>
      </trkpt>
      <trkpt lat="49.13598" lon="1.64642">
        <ele>122.6</ele>
        <time>2021-09-19T08:42:38Z</time>
      </trkpt>
      <trkpt lat="49.13608" lon="1.6467">
        <ele>121.4</ele>
        <time>2021-09-19T08:42:42Z</time>
      </trkpt>
      <trkpt lat="49.13611" lon="1.64683">
        <ele>121</ele>
        <time>2021-09-19T08:42:44Z</time>
      </trkpt>
      <trkpt lat="49.13613" lon="1.64688">
        <ele>121</ele>
        <time>2021-09-19T08:42:45Z</time>
      </trkpt>
      <trkpt lat="49.13625" lon="1.64707">
        <ele>121</ele>
        <time>2021-09-19T08:42:49Z</time>
      </trkpt>
      <trkpt lat="49.13642" lon="1.64716">
        <ele>121.4</ele>
        <time>2021-09-19T08:42:54Z</time>
      </trkpt>
      <trkpt lat="49.13662" lon="1.64702">
        <ele>122</ele>
        <time>2021-09-19T08:43:00Z</time>
      </trkpt>
      <trkpt lat="49.13671" lon="1.64693">
        <ele>122.2</ele>
        <time>2021-09-19T08:43:03Z</time>
      </trkpt>
      <trkpt lat="49.13685" lon="1.64675">
        <ele>123.4</ele>
        <time>2021-09-19T08:43:08Z</time>
      </trkpt>
      <trkpt lat="49.13704" lon="1.64651">
        <ele>124.2</ele>
        <time>2021-09-19T08:43:14Z</time>
      </trkpt>
      <trkpt lat="49.13719" lon="1.64621">
        <ele>124.4</ele>
        <time>2021-09-19T08:43:19Z</time>
      </trkpt>
      <trkpt lat="49.13725" lon="1.64608">
        <ele>124.4</ele>
        <time>2021-09-19T08:43:21Z</time>
      </trkpt>
      <trkpt lat="49.1373" lon="1.64595">
        <ele>124.4</ele>
        <time>2021-09-19T08:43:23Z</time>
      </trkpt>
      <trkpt lat="49.13737" lon="1.6459">
        <ele>124.4</ele>
        <time>2021-09-19T08:43:25Z</time>
      </trkpt>
      <trkpt lat="49.1375" lon="1.64599">
        <ele>124.4</ele>
        <time>2021-09-19T08:43:28Z</time>
      </trkpt>
      <trkpt lat="49.13782" lon="1.64624">
        <ele>124.2</ele>
        <time>2021-09-19T08:43:34Z</time>
      </trkpt>
      <trkpt lat="49.13812" lon="1.64646">
        <ele>123.2</ele>
        <time>2021-09-19T08:43:39Z</time>
      </trkpt>
      <trkpt lat="49.13831" lon="1.64659">
        <ele>122.2</ele>
        <time>2021-09-19T08:43:42Z</time>
      </trkpt>
      <trkpt lat="49.13843" lon="1.64669">
        <ele>122</ele>
        <time>2021-09-19T08:43:44Z</time>
      </trkpt>
      <trkpt lat="49.13879" lon="1.64694">
        <ele>121.4</ele>
        <time>2021-09-19T08:43:50Z</time>
      </trkpt>
      <trkpt lat="49.13885" lon="1.64696">
        <ele>121.2</ele>
        <time>2021-09-19T08:43:51Z</time>
      </trkpt>
      <trkpt lat="49.13891" lon="1.64696">
        <ele>121</ele>
        <time>2021-09-19T08:43:52Z</time>
      </trkpt>
      <trkpt lat="49.13897" lon="1.64694">
        <ele>120.8</ele>
        <time>2021-09-19T08:43:53Z</time>
      </trkpt>
      <trkpt lat="49.13917" lon="1.64673">
        <ele>120</ele>
        <time>2021-09-19T08:43:57Z</time>
      </trkpt>
      <trkpt lat="49.13926" lon="1.64661">
        <ele>120</ele>
        <time>2021-09-19T08:43:59Z</time>
      </trkpt>
      <trkpt lat="49.13938" lon="1.64648">
        <ele>120</ele>
        <time>2021-09-19T08:44:02Z</time>
      </trkpt>
      <trkpt lat="49.13958" lon="1.64622">
        <ele>120.2</ele>
        <time>2021-09-19T08:44:08Z</time>
      </trkpt>
      <trkpt lat="49.13977" lon="1.64598">
        <ele>120.4</ele>
        <time>2021-09-19T08:44:14Z</time>
      </trkpt>
      <trkpt lat="49.13983" lon="1.64591">
        <ele>120.4</ele>
        <time>2021-09-19T08:44:16Z</time>
      </trkpt>
      <trkpt lat="49.14007" lon="1.6457">
        <ele>120.6</ele>
        <time>2021-09-19T08:44:23Z</time>
      </trkpt>
      <trkpt lat="49.14011" lon="1.64569">
        <ele>120.6</ele>
        <time>2021-09-19T08:44:24Z</time>
      </trkpt>
      <trkpt lat="49.14029" lon="1.64568">
        <ele>120.4</ele>
        <time>2021-09-19T08:44:28Z</time>
      </trkpt>
      <trkpt lat="49.14033" lon="1.64569">
        <ele>120.4</ele>
        <time>2021-09-19T08:44:29Z</time>
      </trkpt>
      <trkpt lat="49.14066" lon="1.64577">
        <ele>119.4</ele>
        <time>2021-09-19T08:44:36Z</time>
      </trkpt>
      <trkpt lat="49.14071" lon="1.64579">
        <ele>119.2</ele>
        <time>2021-09-19T08:44:37Z</time>
      </trkpt>
      <trkpt lat="49.14086" lon="1.64585">
        <ele>118.6</ele>
        <time>2021-09-19T08:44:40Z</time>
      </trkpt>
      <trkpt lat="49.14097" lon="1.64587">
        <ele>118.6</ele>
        <time>2021-09-19T08:44:42Z</time>
      </trkpt>
      <trkpt lat="49.14125" lon="1.64593">
        <ele>118.2</ele>
        <time>2021-09-19T08:44:48Z</time>
      </trkpt>
      <trkpt lat="49.14134" lon="1.64595">
        <ele>117.6</ele>
        <time>2021-09-19T08:44:50Z</time>
      </trkpt>
      <trkpt lat="49.14148" lon="1.64599">
        <ele>117.2</ele>
        <time>2021-09-19T08:44:54Z</time>
      </trkpt>
      <trkpt lat="49.14177" lon="1.64605">
        <ele>117.2</ele>
        <time>2021-09-19T08:45:02Z</time>
      </trkpt>
      <trkpt lat="49.14207" lon="1.6461">
        <ele>117.6</ele>
        <time>2021-09-19T08:45:11Z</time>
      </trkpt>
      <trkpt lat="49.14225" lon="1.64614">
        <ele>118.2</ele>
        <time>2021-09-19T08:45:17Z</time>
      </trkpt>
      <trkpt lat="49.14241" lon="1.64619">
        <ele>118.6</ele>
        <time>2021-09-19T08:45:22Z</time>
      </trkpt>
      <trkpt lat="49.14251" lon="1.64622">
        <ele>119</ele>
        <time>2021-09-19T08:45:25Z</time>
      </trkpt>
      <trkpt lat="49.14281" lon="1.64631">
        <ele>119.6</ele>
        <time>2021-09-19T08:45:34Z</time>
      </trkpt>
      <trkpt lat="49.14292" lon="1.6464">
        <ele>120</ele>
        <time>2021-09-19T08:45:40Z</time>
      </trkpt>
      <trkpt lat="49.1429" lon="1.64659">
        <ele>120.4</ele>
        <time>2021-09-19T08:45:44Z</time>
      </trkpt>
      <trkpt lat="49.14287" lon="1.64681">
        <ele>120.4</ele>
        <time>2021-09-19T08:45:48Z</time>
      </trkpt>
      <trkpt lat="49.14279" lon="1.64696">
        <ele>120.4</ele>
        <time>2021-09-19T08:45:51Z</time>
      </trkpt>
      <trkpt lat="49.14273" lon="1.64708">
        <ele>120.4</ele>
        <time>2021-09-19T08:45:53Z</time>
      </trkpt>
      <trkpt lat="49.1427" lon="1.64725">
        <ele>119.4</ele>
        <time>2021-09-19T08:45:55Z</time>
      </trkpt>
      <trkpt lat="49.14267" lon="1.64764">
        <ele>118.4</ele>
        <time>2021-09-19T08:45:58Z</time>
      </trkpt>
      <trkpt lat="49.14264" lon="1.64791">
        <ele>117</ele>
        <time>2021-09-19T08:46:00Z</time>
      </trkpt>
      <trkpt lat="49.14261" lon="1.64818">
        <ele>115.2</ele>
        <time>2021-09-19T08:46:02Z</time>
      </trkpt>
      <trkpt lat="49.1426" lon="1.64832">
        <ele>114</ele>
        <time>2021-09-19T08:46:03Z</time>
      </trkpt>
      <trkpt lat="49.14259" lon="1.64845">
        <ele>112.8</ele>
        <time>2021-09-19T08:46:04Z</time>
      </trkpt>
      <trkpt lat="49.14257" lon="1.64857">
        <ele>109.4</ele>
        <time>2021-09-19T08:46:05Z</time>
      </trkpt>
      <trkpt lat="49.14256" lon="1.64869">
        <ele>107.4</ele>
        <time>2021-09-19T08:46:06Z</time>
      </trkpt>
      <trkpt lat="49.14255" lon="1.64881">
        <ele>105.4</ele>
        <time>2021-09-19T08:46:07Z</time>
      </trkpt>
      <trkpt lat="49.14254" lon="1.64891">
        <ele>103.8</ele>
        <time>2021-09-19T08:46:08Z</time>
      </trkpt>
      <trkpt lat="49.14254" lon="1.64897">
        <ele>102.2</ele>
        <time>2021-09-19T08:46:09Z</time>
      </trkpt>
      <trkpt lat="49.14254" lon="1.64903">
        <ele>100.8</ele>
        <time>2021-09-19T08:46:10Z</time>
      </trkpt>
      <trkpt lat="49.14253" lon="1.64909">
        <ele>99.2</ele>
        <time>2021-09-19T08:46:11Z</time>
      </trkpt>
      <trkpt lat="49.14252" lon="1.64915">
        <ele>98</ele>
        <time>2021-09-19T08:46:12Z</time>
      </trkpt>
      <trkpt lat="49.14253" lon="1.64921">
        <ele>96.8</ele>
        <time>2021-09-19T08:46:13Z</time>
      </trkpt>
      <trkpt lat="49.14253" lon="1.64927">
        <ele>96</ele>
        <time>2021-09-19T08:46:14Z</time>
      </trkpt>
      <trkpt lat="49.14252" lon="1.64931">
        <ele>95.2</ele>
        <time>2021-09-19T08:46:15Z</time>
      </trkpt>
      <trkpt lat="49.1425" lon="1.64935">
        <ele>94.6</ele>
        <time>2021-09-19T08:46:16Z</time>
      </trkpt>
      <trkpt lat="49.14248" lon="1.64942">
        <ele>94.2</ele>
        <time>2021-09-19T08:46:18Z</time>
      </trkpt>
      <trkpt lat="49.14245" lon="1.64951">
        <ele>93.8</ele>
        <time>2021-09-19T08:46:20Z</time>
      </trkpt>
      <trkpt lat="49.14242" lon="1.64956">
        <ele>93.4</ele>
        <time>2021-09-19T08:46:21Z</time>
      </trkpt>
      <trkpt lat="49.14237" lon="1.64963">
        <ele>92.4</ele>
        <time>2021-09-19T08:46:23Z</time>
      </trkpt>
      <trkpt lat="49.14233" lon="1.64965">
        <ele>92</ele>
        <time>2021-09-19T08:46:24Z</time>
      </trkpt>
      <trkpt lat="49.14227" lon="1.64969">
        <ele>91</ele>
        <time>2021-09-19T08:46:26Z</time>
      </trkpt>
      <trkpt lat="49.14222" lon="1.64972">
        <ele>89.6</ele>
        <time>2021-09-19T08:46:28Z</time>
      </trkpt>
      <trkpt lat="49.14218" lon="1.64977">
        <ele>87.8</ele>
        <time>2021-09-19T08:46:30Z</time>
      </trkpt>
      <trkpt lat="49.14215" lon="1.64979">
        <ele>86.8</ele>
        <time>2021-09-19T08:46:31Z</time>
      </trkpt>
      <trkpt lat="49.14212" lon="1.64981">
        <ele>85.8</ele>
        <time>2021-09-19T08:46:32Z</time>
      </trkpt>
      <trkpt lat="49.14208" lon="1.64983">
        <ele>83.8</ele>
        <time>2021-09-19T08:46:33Z</time>
      </trkpt>
      <trkpt lat="49.14204" lon="1.64985">
        <ele>82.8</ele>
        <time>2021-09-19T08:46:34Z</time>
      </trkpt>
      <trkpt lat="49.14195" lon="1.64989">
        <ele>81.2</ele>
        <time>2021-09-19T08:46:36Z</time>
      </trkpt>
      <trkpt lat="49.1419" lon="1.64992">
        <ele>80.6</ele>
        <time>2021-09-19T08:46:37Z</time>
      </trkpt>
      <trkpt lat="49.14186" lon="1.64994">
        <ele>80</ele>
        <time>2021-09-19T08:46:38Z</time>
      </trkpt>
      <trkpt lat="49.14179" lon="1.64998">
        <ele>78.2</ele>
        <time>2021-09-19T08:46:40Z</time>
      </trkpt>
      <trkpt lat="49.14176" lon="1.65001">
        <ele>77.2</ele>
        <time>2021-09-19T08:46:41Z</time>
      </trkpt>
      <trkpt lat="49.14173" lon="1.65004">
        <ele>76</ele>
        <time>2021-09-19T08:46:42Z</time>
      </trkpt>
      <trkpt lat="49.14169" lon="1.65008">
        <ele>74.8</ele>
        <time>2021-09-19T08:46:43Z</time>
      </trkpt>
      <trkpt lat="49.14165" lon="1.65011">
        <ele>73.6</ele>
        <time>2021-09-19T08:46:44Z</time>
      </trkpt>
      <trkpt lat="49.14161" lon="1.65013">
        <ele>72.2</ele>
        <time>2021-09-19T08:46:45Z</time>
      </trkpt>
      <trkpt lat="49.14158" lon="1.65016">
        <ele>71</ele>
        <time>2021-09-19T08:46:46Z</time>
      </trkpt>
      <trkpt lat="49.14155" lon="1.6502">
        <ele>69.6</ele>
        <time>2021-09-19T08:46:47Z</time>
      </trkpt>
      <trkpt lat="49.14151" lon="1.65024">
        <ele>68.6</ele>
        <time>2021-09-19T08:46:48Z</time>
      </trkpt>
      <trkpt lat="49.14146" lon="1.65028">
        <ele>67.2</ele>
        <time>2021-09-19T08:46:49Z</time>
      </trkpt>
      <trkpt lat="49.14142" lon="1.65035">
        <ele>66</ele>
        <time>2021-09-19T08:46:50Z</time>
      </trkpt>
      <trkpt lat="49.14138" lon="1.65042">
        <ele>65</ele>
        <time>2021-09-19T08:46:51Z</time>
      </trkpt>
      <trkpt lat="49.14133" lon="1.6505">
        <ele>64</ele>
        <time>2021-09-19T08:46:52Z</time>
      </trkpt>
      <trkpt lat="49.1413" lon="1.65056">
        <ele>62.8</ele>
        <time>2021-09-19T08:46:53Z</time>
      </trkpt>
      <trkpt lat="49.14128" lon="1.6506">
        <ele>62</ele>
        <time>2021-09-19T08:46:54Z</time>
      </trkpt>
      <trkpt lat="49.14126" lon="1.65063">
        <ele>61</ele>
        <time>2021-09-19T08:46:55Z</time>
      </trkpt>
      <trkpt lat="49.14123" lon="1.6507">
        <ele>59</ele>
        <time>2021-09-19T08:46:57Z</time>
      </trkpt>
      <trkpt lat="49.14121" lon="1.65073">
        <ele>57.8</ele>
        <time>2021-09-19T08:46:58Z</time>
      </trkpt>
      <trkpt lat="49.1412" lon="1.65076">
        <ele>56</ele>
        <time>2021-09-19T08:46:59Z</time>
      </trkpt>
      <trkpt lat="49.14119" lon="1.65078">
        <ele>54.6</ele>
        <time>2021-09-19T08:47:00Z</time>
      </trkpt>
      <trkpt lat="49.14116" lon="1.65081">
        <ele>52.6</ele>
        <time>2021-09-19T08:47:01Z</time>
      </trkpt>
      <trkpt lat="49.14113" lon="1.65083">
        <ele>52</ele>
        <time>2021-09-19T08:47:02Z</time>
      </trkpt>
      <trkpt lat="49.14111" lon="1.65083">
        <ele>51.4</ele>
        <time>2021-09-19T08:47:03Z</time>
      </trkpt>
      <trkpt lat="49.14105" lon="1.65081">
        <ele>50</ele>
        <time>2021-09-19T08:47:06Z</time>
      </trkpt>
      <trkpt lat="49.14099" lon="1.65087">
        <ele>49.2</ele>
        <time>2021-09-19T08:47:08Z</time>
      </trkpt>
      <trkpt lat="49.14095" lon="1.6509">
        <ele>48.8</ele>
        <time>2021-09-19T08:47:09Z</time>
      </trkpt>
      <trkpt lat="49.1409" lon="1.65095">
        <ele>48.4</ele>
        <time>2021-09-19T08:47:10Z</time>
      </trkpt>
      <trkpt lat="49.14073" lon="1.65113">
        <ele>48</ele>
        <time>2021-09-19T08:47:13Z</time>
      </trkpt>
      <trkpt lat="49.14057" lon="1.65141">
        <ele>47.8</ele>
        <time>2021-09-19T08:47:16Z</time>
      </trkpt>
      <trkpt lat="49.14045" lon="1.65159">
        <ele>46.6</ele>
        <time>2021-09-19T08:47:18Z</time>
      </trkpt>
      <trkpt lat="49.14032" lon="1.65173">
        <ele>44.6</ele>
        <time>2021-09-19T08:47:20Z</time>
      </trkpt>
      <trkpt lat="49.14025" lon="1.6518">
        <ele>43.4</ele>
        <time>2021-09-19T08:47:21Z</time>
      </trkpt>
      <trkpt lat="49.14018" lon="1.65187">
        <ele>42.4</ele>
        <time>2021-09-19T08:47:22Z</time>
      </trkpt>
      <trkpt lat="49.1401" lon="1.65195">
        <ele>40.6</ele>
        <time>2021-09-19T08:47:23Z</time>
      </trkpt>
      <trkpt lat="49.14002" lon="1.65203">
        <ele>39</ele>
        <time>2021-09-19T08:47:24Z</time>
      </trkpt>
      <trkpt lat="49.13994" lon="1.65212">
        <ele>37.4</ele>
        <time>2021-09-19T08:47:25Z</time>
      </trkpt>
      <trkpt lat="49.13986" lon="1.6522">
        <ele>36</ele>
        <time>2021-09-19T08:47:26Z</time>
      </trkpt>
      <trkpt lat="49.13977" lon="1.65228">
        <ele>35</ele>
        <time>2021-09-19T08:47:27Z</time>
      </trkpt>
      <trkpt lat="49.13969" lon="1.65235">
        <ele>33.6</ele>
        <time>2021-09-19T08:47:28Z</time>
      </trkpt>
      <trkpt lat="49.13963" lon="1.6524">
        <ele>32.2</ele>
        <time>2021-09-19T08:47:29Z</time>
      </trkpt>
      <trkpt lat="49.13958" lon="1.65244">
        <ele>29.8</ele>
        <time>2021-09-19T08:47:30Z</time>
      </trkpt>
      <trkpt lat="49.13955" lon="1.65249">
        <ele>28.8</ele>
        <time>2021-09-19T08:47:31Z</time>
      </trkpt>
      <trkpt lat="49.13954" lon="1.65253">
        <ele>28</ele>
        <time>2021-09-19T08:47:32Z</time>
      </trkpt>
      <trkpt lat="49.13955" lon="1.65257">
        <ele>26</ele>
        <time>2021-09-19T08:47:34Z</time>
      </trkpt>
      <trkpt lat="49.13956" lon="1.65258">
        <ele>24.8</ele>
        <time>2021-09-19T08:47:35Z</time>
      </trkpt>
      <trkpt lat="49.13959" lon="1.65258">
        <ele>23.8</ele>
        <time>2021-09-19T08:47:37Z</time>
      </trkpt>
      <trkpt lat="49.13961" lon="1.65257">
        <ele>23.4</ele>
        <time>2021-09-19T08:47:38Z</time>
      </trkpt>
      <trkpt lat="49.13962" lon="1.65255">
        <ele>23.4</ele>
        <time>2021-09-19T08:47:39Z</time>
      </trkpt>
      <trkpt lat="49.13972" lon="1.65244">
        <ele>22.8</ele>
        <time>2021-09-19T08:47:44Z</time>
      </trkpt>
      <trkpt lat="49.1398" lon="1.65236">
        <ele>22.4</ele>
        <time>2021-09-19T08:47:48Z</time>
      </trkpt>
      <trkpt lat="49.13997" lon="1.65224">
        <ele>22</ele>
        <time>2021-09-19T08:47:54Z</time>
      </trkpt>
      <trkpt lat="49.14009" lon="1.65218">
        <ele>22</ele>
        <time>2021-09-19T08:47:58Z</time>
      </trkpt>
      <trkpt lat="49.14024" lon="1.65211">
        <ele>22.2</ele>
        <time>2021-09-19T08:48:03Z</time>
      </trkpt>
      <trkpt lat="49.14035" lon="1.65206">
        <ele>22.4</ele>
        <time>2021-09-19T08:48:07Z</time>
      </trkpt>
      <trkpt lat="49.1404" lon="1.65204">
        <ele>22.4</ele>
        <time>2021-09-19T08:48:09Z</time>
      </trkpt>
      <trkpt lat="49.14045" lon="1.65203">
        <ele>22.4</ele>
        <time>2021-09-19T08:48:11Z</time>
      </trkpt>
      <trkpt lat="49.14054" lon="1.65197">
        <ele>22.4</ele>
        <time>2021-09-19T08:48:14Z</time>
      </trkpt>
      <trkpt lat="49.14059" lon="1.65195">
        <ele>22.4</ele>
        <time>2021-09-19T08:48:16Z</time>
      </trkpt>
      <trkpt lat="49.14078" lon="1.65192">
        <ele>22.6</ele>
        <time>2021-09-19T08:48:23Z</time>
      </trkpt>
      <trkpt lat="49.1409" lon="1.65189">
        <ele>22.6</ele>
        <time>2021-09-19T08:48:30Z</time>
      </trkpt>
      <trkpt lat="49.14103" lon="1.65188">
        <ele>22.8</ele>
        <time>2021-09-19T08:48:34Z</time>
      </trkpt>
      <trkpt lat="49.1412" lon="1.65186">
        <ele>22.8</ele>
        <time>2021-09-19T08:48:38Z</time>
      </trkpt>
      <trkpt lat="49.14156" lon="1.65188">
        <ele>22.2</ele>
        <time>2021-09-19T08:48:46Z</time>
      </trkpt>
      <trkpt lat="49.14183" lon="1.65191">
        <ele>22</ele>
        <time>2021-09-19T08:48:52Z</time>
      </trkpt>
      <trkpt lat="49.14209" lon="1.65195">
        <ele>21.8</ele>
        <time>2021-09-19T08:48:59Z</time>
      </trkpt>
      <trkpt lat="49.14234" lon="1.65202">
        <ele>21.6</ele>
        <time>2021-09-19T08:49:05Z</time>
      </trkpt>
      <trkpt lat="49.14261" lon="1.65208">
        <ele>21.6</ele>
        <time>2021-09-19T08:49:11Z</time>
      </trkpt>
      <trkpt lat="49.14296" lon="1.65216">
        <ele>21.6</ele>
        <time>2021-09-19T08:49:18Z</time>
      </trkpt>
      <trkpt lat="49.1431" lon="1.65217">
        <ele>21.6</ele>
        <time>2021-09-19T08:49:22Z</time>
      </trkpt>
      <trkpt lat="49.14312" lon="1.65215">
        <ele>21.8</ele>
        <time>2021-09-19T08:49:23Z</time>
      </trkpt>
      <trkpt lat="49.14315" lon="1.65215">
        <ele>21.8</ele>
        <time>2021-09-19T08:49:24Z</time>
      </trkpt>
      <trkpt lat="49.14322" lon="1.65218">
        <ele>21.8</ele>
        <time>2021-09-19T08:49:26Z</time>
      </trkpt>
      <trkpt lat="49.14337" lon="1.65223">
        <ele>22</ele>
        <time>2021-09-19T08:49:30Z</time>
      </trkpt>
      <trkpt lat="49.14349" lon="1.65226">
        <ele>22</ele>
        <time>2021-09-19T08:49:33Z</time>
      </trkpt>
      <trkpt lat="49.14353" lon="1.65227">
        <ele>22</ele>
        <time>2021-09-19T08:49:34Z</time>
      </trkpt>
      <trkpt lat="49.14357" lon="1.65228">
        <ele>22</ele>
        <time>2021-09-19T08:49:35Z</time>
      </trkpt>
      <trkpt lat="49.1438" lon="1.65236">
        <ele>22</ele>
        <time>2021-09-19T08:49:40Z</time>
      </trkpt>
      <trkpt lat="49.14384" lon="1.65238">
        <ele>22</ele>
        <time>2021-09-19T08:49:41Z</time>
      </trkpt>
      <trkpt lat="49.14417" lon="1.65247">
        <ele>21.8</ele>
        <time>2021-09-19T08:49:48Z</time>
      </trkpt>
      <trkpt lat="49.14446" lon="1.65257">
        <ele>22</ele>
        <time>2021-09-19T08:49:54Z</time>
      </trkpt>
      <trkpt lat="49.14472" lon="1.65268">
        <ele>22.2</ele>
        <time>2021-09-19T08:50:00Z</time>
      </trkpt>
      <trkpt lat="49.14476" lon="1.65269">
        <ele>22.2</ele>
        <time>2021-09-19T08:50:01Z</time>
      </trkpt>
      <trkpt lat="49.14492" lon="1.65272">
        <ele>22.2</ele>
        <time>2021-09-19T08:50:05Z</time>
      </trkpt>
      <trkpt lat="49.14497" lon="1.65273">
        <ele>22.2</ele>
        <time>2021-09-19T08:50:06Z</time>
      </trkpt>
      <trkpt lat="49.14519" lon="1.65279">
        <ele>22.2</ele>
        <time>2021-09-19T08:50:10Z</time>
      </trkpt>
      <trkpt lat="49.14563" lon="1.65285">
        <ele>22.2</ele>
        <time>2021-09-19T08:50:18Z</time>
      </trkpt>
      <trkpt lat="49.1459" lon="1.6529">
        <ele>22.4</ele>
        <time>2021-09-19T08:50:22Z</time>
      </trkpt>
      <trkpt lat="49.14616" lon="1.65296">
        <ele>22.4</ele>
        <time>2021-09-19T08:50:27Z</time>
      </trkpt>
      <trkpt lat="49.14637" lon="1.65301">
        <ele>22.6</ele>
        <time>2021-09-19T08:50:31Z</time>
      </trkpt>
      <trkpt lat="49.14648" lon="1.65304">
        <ele>22.8</ele>
        <time>2021-09-19T08:50:33Z</time>
      </trkpt>
      <trkpt lat="49.14683" lon="1.65309">
        <ele>22.6</ele>
        <time>2021-09-19T08:50:39Z</time>
      </trkpt>
      <trkpt lat="49.14742" lon="1.65316">
        <ele>22.2</ele>
        <time>2021-09-19T08:50:49Z</time>
      </trkpt>
      <trkpt lat="49.14747" lon="1.65317">
        <ele>22</ele>
        <time>2021-09-19T08:50:50Z</time>
      </trkpt>
      <trkpt lat="49.14785" lon="1.65326">
        <ele>21.6</ele>
        <time>2021-09-19T08:50:57Z</time>
      </trkpt>
      <trkpt lat="49.14826" lon="1.65336">
        <ele>21.6</ele>
        <time>2021-09-19T08:51:05Z</time>
      </trkpt>
      <trkpt lat="49.14863" lon="1.65345">
        <ele>21.6</ele>
        <time>2021-09-19T08:51:12Z</time>
      </trkpt>
      <trkpt lat="49.14885" lon="1.6535">
        <ele>21.2</ele>
        <time>2021-09-19T08:51:16Z</time>
      </trkpt>
      <trkpt lat="49.1491" lon="1.65357">
        <ele>20.8</ele>
        <time>2021-09-19T08:51:21Z</time>
      </trkpt>
      <trkpt lat="49.14925" lon="1.6536">
        <ele>20.8</ele>
        <time>2021-09-19T08:51:24Z</time>
      </trkpt>
      <trkpt lat="49.14938" lon="1.65365">
        <ele>20.8</ele>
        <time>2021-09-19T08:51:27Z</time>
      </trkpt>
      <trkpt lat="49.14959" lon="1.65371">
        <ele>21</ele>
        <time>2021-09-19T08:51:31Z</time>
      </trkpt>
      <trkpt lat="49.14973" lon="1.65375">
        <ele>21.2</ele>
        <time>2021-09-19T08:51:34Z</time>
      </trkpt>
      <trkpt lat="49.15003" lon="1.65383">
        <ele>21.2</ele>
        <time>2021-09-19T08:51:40Z</time>
      </trkpt>
      <trkpt lat="49.15029" lon="1.65391">
        <ele>21.2</ele>
        <time>2021-09-19T08:51:45Z</time>
      </trkpt>
      <trkpt lat="49.15081" lon="1.65408">
        <ele>21.4</ele>
        <time>2021-09-19T08:51:54Z</time>
      </trkpt>
      <trkpt lat="49.15115" lon="1.65418">
        <ele>21.2</ele>
        <time>2021-09-19T08:52:01Z</time>
      </trkpt>
      <trkpt lat="49.15164" lon="1.65432">
        <ele>21</ele>
        <time>2021-09-19T08:52:10Z</time>
      </trkpt>
      <trkpt lat="49.15212" lon="1.65447">
        <ele>21</ele>
        <time>2021-09-19T08:52:19Z</time>
      </trkpt>
      <trkpt lat="49.15251" lon="1.6546">
        <ele>21</ele>
        <time>2021-09-19T08:52:26Z</time>
      </trkpt>
      <trkpt lat="49.15301" lon="1.6548">
        <ele>21</ele>
        <time>2021-09-19T08:52:35Z</time>
      </trkpt>
      <trkpt lat="49.15344" lon="1.65505">
        <ele>21.2</ele>
        <time>2021-09-19T08:52:43Z</time>
      </trkpt>
      <trkpt lat="49.15389" lon="1.65534">
        <ele>21.4</ele>
        <time>2021-09-19T08:52:52Z</time>
      </trkpt>
      <trkpt lat="49.15424" lon="1.65562">
        <ele>21.2</ele>
        <time>2021-09-19T08:52:59Z</time>
      </trkpt>
      <trkpt lat="49.15463" lon="1.65601">
        <ele>21</ele>
        <time>2021-09-19T08:53:07Z</time>
      </trkpt>
      <trkpt lat="49.15499" lon="1.65646">
        <ele>20.4</ele>
        <time>2021-09-19T08:53:15Z</time>
      </trkpt>
      <trkpt lat="49.15503" lon="1.65652">
        <ele>20.2</ele>
        <time>2021-09-19T08:53:16Z</time>
      </trkpt>
      <trkpt lat="49.15534" lon="1.65705">
        <ele>20</ele>
        <time>2021-09-19T08:53:24Z</time>
      </trkpt>
      <trkpt lat="49.15568" lon="1.65781">
        <ele>20.2</ele>
        <time>2021-09-19T08:53:34Z</time>
      </trkpt>
      <trkpt lat="49.156" lon="1.65857">
        <ele>20.2</ele>
        <time>2021-09-19T08:53:44Z</time>
      </trkpt>
      <trkpt lat="49.15603" lon="1.65864">
        <ele>20.2</ele>
        <time>2021-09-19T08:53:45Z</time>
      </trkpt>
      <trkpt lat="49.15629" lon="1.65925">
        <ele>20</ele>
        <time>2021-09-19T08:53:53Z</time>
      </trkpt>
      <trkpt lat="49.15659" lon="1.65986">
        <ele>20</ele>
        <time>2021-09-19T08:54:01Z</time>
      </trkpt>
      <trkpt lat="49.15667" lon="1.66001">
        <ele>20</ele>
        <time>2021-09-19T08:54:03Z</time>
      </trkpt>
      <trkpt lat="49.15685" lon="1.66029">
        <ele>20</ele>
        <time>2021-09-19T08:54:07Z</time>
      </trkpt>
      <trkpt lat="49.15712" lon="1.66074">
        <ele>20.8</ele>
        <time>2021-09-19T08:54:14Z</time>
      </trkpt>
      <trkpt lat="49.15719" lon="1.66087">
        <ele>21.2</ele>
        <time>2021-09-19T08:54:16Z</time>
      </trkpt>
      <trkpt lat="49.15727" lon="1.661">
        <ele>21.8</ele>
        <time>2021-09-19T08:54:18Z</time>
      </trkpt>
      <trkpt lat="49.15736" lon="1.66113">
        <ele>22.2</ele>
        <time>2021-09-19T08:54:20Z</time>
      </trkpt>
      <trkpt lat="49.1575" lon="1.66133">
        <ele>22.2</ele>
        <time>2021-09-19T08:54:23Z</time>
      </trkpt>
      <trkpt lat="49.15774" lon="1.66165">
        <ele>22.2</ele>
        <time>2021-09-19T08:54:28Z</time>
      </trkpt>
      <trkpt lat="49.15794" lon="1.66195">
        <ele>21.8</ele>
        <time>2021-09-19T08:54:33Z</time>
      </trkpt>
      <trkpt lat="49.15804" lon="1.66206">
        <ele>21.6</ele>
        <time>2021-09-19T08:54:35Z</time>
      </trkpt>
      <trkpt lat="49.15839" lon="1.66244">
        <ele>21.4</ele>
        <time>2021-09-19T08:54:41Z</time>
      </trkpt>
      <trkpt lat="49.15863" lon="1.66269">
        <ele>21.2</ele>
        <time>2021-09-19T08:54:45Z</time>
      </trkpt>
      <trkpt lat="49.15882" lon="1.66286">
        <ele>21.2</ele>
        <time>2021-09-19T08:54:48Z</time>
      </trkpt>
      <trkpt lat="49.15925" lon="1.66326">
        <ele>21.4</ele>
        <time>2021-09-19T08:54:55Z</time>
      </trkpt>
      <trkpt lat="49.15957" lon="1.66353">
        <ele>21.4</ele>
        <time>2021-09-19T08:55:00Z</time>
      </trkpt>
      <trkpt lat="49.15998" lon="1.66381">
        <ele>21.6</ele>
        <time>2021-09-19T08:55:06Z</time>
      </trkpt>
      <trkpt lat="49.16051" lon="1.66412">
        <ele>21.6</ele>
        <time>2021-09-19T08:55:14Z</time>
      </trkpt>
      <trkpt lat="49.1609" lon="1.66435">
        <ele>21.8</ele>
        <time>2021-09-19T08:55:20Z</time>
      </trkpt>
      <trkpt lat="49.16122" lon="1.6645">
        <ele>21.8</ele>
        <time>2021-09-19T08:55:25Z</time>
      </trkpt>
      <trkpt lat="49.16161" lon="1.66467">
        <ele>21.6</ele>
        <time>2021-09-19T08:55:31Z</time>
      </trkpt>
      <trkpt lat="49.162" lon="1.66479">
        <ele>21.6</ele>
        <time>2021-09-19T08:55:37Z</time>
      </trkpt>
      <trkpt lat="49.16233" lon="1.66486">
        <ele>21.4</ele>
        <time>2021-09-19T08:55:42Z</time>
      </trkpt>
      <trkpt lat="49.16261" lon="1.66495">
        <ele>21.2</ele>
        <time>2021-09-19T08:55:46Z</time>
      </trkpt>
      <trkpt lat="49.16297" lon="1.66504">
        <ele>21.2</ele>
        <time>2021-09-19T08:55:51Z</time>
      </trkpt>
      <trkpt lat="49.16353" lon="1.66508">
        <ele>21.4</ele>
        <time>2021-09-19T08:55:58Z</time>
      </trkpt>
      <trkpt lat="49.16392" lon="1.66507">
        <ele>21.6</ele>
        <time>2021-09-19T08:56:04Z</time>
      </trkpt>
      <trkpt lat="49.16402" lon="1.66507">
        <ele>21.6</ele>
        <time>2021-09-19T08:56:06Z</time>
      </trkpt>
      <trkpt lat="49.16409" lon="1.66505">
        <ele>22</ele>
        <time>2021-09-19T08:56:08Z</time>
      </trkpt>
      <trkpt lat="49.16411" lon="1.66505">
        <ele>22.4</ele>
        <time>2021-09-19T08:56:11Z</time>
      </trkpt>
      <trkpt lat="49.16413" lon="1.66504">
        <ele>22.4</ele>
        <time>2021-09-19T08:56:15Z</time>
      </trkpt>
      <trkpt lat="49.16414" lon="1.66503">
        <ele>22.4</ele>
        <time>2021-09-19T08:56:16Z</time>
      </trkpt>
      <trkpt lat="49.16415" lon="1.66493">
        <ele>22.8</ele>
        <time>2021-09-19T08:56:19Z</time>
      </trkpt>
      <trkpt lat="49.16415" lon="1.66488">
        <ele>22.8</ele>
        <time>2021-09-19T08:56:20Z</time>
      </trkpt>
      <trkpt lat="49.16416" lon="1.66463">
        <ele>23</ele>
        <time>2021-09-19T08:56:25Z</time>
      </trkpt>
      <trkpt lat="49.16417" lon="1.66435">
        <ele>23</ele>
        <time>2021-09-19T08:56:32Z</time>
      </trkpt>
      <trkpt lat="49.16416" lon="1.66411">
        <ele>23</ele>
        <time>2021-09-19T08:56:37Z</time>
      </trkpt>
      <trkpt lat="49.1642" lon="1.6638">
        <ele>23.2</ele>
        <time>2021-09-19T08:56:42Z</time>
      </trkpt>
      <trkpt lat="49.16423" lon="1.66352">
        <ele>23.2</ele>
        <time>2021-09-19T08:56:46Z</time>
      </trkpt>
      <trkpt lat="49.16426" lon="1.66339">
        <ele>23.2</ele>
        <time>2021-09-19T08:56:48Z</time>
      </trkpt>
      <trkpt lat="49.16434" lon="1.663">
        <ele>23.2</ele>
        <time>2021-09-19T08:56:54Z</time>
      </trkpt>
      <trkpt lat="49.16438" lon="1.66288">
        <ele>23.4</ele>
        <time>2021-09-19T08:56:56Z</time>
      </trkpt>
      <trkpt lat="49.16443" lon="1.66281">
        <ele>23.4</ele>
        <time>2021-09-19T08:56:58Z</time>
      </trkpt>
      <trkpt lat="49.16446" lon="1.66279">
        <ele>23.4</ele>
        <time>2021-09-19T08:56:59Z</time>
      </trkpt>
      <trkpt lat="49.16457" lon="1.66275">
        <ele>23.6</ele>
        <time>2021-09-19T08:57:03Z</time>
      </trkpt>
      <trkpt lat="49.1646" lon="1.66275">
        <ele>23.8</ele>
        <time>2021-09-19T08:57:04Z</time>
      </trkpt>
      <trkpt lat="49.1647" lon="1.66273">
        <ele>24.4</ele>
        <time>2021-09-19T08:57:07Z</time>
      </trkpt>
      <trkpt lat="49.16483" lon="1.66278">
        <ele>25.2</ele>
        <time>2021-09-19T08:57:11Z</time>
      </trkpt>
      <trkpt lat="49.16489" lon="1.66282">
        <ele>25.6</ele>
        <time>2021-09-19T08:57:13Z</time>
      </trkpt>
      <trkpt lat="49.16504" lon="1.66296">
        <ele>26.6</ele>
        <time>2021-09-19T08:57:19Z</time>
      </trkpt>
      <trkpt lat="49.16516" lon="1.66295">
        <ele>27.8</ele>
        <time>2021-09-19T08:57:24Z</time>
      </trkpt>
      <trkpt lat="49.16525" lon="1.66295">
        <ele>28.6</ele>
        <time>2021-09-19T08:57:30Z</time>
      </trkpt>
      <trkpt lat="49.16527" lon="1.66295">
        <ele>28.8</ele>
        <time>2021-09-19T08:57:31Z</time>
      </trkpt>
      <trkpt lat="49.16531" lon="1.66296">
        <ele>29.6</ele>
        <time>2021-09-19T08:57:35Z</time>
      </trkpt>
      <trkpt lat="49.16532" lon="1.66296">
        <ele>29.8</ele>
        <time>2021-09-19T08:57:36Z</time>
      </trkpt>
      <trkpt lat="49.16535" lon="1.66298">
        <ele>30.6</ele>
        <time>2021-09-19T08:57:39Z</time>
      </trkpt>
      <trkpt lat="49.16536" lon="1.66298">
        <ele>30.8</ele>
        <time>2021-09-19T08:57:40Z</time>
      </trkpt>
      <trkpt lat="49.16537" lon="1.66298">
        <ele>31</ele>
        <time>2021-09-19T08:57:41Z</time>
      </trkpt>
      <trkpt lat="49.16543" lon="1.66298">
        <ele>32</ele>
        <time>2021-09-19T08:57:45Z</time>
      </trkpt>
      <trkpt lat="49.16546" lon="1.66299">
        <ele>32.4</ele>
        <time>2021-09-19T08:57:47Z</time>
      </trkpt>
      <trkpt lat="49.16548" lon="1.663">
        <ele>32.6</ele>
        <time>2021-09-19T08:57:48Z</time>
      </trkpt>
      <trkpt lat="49.16551" lon="1.663">
        <ele>33</ele>
        <time>2021-09-19T08:57:50Z</time>
      </trkpt>
      <trkpt lat="49.16555" lon="1.66303">
        <ele>34</ele>
        <time>2021-09-19T08:57:54Z</time>
      </trkpt>
      <trkpt lat="49.16563" lon="1.66306">
        <ele>35.2</ele>
        <time>2021-09-19T08:58:00Z</time>
      </trkpt>
      <trkpt lat="49.16569" lon="1.66306">
        <ele>36.2</ele>
        <time>2021-09-19T08:58:05Z</time>
      </trkpt>
      <trkpt lat="49.16572" lon="1.66307">
        <ele>36.6</ele>
        <time>2021-09-19T08:58:07Z</time>
      </trkpt>
      <trkpt lat="49.16577" lon="1.66309">
        <ele>37.2</ele>
        <time>2021-09-19T08:58:10Z</time>
      </trkpt>
      <trkpt lat="49.16583" lon="1.6631">
        <ele>38</ele>
        <time>2021-09-19T08:58:14Z</time>
      </trkpt>
      <trkpt lat="49.16584" lon="1.66311">
        <ele>38.2</ele>
        <time>2021-09-19T08:58:15Z</time>
      </trkpt>
      <trkpt lat="49.16592" lon="1.66314">
        <ele>39.2</ele>
        <time>2021-09-19T08:58:20Z</time>
      </trkpt>
      <trkpt lat="49.16595" lon="1.66315">
        <ele>39.8</ele>
        <time>2021-09-19T08:58:23Z</time>
      </trkpt>
      <trkpt lat="49.166" lon="1.66315">
        <ele>40.4</ele>
        <time>2021-09-19T08:58:26Z</time>
      </trkpt>
      <trkpt lat="49.16605" lon="1.66313">
        <ele>41.4</ele>
        <time>2021-09-19T08:58:30Z</time>
      </trkpt>
      <trkpt lat="49.16604" lon="1.66306">
        <ele>42.6</ele>
        <time>2021-09-19T08:58:36Z</time>
      </trkpt>
      <trkpt lat="49.16603" lon="1.66299">
        <ele>43.4</ele>
        <time>2021-09-19T08:58:40Z</time>
      </trkpt>
      <trkpt lat="49.16601" lon="1.66293">
        <ele>43.8</ele>
        <time>2021-09-19T08:58:43Z</time>
      </trkpt>
      <trkpt lat="49.166" lon="1.66291">
        <ele>44</ele>
        <time>2021-09-19T08:58:44Z</time>
      </trkpt>
      <trkpt lat="49.16597" lon="1.66281">
        <ele>44.8</ele>
        <time>2021-09-19T08:58:50Z</time>
      </trkpt>
      <trkpt lat="49.16596" lon="1.66279">
        <ele>45</ele>
        <time>2021-09-19T08:58:51Z</time>
      </trkpt>
      <trkpt lat="49.16591" lon="1.66265">
        <ele>46</ele>
        <time>2021-09-19T08:58:57Z</time>
      </trkpt>
      <trkpt lat="49.16591" lon="1.66263">
        <ele>46.2</ele>
        <time>2021-09-19T08:58:58Z</time>
      </trkpt>
      <trkpt lat="49.16588" lon="1.66252">
        <ele>47</ele>
        <time>2021-09-19T08:59:03Z</time>
      </trkpt>
      <trkpt lat="49.16588" lon="1.6625">
        <ele>47.2</ele>
        <time>2021-09-19T08:59:04Z</time>
      </trkpt>
      <trkpt lat="49.16585" lon="1.66236">
        <ele>48.2</ele>
        <time>2021-09-19T08:59:10Z</time>
      </trkpt>
      <trkpt lat="49.16585" lon="1.66234">
        <ele>48.4</ele>
        <time>2021-09-19T08:59:11Z</time>
      </trkpt>
      <trkpt lat="49.16586" lon="1.66222">
        <ele>49.2</ele>
        <time>2021-09-19T08:59:16Z</time>
      </trkpt>
      <trkpt lat="49.16586" lon="1.6622">
        <ele>49.4</ele>
        <time>2021-09-19T08:59:17Z</time>
      </trkpt>
      <trkpt lat="49.16588" lon="1.66212">
        <ele>50</ele>
        <time>2021-09-19T08:59:21Z</time>
      </trkpt>
      <trkpt lat="49.16589" lon="1.66209">
        <ele>50.2</ele>
        <time>2021-09-19T08:59:22Z</time>
      </trkpt>
      <trkpt lat="49.16589" lon="1.66207">
        <ele>50.4</ele>
        <time>2021-09-19T08:59:23Z</time>
      </trkpt>
      <trkpt lat="49.16593" lon="1.66197">
        <ele>51.6</ele>
        <time>2021-09-19T08:59:28Z</time>
      </trkpt>
      <trkpt lat="49.16595" lon="1.66191">
        <ele>52.2</ele>
        <time>2021-09-19T08:59:31Z</time>
      </trkpt>
      <trkpt lat="49.16596" lon="1.66187">
        <ele>52.8</ele>
        <time>2021-09-19T08:59:33Z</time>
      </trkpt>
      <trkpt lat="49.16599" lon="1.66178">
        <ele>53.8</ele>
        <time>2021-09-19T08:59:38Z</time>
      </trkpt>
      <trkpt lat="49.166" lon="1.66177">
        <ele>54</ele>
        <time>2021-09-19T08:59:39Z</time>
      </trkpt>
      <trkpt lat="49.16604" lon="1.66168">
        <ele>55.2</ele>
        <time>2021-09-19T08:59:44Z</time>
      </trkpt>
      <trkpt lat="49.16607" lon="1.66161">
        <ele>56.2</ele>
        <time>2021-09-19T08:59:48Z</time>
      </trkpt>
      <trkpt lat="49.16609" lon="1.66157">
        <ele>56.6</ele>
        <time>2021-09-19T08:59:50Z</time>
      </trkpt>
      <trkpt lat="49.16613" lon="1.66152">
        <ele>57.4</ele>
        <time>2021-09-19T08:59:54Z</time>
      </trkpt>
      <trkpt lat="49.16617" lon="1.66148">
        <ele>57.8</ele>
        <time>2021-09-19T08:59:57Z</time>
      </trkpt>
      <trkpt lat="49.16621" lon="1.66144">
        <ele>58.4</ele>
        <time>2021-09-19T09:00:00Z</time>
      </trkpt>
      <trkpt lat="49.16629" lon="1.66138">
        <ele>59.2</ele>
        <time>2021-09-19T09:00:05Z</time>
      </trkpt>
      <trkpt lat="49.1663" lon="1.66137">
        <ele>59.4</ele>
        <time>2021-09-19T09:00:06Z</time>
      </trkpt>
      <trkpt lat="49.16641" lon="1.66132">
        <ele>60.6</ele>
        <time>2021-09-19T09:00:12Z</time>
      </trkpt>
      <trkpt lat="49.16644" lon="1.6613">
        <ele>61</ele>
        <time>2021-09-19T09:00:14Z</time>
      </trkpt>
      <trkpt lat="49.16651" lon="1.66127">
        <ele>61.6</ele>
        <time>2021-09-19T09:00:18Z</time>
      </trkpt>
      <trkpt lat="49.16658" lon="1.66125">
        <ele>62.4</ele>
        <time>2021-09-19T09:00:22Z</time>
      </trkpt>
      <trkpt lat="49.16663" lon="1.66123">
        <ele>62.6</ele>
        <time>2021-09-19T09:00:25Z</time>
      </trkpt>
      <trkpt lat="49.16675" lon="1.6612">
        <ele>63.6</ele>
        <time>2021-09-19T09:00:31Z</time>
      </trkpt>
      <trkpt lat="49.16679" lon="1.66119">
        <ele>63.8</ele>
        <time>2021-09-19T09:00:33Z</time>
      </trkpt>
      <trkpt lat="49.16697" lon="1.66117">
        <ele>64.8</ele>
        <time>2021-09-19T09:00:41Z</time>
      </trkpt>
      <trkpt lat="49.16699" lon="1.66117">
        <ele>65</ele>
        <time>2021-09-19T09:00:42Z</time>
      </trkpt>
      <trkpt lat="49.16716" lon="1.66116">
        <ele>66</ele>
        <time>2021-09-19T09:00:50Z</time>
      </trkpt>
      <trkpt lat="49.16718" lon="1.66116">
        <ele>66</ele>
        <time>2021-09-19T09:00:51Z</time>
      </trkpt>
      <trkpt lat="49.16734" lon="1.66115">
        <ele>67.2</ele>
        <time>2021-09-19T09:00:58Z</time>
      </trkpt>
      <trkpt lat="49.16739" lon="1.66114">
        <ele>67.4</ele>
        <time>2021-09-19T09:01:00Z</time>
      </trkpt>
      <trkpt lat="49.16759" lon="1.66114">
        <ele>68.2</ele>
        <time>2021-09-19T09:01:08Z</time>
      </trkpt>
      <trkpt lat="49.16775" lon="1.66117">
        <ele>68.8</ele>
        <time>2021-09-19T09:01:15Z</time>
      </trkpt>
      <trkpt lat="49.16782" lon="1.66117">
        <ele>69.4</ele>
        <time>2021-09-19T09:01:18Z</time>
      </trkpt>
      <trkpt lat="49.1679" lon="1.66116">
        <ele>69.8</ele>
        <time>2021-09-19T09:01:22Z</time>
      </trkpt>
      <trkpt lat="49.16795" lon="1.66115">
        <ele>70.4</ele>
        <time>2021-09-19T09:01:25Z</time>
      </trkpt>
      <trkpt lat="49.16802" lon="1.66115">
        <ele>71.2</ele>
        <time>2021-09-19T09:01:29Z</time>
      </trkpt>
      <trkpt lat="49.16804" lon="1.66115">
        <ele>71.6</ele>
        <time>2021-09-19T09:01:30Z</time>
      </trkpt>
      <trkpt lat="49.16812" lon="1.66117">
        <ele>72.6</ele>
        <time>2021-09-19T09:01:35Z</time>
      </trkpt>
      <trkpt lat="49.16814" lon="1.66117">
        <ele>72.6</ele>
        <time>2021-09-19T09:01:36Z</time>
      </trkpt>
      <trkpt lat="49.1682" lon="1.66117">
        <ele>73.6</ele>
        <time>2021-09-19T09:01:40Z</time>
      </trkpt>
      <trkpt lat="49.16826" lon="1.66117">
        <ele>74</ele>
        <time>2021-09-19T09:01:43Z</time>
      </trkpt>
      <trkpt lat="49.16829" lon="1.66118">
        <ele>74.6</ele>
        <time>2021-09-19T09:01:45Z</time>
      </trkpt>
      <trkpt lat="49.16834" lon="1.66116">
        <ele>75.4</ele>
        <time>2021-09-19T09:01:48Z</time>
      </trkpt>
      <trkpt lat="49.16836" lon="1.66116">
        <ele>75.6</ele>
        <time>2021-09-19T09:01:49Z</time>
      </trkpt>
      <trkpt lat="49.16844" lon="1.66118">
        <ele>76.6</ele>
        <time>2021-09-19T09:01:54Z</time>
      </trkpt>
      <trkpt lat="49.16846" lon="1.66118">
        <ele>76.8</ele>
        <time>2021-09-19T09:01:55Z</time>
      </trkpt>
      <trkpt lat="49.16857" lon="1.6612">
        <ele>77.8</ele>
        <time>2021-09-19T09:02:01Z</time>
      </trkpt>
      <trkpt lat="49.16859" lon="1.6612">
        <ele>78</ele>
        <time>2021-09-19T09:02:02Z</time>
      </trkpt>
      <trkpt lat="49.16868" lon="1.66121">
        <ele>79.4</ele>
        <time>2021-09-19T09:02:07Z</time>
      </trkpt>
      <trkpt lat="49.16873" lon="1.66121">
        <ele>80</ele>
        <time>2021-09-19T09:02:10Z</time>
      </trkpt>
      <trkpt lat="49.16877" lon="1.6612">
        <ele>80.4</ele>
        <time>2021-09-19T09:02:12Z</time>
      </trkpt>
      <trkpt lat="49.16883" lon="1.66118">
        <ele>81.4</ele>
        <time>2021-09-19T09:02:17Z</time>
      </trkpt>
      <trkpt lat="49.16884" lon="1.66117">
        <ele>81.4</ele>
        <time>2021-09-19T09:02:18Z</time>
      </trkpt>
      <trkpt lat="49.16891" lon="1.66113">
        <ele>82.6</ele>
        <time>2021-09-19T09:02:24Z</time>
      </trkpt>
      <trkpt lat="49.16897" lon="1.6611">
        <ele>83.6</ele>
        <time>2021-09-19T09:02:29Z</time>
      </trkpt>
      <trkpt lat="49.16901" lon="1.66108">
        <ele>84.8</ele>
        <time>2021-09-19T09:02:33Z</time>
      </trkpt>
      <trkpt lat="49.16904" lon="1.66106">
        <ele>85.6</ele>
        <time>2021-09-19T09:02:35Z</time>
      </trkpt>
      <trkpt lat="49.16905" lon="1.66104">
        <ele>85.8</ele>
        <time>2021-09-19T09:02:36Z</time>
      </trkpt>
      <trkpt lat="49.1691" lon="1.661">
        <ele>87</ele>
        <time>2021-09-19T09:02:40Z</time>
      </trkpt>
      <trkpt lat="49.16913" lon="1.66095">
        <ele>87.6</ele>
        <time>2021-09-19T09:02:43Z</time>
      </trkpt>
      <trkpt lat="49.16914" lon="1.66092">
        <ele>88</ele>
        <time>2021-09-19T09:02:45Z</time>
      </trkpt>
      <trkpt lat="49.16917" lon="1.66087">
        <ele>88.6</ele>
        <time>2021-09-19T09:02:48Z</time>
      </trkpt>
      <trkpt lat="49.16919" lon="1.66084">
        <ele>89.2</ele>
        <time>2021-09-19T09:02:50Z</time>
      </trkpt>
      <trkpt lat="49.16927" lon="1.66075">
        <ele>90.2</ele>
        <time>2021-09-19T09:02:56Z</time>
      </trkpt>
      <trkpt lat="49.16933" lon="1.66065">
        <ele>91.4</ele>
        <time>2021-09-19T09:03:03Z</time>
      </trkpt>
      <trkpt lat="49.16936" lon="1.66058">
        <ele>92</ele>
        <time>2021-09-19T09:03:07Z</time>
      </trkpt>
      <trkpt lat="49.16938" lon="1.66054">
        <ele>92.4</ele>
        <time>2021-09-19T09:03:10Z</time>
      </trkpt>
      <trkpt lat="49.16942" lon="1.66046">
        <ele>93.6</ele>
        <time>2021-09-19T09:03:16Z</time>
      </trkpt>
      <trkpt lat="49.16944" lon="1.6604">
        <ele>94.2</ele>
        <time>2021-09-19T09:03:19Z</time>
      </trkpt>
      <trkpt lat="49.16946" lon="1.66036">
        <ele>94.6</ele>
        <time>2021-09-19T09:03:22Z</time>
      </trkpt>
      <trkpt lat="49.1695" lon="1.66031">
        <ele>95.4</ele>
        <time>2021-09-19T09:03:26Z</time>
      </trkpt>
      <trkpt lat="49.16953" lon="1.66027">
        <ele>95.8</ele>
        <time>2021-09-19T09:03:28Z</time>
      </trkpt>
      <trkpt lat="49.16958" lon="1.66021">
        <ele>96.8</ele>
        <time>2021-09-19T09:03:32Z</time>
      </trkpt>
      <trkpt lat="49.16959" lon="1.6602">
        <ele>97.2</ele>
        <time>2021-09-19T09:03:33Z</time>
      </trkpt>
      <trkpt lat="49.16963" lon="1.66015">
        <ele>98</ele>
        <time>2021-09-19T09:03:36Z</time>
      </trkpt>
      <trkpt lat="49.16967" lon="1.66008">
        <ele>99.2</ele>
        <time>2021-09-19T09:03:40Z</time>
      </trkpt>
      <trkpt lat="49.16969" lon="1.66006">
        <ele>99.4</ele>
        <time>2021-09-19T09:03:41Z</time>
      </trkpt>
      <trkpt lat="49.16973" lon="1.65999">
        <ele>100.2</ele>
        <time>2021-09-19T09:03:45Z</time>
      </trkpt>
      <trkpt lat="49.16979" lon="1.65991">
        <ele>101.4</ele>
        <time>2021-09-19T09:03:50Z</time>
      </trkpt>
      <trkpt lat="49.16982" lon="1.65988">
        <ele>101.6</ele>
        <time>2021-09-19T09:03:52Z</time>
      </trkpt>
      <trkpt lat="49.16989" lon="1.6598">
        <ele>102.6</ele>
        <time>2021-09-19T09:03:57Z</time>
      </trkpt>
      <trkpt lat="49.16994" lon="1.65973">
        <ele>103.6</ele>
        <time>2021-09-19T09:04:01Z</time>
      </trkpt>
      <trkpt lat="49.17005" lon="1.65963">
        <ele>104.6</ele>
        <time>2021-09-19T09:04:07Z</time>
      </trkpt>
      <trkpt lat="49.17007" lon="1.65961">
        <ele>104.8</ele>
        <time>2021-09-19T09:04:08Z</time>
      </trkpt>
      <trkpt lat="49.1702" lon="1.65949">
        <ele>105.8</ele>
        <time>2021-09-19T09:04:15Z</time>
      </trkpt>
      <trkpt lat="49.17022" lon="1.65948">
        <ele>106</ele>
        <time>2021-09-19T09:04:16Z</time>
      </trkpt>
      <trkpt lat="49.17036" lon="1.65937">
        <ele>106.8</ele>
        <time>2021-09-19T09:04:22Z</time>
      </trkpt>
      <trkpt lat="49.17038" lon="1.65936">
        <ele>107</ele>
        <time>2021-09-19T09:04:23Z</time>
      </trkpt>
      <trkpt lat="49.17055" lon="1.65923">
        <ele>107.8</ele>
        <time>2021-09-19T09:04:29Z</time>
      </trkpt>
      <trkpt lat="49.17061" lon="1.65919">
        <ele>108</ele>
        <time>2021-09-19T09:04:31Z</time>
      </trkpt>
      <trkpt lat="49.1708" lon="1.65906">
        <ele>108.4</ele>
        <time>2021-09-19T09:04:37Z</time>
      </trkpt>
      <trkpt lat="49.17098" lon="1.65894">
        <ele>109</ele>
        <time>2021-09-19T09:04:43Z</time>
      </trkpt>
      <trkpt lat="49.17102" lon="1.65892">
        <ele>109.2</ele>
        <time>2021-09-19T09:04:44Z</time>
      </trkpt>
      <trkpt lat="49.1713" lon="1.65876">
        <ele>110</ele>
        <time>2021-09-19T09:04:52Z</time>
      </trkpt>
      <trkpt lat="49.17133" lon="1.65874">
        <ele>110</ele>
        <time>2021-09-19T09:04:53Z</time>
      </trkpt>
      <trkpt lat="49.17153" lon="1.65862">
        <ele>110.6</ele>
        <time>2021-09-19T09:05:00Z</time>
      </trkpt>
      <trkpt lat="49.17161" lon="1.65857">
        <ele>111.2</ele>
        <time>2021-09-19T09:05:03Z</time>
      </trkpt>
      <trkpt lat="49.17175" lon="1.65845">
        <ele>112</ele>
        <time>2021-09-19T09:05:08Z</time>
      </trkpt>
      <trkpt lat="49.17181" lon="1.6584">
        <ele>112.2</ele>
        <time>2021-09-19T09:05:10Z</time>
      </trkpt>
      <trkpt lat="49.17195" lon="1.65824">
        <ele>112.6</ele>
        <time>2021-09-19T09:05:15Z</time>
      </trkpt>
      <trkpt lat="49.17216" lon="1.658">
        <ele>113.2</ele>
        <time>2021-09-19T09:05:22Z</time>
      </trkpt>
      <trkpt lat="49.17219" lon="1.65796">
        <ele>113.2</ele>
        <time>2021-09-19T09:05:23Z</time>
      </trkpt>
      <trkpt lat="49.17239" lon="1.65773">
        <ele>113.4</ele>
        <time>2021-09-19T09:05:30Z</time>
      </trkpt>
      <trkpt lat="49.17263" lon="1.65743">
        <ele>113.4</ele>
        <time>2021-09-19T09:05:38Z</time>
      </trkpt>
      <trkpt lat="49.17279" lon="1.65718">
        <ele>113.6</ele>
        <time>2021-09-19T09:05:44Z</time>
      </trkpt>
      <trkpt lat="49.17289" lon="1.65707">
        <ele>114</ele>
        <time>2021-09-19T09:05:47Z</time>
      </trkpt>
      <trkpt lat="49.17299" lon="1.65698">
        <ele>114</ele>
        <time>2021-09-19T09:05:50Z</time>
      </trkpt>
      <trkpt lat="49.17302" lon="1.65694">
        <ele>114</ele>
        <time>2021-09-19T09:05:51Z</time>
      </trkpt>
      <trkpt lat="49.17315" lon="1.65675">
        <ele>114.2</ele>
        <time>2021-09-19T09:05:55Z</time>
      </trkpt>
      <trkpt lat="49.17325" lon="1.65662">
        <ele>114.2</ele>
        <time>2021-09-19T09:05:58Z</time>
      </trkpt>
      <trkpt lat="49.17341" lon="1.65642">
        <ele>114.6</ele>
        <time>2021-09-19T09:06:03Z</time>
      </trkpt>
      <trkpt lat="49.17367" lon="1.65608">
        <ele>114.8</ele>
        <time>2021-09-19T09:06:11Z</time>
      </trkpt>
      <trkpt lat="49.17392" lon="1.65568">
        <ele>114.8</ele>
        <time>2021-09-19T09:06:19Z</time>
      </trkpt>
      <trkpt lat="49.17405" lon="1.65545">
        <ele>114.2</ele>
        <time>2021-09-19T09:06:24Z</time>
      </trkpt>
      <trkpt lat="49.17408" lon="1.6554">
        <ele>114.2</ele>
        <time>2021-09-19T09:06:25Z</time>
      </trkpt>
      <trkpt lat="49.17429" lon="1.65502">
        <ele>114.2</ele>
        <time>2021-09-19T09:06:32Z</time>
      </trkpt>
      <trkpt lat="49.17453" lon="1.65456">
        <ele>114.2</ele>
        <time>2021-09-19T09:06:40Z</time>
      </trkpt>
      <trkpt lat="49.17481" lon="1.65404">
        <ele>113.8</ele>
        <time>2021-09-19T09:06:48Z</time>
      </trkpt>
      <trkpt lat="49.17504" lon="1.65361">
        <ele>113.8</ele>
        <time>2021-09-19T09:06:55Z</time>
      </trkpt>
      <trkpt lat="49.17527" lon="1.65316">
        <ele>114.6</ele>
        <time>2021-09-19T09:07:03Z</time>
      </trkpt>
      <trkpt lat="49.17528" lon="1.6531">
        <ele>114.4</ele>
        <time>2021-09-19T09:07:04Z</time>
      </trkpt>
      <trkpt lat="49.17526" lon="1.65286">
        <ele>114.6</ele>
        <time>2021-09-19T09:07:08Z</time>
      </trkpt>
      <trkpt lat="49.17528" lon="1.65262">
        <ele>114.6</ele>
        <time>2021-09-19T09:07:12Z</time>
      </trkpt>
      <trkpt lat="49.1753" lon="1.65256">
        <ele>114.6</ele>
        <time>2021-09-19T09:07:13Z</time>
      </trkpt>
      <trkpt lat="49.17541" lon="1.65227">
        <ele>114.6</ele>
        <time>2021-09-19T09:07:18Z</time>
      </trkpt>
      <trkpt lat="49.17551" lon="1.65206">
        <ele>114.4</ele>
        <time>2021-09-19T09:07:22Z</time>
      </trkpt>
      <trkpt lat="49.17553" lon="1.65199">
        <ele>114.4</ele>
        <time>2021-09-19T09:07:23Z</time>
      </trkpt>
      <trkpt lat="49.17566" lon="1.65164">
        <ele>114.2</ele>
        <time>2021-09-19T09:07:28Z</time>
      </trkpt>
      <trkpt lat="49.17578" lon="1.65129">
        <ele>114.2</ele>
        <time>2021-09-19T09:07:34Z</time>
      </trkpt>
      <trkpt lat="49.17582" lon="1.65119">
        <ele>114.2</ele>
        <time>2021-09-19T09:07:36Z</time>
      </trkpt>
      <trkpt lat="49.1758" lon="1.6511">
        <ele>114.4</ele>
        <time>2021-09-19T09:07:38Z</time>
      </trkpt>
      <trkpt lat="49.17569" lon="1.65096">
        <ele>115.2</ele>
        <time>2021-09-19T09:07:42Z</time>
      </trkpt>
      <trkpt lat="49.17555" lon="1.65071">
        <ele>115.2</ele>
        <time>2021-09-19T09:07:47Z</time>
      </trkpt>
      <trkpt lat="49.17547" lon="1.65054">
        <ele>115.2</ele>
        <time>2021-09-19T09:07:50Z</time>
      </trkpt>
      <trkpt lat="49.17544" lon="1.6505">
        <ele>114.8</ele>
        <time>2021-09-19T09:07:51Z</time>
      </trkpt>
      <trkpt lat="49.17531" lon="1.65035">
        <ele>113.4</ele>
        <time>2021-09-19T09:07:55Z</time>
      </trkpt>
      <trkpt lat="49.17528" lon="1.65034">
        <ele>112.8</ele>
        <time>2021-09-19T09:07:56Z</time>
      </trkpt>
      <trkpt lat="49.17525" lon="1.65034">
        <ele>112</ele>
        <time>2021-09-19T09:07:57Z</time>
      </trkpt>
      <trkpt lat="49.17522" lon="1.65036">
        <ele>111.6</ele>
        <time>2021-09-19T09:07:58Z</time>
      </trkpt>
      <trkpt lat="49.17518" lon="1.65042">
        <ele>111.2</ele>
        <time>2021-09-19T09:08:00Z</time>
      </trkpt>
      <trkpt lat="49.17516" lon="1.65045">
        <ele>111</ele>
        <time>2021-09-19T09:08:01Z</time>
      </trkpt>
      <trkpt lat="49.17512" lon="1.65051">
        <ele>110.2</ele>
        <time>2021-09-19T09:08:03Z</time>
      </trkpt>
      <trkpt lat="49.1751" lon="1.65054">
        <ele>110</ele>
        <time>2021-09-19T09:08:04Z</time>
      </trkpt>
      <trkpt lat="49.17502" lon="1.65062">
        <ele>108.6</ele>
        <time>2021-09-19T09:08:07Z</time>
      </trkpt>
      <trkpt lat="49.175" lon="1.65065">
        <ele>108.2</ele>
        <time>2021-09-19T09:08:08Z</time>
      </trkpt>
      <trkpt lat="49.17492" lon="1.65074">
        <ele>107.6</ele>
        <time>2021-09-19T09:08:12Z</time>
      </trkpt>
      <trkpt lat="49.17487" lon="1.6508">
        <ele>107</ele>
        <time>2021-09-19T09:08:15Z</time>
      </trkpt>
      <trkpt lat="49.17482" lon="1.65083">
        <ele>106.4</ele>
        <time>2021-09-19T09:08:17Z</time>
      </trkpt>
      <trkpt lat="49.17475" lon="1.65092">
        <ele>105.8</ele>
        <time>2021-09-19T09:08:20Z</time>
      </trkpt>
      <trkpt lat="49.17473" lon="1.65097">
        <ele>105.6</ele>
        <time>2021-09-19T09:08:21Z</time>
      </trkpt>
      <trkpt lat="49.1747" lon="1.65103">
        <ele>105.4</ele>
        <time>2021-09-19T09:08:22Z</time>
      </trkpt>
      <trkpt lat="49.1746" lon="1.65127">
        <ele>104.6</ele>
        <time>2021-09-19T09:08:26Z</time>
      </trkpt>
      <trkpt lat="49.17458" lon="1.65132">
        <ele>104.4</ele>
        <time>2021-09-19T09:08:27Z</time>
      </trkpt>
      <trkpt lat="49.17453" lon="1.65138">
        <ele>103.6</ele>
        <time>2021-09-19T09:08:29Z</time>
      </trkpt>
      <trkpt lat="49.1745" lon="1.65138">
        <ele>103.2</ele>
        <time>2021-09-19T09:08:30Z</time>
      </trkpt>
      <trkpt lat="49.17446" lon="1.65135">
        <ele>102.8</ele>
        <time>2021-09-19T09:08:31Z</time>
      </trkpt>
      <trkpt lat="49.17436" lon="1.6513">
        <ele>102.4</ele>
        <time>2021-09-19T09:08:33Z</time>
      </trkpt>
      <trkpt lat="49.17417" lon="1.65134">
        <ele>102</ele>
        <time>2021-09-19T09:08:36Z</time>
      </trkpt>
      <trkpt lat="49.17405" lon="1.65139">
        <ele>101.8</ele>
        <time>2021-09-19T09:08:38Z</time>
      </trkpt>
      <trkpt lat="49.17401" lon="1.65138">
        <ele>101.6</ele>
        <time>2021-09-19T09:08:39Z</time>
      </trkpt>
      <trkpt lat="49.17397" lon="1.65137">
        <ele>100.8</ele>
        <time>2021-09-19T09:08:40Z</time>
      </trkpt>
      <trkpt lat="49.17394" lon="1.65133">
        <ele>99.8</ele>
        <time>2021-09-19T09:08:41Z</time>
      </trkpt>
      <trkpt lat="49.1739" lon="1.65122">
        <ele>97.6</ele>
        <time>2021-09-19T09:08:43Z</time>
      </trkpt>
      <trkpt lat="49.17388" lon="1.65115">
        <ele>96.6</ele>
        <time>2021-09-19T09:08:44Z</time>
      </trkpt>
      <trkpt lat="49.17387" lon="1.65108">
        <ele>95.4</ele>
        <time>2021-09-19T09:08:45Z</time>
      </trkpt>
      <trkpt lat="49.17385" lon="1.65094">
        <ele>93.6</ele>
        <time>2021-09-19T09:08:47Z</time>
      </trkpt>
      <trkpt lat="49.17384" lon="1.65087">
        <ele>93</ele>
        <time>2021-09-19T09:08:48Z</time>
      </trkpt>
      <trkpt lat="49.1738" lon="1.65079">
        <ele>92.4</ele>
        <time>2021-09-19T09:08:49Z</time>
      </trkpt>
      <trkpt lat="49.17373" lon="1.65063">
        <ele>91.2</ele>
        <time>2021-09-19T09:08:51Z</time>
      </trkpt>
      <trkpt lat="49.1737" lon="1.65054">
        <ele>90.6</ele>
        <time>2021-09-19T09:08:52Z</time>
      </trkpt>
      <trkpt lat="49.17366" lon="1.65044">
        <ele>90</ele>
        <time>2021-09-19T09:08:53Z</time>
      </trkpt>
      <trkpt lat="49.1736" lon="1.6503">
        <ele>88.8</ele>
        <time>2021-09-19T09:08:55Z</time>
      </trkpt>
      <trkpt lat="49.17354" lon="1.65015">
        <ele>87.4</ele>
        <time>2021-09-19T09:08:57Z</time>
      </trkpt>
      <trkpt lat="49.17351" lon="1.64999">
        <ele>85.4</ele>
        <time>2021-09-19T09:08:59Z</time>
      </trkpt>
      <trkpt lat="49.17349" lon="1.64991">
        <ele>84.2</ele>
        <time>2021-09-19T09:09:00Z</time>
      </trkpt>
      <trkpt lat="49.17346" lon="1.64982">
        <ele>83</ele>
        <time>2021-09-19T09:09:01Z</time>
      </trkpt>
      <trkpt lat="49.17344" lon="1.64973">
        <ele>81.8</ele>
        <time>2021-09-19T09:09:02Z</time>
      </trkpt>
      <trkpt lat="49.17341" lon="1.64964">
        <ele>80.4</ele>
        <time>2021-09-19T09:09:03Z</time>
      </trkpt>
      <trkpt lat="49.17338" lon="1.64956">
        <ele>79.2</ele>
        <time>2021-09-19T09:09:04Z</time>
      </trkpt>
      <trkpt lat="49.17335" lon="1.64947">
        <ele>77.8</ele>
        <time>2021-09-19T09:09:05Z</time>
      </trkpt>
      <trkpt lat="49.17332" lon="1.64939">
        <ele>76.8</ele>
        <time>2021-09-19T09:09:06Z</time>
      </trkpt>
      <trkpt lat="49.17329" lon="1.6493">
        <ele>75.8</ele>
        <time>2021-09-19T09:09:07Z</time>
      </trkpt>
      <trkpt lat="49.17327" lon="1.64922">
        <ele>74</ele>
        <time>2021-09-19T09:09:08Z</time>
      </trkpt>
      <trkpt lat="49.17324" lon="1.64914">
        <ele>72.8</ele>
        <time>2021-09-19T09:09:09Z</time>
      </trkpt>
      <trkpt lat="49.17321" lon="1.64907">
        <ele>71.4</ele>
        <time>2021-09-19T09:09:10Z</time>
      </trkpt>
      <trkpt lat="49.17319" lon="1.649">
        <ele>69.8</ele>
        <time>2021-09-19T09:09:11Z</time>
      </trkpt>
      <trkpt lat="49.17316" lon="1.64894">
        <ele>68.2</ele>
        <time>2021-09-19T09:09:12Z</time>
      </trkpt>
      <trkpt lat="49.17313" lon="1.64888">
        <ele>67</ele>
        <time>2021-09-19T09:09:13Z</time>
      </trkpt>
      <trkpt lat="49.17311" lon="1.64881">
        <ele>66</ele>
        <time>2021-09-19T09:09:14Z</time>
      </trkpt>
      <trkpt lat="49.17308" lon="1.64875">
        <ele>65</ele>
        <time>2021-09-19T09:09:15Z</time>
      </trkpt>
      <trkpt lat="49.17305" lon="1.6487">
        <ele>63.8</ele>
        <time>2021-09-19T09:09:16Z</time>
      </trkpt>
      <trkpt lat="49.17299" lon="1.64862">
        <ele>61.8</ele>
        <time>2021-09-19T09:09:18Z</time>
      </trkpt>
      <trkpt lat="49.17298" lon="1.64858">
        <ele>60.6</ele>
        <time>2021-09-19T09:09:19Z</time>
      </trkpt>
      <trkpt lat="49.17298" lon="1.64851">
        <ele>58.8</ele>
        <time>2021-09-19T09:09:21Z</time>
      </trkpt>
      <trkpt lat="49.17299" lon="1.64847">
        <ele>57.6</ele>
        <time>2021-09-19T09:09:22Z</time>
      </trkpt>
      <trkpt lat="49.173" lon="1.64842">
        <ele>56.6</ele>
        <time>2021-09-19T09:09:23Z</time>
      </trkpt>
      <trkpt lat="49.17302" lon="1.64837">
        <ele>55.6</ele>
        <time>2021-09-19T09:09:24Z</time>
      </trkpt>
      <trkpt lat="49.17306" lon="1.64827">
        <ele>54</ele>
        <time>2021-09-19T09:09:26Z</time>
      </trkpt>
      <trkpt lat="49.1731" lon="1.64817">
        <ele>52.6</ele>
        <time>2021-09-19T09:09:28Z</time>
      </trkpt>
      <trkpt lat="49.17316" lon="1.64802">
        <ele>51.6</ele>
        <time>2021-09-19T09:09:31Z</time>
      </trkpt>
      <trkpt lat="49.1732" lon="1.64788">
        <ele>50.2</ele>
        <time>2021-09-19T09:09:34Z</time>
      </trkpt>
      <trkpt lat="49.17322" lon="1.64783">
        <ele>50</ele>
        <time>2021-09-19T09:09:35Z</time>
      </trkpt>
      <trkpt lat="49.17327" lon="1.64743">
        <ele>49.8</ele>
        <time>2021-09-19T09:09:43Z</time>
      </trkpt>
      <trkpt lat="49.1732" lon="1.64734">
        <ele>50.2</ele>
        <time>2021-09-19T09:09:47Z</time>
      </trkpt>
      <trkpt lat="49.17317" lon="1.64731">
        <ele>50.4</ele>
        <time>2021-09-19T09:09:49Z</time>
      </trkpt>
      <trkpt lat="49.17314" lon="1.64728">
        <ele>50.8</ele>
        <time>2021-09-19T09:09:53Z</time>
      </trkpt>
      <trkpt lat="49.17314" lon="1.64728">
        <ele>51</ele>
        <time>2021-09-19T09:09:54Z</time>
      </trkpt>
      <trkpt lat="49.17312" lon="1.64724">
        <ele>51.8</ele>
        <time>2021-09-19T09:10:15Z</time>
      </trkpt>
      <trkpt lat="49.17311" lon="1.64719">
        <ele>51.8</ele>
        <time>2021-09-19T09:10:17Z</time>
      </trkpt>
      <trkpt lat="49.173" lon="1.64694">
        <ele>51.8</ele>
        <time>2021-09-19T09:10:24Z</time>
      </trkpt>
      <trkpt lat="49.17284" lon="1.64655">
        <ele>52</ele>
        <time>2021-09-19T09:10:33Z</time>
      </trkpt>
      <trkpt lat="49.17272" lon="1.64623">
        <ele>52.8</ele>
        <time>2021-09-19T09:10:40Z</time>
      </trkpt>
      <trkpt lat="49.17268" lon="1.64615">
        <ele>53</ele>
        <time>2021-09-19T09:10:42Z</time>
      </trkpt>
      <trkpt lat="49.17259" lon="1.64591">
        <ele>54</ele>
        <time>2021-09-19T09:10:48Z</time>
      </trkpt>
      <trkpt lat="49.17251" lon="1.64571">
        <ele>55</ele>
        <time>2021-09-19T09:10:54Z</time>
      </trkpt>
      <trkpt lat="49.17245" lon="1.64558">
        <ele>56.2</ele>
        <time>2021-09-19T09:10:58Z</time>
      </trkpt>
      <trkpt lat="49.17239" lon="1.64541">
        <ele>57.2</ele>
        <time>2021-09-19T09:11:03Z</time>
      </trkpt>
      <trkpt lat="49.17232" lon="1.64525">
        <ele>58.4</ele>
        <time>2021-09-19T09:11:08Z</time>
      </trkpt>
      <trkpt lat="49.17224" lon="1.64507">
        <ele>59.4</ele>
        <time>2021-09-19T09:11:14Z</time>
      </trkpt>
      <trkpt lat="49.17217" lon="1.64491">
        <ele>60.2</ele>
        <time>2021-09-19T09:11:19Z</time>
      </trkpt>
      <trkpt lat="49.17214" lon="1.64485">
        <ele>60.6</ele>
        <time>2021-09-19T09:11:21Z</time>
      </trkpt>
      <trkpt lat="49.17204" lon="1.64464">
        <ele>61.8</ele>
        <time>2021-09-19T09:11:28Z</time>
      </trkpt>
      <trkpt lat="49.17197" lon="1.6445">
        <ele>62.8</ele>
        <time>2021-09-19T09:11:33Z</time>
      </trkpt>
      <trkpt lat="49.17191" lon="1.64437">
        <ele>63.4</ele>
        <time>2021-09-19T09:11:37Z</time>
      </trkpt>
      <trkpt lat="49.17188" lon="1.64431">
        <ele>63.8</ele>
        <time>2021-09-19T09:11:39Z</time>
      </trkpt>
      <trkpt lat="49.17177" lon="1.64406">
        <ele>65</ele>
        <time>2021-09-19T09:11:47Z</time>
      </trkpt>
      <trkpt lat="49.17168" lon="1.64388">
        <ele>66.2</ele>
        <time>2021-09-19T09:11:53Z</time>
      </trkpt>
      <trkpt lat="49.17164" lon="1.64379">
        <ele>66.8</ele>
        <time>2021-09-19T09:11:56Z</time>
      </trkpt>
      <trkpt lat="49.17161" lon="1.64374">
        <ele>67.4</ele>
        <time>2021-09-19T09:11:58Z</time>
      </trkpt>
      <trkpt lat="49.17153" lon="1.64356">
        <ele>68.4</ele>
        <time>2021-09-19T09:12:04Z</time>
      </trkpt>
      <trkpt lat="49.17149" lon="1.64348">
        <ele>69</ele>
        <time>2021-09-19T09:12:07Z</time>
      </trkpt>
      <trkpt lat="49.17145" lon="1.64339">
        <ele>69.6</ele>
        <time>2021-09-19T09:12:10Z</time>
      </trkpt>
      <trkpt lat="49.17137" lon="1.64322">
        <ele>70.6</ele>
        <time>2021-09-19T09:12:16Z</time>
      </trkpt>
      <trkpt lat="49.17134" lon="1.64316">
        <ele>71</ele>
        <time>2021-09-19T09:12:18Z</time>
      </trkpt>
      <trkpt lat="49.17129" lon="1.64305">
        <ele>71.8</ele>
        <time>2021-09-19T09:12:22Z</time>
      </trkpt>
      <trkpt lat="49.17121" lon="1.64291">
        <ele>72.6</ele>
        <time>2021-09-19T09:12:27Z</time>
      </trkpt>
      <trkpt lat="49.17119" lon="1.64285">
        <ele>73</ele>
        <time>2021-09-19T09:12:29Z</time>
      </trkpt>
      <trkpt lat="49.17108" lon="1.64264">
        <ele>73.6</ele>
        <time>2021-09-19T09:12:36Z</time>
      </trkpt>
      <trkpt lat="49.17105" lon="1.64258">
        <ele>74</ele>
        <time>2021-09-19T09:12:38Z</time>
      </trkpt>
      <trkpt lat="49.17094" lon="1.64237">
        <ele>74.8</ele>
        <time>2021-09-19T09:12:44Z</time>
      </trkpt>
      <trkpt lat="49.1709" lon="1.6423">
        <ele>75</ele>
        <time>2021-09-19T09:12:46Z</time>
      </trkpt>
      <trkpt lat="49.17075" lon="1.64201">
        <ele>76</ele>
        <time>2021-09-19T09:12:54Z</time>
      </trkpt>
      <trkpt lat="49.17073" lon="1.64197">
        <ele>76</ele>
        <time>2021-09-19T09:12:55Z</time>
      </trkpt>
      <trkpt lat="49.1706" lon="1.64173">
        <ele>77</ele>
        <time>2021-09-19T09:13:01Z</time>
      </trkpt>
      <trkpt lat="49.17057" lon="1.64168">
        <ele>77</ele>
        <time>2021-09-19T09:13:02Z</time>
      </trkpt>
      <trkpt lat="49.17042" lon="1.6414">
        <ele>78</ele>
        <time>2021-09-19T09:13:09Z</time>
      </trkpt>
      <trkpt lat="49.17038" lon="1.64132">
        <ele>78.2</ele>
        <time>2021-09-19T09:13:11Z</time>
      </trkpt>
      <trkpt lat="49.17025" lon="1.64107">
        <ele>79</ele>
        <time>2021-09-19T09:13:18Z</time>
      </trkpt>
      <trkpt lat="49.17023" lon="1.64103">
        <ele>79.2</ele>
        <time>2021-09-19T09:13:19Z</time>
      </trkpt>
      <trkpt lat="49.17009" lon="1.64076">
        <ele>80.2</ele>
        <time>2021-09-19T09:13:27Z</time>
      </trkpt>
      <trkpt lat="49.17007" lon="1.64072">
        <ele>80.4</ele>
        <time>2021-09-19T09:13:28Z</time>
      </trkpt>
      <trkpt lat="49.16994" lon="1.64048">
        <ele>81.4</ele>
        <time>2021-09-19T09:13:35Z</time>
      </trkpt>
      <trkpt lat="49.16988" lon="1.64038">
        <ele>81.6</ele>
        <time>2021-09-19T09:13:38Z</time>
      </trkpt>
      <trkpt lat="49.16968" lon="1.64005">
        <ele>82.4</ele>
        <time>2021-09-19T09:13:48Z</time>
      </trkpt>
      <trkpt lat="49.16956" lon="1.63986">
        <ele>83.6</ele>
        <time>2021-09-19T09:13:54Z</time>
      </trkpt>
      <trkpt lat="49.1695" lon="1.63974">
        <ele>84</ele>
        <time>2021-09-19T09:13:58Z</time>
      </trkpt>
      <trkpt lat="49.16943" lon="1.63963">
        <ele>84.6</ele>
        <time>2021-09-19T09:14:02Z</time>
      </trkpt>
      <trkpt lat="49.16937" lon="1.6395">
        <ele>85</ele>
        <time>2021-09-19T09:14:06Z</time>
      </trkpt>
      <trkpt lat="49.1693" lon="1.63941">
        <ele>85.6</ele>
        <time>2021-09-19T09:14:11Z</time>
      </trkpt>
      <trkpt lat="49.16929" lon="1.63939">
        <ele>85.8</ele>
        <time>2021-09-19T09:14:12Z</time>
      </trkpt>
      <trkpt lat="49.16923" lon="1.63931">
        <ele>86.8</ele>
        <time>2021-09-19T09:14:17Z</time>
      </trkpt>
      <trkpt lat="49.16919" lon="1.63925">
        <ele>87.4</ele>
        <time>2021-09-19T09:14:20Z</time>
      </trkpt>
      <trkpt lat="49.16917" lon="1.63923">
        <ele>87.8</ele>
        <time>2021-09-19T09:14:21Z</time>
      </trkpt>
      <trkpt lat="49.16911" lon="1.63914">
        <ele>89</ele>
        <time>2021-09-19T09:14:26Z</time>
      </trkpt>
      <trkpt lat="49.16906" lon="1.63907">
        <ele>89.8</ele>
        <time>2021-09-19T09:14:30Z</time>
      </trkpt>
      <trkpt lat="49.16905" lon="1.63906">
        <ele>90</ele>
        <time>2021-09-19T09:14:31Z</time>
      </trkpt>
      <trkpt lat="49.16898" lon="1.63897">
        <ele>91</ele>
        <time>2021-09-19T09:14:37Z</time>
      </trkpt>
      <trkpt lat="49.16895" lon="1.63894">
        <ele>91.4</ele>
        <time>2021-09-19T09:14:39Z</time>
      </trkpt>
      <trkpt lat="49.16892" lon="1.6389">
        <ele>92.2</ele>
        <time>2021-09-19T09:14:42Z</time>
      </trkpt>
      <trkpt lat="49.16887" lon="1.63882">
        <ele>93.2</ele>
        <time>2021-09-19T09:14:47Z</time>
      </trkpt>
      <trkpt lat="49.16882" lon="1.63877">
        <ele>94.2</ele>
        <time>2021-09-19T09:14:51Z</time>
      </trkpt>
      <trkpt lat="49.1688" lon="1.63875">
        <ele>94.4</ele>
        <time>2021-09-19T09:14:52Z</time>
      </trkpt>
      <trkpt lat="49.16874" lon="1.63868">
        <ele>95.4</ele>
        <time>2021-09-19T09:14:57Z</time>
      </trkpt>
      <trkpt lat="49.16867" lon="1.63859">
        <ele>96.4</ele>
        <time>2021-09-19T09:15:03Z</time>
      </trkpt>
      <trkpt lat="49.16865" lon="1.63856">
        <ele>96.8</ele>
        <time>2021-09-19T09:15:05Z</time>
      </trkpt>
      <trkpt lat="49.16858" lon="1.63847">
        <ele>97.6</ele>
        <time>2021-09-19T09:15:10Z</time>
      </trkpt>
      <trkpt lat="49.16852" lon="1.63837">
        <ele>98.4</ele>
        <time>2021-09-19T09:15:15Z</time>
      </trkpt>
      <trkpt lat="49.16849" lon="1.63833">
        <ele>98.6</ele>
        <time>2021-09-19T09:15:17Z</time>
      </trkpt>
      <trkpt lat="49.1684" lon="1.63822">
        <ele>99</ele>
        <time>2021-09-19T09:15:23Z</time>
      </trkpt>
      <trkpt lat="49.16833" lon="1.63811">
        <ele>99.8</ele>
        <time>2021-09-19T09:15:27Z</time>
      </trkpt>
      <trkpt lat="49.16826" lon="1.63799">
        <ele>100.2</ele>
        <time>2021-09-19T09:15:31Z</time>
      </trkpt>
      <trkpt lat="49.16813" lon="1.6378">
        <ele>101</ele>
        <time>2021-09-19T09:15:38Z</time>
      </trkpt>
      <trkpt lat="49.16802" lon="1.63764">
        <ele>102.2</ele>
        <time>2021-09-19T09:15:44Z</time>
      </trkpt>
      <trkpt lat="49.16798" lon="1.63758">
        <ele>102.4</ele>
        <time>2021-09-19T09:15:46Z</time>
      </trkpt>
      <trkpt lat="49.16792" lon="1.63751">
        <ele>102.8</ele>
        <time>2021-09-19T09:15:49Z</time>
      </trkpt>
      <trkpt lat="49.16788" lon="1.63753">
        <ele>103</ele>
        <time>2021-09-19T09:15:51Z</time>
      </trkpt>
      <trkpt lat="49.16787" lon="1.63756">
        <ele>103.2</ele>
        <time>2021-09-19T09:15:52Z</time>
      </trkpt>
      <trkpt lat="49.16784" lon="1.63765">
        <ele>103.4</ele>
        <time>2021-09-19T09:15:55Z</time>
      </trkpt>
      <trkpt lat="49.16782" lon="1.63768">
        <ele>103.4</ele>
        <time>2021-09-19T09:15:56Z</time>
      </trkpt>
      <trkpt lat="49.16772" lon="1.63787">
        <ele>103.6</ele>
        <time>2021-09-19T09:16:02Z</time>
      </trkpt>
      <trkpt lat="49.16761" lon="1.63812">
        <ele>103.6</ele>
        <time>2021-09-19T09:16:09Z</time>
      </trkpt>
      <trkpt lat="49.16759" lon="1.63814">
        <ele>103.6</ele>
        <time>2021-09-19T09:16:10Z</time>
      </trkpt>
      <trkpt lat="49.16754" lon="1.63816">
        <ele>103.6</ele>
        <time>2021-09-19T09:16:12Z</time>
      </trkpt>
      <trkpt lat="49.16747" lon="1.63811">
        <ele>103.8</ele>
        <time>2021-09-19T09:16:15Z</time>
      </trkpt>
      <trkpt lat="49.16744" lon="1.63807">
        <ele>103.8</ele>
        <time>2021-09-19T09:16:17Z</time>
      </trkpt>
      <trkpt lat="49.16736" lon="1.63798">
        <ele>104.2</ele>
        <time>2021-09-19T09:16:22Z</time>
      </trkpt>
      <trkpt lat="49.16731" lon="1.63792">
        <ele>104.6</ele>
        <time>2021-09-19T09:16:25Z</time>
      </trkpt>
      <trkpt lat="49.16725" lon="1.63784">
        <ele>105.4</ele>
        <time>2021-09-19T09:16:29Z</time>
      </trkpt>
      <trkpt lat="49.16718" lon="1.63776">
        <ele>106.6</ele>
        <time>2021-09-19T09:16:33Z</time>
      </trkpt>
      <trkpt lat="49.16716" lon="1.63774">
        <ele>106.8</ele>
        <time>2021-09-19T09:16:34Z</time>
      </trkpt>
      <trkpt lat="49.16712" lon="1.63768">
        <ele>107.6</ele>
        <time>2021-09-19T09:16:37Z</time>
      </trkpt>
      <trkpt lat="49.16707" lon="1.63761">
        <ele>109</ele>
        <time>2021-09-19T09:16:40Z</time>
      </trkpt>
      <trkpt lat="49.167" lon="1.63753">
        <ele>109.8</ele>
        <time>2021-09-19T09:16:44Z</time>
      </trkpt>
      <trkpt lat="49.16699" lon="1.63751">
        <ele>110</ele>
        <time>2021-09-19T09:16:45Z</time>
      </trkpt>
      <trkpt lat="49.16691" lon="1.63741">
        <ele>110.8</ele>
        <time>2021-09-19T09:16:50Z</time>
      </trkpt>
      <trkpt lat="49.16684" lon="1.63733">
        <ele>111.6</ele>
        <time>2021-09-19T09:16:54Z</time>
      </trkpt>
      <trkpt lat="49.1668" lon="1.63727">
        <ele>112</ele>
        <time>2021-09-19T09:16:57Z</time>
      </trkpt>
      <trkpt lat="49.16672" lon="1.63717">
        <ele>112.8</ele>
        <time>2021-09-19T09:17:02Z</time>
      </trkpt>
      <trkpt lat="49.16671" lon="1.63715">
        <ele>113</ele>
        <time>2021-09-19T09:17:03Z</time>
      </trkpt>
      <trkpt lat="49.16663" lon="1.63705">
        <ele>114.2</ele>
        <time>2021-09-19T09:17:08Z</time>
      </trkpt>
      <trkpt lat="49.16656" lon="1.63696">
        <ele>115</ele>
        <time>2021-09-19T09:17:12Z</time>
      </trkpt>
      <trkpt lat="49.16654" lon="1.63692">
        <ele>115.4</ele>
        <time>2021-09-19T09:17:14Z</time>
      </trkpt>
      <trkpt lat="49.16645" lon="1.63682">
        <ele>116.4</ele>
        <time>2021-09-19T09:17:19Z</time>
      </trkpt>
      <trkpt lat="49.16635" lon="1.63668">
        <ele>117.4</ele>
        <time>2021-09-19T09:17:26Z</time>
      </trkpt>
      <trkpt lat="49.16633" lon="1.63666">
        <ele>117.6</ele>
        <time>2021-09-19T09:17:27Z</time>
      </trkpt>
      <trkpt lat="49.16626" lon="1.63655">
        <ele>118.6</ele>
        <time>2021-09-19T09:17:32Z</time>
      </trkpt>
      <trkpt lat="49.16621" lon="1.63649">
        <ele>119.4</ele>
        <time>2021-09-19T09:17:35Z</time>
      </trkpt>
      <trkpt lat="49.16619" lon="1.63644">
        <ele>119.8</ele>
        <time>2021-09-19T09:17:37Z</time>
      </trkpt>
      <trkpt lat="49.16612" lon="1.63632">
        <ele>120.8</ele>
        <time>2021-09-19T09:17:42Z</time>
      </trkpt>
      <trkpt lat="49.1661" lon="1.63627">
        <ele>121.2</ele>
        <time>2021-09-19T09:17:44Z</time>
      </trkpt>
      <trkpt lat="49.16607" lon="1.63622">
        <ele>121.6</ele>
        <time>2021-09-19T09:17:46Z</time>
      </trkpt>
      <trkpt lat="49.16603" lon="1.6362">
        <ele>122</ele>
        <time>2021-09-19T09:17:48Z</time>
      </trkpt>
      <trkpt lat="49.16599" lon="1.63617">
        <ele>122.2</ele>
        <time>2021-09-19T09:17:50Z</time>
      </trkpt>
      <trkpt lat="49.16586" lon="1.63612">
        <ele>123</ele>
        <time>2021-09-19T09:17:57Z</time>
      </trkpt>
      <trkpt lat="49.16578" lon="1.63609">
        <ele>124</ele>
        <time>2021-09-19T09:18:01Z</time>
      </trkpt>
      <trkpt lat="49.16576" lon="1.63609">
        <ele>124.4</ele>
        <time>2021-09-19T09:18:02Z</time>
      </trkpt>
      <trkpt lat="49.16566" lon="1.63605">
        <ele>125.4</ele>
        <time>2021-09-19T09:18:07Z</time>
      </trkpt>
      <trkpt lat="49.16561" lon="1.63604">
        <ele>125.6</ele>
        <time>2021-09-19T09:18:09Z</time>
      </trkpt>
      <trkpt lat="49.1655" lon="1.63601">
        <ele>126.4</ele>
        <time>2021-09-19T09:18:14Z</time>
      </trkpt>
      <trkpt lat="49.16545" lon="1.63599">
        <ele>126.8</ele>
        <time>2021-09-19T09:18:16Z</time>
      </trkpt>
      <trkpt lat="49.16527" lon="1.63594">
        <ele>127.4</ele>
        <time>2021-09-19T09:18:22Z</time>
      </trkpt>
      <trkpt lat="49.16502" lon="1.63587">
        <ele>128.2</ele>
        <time>2021-09-19T09:18:29Z</time>
      </trkpt>
      <trkpt lat="49.16483" lon="1.63581">
        <ele>128.4</ele>
        <time>2021-09-19T09:18:35Z</time>
      </trkpt>
      <trkpt lat="49.1648" lon="1.6358">
        <ele>128.6</ele>
        <time>2021-09-19T09:18:36Z</time>
      </trkpt>
      <trkpt lat="49.16451" lon="1.63571">
        <ele>128.8</ele>
        <time>2021-09-19T09:18:43Z</time>
      </trkpt>
      <trkpt lat="49.16417" lon="1.63561">
        <ele>129</ele>
        <time>2021-09-19T09:18:51Z</time>
      </trkpt>
      <trkpt lat="49.16412" lon="1.6356">
        <ele>129</ele>
        <time>2021-09-19T09:18:52Z</time>
      </trkpt>
      <trkpt lat="49.16396" lon="1.63554">
        <ele>129</ele>
        <time>2021-09-19T09:18:56Z</time>
      </trkpt>
      <trkpt lat="49.16366" lon="1.63546">
        <ele>129.4</ele>
        <time>2021-09-19T09:19:03Z</time>
      </trkpt>
      <trkpt lat="49.16345" lon="1.63539">
        <ele>129.6</ele>
        <time>2021-09-19T09:19:08Z</time>
      </trkpt>
      <trkpt lat="49.16338" lon="1.63536">
        <ele>129.6</ele>
        <time>2021-09-19T09:19:10Z</time>
      </trkpt>
      <trkpt lat="49.16305" lon="1.63527">
        <ele>129.6</ele>
        <time>2021-09-19T09:19:17Z</time>
      </trkpt>
      <trkpt lat="49.16272" lon="1.63517">
        <ele>129</ele>
        <time>2021-09-19T09:19:24Z</time>
      </trkpt>
      <trkpt lat="49.16244" lon="1.63511">
        <ele>128.6</ele>
        <time>2021-09-19T09:19:29Z</time>
      </trkpt>
      <trkpt lat="49.16234" lon="1.63507">
        <ele>128.4</ele>
        <time>2021-09-19T09:19:31Z</time>
      </trkpt>
      <trkpt lat="49.16198" lon="1.63498">
        <ele>128.2</ele>
        <time>2021-09-19T09:19:38Z</time>
      </trkpt>
      <trkpt lat="49.16163" lon="1.63492">
        <ele>127.6</ele>
        <time>2021-09-19T09:19:44Z</time>
      </trkpt>
      <trkpt lat="49.16157" lon="1.63491">
        <ele>127.6</ele>
        <time>2021-09-19T09:19:45Z</time>
      </trkpt>
      <trkpt lat="49.16145" lon="1.63489">
        <ele>127.4</ele>
        <time>2021-09-19T09:19:47Z</time>
      </trkpt>
      <trkpt lat="49.16122" lon="1.63486">
        <ele>126.8</ele>
        <time>2021-09-19T09:19:51Z</time>
      </trkpt>
      <trkpt lat="49.16117" lon="1.63485">
        <ele>126.6</ele>
        <time>2021-09-19T09:19:52Z</time>
      </trkpt>
      <trkpt lat="49.1611" lon="1.63485">
        <ele>126.4</ele>
        <time>2021-09-19T09:19:53Z</time>
      </trkpt>
      <trkpt lat="49.1609" lon="1.63484">
        <ele>125.2</ele>
        <time>2021-09-19T09:19:56Z</time>
      </trkpt>
      <trkpt lat="49.1605" lon="1.63484">
        <ele>124.2</ele>
        <time>2021-09-19T09:20:01Z</time>
      </trkpt>
      <trkpt lat="49.16042" lon="1.63484">
        <ele>123.8</ele>
        <time>2021-09-19T09:20:02Z</time>
      </trkpt>
      <trkpt lat="49.16016" lon="1.63486">
        <ele>122.8</ele>
        <time>2021-09-19T09:20:05Z</time>
      </trkpt>
      <trkpt lat="49.15991" lon="1.63492">
        <ele>121.8</ele>
        <time>2021-09-19T09:20:08Z</time>
      </trkpt>
      <trkpt lat="49.15982" lon="1.63495">
        <ele>121.4</ele>
        <time>2021-09-19T09:20:09Z</time>
      </trkpt>
      <trkpt lat="49.15965" lon="1.63499">
        <ele>120.6</ele>
        <time>2021-09-19T09:20:11Z</time>
      </trkpt>
      <trkpt lat="49.15941" lon="1.635">
        <ele>119</ele>
        <time>2021-09-19T09:20:14Z</time>
      </trkpt>
      <trkpt lat="49.15925" lon="1.63499">
        <ele>117.8</ele>
        <time>2021-09-19T09:20:16Z</time>
      </trkpt>
      <trkpt lat="49.15895" lon="1.63499">
        <ele>116.8</ele>
        <time>2021-09-19T09:20:20Z</time>
      </trkpt>
      <trkpt lat="49.1586" lon="1.635">
        <ele>116.8</ele>
        <time>2021-09-19T09:20:25Z</time>
      </trkpt>
      <trkpt lat="49.15848" lon="1.63499">
        <ele>116.8</ele>
        <time>2021-09-19T09:20:27Z</time>
      </trkpt>
      <trkpt lat="49.15831" lon="1.63499">
        <ele>116.8</ele>
        <time>2021-09-19T09:20:30Z</time>
      </trkpt>
      <trkpt lat="49.15782" lon="1.63498">
        <ele>117.4</ele>
        <time>2021-09-19T09:20:39Z</time>
      </trkpt>
      <trkpt lat="49.15746" lon="1.63498">
        <ele>118.6</ele>
        <time>2021-09-19T09:20:46Z</time>
      </trkpt>
      <trkpt lat="49.15736" lon="1.63499">
        <ele>118.8</ele>
        <time>2021-09-19T09:20:48Z</time>
      </trkpt>
      <trkpt lat="49.15726" lon="1.635">
        <ele>119</ele>
        <time>2021-09-19T09:20:50Z</time>
      </trkpt>
      <trkpt lat="49.15706" lon="1.635">
        <ele>119.2</ele>
        <time>2021-09-19T09:20:54Z</time>
      </trkpt>
      <trkpt lat="49.15676" lon="1.63501">
        <ele>119.6</ele>
        <time>2021-09-19T09:21:00Z</time>
      </trkpt>
      <trkpt lat="49.15666" lon="1.63501">
        <ele>119.8</ele>
        <time>2021-09-19T09:21:02Z</time>
      </trkpt>
      <trkpt lat="49.1563" lon="1.63503">
        <ele>120</ele>
        <time>2021-09-19T09:21:09Z</time>
      </trkpt>
      <trkpt lat="49.15583" lon="1.63504">
        <ele>120</ele>
        <time>2021-09-19T09:21:17Z</time>
      </trkpt>
      <trkpt lat="49.15571" lon="1.63504">
        <ele>120</ele>
        <time>2021-09-19T09:21:19Z</time>
      </trkpt>
      <trkpt lat="49.15545" lon="1.63504">
        <ele>120</ele>
        <time>2021-09-19T09:21:23Z</time>
      </trkpt>
      <trkpt lat="49.15518" lon="1.63502">
        <ele>119.2</ele>
        <time>2021-09-19T09:21:27Z</time>
      </trkpt>
      <trkpt lat="49.15505" lon="1.635">
        <ele>119</ele>
        <time>2021-09-19T09:21:29Z</time>
      </trkpt>
      <trkpt lat="49.15491" lon="1.63495">
        <ele>118.8</ele>
        <time>2021-09-19T09:21:31Z</time>
      </trkpt>
      <trkpt lat="49.15485" lon="1.63491">
        <ele>118.4</ele>
        <time>2021-09-19T09:21:32Z</time>
      </trkpt>
      <trkpt lat="49.15479" lon="1.63487">
        <ele>118.2</ele>
        <time>2021-09-19T09:21:33Z</time>
      </trkpt>
      <trkpt lat="49.15474" lon="1.63481">
        <ele>118</ele>
        <time>2021-09-19T09:21:34Z</time>
      </trkpt>
      <trkpt lat="49.15464" lon="1.63467">
        <ele>117.2</ele>
        <time>2021-09-19T09:21:36Z</time>
      </trkpt>
      <trkpt lat="49.15444" lon="1.63439">
        <ele>116</ele>
        <time>2021-09-19T09:21:40Z</time>
      </trkpt>
      <trkpt lat="49.15439" lon="1.63432">
        <ele>116</ele>
        <time>2021-09-19T09:21:41Z</time>
      </trkpt>
      <trkpt lat="49.15423" lon="1.63412">
        <ele>114.8</ele>
        <time>2021-09-19T09:21:44Z</time>
      </trkpt>
      <trkpt lat="49.15407" lon="1.63393">
        <ele>113.8</ele>
        <time>2021-09-19T09:21:47Z</time>
      </trkpt>
      <trkpt lat="49.15397" lon="1.63381">
        <ele>113.6</ele>
        <time>2021-09-19T09:21:49Z</time>
      </trkpt>
      <trkpt lat="49.15355" lon="1.6333">
        <ele>113.4</ele>
        <time>2021-09-19T09:21:58Z</time>
      </trkpt>
      <trkpt lat="49.1535" lon="1.63326">
        <ele>113.4</ele>
        <time>2021-09-19T09:21:59Z</time>
      </trkpt>
      <trkpt lat="49.15336" lon="1.63312">
        <ele>113.6</ele>
        <time>2021-09-19T09:22:02Z</time>
      </trkpt>
      <trkpt lat="49.15331" lon="1.63307">
        <ele>113.8</ele>
        <time>2021-09-19T09:22:03Z</time>
      </trkpt>
      <trkpt lat="49.15295" lon="1.63264">
        <ele>114.8</ele>
        <time>2021-09-19T09:22:12Z</time>
      </trkpt>
      <trkpt lat="49.15292" lon="1.6326">
        <ele>114.8</ele>
        <time>2021-09-19T09:22:13Z</time>
      </trkpt>
      <trkpt lat="49.15263" lon="1.63227">
        <ele>116</ele>
        <time>2021-09-19T09:22:21Z</time>
      </trkpt>
      <trkpt lat="49.15259" lon="1.63223">
        <ele>116</ele>
        <time>2021-09-19T09:22:22Z</time>
      </trkpt>
      <trkpt lat="49.15232" lon="1.6319">
        <ele>117</ele>
        <time>2021-09-19T09:22:30Z</time>
      </trkpt>
      <trkpt lat="49.15225" lon="1.63182">
        <ele>117.2</ele>
        <time>2021-09-19T09:22:32Z</time>
      </trkpt>
      <trkpt lat="49.15204" lon="1.63154">
        <ele>118.2</ele>
        <time>2021-09-19T09:22:39Z</time>
      </trkpt>
      <trkpt lat="49.15196" lon="1.63141">
        <ele>118.8</ele>
        <time>2021-09-19T09:22:42Z</time>
      </trkpt>
      <trkpt lat="49.15191" lon="1.63133">
        <ele>119.2</ele>
        <time>2021-09-19T09:22:44Z</time>
      </trkpt>
      <trkpt lat="49.1518" lon="1.63119">
        <ele>119.6</ele>
        <time>2021-09-19T09:22:48Z</time>
      </trkpt>
      <trkpt lat="49.15156" lon="1.63088">
        <ele>120.4</ele>
        <time>2021-09-19T09:22:57Z</time>
      </trkpt>
      <trkpt lat="49.15129" lon="1.63054">
        <ele>121.4</ele>
        <time>2021-09-19T09:23:07Z</time>
      </trkpt>
      <trkpt lat="49.15126" lon="1.6305">
        <ele>121.6</ele>
        <time>2021-09-19T09:23:08Z</time>
      </trkpt>
      <trkpt lat="49.15101" lon="1.63019">
        <ele>122.6</ele>
        <time>2021-09-19T09:23:16Z</time>
      </trkpt>
      <trkpt lat="49.15078" lon="1.62991">
        <ele>123.6</ele>
        <time>2021-09-19T09:23:23Z</time>
      </trkpt>
      <trkpt lat="49.15069" lon="1.62978">
        <ele>124.2</ele>
        <time>2021-09-19T09:23:26Z</time>
      </trkpt>
      <trkpt lat="49.15059" lon="1.62967">
        <ele>124.8</ele>
        <time>2021-09-19T09:23:29Z</time>
      </trkpt>
      <trkpt lat="49.15036" lon="1.62939">
        <ele>125.8</ele>
        <time>2021-09-19T09:23:36Z</time>
      </trkpt>
      <trkpt lat="49.15033" lon="1.62934">
        <ele>126.2</ele>
        <time>2021-09-19T09:23:37Z</time>
      </trkpt>
      <trkpt lat="49.15023" lon="1.62922">
        <ele>127</ele>
        <time>2021-09-19T09:23:40Z</time>
      </trkpt>
      <trkpt lat="49.15001" lon="1.62894">
        <ele>128</ele>
        <time>2021-09-19T09:23:47Z</time>
      </trkpt>
      <trkpt lat="49.14997" lon="1.6289">
        <ele>128.2</ele>
        <time>2021-09-19T09:23:48Z</time>
      </trkpt>
      <trkpt lat="49.14985" lon="1.62874">
        <ele>129.2</ele>
        <time>2021-09-19T09:23:52Z</time>
      </trkpt>
      <trkpt lat="49.14972" lon="1.62859">
        <ele>130.2</ele>
        <time>2021-09-19T09:23:56Z</time>
      </trkpt>
      <trkpt lat="49.14948" lon="1.62829">
        <ele>131.2</ele>
        <time>2021-09-19T09:24:03Z</time>
      </trkpt>
      <trkpt lat="49.14942" lon="1.62821">
        <ele>131.6</ele>
        <time>2021-09-19T09:24:05Z</time>
      </trkpt>
      <trkpt lat="49.14929" lon="1.62805">
        <ele>132.4</ele>
        <time>2021-09-19T09:24:09Z</time>
      </trkpt>
      <trkpt lat="49.14912" lon="1.62784">
        <ele>133</ele>
        <time>2021-09-19T09:24:14Z</time>
      </trkpt>
      <trkpt lat="49.14902" lon="1.62772">
        <ele>133.4</ele>
        <time>2021-09-19T09:24:17Z</time>
      </trkpt>
      <trkpt lat="49.14884" lon="1.6275">
        <ele>134</ele>
        <time>2021-09-19T09:24:22Z</time>
      </trkpt>
      <trkpt lat="49.14877" lon="1.62741">
        <ele>134.4</ele>
        <time>2021-09-19T09:24:24Z</time>
      </trkpt>
      <trkpt lat="49.14843" lon="1.627">
        <ele>134.8</ele>
        <time>2021-09-19T09:24:33Z</time>
      </trkpt>
      <trkpt lat="49.14819" lon="1.62673">
        <ele>135.2</ele>
        <time>2021-09-19T09:24:39Z</time>
      </trkpt>
      <trkpt lat="49.14816" lon="1.62669">
        <ele>135.2</ele>
        <time>2021-09-19T09:24:40Z</time>
      </trkpt>
      <trkpt lat="49.14798" lon="1.62646">
        <ele>135.4</ele>
        <time>2021-09-19T09:24:45Z</time>
      </trkpt>
      <trkpt lat="49.14794" lon="1.62643">
        <ele>135.4</ele>
        <time>2021-09-19T09:24:46Z</time>
      </trkpt>
      <trkpt lat="49.14781" lon="1.62643">
        <ele>135.4</ele>
        <time>2021-09-19T09:24:49Z</time>
      </trkpt>
      <trkpt lat="49.14772" lon="1.6265">
        <ele>135.6</ele>
        <time>2021-09-19T09:24:51Z</time>
      </trkpt>
      <trkpt lat="49.14752" lon="1.62665">
        <ele>135.6</ele>
        <time>2021-09-19T09:24:55Z</time>
      </trkpt>
      <trkpt lat="49.14709" lon="1.62686">
        <ele>135.2</ele>
        <time>2021-09-19T09:25:04Z</time>
      </trkpt>
      <trkpt lat="49.14681" lon="1.62699">
        <ele>135</ele>
        <time>2021-09-19T09:25:10Z</time>
      </trkpt>
      <trkpt lat="49.14676" lon="1.62701">
        <ele>135</ele>
        <time>2021-09-19T09:25:11Z</time>
      </trkpt>
      <trkpt lat="49.14639" lon="1.62715">
        <ele>134.6</ele>
        <time>2021-09-19T09:25:18Z</time>
      </trkpt>
      <trkpt lat="49.14628" lon="1.6272">
        <ele>134.2</ele>
        <time>2021-09-19T09:25:20Z</time>
      </trkpt>
      <trkpt lat="49.14617" lon="1.62721">
        <ele>133.8</ele>
        <time>2021-09-19T09:25:22Z</time>
      </trkpt>
      <trkpt lat="49.14598" lon="1.62722">
        <ele>133.4</ele>
        <time>2021-09-19T09:25:25Z</time>
      </trkpt>
      <trkpt lat="49.14584" lon="1.62723">
        <ele>133.2</ele>
        <time>2021-09-19T09:25:27Z</time>
      </trkpt>
      <trkpt lat="49.14571" lon="1.62724">
        <ele>133</ele>
        <time>2021-09-19T09:25:29Z</time>
      </trkpt>
      <trkpt lat="49.14553" lon="1.62726">
        <ele>132</ele>
        <time>2021-09-19T09:25:32Z</time>
      </trkpt>
      <trkpt lat="49.14549" lon="1.62724">
        <ele>131.8</ele>
        <time>2021-09-19T09:25:33Z</time>
      </trkpt>
      <trkpt lat="49.14544" lon="1.6271">
        <ele>130.8</ele>
        <time>2021-09-19T09:25:36Z</time>
      </trkpt>
      <trkpt lat="49.14544" lon="1.62705">
        <ele>130.4</ele>
        <time>2021-09-19T09:25:37Z</time>
      </trkpt>
      <trkpt lat="49.14539" lon="1.62689">
        <ele>129.6</ele>
        <time>2021-09-19T09:25:40Z</time>
      </trkpt>
      <trkpt lat="49.14536" lon="1.62676">
        <ele>129.4</ele>
        <time>2021-09-19T09:25:42Z</time>
      </trkpt>
      <trkpt lat="49.14523" lon="1.62638">
        <ele>128.6</ele>
        <time>2021-09-19T09:25:48Z</time>
      </trkpt>
      <trkpt lat="49.1452" lon="1.62631">
        <ele>128.6</ele>
        <time>2021-09-19T09:25:49Z</time>
      </trkpt>
      <trkpt lat="49.14507" lon="1.62588">
        <ele>128</ele>
        <time>2021-09-19T09:25:56Z</time>
      </trkpt>
      <trkpt lat="49.14499" lon="1.6256">
        <ele>127.6</ele>
        <time>2021-09-19T09:26:02Z</time>
      </trkpt>
      <trkpt lat="49.14499" lon="1.62557">
        <ele>127.6</ele>
        <time>2021-09-19T09:26:03Z</time>
      </trkpt>
      <trkpt lat="49.14499" lon="1.62556">
        <ele>127.6</ele>
        <time>2021-09-19T09:26:05Z</time>
      </trkpt>
      <trkpt lat="49.14498" lon="1.62555">
        <ele>126.6</ele>
        <time>2021-09-19T09:27:43Z</time>
      </trkpt>
      <trkpt lat="49.14495" lon="1.6255">
        <ele>126.6</ele>
        <time>2021-09-19T09:27:46Z</time>
      </trkpt>
      <trkpt lat="49.14491" lon="1.62535">
        <ele>126.8</ele>
        <time>2021-09-19T09:27:50Z</time>
      </trkpt>
      <trkpt lat="49.14489" lon="1.6253">
        <ele>126.8</ele>
        <time>2021-09-19T09:27:51Z</time>
      </trkpt>
      <trkpt lat="49.14475" lon="1.62485">
        <ele>126.8</ele>
        <time>2021-09-19T09:27:59Z</time>
      </trkpt>
      <trkpt lat="49.14459" lon="1.6243">
        <ele>126.8</ele>
        <time>2021-09-19T09:28:07Z</time>
      </trkpt>
      <trkpt lat="49.14441" lon="1.62375">
        <ele>126.6</ele>
        <time>2021-09-19T09:28:15Z</time>
      </trkpt>
      <trkpt lat="49.14427" lon="1.62325">
        <ele>126.8</ele>
        <time>2021-09-19T09:28:22Z</time>
      </trkpt>
      <trkpt lat="49.14409" lon="1.62262">
        <ele>127</ele>
        <time>2021-09-19T09:28:31Z</time>
      </trkpt>
      <trkpt lat="49.14396" lon="1.62223">
        <ele>127</ele>
        <time>2021-09-19T09:28:37Z</time>
      </trkpt>
      <trkpt lat="49.14393" lon="1.62218">
        <ele>127.2</ele>
        <time>2021-09-19T09:28:38Z</time>
      </trkpt>
      <trkpt lat="49.14379" lon="1.62207">
        <ele>127.2</ele>
        <time>2021-09-19T09:28:41Z</time>
      </trkpt>
      <trkpt lat="49.14374" lon="1.62204">
        <ele>127.2</ele>
        <time>2021-09-19T09:28:42Z</time>
      </trkpt>
      <trkpt lat="49.14328" lon="1.62173">
        <ele>126.4</ele>
        <time>2021-09-19T09:28:50Z</time>
      </trkpt>
      <trkpt lat="49.14309" lon="1.62157">
        <ele>125.2</ele>
        <time>2021-09-19T09:28:53Z</time>
      </trkpt>
      <trkpt lat="49.14295" lon="1.62144">
        <ele>124.6</ele>
        <time>2021-09-19T09:28:55Z</time>
      </trkpt>
      <trkpt lat="49.14288" lon="1.62137">
        <ele>124.2</ele>
        <time>2021-09-19T09:28:56Z</time>
      </trkpt>
      <trkpt lat="49.14267" lon="1.62114">
        <ele>123</ele>
        <time>2021-09-19T09:28:59Z</time>
      </trkpt>
      <trkpt lat="49.14254" lon="1.62099">
        <ele>121.4</ele>
        <time>2021-09-19T09:29:01Z</time>
      </trkpt>
      <trkpt lat="49.14248" lon="1.62095">
        <ele>120.8</ele>
        <time>2021-09-19T09:29:02Z</time>
      </trkpt>
      <trkpt lat="49.14242" lon="1.62093">
        <ele>119.8</ele>
        <time>2021-09-19T09:29:03Z</time>
      </trkpt>
      <trkpt lat="49.14236" lon="1.62093">
        <ele>119</ele>
        <time>2021-09-19T09:29:04Z</time>
      </trkpt>
      <trkpt lat="49.1423" lon="1.62095">
        <ele>118</ele>
        <time>2021-09-19T09:29:05Z</time>
      </trkpt>
      <trkpt lat="49.14218" lon="1.62101">
        <ele>116.6</ele>
        <time>2021-09-19T09:29:07Z</time>
      </trkpt>
      <trkpt lat="49.14205" lon="1.62107">
        <ele>115.4</ele>
        <time>2021-09-19T09:29:09Z</time>
      </trkpt>
      <trkpt lat="49.14174" lon="1.62115">
        <ele>114.2</ele>
        <time>2021-09-19T09:29:13Z</time>
      </trkpt>
      <trkpt lat="49.14157" lon="1.62119">
        <ele>113</ele>
        <time>2021-09-19T09:29:15Z</time>
      </trkpt>
      <trkpt lat="49.14139" lon="1.62123">
        <ele>110.6</ele>
        <time>2021-09-19T09:29:17Z</time>
      </trkpt>
      <trkpt lat="49.14131" lon="1.62125">
        <ele>109.4</ele>
        <time>2021-09-19T09:29:18Z</time>
      </trkpt>
      <trkpt lat="49.14122" lon="1.62128">
        <ele>108.2</ele>
        <time>2021-09-19T09:29:19Z</time>
      </trkpt>
      <trkpt lat="49.14113" lon="1.6213">
        <ele>107.2</ele>
        <time>2021-09-19T09:29:20Z</time>
      </trkpt>
      <trkpt lat="49.14104" lon="1.62132">
        <ele>106.2</ele>
        <time>2021-09-19T09:29:21Z</time>
      </trkpt>
      <trkpt lat="49.14096" lon="1.62134">
        <ele>105.4</ele>
        <time>2021-09-19T09:29:22Z</time>
      </trkpt>
      <trkpt lat="49.14087" lon="1.62137">
        <ele>104.6</ele>
        <time>2021-09-19T09:29:23Z</time>
      </trkpt>
      <trkpt lat="49.14071" lon="1.62141">
        <ele>103.6</ele>
        <time>2021-09-19T09:29:25Z</time>
      </trkpt>
      <trkpt lat="49.14047" lon="1.62147">
        <ele>102.2</ele>
        <time>2021-09-19T09:29:28Z</time>
      </trkpt>
      <trkpt lat="49.14032" lon="1.62151">
        <ele>101.8</ele>
        <time>2021-09-19T09:29:30Z</time>
      </trkpt>
      <trkpt lat="49.14018" lon="1.62155">
        <ele>101</ele>
        <time>2021-09-19T09:29:32Z</time>
      </trkpt>
      <trkpt lat="49.13983" lon="1.62165">
        <ele>100.2</ele>
        <time>2021-09-19T09:29:37Z</time>
      </trkpt>
      <trkpt lat="49.13961" lon="1.62171">
        <ele>99.8</ele>
        <time>2021-09-19T09:29:40Z</time>
      </trkpt>
      <trkpt lat="49.13928" lon="1.62178">
        <ele>99.4</ele>
        <time>2021-09-19T09:29:45Z</time>
      </trkpt>
      <trkpt lat="49.13909" lon="1.62181">
        <ele>99</ele>
        <time>2021-09-19T09:29:48Z</time>
      </trkpt>
      <trkpt lat="49.13903" lon="1.6218">
        <ele>98.8</ele>
        <time>2021-09-19T09:29:49Z</time>
      </trkpt>
      <trkpt lat="49.13898" lon="1.62178">
        <ele>98.8</ele>
        <time>2021-09-19T09:29:50Z</time>
      </trkpt>
      <trkpt lat="49.13892" lon="1.62177">
        <ele>98.8</ele>
        <time>2021-09-19T09:29:51Z</time>
      </trkpt>
      <trkpt lat="49.13877" lon="1.62181">
        <ele>98.6</ele>
        <time>2021-09-19T09:29:54Z</time>
      </trkpt>
      <trkpt lat="49.13872" lon="1.62184">
        <ele>98.6</ele>
        <time>2021-09-19T09:29:55Z</time>
      </trkpt>
      <trkpt lat="49.13827" lon="1.62206">
        <ele>98.4</ele>
        <time>2021-09-19T09:30:03Z</time>
      </trkpt>
      <trkpt lat="49.13792" lon="1.62223">
        <ele>97.8</ele>
        <time>2021-09-19T09:30:09Z</time>
      </trkpt>
      <trkpt lat="49.13774" lon="1.62232">
        <ele>97.4</ele>
        <time>2021-09-19T09:30:12Z</time>
      </trkpt>
      <trkpt lat="49.13729" lon="1.62251">
        <ele>97.2</ele>
        <time>2021-09-19T09:30:20Z</time>
      </trkpt>
      <trkpt lat="49.13718" lon="1.62257">
        <ele>97.2</ele>
        <time>2021-09-19T09:30:22Z</time>
      </trkpt>
      <trkpt lat="49.13702" lon="1.62264">
        <ele>97.2</ele>
        <time>2021-09-19T09:30:25Z</time>
      </trkpt>
      <trkpt lat="49.13662" lon="1.62277">
        <ele>97.2</ele>
        <time>2021-09-19T09:30:32Z</time>
      </trkpt>
      <trkpt lat="49.13617" lon="1.62287">
        <ele>97</ele>
        <time>2021-09-19T09:30:39Z</time>
      </trkpt>
      <trkpt lat="49.13603" lon="1.62288">
        <ele>96.4</ele>
        <time>2021-09-19T09:30:41Z</time>
      </trkpt>
      <trkpt lat="49.1358" lon="1.62291">
        <ele>95.2</ele>
        <time>2021-09-19T09:30:44Z</time>
      </trkpt>
      <trkpt lat="49.13547" lon="1.62296">
        <ele>94.2</ele>
        <time>2021-09-19T09:30:48Z</time>
      </trkpt>
      <trkpt lat="49.13523" lon="1.62299">
        <ele>93.2</ele>
        <time>2021-09-19T09:30:51Z</time>
      </trkpt>
      <trkpt lat="49.13515" lon="1.623">
        <ele>93</ele>
        <time>2021-09-19T09:30:52Z</time>
      </trkpt>
      <trkpt lat="49.1347" lon="1.62306">
        <ele>93</ele>
        <time>2021-09-19T09:30:58Z</time>
      </trkpt>
      <trkpt lat="49.13416" lon="1.62313">
        <ele>93.8</ele>
        <time>2021-09-19T09:31:05Z</time>
      </trkpt>
      <trkpt lat="49.13401" lon="1.62316">
        <ele>94.4</ele>
        <time>2021-09-19T09:31:07Z</time>
      </trkpt>
      <trkpt lat="49.13364" lon="1.6232">
        <ele>94.8</ele>
        <time>2021-09-19T09:31:12Z</time>
      </trkpt>
      <trkpt lat="49.13357" lon="1.62321">
        <ele>95</ele>
        <time>2021-09-19T09:31:13Z</time>
      </trkpt>
      <trkpt lat="49.13344" lon="1.62311">
        <ele>95</ele>
        <time>2021-09-19T09:31:16Z</time>
      </trkpt>
      <trkpt lat="49.13344" lon="1.62289">
        <ele>95</ele>
        <time>2021-09-19T09:31:19Z</time>
      </trkpt>
      <trkpt lat="49.1335" lon="1.62248">
        <ele>95</ele>
        <time>2021-09-19T09:31:25Z</time>
      </trkpt>
      <trkpt lat="49.13353" lon="1.62221">
        <ele>95.4</ele>
        <time>2021-09-19T09:31:29Z</time>
      </trkpt>
      <trkpt lat="49.13352" lon="1.62208">
        <ele>95.6</ele>
        <time>2021-09-19T09:31:31Z</time>
      </trkpt>
      <trkpt lat="49.13351" lon="1.62196">
        <ele>95.6</ele>
        <time>2021-09-19T09:31:33Z</time>
      </trkpt>
      <trkpt lat="49.13346" lon="1.62172">
        <ele>96.2</ele>
        <time>2021-09-19T09:31:37Z</time>
      </trkpt>
      <trkpt lat="49.13343" lon="1.62161">
        <ele>96.6</ele>
        <time>2021-09-19T09:31:39Z</time>
      </trkpt>
      <trkpt lat="49.13333" lon="1.62126">
        <ele>97.6</ele>
        <time>2021-09-19T09:31:45Z</time>
      </trkpt>
      <trkpt lat="49.13331" lon="1.6212">
        <ele>97.8</ele>
        <time>2021-09-19T09:31:46Z</time>
      </trkpt>
      <trkpt lat="49.13317" lon="1.62067">
        <ele>98.8</ele>
        <time>2021-09-19T09:31:55Z</time>
      </trkpt>
      <trkpt lat="49.13315" lon="1.62061">
        <ele>99</ele>
        <time>2021-09-19T09:31:56Z</time>
      </trkpt>
      <trkpt lat="49.13305" lon="1.62006">
        <ele>99.6</ele>
        <time>2021-09-19T09:32:05Z</time>
      </trkpt>
      <trkpt lat="49.13299" lon="1.6197">
        <ele>99.8</ele>
        <time>2021-09-19T09:32:11Z</time>
      </trkpt>
      <trkpt lat="49.13295" lon="1.6194">
        <ele>100.2</ele>
        <time>2021-09-19T09:32:16Z</time>
      </trkpt>
      <trkpt lat="49.13287" lon="1.61891">
        <ele>100.8</ele>
        <time>2021-09-19T09:32:24Z</time>
      </trkpt>
      <trkpt lat="49.13285" lon="1.61879">
        <ele>101.2</ele>
        <time>2021-09-19T09:32:26Z</time>
      </trkpt>
      <trkpt lat="49.1328" lon="1.61843">
        <ele>101.8</ele>
        <time>2021-09-19T09:32:32Z</time>
      </trkpt>
      <trkpt lat="49.13278" lon="1.6183">
        <ele>102.2</ele>
        <time>2021-09-19T09:32:34Z</time>
      </trkpt>
      <trkpt lat="49.13271" lon="1.61796">
        <ele>102.4</ele>
        <time>2021-09-19T09:32:40Z</time>
      </trkpt>
      <trkpt lat="49.13262" lon="1.61755">
        <ele>103</ele>
        <time>2021-09-19T09:32:47Z</time>
      </trkpt>
      <trkpt lat="49.13261" lon="1.61749">
        <ele>103.2</ele>
        <time>2021-09-19T09:32:48Z</time>
      </trkpt>
      <trkpt lat="49.13257" lon="1.6173">
        <ele>104.2</ele>
        <time>2021-09-19T09:32:51Z</time>
      </trkpt>
      <trkpt lat="49.1325" lon="1.61684">
        <ele>105</ele>
        <time>2021-09-19T09:32:58Z</time>
      </trkpt>
      <trkpt lat="49.13242" lon="1.61639">
        <ele>105.2</ele>
        <time>2021-09-19T09:33:05Z</time>
      </trkpt>
      <trkpt lat="49.1324" lon="1.61633">
        <ele>105.2</ele>
        <time>2021-09-19T09:33:06Z</time>
      </trkpt>
      <trkpt lat="49.13237" lon="1.6162">
        <ele>105.4</ele>
        <time>2021-09-19T09:33:08Z</time>
      </trkpt>
      <trkpt lat="49.13232" lon="1.61592">
        <ele>105.4</ele>
        <time>2021-09-19T09:33:12Z</time>
      </trkpt>
      <trkpt lat="49.13221" lon="1.61533">
        <ele>105.4</ele>
        <time>2021-09-19T09:33:21Z</time>
      </trkpt>
      <trkpt lat="49.13214" lon="1.6148">
        <ele>105.2</ele>
        <time>2021-09-19T09:33:29Z</time>
      </trkpt>
      <trkpt lat="49.1321" lon="1.6143">
        <ele>105.4</ele>
        <time>2021-09-19T09:33:36Z</time>
      </trkpt>
      <trkpt lat="49.13204" lon="1.61372">
        <ele>105.6</ele>
        <time>2021-09-19T09:33:44Z</time>
      </trkpt>
      <trkpt lat="49.13198" lon="1.61318">
        <ele>106</ele>
        <time>2021-09-19T09:33:52Z</time>
      </trkpt>
      <trkpt lat="49.13193" lon="1.613">
        <ele>106.2</ele>
        <time>2021-09-19T09:33:55Z</time>
      </trkpt>
      <trkpt lat="49.13193" lon="1.61286">
        <ele>106.2</ele>
        <time>2021-09-19T09:33:57Z</time>
      </trkpt>
      <trkpt lat="49.13194" lon="1.61273">
        <ele>106.2</ele>
        <time>2021-09-19T09:33:59Z</time>
      </trkpt>
      <trkpt lat="49.13193" lon="1.61252">
        <ele>106.4</ele>
        <time>2021-09-19T09:34:02Z</time>
      </trkpt>
      <trkpt lat="49.1319" lon="1.61247">
        <ele>106.4</ele>
        <time>2021-09-19T09:34:03Z</time>
      </trkpt>
      <trkpt lat="49.13176" lon="1.61245">
        <ele>106.6</ele>
        <time>2021-09-19T09:34:06Z</time>
      </trkpt>
      <trkpt lat="49.13134" lon="1.61255">
        <ele>106.8</ele>
        <time>2021-09-19T09:34:14Z</time>
      </trkpt>
      <trkpt lat="49.13079" lon="1.61267">
        <ele>106.8</ele>
        <time>2021-09-19T09:34:24Z</time>
      </trkpt>
      <trkpt lat="49.13033" lon="1.61277">
        <ele>106.6</ele>
        <time>2021-09-19T09:34:32Z</time>
      </trkpt>
      <trkpt lat="49.12978" lon="1.61287">
        <ele>106.4</ele>
        <time>2021-09-19T09:34:42Z</time>
      </trkpt>
      <trkpt lat="49.12972" lon="1.61288">
        <ele>106.4</ele>
        <time>2021-09-19T09:34:43Z</time>
      </trkpt>
      <trkpt lat="49.12935" lon="1.61297">
        <ele>106.6</ele>
        <time>2021-09-19T09:34:50Z</time>
      </trkpt>
      <trkpt lat="49.12918" lon="1.61299">
        <ele>106.6</ele>
        <time>2021-09-19T09:34:54Z</time>
      </trkpt>
      <trkpt lat="49.12915" lon="1.61296">
        <ele>106.6</ele>
        <time>2021-09-19T09:34:55Z</time>
      </trkpt>
      <trkpt lat="49.1291" lon="1.61276">
        <ele>106.8</ele>
        <time>2021-09-19T09:34:59Z</time>
      </trkpt>
      <trkpt lat="49.12908" lon="1.6127">
        <ele>106.8</ele>
        <time>2021-09-19T09:35:00Z</time>
      </trkpt>
      <trkpt lat="49.12905" lon="1.61259">
        <ele>106.6</ele>
        <time>2021-09-19T09:35:02Z</time>
      </trkpt>
      <trkpt lat="49.12898" lon="1.61238">
        <ele>106.6</ele>
        <time>2021-09-19T09:35:06Z</time>
      </trkpt>
      <trkpt lat="49.12887" lon="1.61192">
        <ele>106.8</ele>
        <time>2021-09-19T09:35:13Z</time>
      </trkpt>
      <trkpt lat="49.12887" lon="1.61185">
        <ele>106.8</ele>
        <time>2021-09-19T09:35:14Z</time>
      </trkpt>
      <trkpt lat="49.12884" lon="1.61157">
        <ele>106.6</ele>
        <time>2021-09-19T09:35:18Z</time>
      </trkpt>
      <trkpt lat="49.12884" lon="1.61148">
        <ele>106.6</ele>
        <time>2021-09-19T09:35:19Z</time>
      </trkpt>
      <trkpt lat="49.12886" lon="1.61101">
        <ele>106.6</ele>
        <time>2021-09-19T09:35:24Z</time>
      </trkpt>
      <trkpt lat="49.1289" lon="1.61059">
        <ele>106.4</ele>
        <time>2021-09-19T09:35:29Z</time>
      </trkpt>
      <trkpt lat="49.12898" lon="1.61011">
        <ele>106.2</ele>
        <time>2021-09-19T09:35:35Z</time>
      </trkpt>
      <trkpt lat="49.12904" lon="1.60974">
        <ele>106.2</ele>
        <time>2021-09-19T09:35:40Z</time>
      </trkpt>
      <trkpt lat="49.12905" lon="1.60966">
        <ele>106.2</ele>
        <time>2021-09-19T09:35:41Z</time>
      </trkpt>
      <trkpt lat="49.12902" lon="1.60949">
        <ele>106.2</ele>
        <time>2021-09-19T09:35:44Z</time>
      </trkpt>
      <trkpt lat="49.12902" lon="1.60946">
        <ele>106.4</ele>
        <time>2021-09-19T09:35:48Z</time>
      </trkpt>
      <trkpt lat="49.12902" lon="1.60945">
        <ele>106.6</ele>
        <time>2021-09-19T09:35:51Z</time>
      </trkpt>
      <trkpt lat="49.12902" lon="1.60943">
        <ele>106.8</ele>
        <time>2021-09-19T09:35:53Z</time>
      </trkpt>
      <trkpt lat="49.12901" lon="1.60939">
        <ele>106.8</ele>
        <time>2021-09-19T09:35:55Z</time>
      </trkpt>
      <trkpt lat="49.129" lon="1.60938">
        <ele>106.8</ele>
        <time>2021-09-19T09:35:57Z</time>
      </trkpt>
      <trkpt lat="49.12897" lon="1.60936">
        <ele>106.8</ele>
        <time>2021-09-19T09:36:00Z</time>
      </trkpt>
      <trkpt lat="49.1289" lon="1.60935">
        <ele>106.8</ele>
        <time>2021-09-19T09:36:05Z</time>
      </trkpt>
      <trkpt lat="49.12885" lon="1.60934">
        <ele>106.8</ele>
        <time>2021-09-19T09:36:07Z</time>
      </trkpt>
      <trkpt lat="49.12874" lon="1.6093">
        <ele>106.8</ele>
        <time>2021-09-19T09:36:11Z</time>
      </trkpt>
      <trkpt lat="49.12858" lon="1.60926">
        <ele>106.6</ele>
        <time>2021-09-19T09:36:15Z</time>
      </trkpt>
      <trkpt lat="49.12835" lon="1.6092">
        <ele>106.6</ele>
        <time>2021-09-19T09:36:21Z</time>
      </trkpt>
      <trkpt lat="49.12817" lon="1.60913">
        <ele>106.8</ele>
        <time>2021-09-19T09:36:26Z</time>
      </trkpt>
      <trkpt lat="49.12807" lon="1.60912">
        <ele>107.2</ele>
        <time>2021-09-19T09:36:29Z</time>
      </trkpt>
      <trkpt lat="49.128" lon="1.60911">
        <ele>107.6</ele>
        <time>2021-09-19T09:36:31Z</time>
      </trkpt>
      <trkpt lat="49.12781" lon="1.60907">
        <ele>108</ele>
        <time>2021-09-19T09:36:36Z</time>
      </trkpt>
      <trkpt lat="49.12762" lon="1.60904">
        <ele>108.2</ele>
        <time>2021-09-19T09:36:41Z</time>
      </trkpt>
      <trkpt lat="49.12754" lon="1.60902">
        <ele>108.4</ele>
        <time>2021-09-19T09:36:43Z</time>
      </trkpt>
      <trkpt lat="49.12732" lon="1.60901">
        <ele>108.6</ele>
        <time>2021-09-19T09:36:48Z</time>
      </trkpt>
      <trkpt lat="49.12724" lon="1.60899">
        <ele>108.6</ele>
        <time>2021-09-19T09:36:50Z</time>
      </trkpt>
      <trkpt lat="49.12716" lon="1.60896">
        <ele>108.6</ele>
        <time>2021-09-19T09:36:52Z</time>
      </trkpt>
      <trkpt lat="49.12689" lon="1.60894">
        <ele>108.6</ele>
        <time>2021-09-19T09:36:57Z</time>
      </trkpt>
      <trkpt lat="49.12684" lon="1.60893">
        <ele>108.6</ele>
        <time>2021-09-19T09:36:58Z</time>
      </trkpt>
      <trkpt lat="49.12669" lon="1.60892">
        <ele>108.4</ele>
        <time>2021-09-19T09:37:01Z</time>
      </trkpt>
      <trkpt lat="49.12652" lon="1.60893">
        <ele>107.8</ele>
        <time>2021-09-19T09:37:06Z</time>
      </trkpt>
      <trkpt lat="49.12635" lon="1.60897">
        <ele>107.6</ele>
        <time>2021-09-19T09:37:09Z</time>
      </trkpt>
      <trkpt lat="49.12598" lon="1.60903">
        <ele>107.4</ele>
        <time>2021-09-19T09:37:15Z</time>
      </trkpt>
      <trkpt lat="49.12592" lon="1.60903">
        <ele>107.2</ele>
        <time>2021-09-19T09:37:16Z</time>
      </trkpt>
      <trkpt lat="49.12585" lon="1.60902">
        <ele>106.6</ele>
        <time>2021-09-19T09:37:17Z</time>
      </trkpt>
      <trkpt lat="49.12579" lon="1.60901">
        <ele>105.8</ele>
        <time>2021-09-19T09:37:18Z</time>
      </trkpt>
      <trkpt lat="49.12572" lon="1.60901">
        <ele>105.4</ele>
        <time>2021-09-19T09:37:19Z</time>
      </trkpt>
      <trkpt lat="49.12558" lon="1.60902">
        <ele>104.8</ele>
        <time>2021-09-19T09:37:21Z</time>
      </trkpt>
      <trkpt lat="49.12518" lon="1.60908">
        <ele>104.2</ele>
        <time>2021-09-19T09:37:26Z</time>
      </trkpt>
      <trkpt lat="49.12488" lon="1.60912">
        <ele>102.8</ele>
        <time>2021-09-19T09:37:30Z</time>
      </trkpt>
      <trkpt lat="49.12481" lon="1.60912">
        <ele>102.2</ele>
        <time>2021-09-19T09:37:31Z</time>
      </trkpt>
      <trkpt lat="49.12472" lon="1.60914">
        <ele>101.4</ele>
        <time>2021-09-19T09:37:33Z</time>
      </trkpt>
      <trkpt lat="49.1247" lon="1.60914">
        <ele>100.8</ele>
        <time>2021-09-19T09:37:34Z</time>
      </trkpt>
      <trkpt lat="49.12468" lon="1.60914">
        <ele>100.4</ele>
        <time>2021-09-19T09:37:35Z</time>
      </trkpt>
      <trkpt lat="49.12468" lon="1.60914">
        <ele>99.8</ele>
        <time>2021-09-19T09:37:36Z</time>
      </trkpt>
      <trkpt lat="49.12467" lon="1.60914">
        <ele>99.2</ele>
        <time>2021-09-19T09:37:37Z</time>
      </trkpt>
      <trkpt lat="49.12464" lon="1.60914">
        <ele>97.4</ele>
        <time>2021-09-19T09:37:42Z</time>
      </trkpt>
      <trkpt lat="49.12457" lon="1.60913">
        <ele>97</ele>
        <time>2021-09-19T09:37:51Z</time>
      </trkpt>
      <trkpt lat="49.12455" lon="1.60913">
        <ele>96.8</ele>
        <time>2021-09-19T09:37:59Z</time>
      </trkpt>
      <trkpt lat="49.12443" lon="1.60914">
        <ele>96.4</ele>
        <time>2021-09-19T09:38:04Z</time>
      </trkpt>
      <trkpt lat="49.12439" lon="1.60914">
        <ele>96.4</ele>
        <time>2021-09-19T09:38:05Z</time>
      </trkpt>
      <trkpt lat="49.12425" lon="1.60915">
        <ele>96.2</ele>
        <time>2021-09-19T09:38:08Z</time>
      </trkpt>
      <trkpt lat="49.12418" lon="1.60916">
        <ele>96.2</ele>
        <time>2021-09-19T09:38:09Z</time>
      </trkpt>
      <trkpt lat="49.12405" lon="1.60917">
        <ele>96</ele>
        <time>2021-09-19T09:38:11Z</time>
      </trkpt>
      <trkpt lat="49.12392" lon="1.60918">
        <ele>95.4</ele>
        <time>2021-09-19T09:38:13Z</time>
      </trkpt>
      <trkpt lat="49.12385" lon="1.60919">
        <ele>95.2</ele>
        <time>2021-09-19T09:38:14Z</time>
      </trkpt>
      <trkpt lat="49.12364" lon="1.60924">
        <ele>94</ele>
        <time>2021-09-19T09:38:17Z</time>
      </trkpt>
      <trkpt lat="49.12357" lon="1.60925">
        <ele>93.6</ele>
        <time>2021-09-19T09:38:18Z</time>
      </trkpt>
      <trkpt lat="49.12336" lon="1.60928">
        <ele>92.8</ele>
        <time>2021-09-19T09:38:21Z</time>
      </trkpt>
      <trkpt lat="49.12323" lon="1.60932">
        <ele>92.4</ele>
        <time>2021-09-19T09:38:23Z</time>
      </trkpt>
      <trkpt lat="49.12294" lon="1.60937">
        <ele>92.4</ele>
        <time>2021-09-19T09:38:28Z</time>
      </trkpt>
      <trkpt lat="49.12268" lon="1.60935">
        <ele>93</ele>
        <time>2021-09-19T09:38:34Z</time>
      </trkpt>
      <trkpt lat="49.12261" lon="1.60937">
        <ele>93.8</ele>
        <time>2021-09-19T09:38:36Z</time>
      </trkpt>
      <trkpt lat="49.12247" lon="1.6094">
        <ele>94.8</ele>
        <time>2021-09-19T09:38:40Z</time>
      </trkpt>
      <trkpt lat="49.12244" lon="1.60942">
        <ele>95</ele>
        <time>2021-09-19T09:38:41Z</time>
      </trkpt>
      <trkpt lat="49.12232" lon="1.60947">
        <ele>96.2</ele>
        <time>2021-09-19T09:38:45Z</time>
      </trkpt>
      <trkpt lat="49.12219" lon="1.60949">
        <ele>97.2</ele>
        <time>2021-09-19T09:38:49Z</time>
      </trkpt>
      <trkpt lat="49.12213" lon="1.60949">
        <ele>97.8</ele>
        <time>2021-09-19T09:38:51Z</time>
      </trkpt>
      <trkpt lat="49.12203" lon="1.60949">
        <ele>98.4</ele>
        <time>2021-09-19T09:38:54Z</time>
      </trkpt>
      <trkpt lat="49.12193" lon="1.6095">
        <ele>99.2</ele>
        <time>2021-09-19T09:38:58Z</time>
      </trkpt>
      <trkpt lat="49.12188" lon="1.60952">
        <ele>99.4</ele>
        <time>2021-09-19T09:39:00Z</time>
      </trkpt>
      <trkpt lat="49.12177" lon="1.60953">
        <ele>100.6</ele>
        <time>2021-09-19T09:39:04Z</time>
      </trkpt>
      <trkpt lat="49.12174" lon="1.60952">
        <ele>101</ele>
        <time>2021-09-19T09:39:05Z</time>
      </trkpt>
      <trkpt lat="49.1216" lon="1.60949">
        <ele>101.6</ele>
        <time>2021-09-19T09:39:09Z</time>
      </trkpt>
      <trkpt lat="49.12153" lon="1.6095">
        <ele>101.8</ele>
        <time>2021-09-19T09:39:11Z</time>
      </trkpt>
      <trkpt lat="49.12133" lon="1.60952">
        <ele>102</ele>
        <time>2021-09-19T09:39:17Z</time>
      </trkpt>
      <trkpt lat="49.12108" lon="1.6096">
        <ele>102</ele>
        <time>2021-09-19T09:39:23Z</time>
      </trkpt>
      <trkpt lat="49.1209" lon="1.60968">
        <ele>101.4</ele>
        <time>2021-09-19T09:39:28Z</time>
      </trkpt>
      <trkpt lat="49.12072" lon="1.6097">
        <ele>101.4</ele>
        <time>2021-09-19T09:39:32Z</time>
      </trkpt>
      <trkpt lat="49.12044" lon="1.60972">
        <ele>101.8</ele>
        <time>2021-09-19T09:39:38Z</time>
      </trkpt>
      <trkpt lat="49.12038" lon="1.60974">
        <ele>101.8</ele>
        <time>2021-09-19T09:39:39Z</time>
      </trkpt>
      <trkpt lat="49.1202" lon="1.60977">
        <ele>102</ele>
        <time>2021-09-19T09:39:42Z</time>
      </trkpt>
      <trkpt lat="49.1201" lon="1.60979">
        <ele>102</ele>
        <time>2021-09-19T09:39:44Z</time>
      </trkpt>
      <trkpt lat="49.11989" lon="1.60982">
        <ele>102</ele>
        <time>2021-09-19T09:39:48Z</time>
      </trkpt>
      <trkpt lat="49.11961" lon="1.60982">
        <ele>102.4</ele>
        <time>2021-09-19T09:39:53Z</time>
      </trkpt>
      <trkpt lat="49.11951" lon="1.60981">
        <ele>102.4</ele>
        <time>2021-09-19T09:39:55Z</time>
      </trkpt>
      <trkpt lat="49.11939" lon="1.60978">
        <ele>102.4</ele>
        <time>2021-09-19T09:39:57Z</time>
      </trkpt>
      <trkpt lat="49.11922" lon="1.60973">
        <ele>102.2</ele>
        <time>2021-09-19T09:40:00Z</time>
      </trkpt>
      <trkpt lat="49.11909" lon="1.60971">
        <ele>102.2</ele>
        <time>2021-09-19T09:40:02Z</time>
      </trkpt>
      <trkpt lat="49.11868" lon="1.60959">
        <ele>101.4</ele>
        <time>2021-09-19T09:40:09Z</time>
      </trkpt>
      <trkpt lat="49.11851" lon="1.60954">
        <ele>101.2</ele>
        <time>2021-09-19T09:40:12Z</time>
      </trkpt>
      <trkpt lat="49.11837" lon="1.60951">
        <ele>101</ele>
        <time>2021-09-19T09:40:14Z</time>
      </trkpt>
      <trkpt lat="49.11818" lon="1.60942">
        <ele>100.6</ele>
        <time>2021-09-19T09:40:17Z</time>
      </trkpt>
      <trkpt lat="49.11812" lon="1.60938">
        <ele>100.4</ele>
        <time>2021-09-19T09:40:18Z</time>
      </trkpt>
      <trkpt lat="49.11807" lon="1.60933">
        <ele>100.4</ele>
        <time>2021-09-19T09:40:19Z</time>
      </trkpt>
      <trkpt lat="49.11783" lon="1.60917">
        <ele>99.2</ele>
        <time>2021-09-19T09:40:23Z</time>
      </trkpt>
      <trkpt lat="49.11777" lon="1.60913">
        <ele>99</ele>
        <time>2021-09-19T09:40:24Z</time>
      </trkpt>
      <trkpt lat="49.1175" lon="1.60895">
        <ele>98.8</ele>
        <time>2021-09-19T09:40:29Z</time>
      </trkpt>
      <trkpt lat="49.11734" lon="1.60882">
        <ele>99</ele>
        <time>2021-09-19T09:40:32Z</time>
      </trkpt>
      <trkpt lat="49.11724" lon="1.60876">
        <ele>99</ele>
        <time>2021-09-19T09:40:34Z</time>
      </trkpt>
      <trkpt lat="49.11715" lon="1.60869">
        <ele>99</ele>
        <time>2021-09-19T09:40:36Z</time>
      </trkpt>
      <trkpt lat="49.11702" lon="1.6086">
        <ele>99.2</ele>
        <time>2021-09-19T09:40:39Z</time>
      </trkpt>
      <trkpt lat="49.11683" lon="1.60843">
        <ele>100.2</ele>
        <time>2021-09-19T09:40:44Z</time>
      </trkpt>
      <trkpt lat="49.11679" lon="1.60839">
        <ele>100.4</ele>
        <time>2021-09-19T09:40:45Z</time>
      </trkpt>
      <trkpt lat="49.11654" lon="1.60821">
        <ele>101.2</ele>
        <time>2021-09-19T09:40:51Z</time>
      </trkpt>
      <trkpt lat="49.11651" lon="1.60817">
        <ele>101.4</ele>
        <time>2021-09-19T09:40:52Z</time>
      </trkpt>
      <trkpt lat="49.11635" lon="1.60802">
        <ele>101.6</ele>
        <time>2021-09-19T09:40:56Z</time>
      </trkpt>
      <trkpt lat="49.11624" lon="1.60782">
        <ele>101.6</ele>
        <time>2021-09-19T09:40:59Z</time>
      </trkpt>
      <trkpt lat="49.11617" lon="1.60774">
        <ele>101.6</ele>
        <time>2021-09-19T09:41:01Z</time>
      </trkpt>
      <trkpt lat="49.116" lon="1.60758">
        <ele>102.4</ele>
        <time>2021-09-19T09:41:06Z</time>
      </trkpt>
      <trkpt lat="49.11584" lon="1.6074">
        <ele>103.2</ele>
        <time>2021-09-19T09:41:11Z</time>
      </trkpt>
      <trkpt lat="49.11576" lon="1.60732">
        <ele>103.4</ele>
        <time>2021-09-19T09:41:13Z</time>
      </trkpt>
      <trkpt lat="49.1157" lon="1.60723">
        <ele>103.4</ele>
        <time>2021-09-19T09:41:15Z</time>
      </trkpt>
      <trkpt lat="49.11551" lon="1.60698">
        <ele>103.4</ele>
        <time>2021-09-19T09:41:20Z</time>
      </trkpt>
      <trkpt lat="49.11541" lon="1.60688">
        <ele>103.4</ele>
        <time>2021-09-19T09:41:22Z</time>
      </trkpt>
      <trkpt lat="49.11531" lon="1.60675">
        <ele>103.2</ele>
        <time>2021-09-19T09:41:24Z</time>
      </trkpt>
      <trkpt lat="49.11516" lon="1.60662">
        <ele>102.6</ele>
        <time>2021-09-19T09:41:28Z</time>
      </trkpt>
      <trkpt lat="49.11512" lon="1.60662">
        <ele>102.4</ele>
        <time>2021-09-19T09:41:29Z</time>
      </trkpt>
      <trkpt lat="49.11499" lon="1.60661">
        <ele>100.8</ele>
        <time>2021-09-19T09:41:32Z</time>
      </trkpt>
      <trkpt lat="49.11487" lon="1.60659">
        <ele>100.2</ele>
        <time>2021-09-19T09:41:35Z</time>
      </trkpt>
      <trkpt lat="49.1147" lon="1.60655">
        <ele>100.2</ele>
        <time>2021-09-19T09:41:40Z</time>
      </trkpt>
      <trkpt lat="49.11452" lon="1.60653">
        <ele>100.8</ele>
        <time>2021-09-19T09:41:45Z</time>
      </trkpt>
      <trkpt lat="49.1144" lon="1.60655">
        <ele>102</ele>
        <time>2021-09-19T09:41:49Z</time>
      </trkpt>
      <trkpt lat="49.11435" lon="1.60656">
        <ele>102.4</ele>
        <time>2021-09-19T09:41:51Z</time>
      </trkpt>
      <trkpt lat="49.11423" lon="1.60661">
        <ele>103.2</ele>
        <time>2021-09-19T09:41:55Z</time>
      </trkpt>
      <trkpt lat="49.11417" lon="1.60664">
        <ele>103.6</ele>
        <time>2021-09-19T09:41:57Z</time>
      </trkpt>
      <trkpt lat="49.11408" lon="1.60668">
        <ele>104.6</ele>
        <time>2021-09-19T09:42:00Z</time>
      </trkpt>
      <trkpt lat="49.11399" lon="1.60673">
        <ele>105.4</ele>
        <time>2021-09-19T09:42:03Z</time>
      </trkpt>
      <trkpt lat="49.11395" lon="1.60674">
        <ele>105.6</ele>
        <time>2021-09-19T09:42:04Z</time>
      </trkpt>
      <trkpt lat="49.11377" lon="1.60682">
        <ele>106.4</ele>
        <time>2021-09-19T09:42:08Z</time>
      </trkpt>
      <trkpt lat="49.11374" lon="1.60685">
        <ele>106.6</ele>
        <time>2021-09-19T09:42:09Z</time>
      </trkpt>
      <trkpt lat="49.11367" lon="1.6069">
        <ele>106.6</ele>
        <time>2021-09-19T09:42:11Z</time>
      </trkpt>
      <trkpt lat="49.11355" lon="1.607">
        <ele>107</ele>
        <time>2021-09-19T09:42:15Z</time>
      </trkpt>
      <trkpt lat="49.11335" lon="1.60714">
        <ele>107.2</ele>
        <time>2021-09-19T09:42:20Z</time>
      </trkpt>
      <trkpt lat="49.11315" lon="1.60731">
        <ele>107</ele>
        <time>2021-09-19T09:42:24Z</time>
      </trkpt>
      <trkpt lat="49.11272" lon="1.60757">
        <ele>106.8</ele>
        <time>2021-09-19T09:42:30Z</time>
      </trkpt>
      <trkpt lat="49.11253" lon="1.60773">
        <ele>105.6</ele>
        <time>2021-09-19T09:42:33Z</time>
      </trkpt>
      <trkpt lat="49.11247" lon="1.60778">
        <ele>105</ele>
        <time>2021-09-19T09:42:34Z</time>
      </trkpt>
      <trkpt lat="49.1124" lon="1.60782">
        <ele>104.4</ele>
        <time>2021-09-19T09:42:35Z</time>
      </trkpt>
      <trkpt lat="49.11233" lon="1.60786">
        <ele>103.8</ele>
        <time>2021-09-19T09:42:36Z</time>
      </trkpt>
      <trkpt lat="49.11217" lon="1.60792">
        <ele>103</ele>
        <time>2021-09-19T09:42:38Z</time>
      </trkpt>
      <trkpt lat="49.11201" lon="1.60795">
        <ele>102.4</ele>
        <time>2021-09-19T09:42:40Z</time>
      </trkpt>
      <trkpt lat="49.11182" lon="1.60797">
        <ele>101.8</ele>
        <time>2021-09-19T09:42:42Z</time>
      </trkpt>
      <trkpt lat="49.11152" lon="1.60794">
        <ele>100.8</ele>
        <time>2021-09-19T09:42:45Z</time>
      </trkpt>
      <trkpt lat="49.11133" lon="1.60791">
        <ele>99.4</ele>
        <time>2021-09-19T09:42:47Z</time>
      </trkpt>
      <trkpt lat="49.11124" lon="1.6079">
        <ele>97.8</ele>
        <time>2021-09-19T09:42:48Z</time>
      </trkpt>
      <trkpt lat="49.11106" lon="1.60787">
        <ele>96</ele>
        <time>2021-09-19T09:42:50Z</time>
      </trkpt>
      <trkpt lat="49.11098" lon="1.60787">
        <ele>95</ele>
        <time>2021-09-19T09:42:51Z</time>
      </trkpt>
      <trkpt lat="49.1109" lon="1.60786">
        <ele>94</ele>
        <time>2021-09-19T09:42:52Z</time>
      </trkpt>
      <trkpt lat="49.11075" lon="1.60783">
        <ele>92.4</ele>
        <time>2021-09-19T09:42:54Z</time>
      </trkpt>
      <trkpt lat="49.1107" lon="1.60783">
        <ele>91.6</ele>
        <time>2021-09-19T09:42:55Z</time>
      </trkpt>
      <trkpt lat="49.11066" lon="1.60781">
        <ele>90.8</ele>
        <time>2021-09-19T09:42:56Z</time>
      </trkpt>
      <trkpt lat="49.11061" lon="1.60778">
        <ele>89.8</ele>
        <time>2021-09-19T09:42:58Z</time>
      </trkpt>
      <trkpt lat="49.11059" lon="1.60774">
        <ele>89.6</ele>
        <time>2021-09-19T09:42:59Z</time>
      </trkpt>
      <trkpt lat="49.11061" lon="1.60764">
        <ele>89.2</ele>
        <time>2021-09-19T09:43:01Z</time>
      </trkpt>
      <trkpt lat="49.11067" lon="1.60721">
        <ele>88.8</ele>
        <time>2021-09-19T09:43:07Z</time>
      </trkpt>
      <trkpt lat="49.11074" lon="1.60688">
        <ele>88.4</ele>
        <time>2021-09-19T09:43:10Z</time>
      </trkpt>
      <trkpt lat="49.11077" lon="1.60675">
        <ele>88</ele>
        <time>2021-09-19T09:43:11Z</time>
      </trkpt>
      <trkpt lat="49.11082" lon="1.60647">
        <ele>87</ele>
        <time>2021-09-19T09:43:13Z</time>
      </trkpt>
      <trkpt lat="49.11085" lon="1.60615">
        <ele>86.2</ele>
        <time>2021-09-19T09:43:15Z</time>
      </trkpt>
      <trkpt lat="49.11086" lon="1.60598">
        <ele>84.2</ele>
        <time>2021-09-19T09:43:16Z</time>
      </trkpt>
      <trkpt lat="49.11086" lon="1.6058">
        <ele>83.2</ele>
        <time>2021-09-19T09:43:17Z</time>
      </trkpt>
      <trkpt lat="49.11086" lon="1.60563">
        <ele>82</ele>
        <time>2021-09-19T09:43:18Z</time>
      </trkpt>
      <trkpt lat="49.11084" lon="1.60546">
        <ele>80.4</ele>
        <time>2021-09-19T09:43:19Z</time>
      </trkpt>
      <trkpt lat="49.11081" lon="1.60531">
        <ele>78.6</ele>
        <time>2021-09-19T09:43:20Z</time>
      </trkpt>
      <trkpt lat="49.11079" lon="1.60517">
        <ele>77</ele>
        <time>2021-09-19T09:43:21Z</time>
      </trkpt>
      <trkpt lat="49.11078" lon="1.60502">
        <ele>75.2</ele>
        <time>2021-09-19T09:43:22Z</time>
      </trkpt>
      <trkpt lat="49.11078" lon="1.60486">
        <ele>73.4</ele>
        <time>2021-09-19T09:43:23Z</time>
      </trkpt>
      <trkpt lat="49.1108" lon="1.60469">
        <ele>71.4</ele>
        <time>2021-09-19T09:43:24Z</time>
      </trkpt>
      <trkpt lat="49.11082" lon="1.60452">
        <ele>69.2</ele>
        <time>2021-09-19T09:43:25Z</time>
      </trkpt>
      <trkpt lat="49.11085" lon="1.60435">
        <ele>67.4</ele>
        <time>2021-09-19T09:43:26Z</time>
      </trkpt>
      <trkpt lat="49.11088" lon="1.60418">
        <ele>65.4</ele>
        <time>2021-09-19T09:43:27Z</time>
      </trkpt>
      <trkpt lat="49.11091" lon="1.604">
        <ele>63.8</ele>
        <time>2021-09-19T09:43:28Z</time>
      </trkpt>
      <trkpt lat="49.11094" lon="1.60382">
        <ele>62.8</ele>
        <time>2021-09-19T09:43:29Z</time>
      </trkpt>
      <trkpt lat="49.11101" lon="1.60346">
        <ele>60.6</ele>
        <time>2021-09-19T09:43:31Z</time>
      </trkpt>
      <trkpt lat="49.11103" lon="1.60328">
        <ele>59</ele>
        <time>2021-09-19T09:43:32Z</time>
      </trkpt>
      <trkpt lat="49.11104" lon="1.60309">
        <ele>57.2</ele>
        <time>2021-09-19T09:43:33Z</time>
      </trkpt>
      <trkpt lat="49.11104" lon="1.60289">
        <ele>55.6</ele>
        <time>2021-09-19T09:43:34Z</time>
      </trkpt>
      <trkpt lat="49.11104" lon="1.6027">
        <ele>54</ele>
        <time>2021-09-19T09:43:35Z</time>
      </trkpt>
      <trkpt lat="49.11104" lon="1.60251">
        <ele>52</ele>
        <time>2021-09-19T09:43:36Z</time>
      </trkpt>
      <trkpt lat="49.11104" lon="1.60234">
        <ele>49.8</ele>
        <time>2021-09-19T09:43:37Z</time>
      </trkpt>
      <trkpt lat="49.11105" lon="1.60219">
        <ele>47.8</ele>
        <time>2021-09-19T09:43:38Z</time>
      </trkpt>
      <trkpt lat="49.11105" lon="1.60204">
        <ele>46</ele>
        <time>2021-09-19T09:43:39Z</time>
      </trkpt>
      <trkpt lat="49.11107" lon="1.60191">
        <ele>44.2</ele>
        <time>2021-09-19T09:43:40Z</time>
      </trkpt>
      <trkpt lat="49.1111" lon="1.60177">
        <ele>42.8</ele>
        <time>2021-09-19T09:43:41Z</time>
      </trkpt>
      <trkpt lat="49.11115" lon="1.60164">
        <ele>41.4</ele>
        <time>2021-09-19T09:43:42Z</time>
      </trkpt>
      <trkpt lat="49.11119" lon="1.60152">
        <ele>38.4</ele>
        <time>2021-09-19T09:43:43Z</time>
      </trkpt>
      <trkpt lat="49.11122" lon="1.6014">
        <ele>36.8</ele>
        <time>2021-09-19T09:43:44Z</time>
      </trkpt>
      <trkpt lat="49.11123" lon="1.6013">
        <ele>35.4</ele>
        <time>2021-09-19T09:43:45Z</time>
      </trkpt>
      <trkpt lat="49.11122" lon="1.60124">
        <ele>34.4</ele>
        <time>2021-09-19T09:43:46Z</time>
      </trkpt>
      <trkpt lat="49.11122" lon="1.60121">
        <ele>33.2</ele>
        <time>2021-09-19T09:43:47Z</time>
      </trkpt>
      <trkpt lat="49.11121" lon="1.60118">
        <ele>31.6</ele>
        <time>2021-09-19T09:43:48Z</time>
      </trkpt>
      <trkpt lat="49.11119" lon="1.60116">
        <ele>30.2</ele>
        <time>2021-09-19T09:43:49Z</time>
      </trkpt>
      <trkpt lat="49.11117" lon="1.60114">
        <ele>28.8</ele>
        <time>2021-09-19T09:43:50Z</time>
      </trkpt>
      <trkpt lat="49.11115" lon="1.60114">
        <ele>27.4</ele>
        <time>2021-09-19T09:43:51Z</time>
      </trkpt>
      <trkpt lat="49.11112" lon="1.60114">
        <ele>26.2</ele>
        <time>2021-09-19T09:43:52Z</time>
      </trkpt>
      <trkpt lat="49.1111" lon="1.60113">
        <ele>25.8</ele>
        <time>2021-09-19T09:43:53Z</time>
      </trkpt>
      <trkpt lat="49.11101" lon="1.60112">
        <ele>25.2</ele>
        <time>2021-09-19T09:43:56Z</time>
      </trkpt>
      <trkpt lat="49.11092" lon="1.6011">
        <ele>25.2</ele>
        <time>2021-09-19T09:43:59Z</time>
      </trkpt>
      <trkpt lat="49.11071" lon="1.60106">
        <ele>25.2</ele>
        <time>2021-09-19T09:44:05Z</time>
      </trkpt>
      <trkpt lat="49.11051" lon="1.60103">
        <ele>25.2</ele>
        <time>2021-09-19T09:44:11Z</time>
      </trkpt>
      <trkpt lat="49.11036" lon="1.60104">
        <ele>25</ele>
        <time>2021-09-19T09:44:16Z</time>
      </trkpt>
      <trkpt lat="49.11025" lon="1.60113">
        <ele>24.8</ele>
        <time>2021-09-19T09:44:20Z</time>
      </trkpt>
      <trkpt lat="49.11002" lon="1.6013">
        <ele>24.8</ele>
        <time>2021-09-19T09:44:28Z</time>
      </trkpt>
      <trkpt lat="49.10976" lon="1.60138">
        <ele>25</ele>
        <time>2021-09-19T09:44:34Z</time>
      </trkpt>
      <trkpt lat="49.10965" lon="1.60141">
        <ele>25</ele>
        <time>2021-09-19T09:44:36Z</time>
      </trkpt>
      <trkpt lat="49.10955" lon="1.60142">
        <ele>25</ele>
        <time>2021-09-19T09:44:38Z</time>
      </trkpt>
      <trkpt lat="49.1095" lon="1.60143">
        <ele>25</ele>
        <time>2021-09-19T09:44:39Z</time>
      </trkpt>
      <trkpt lat="49.10923" lon="1.60138">
        <ele>24.2</ele>
        <time>2021-09-19T09:44:44Z</time>
      </trkpt>
      <trkpt lat="49.10918" lon="1.60137">
        <ele>24</ele>
        <time>2021-09-19T09:44:45Z</time>
      </trkpt>
      <trkpt lat="49.10876" lon="1.60121">
        <ele>23.2</ele>
        <time>2021-09-19T09:44:53Z</time>
      </trkpt>
      <trkpt lat="49.1084" lon="1.60114">
        <ele>23</ele>
        <time>2021-09-19T09:44:59Z</time>
      </trkpt>
      <trkpt lat="49.10834" lon="1.60113">
        <ele>23</ele>
        <time>2021-09-19T09:45:00Z</time>
      </trkpt>
      <trkpt lat="49.10823" lon="1.60111">
        <ele>23</ele>
        <time>2021-09-19T09:45:02Z</time>
      </trkpt>
      <trkpt lat="49.10806" lon="1.60108">
        <ele>22.8</ele>
        <time>2021-09-19T09:45:05Z</time>
      </trkpt>
      <trkpt lat="49.10801" lon="1.60096">
        <ele>22.6</ele>
        <time>2021-09-19T09:45:07Z</time>
      </trkpt>
      <trkpt lat="49.10801" lon="1.6008">
        <ele>22.2</ele>
        <time>2021-09-19T09:45:09Z</time>
      </trkpt>
      <trkpt lat="49.10802" lon="1.60058">
        <ele>22</ele>
        <time>2021-09-19T09:45:12Z</time>
      </trkpt>
      <trkpt lat="49.10802" lon="1.60035">
        <ele>21.8</ele>
        <time>2021-09-19T09:45:15Z</time>
      </trkpt>
      <trkpt lat="49.10803" lon="1.59956">
        <ele>21</ele>
        <time>2021-09-19T09:45:26Z</time>
      </trkpt>
      <trkpt lat="49.10804" lon="1.59907">
        <ele>21.4</ele>
        <time>2021-09-19T09:45:34Z</time>
      </trkpt>
      <trkpt lat="49.10804" lon="1.59876">
        <ele>23</ele>
        <time>2021-09-19T09:45:41Z</time>
      </trkpt>
      <trkpt lat="49.10804" lon="1.59872">
        <ele>23.2</ele>
        <time>2021-09-19T09:45:42Z</time>
      </trkpt>
      <trkpt lat="49.10803" lon="1.59859">
        <ele>24.2</ele>
        <time>2021-09-19T09:45:46Z</time>
      </trkpt>
      <trkpt lat="49.10803" lon="1.59852">
        <ele>24.8</ele>
        <time>2021-09-19T09:45:48Z</time>
      </trkpt>
      <trkpt lat="49.10803" lon="1.59846">
        <ele>25.4</ele>
        <time>2021-09-19T09:45:50Z</time>
      </trkpt>
      <trkpt lat="49.10804" lon="1.59834">
        <ele>26.4</ele>
        <time>2021-09-19T09:45:54Z</time>
      </trkpt>
      <trkpt lat="49.10804" lon="1.59828">
        <ele>26.8</ele>
        <time>2021-09-19T09:45:56Z</time>
      </trkpt>
      <trkpt lat="49.10804" lon="1.5982">
        <ele>27.6</ele>
        <time>2021-09-19T09:45:59Z</time>
      </trkpt>
      <trkpt lat="49.10804" lon="1.59811">
        <ele>29</ele>
        <time>2021-09-19T09:46:03Z</time>
      </trkpt>
      <trkpt lat="49.10804" lon="1.59808">
        <ele>29.2</ele>
        <time>2021-09-19T09:46:04Z</time>
      </trkpt>
      <trkpt lat="49.10804" lon="1.59799">
        <ele>30.4</ele>
        <time>2021-09-19T09:46:08Z</time>
      </trkpt>
      <trkpt lat="49.10804" lon="1.5979">
        <ele>31.4</ele>
        <time>2021-09-19T09:46:12Z</time>
      </trkpt>
      <trkpt lat="49.10804" lon="1.59788">
        <ele>31.6</ele>
        <time>2021-09-19T09:46:13Z</time>
      </trkpt>
      <trkpt lat="49.10804" lon="1.59776">
        <ele>32.6</ele>
        <time>2021-09-19T09:46:18Z</time>
      </trkpt>
      <trkpt lat="49.10804" lon="1.59761">
        <ele>33.6</ele>
        <time>2021-09-19T09:46:24Z</time>
      </trkpt>
      <trkpt lat="49.10803" lon="1.59749">
        <ele>34.8</ele>
        <time>2021-09-19T09:46:29Z</time>
      </trkpt>
      <trkpt lat="49.10804" lon="1.5974">
        <ele>35.6</ele>
        <time>2021-09-19T09:46:33Z</time>
      </trkpt>
      <trkpt lat="49.10802" lon="1.59739">
        <ele>35.8</ele>
        <time>2021-09-19T09:46:34Z</time>
      </trkpt>
      <trkpt lat="49.10796" lon="1.59738">
        <ele>36</ele>
        <time>2021-09-19T09:46:37Z</time>
      </trkpt>
      <trkpt lat="49.10784" lon="1.59733">
        <ele>36.6</ele>
        <time>2021-09-19T09:46:42Z</time>
      </trkpt>
      <trkpt lat="49.10779" lon="1.59727">
        <ele>36.8</ele>
        <time>2021-09-19T09:46:45Z</time>
      </trkpt>
      <trkpt lat="49.10771" lon="1.59718">
        <ele>37</ele>
        <time>2021-09-19T09:46:49Z</time>
      </trkpt>
      <trkpt lat="49.10753" lon="1.59704">
        <ele>37.2</ele>
        <time>2021-09-19T09:46:56Z</time>
      </trkpt>
      <trkpt lat="49.10741" lon="1.59694">
        <ele>37.8</ele>
        <time>2021-09-19T09:47:01Z</time>
      </trkpt>
      <trkpt lat="49.10735" lon="1.59689">
        <ele>38.2</ele>
        <time>2021-09-19T09:47:03Z</time>
      </trkpt>
      <trkpt lat="49.1072" lon="1.59674">
        <ele>38.8</ele>
        <time>2021-09-19T09:47:09Z</time>
      </trkpt>
      <trkpt lat="49.10712" lon="1.59666">
        <ele>39</ele>
        <time>2021-09-19T09:47:12Z</time>
      </trkpt>
      <trkpt lat="49.10694" lon="1.5965">
        <ele>39.8</ele>
        <time>2021-09-19T09:47:19Z</time>
      </trkpt>
      <trkpt lat="49.10692" lon="1.59647">
        <ele>40</ele>
        <time>2021-09-19T09:47:20Z</time>
      </trkpt>
      <trkpt lat="49.10681" lon="1.59639">
        <ele>41</ele>
        <time>2021-09-19T09:47:24Z</time>
      </trkpt>
      <trkpt lat="49.1067" lon="1.59633">
        <ele>42</ele>
        <time>2021-09-19T09:47:28Z</time>
      </trkpt>
      <trkpt lat="49.10668" lon="1.59631">
        <ele>42</ele>
        <time>2021-09-19T09:47:29Z</time>
      </trkpt>
      <trkpt lat="49.1065" lon="1.59623">
        <ele>42.8</ele>
        <time>2021-09-19T09:47:35Z</time>
      </trkpt>
      <trkpt lat="49.10647" lon="1.59621">
        <ele>42.8</ele>
        <time>2021-09-19T09:47:36Z</time>
      </trkpt>
      <trkpt lat="49.10621" lon="1.59608">
        <ele>43.6</ele>
        <time>2021-09-19T09:47:44Z</time>
      </trkpt>
      <trkpt lat="49.10614" lon="1.59602">
        <ele>44</ele>
        <time>2021-09-19T09:47:46Z</time>
      </trkpt>
      <trkpt lat="49.10603" lon="1.59592">
        <ele>44.2</ele>
        <time>2021-09-19T09:47:49Z</time>
      </trkpt>
      <trkpt lat="49.10599" lon="1.59588">
        <ele>44.2</ele>
        <time>2021-09-19T09:47:50Z</time>
      </trkpt>
      <trkpt lat="49.10582" lon="1.59564">
        <ele>44.2</ele>
        <time>2021-09-19T09:47:54Z</time>
      </trkpt>
      <trkpt lat="49.10573" lon="1.59529">
        <ele>43.4</ele>
        <time>2021-09-19T09:47:58Z</time>
      </trkpt>
      <trkpt lat="49.10571" lon="1.59518">
        <ele>43.2</ele>
        <time>2021-09-19T09:47:59Z</time>
      </trkpt>
      <trkpt lat="49.10568" lon="1.59506">
        <ele>43</ele>
        <time>2021-09-19T09:48:00Z</time>
      </trkpt>
      <trkpt lat="49.1056" lon="1.59473">
        <ele>41.6</ele>
        <time>2021-09-19T09:48:03Z</time>
      </trkpt>
      <trkpt lat="49.10556" lon="1.59453">
        <ele>40.2</ele>
        <time>2021-09-19T09:48:05Z</time>
      </trkpt>
      <trkpt lat="49.1055" lon="1.59434">
        <ele>39.2</ele>
        <time>2021-09-19T09:48:07Z</time>
      </trkpt>
      <trkpt lat="49.10545" lon="1.59416">
        <ele>38.8</ele>
        <time>2021-09-19T09:48:09Z</time>
      </trkpt>
      <trkpt lat="49.10524" lon="1.59354">
        <ele>38.2</ele>
        <time>2021-09-19T09:48:16Z</time>
      </trkpt>
      <trkpt lat="49.10499" lon="1.59303">
        <ele>37.8</ele>
        <time>2021-09-19T09:48:23Z</time>
      </trkpt>
      <trkpt lat="49.10471" lon="1.59258">
        <ele>37.8</ele>
        <time>2021-09-19T09:48:30Z</time>
      </trkpt>
      <trkpt lat="49.10448" lon="1.59209">
        <ele>37.8</ele>
        <time>2021-09-19T09:48:37Z</time>
      </trkpt>
      <trkpt lat="49.10443" lon="1.59193">
        <ele>37.8</ele>
        <time>2021-09-19T09:48:39Z</time>
      </trkpt>
      <trkpt lat="49.10441" lon="1.59186">
        <ele>37.8</ele>
        <time>2021-09-19T09:48:40Z</time>
      </trkpt>
      <trkpt lat="49.10435" lon="1.59163">
        <ele>38</ele>
        <time>2021-09-19T09:48:43Z</time>
      </trkpt>
      <trkpt lat="49.10418" lon="1.59101">
        <ele>38</ele>
        <time>2021-09-19T09:48:52Z</time>
      </trkpt>
      <trkpt lat="49.1041" lon="1.59062">
        <ele>39</ele>
        <time>2021-09-19T09:48:58Z</time>
      </trkpt>
      <trkpt lat="49.10406" lon="1.59043">
        <ele>39.6</ele>
        <time>2021-09-19T09:49:01Z</time>
      </trkpt>
      <trkpt lat="49.10403" lon="1.59024">
        <ele>40.2</ele>
        <time>2021-09-19T09:49:04Z</time>
      </trkpt>
      <trkpt lat="49.10396" lon="1.58978">
        <ele>40.4</ele>
        <time>2021-09-19T09:49:11Z</time>
      </trkpt>
      <trkpt lat="49.10393" lon="1.5894">
        <ele>41.2</ele>
        <time>2021-09-19T09:49:17Z</time>
      </trkpt>
      <trkpt lat="49.10391" lon="1.58921">
        <ele>41.4</ele>
        <time>2021-09-19T09:49:20Z</time>
      </trkpt>
      <trkpt lat="49.10389" lon="1.58903">
        <ele>41.6</ele>
        <time>2021-09-19T09:49:23Z</time>
      </trkpt>
      <trkpt lat="49.10389" lon="1.58884">
        <ele>42</ele>
        <time>2021-09-19T09:49:26Z</time>
      </trkpt>
      <trkpt lat="49.10389" lon="1.58871">
        <ele>42.4</ele>
        <time>2021-09-19T09:49:28Z</time>
      </trkpt>
      <trkpt lat="49.10391" lon="1.58847">
        <ele>43.4</ele>
        <time>2021-09-19T09:49:32Z</time>
      </trkpt>
      <trkpt lat="49.10392" lon="1.5883">
        <ele>43.6</ele>
        <time>2021-09-19T09:49:35Z</time>
      </trkpt>
      <trkpt lat="49.10398" lon="1.58784">
        <ele>43.8</ele>
        <time>2021-09-19T09:49:43Z</time>
      </trkpt>
      <trkpt lat="49.10404" lon="1.58741">
        <ele>44</ele>
        <time>2021-09-19T09:49:51Z</time>
      </trkpt>
      <trkpt lat="49.10405" lon="1.58736">
        <ele>44.2</ele>
        <time>2021-09-19T09:49:52Z</time>
      </trkpt>
      <trkpt lat="49.10411" lon="1.58709">
        <ele>44.6</ele>
        <time>2021-09-19T09:49:58Z</time>
      </trkpt>
      <trkpt lat="49.10414" lon="1.5869">
        <ele>45.4</ele>
        <time>2021-09-19T09:50:02Z</time>
      </trkpt>
      <trkpt lat="49.10415" lon="1.5868">
        <ele>45.8</ele>
        <time>2021-09-19T09:50:04Z</time>
      </trkpt>
      <trkpt lat="49.10417" lon="1.58666">
        <ele>46.6</ele>
        <time>2021-09-19T09:50:07Z</time>
      </trkpt>
      <trkpt lat="49.1042" lon="1.58641">
        <ele>47</ele>
        <time>2021-09-19T09:50:12Z</time>
      </trkpt>
      <trkpt lat="49.10424" lon="1.58621">
        <ele>47.6</ele>
        <time>2021-09-19T09:50:16Z</time>
      </trkpt>
      <trkpt lat="49.10428" lon="1.58599">
        <ele>47.8</ele>
        <time>2021-09-19T09:50:20Z</time>
      </trkpt>
      <trkpt lat="49.10435" lon="1.58554">
        <ele>48.2</ele>
        <time>2021-09-19T09:50:29Z</time>
      </trkpt>
      <trkpt lat="49.1044" lon="1.58524">
        <ele>48.4</ele>
        <time>2021-09-19T09:50:35Z</time>
      </trkpt>
      <trkpt lat="49.10441" lon="1.58514">
        <ele>48.8</ele>
        <time>2021-09-19T09:50:37Z</time>
      </trkpt>
      <trkpt lat="49.10446" lon="1.58481">
        <ele>49.6</ele>
        <time>2021-09-19T09:50:44Z</time>
      </trkpt>
      <trkpt lat="49.10448" lon="1.58466">
        <ele>49.6</ele>
        <time>2021-09-19T09:50:47Z</time>
      </trkpt>
      <trkpt lat="49.10448" lon="1.58426">
        <ele>50.4</ele>
        <time>2021-09-19T09:50:55Z</time>
      </trkpt>
      <trkpt lat="49.10448" lon="1.58422">
        <ele>50.6</ele>
        <time>2021-09-19T09:50:56Z</time>
      </trkpt>
      <trkpt lat="49.10444" lon="1.58388">
        <ele>51.4</ele>
        <time>2021-09-19T09:51:03Z</time>
      </trkpt>
      <trkpt lat="49.10443" lon="1.58378">
        <ele>51.8</ele>
        <time>2021-09-19T09:51:05Z</time>
      </trkpt>
      <trkpt lat="49.1044" lon="1.5836">
        <ele>52.2</ele>
        <time>2021-09-19T09:51:09Z</time>
      </trkpt>
      <trkpt lat="49.10433" lon="1.5834">
        <ele>52.8</ele>
        <time>2021-09-19T09:51:14Z</time>
      </trkpt>
      <trkpt lat="49.10429" lon="1.58329">
        <ele>53.4</ele>
        <time>2021-09-19T09:51:17Z</time>
      </trkpt>
      <trkpt lat="49.10425" lon="1.58318">
        <ele>54</ele>
        <time>2021-09-19T09:51:20Z</time>
      </trkpt>
      <trkpt lat="49.1042" lon="1.58308">
        <ele>54.4</ele>
        <time>2021-09-19T09:51:23Z</time>
      </trkpt>
      <trkpt lat="49.10413" lon="1.58298">
        <ele>55</ele>
        <time>2021-09-19T09:51:27Z</time>
      </trkpt>
      <trkpt lat="49.10411" lon="1.58295">
        <ele>55.2</ele>
        <time>2021-09-19T09:51:28Z</time>
      </trkpt>
      <trkpt lat="49.10396" lon="1.58271">
        <ele>55.8</ele>
        <time>2021-09-19T09:51:36Z</time>
      </trkpt>
      <trkpt lat="49.10394" lon="1.58268">
        <ele>56</ele>
        <time>2021-09-19T09:51:37Z</time>
      </trkpt>
      <trkpt lat="49.10378" lon="1.58244">
        <ele>57</ele>
        <time>2021-09-19T09:51:45Z</time>
      </trkpt>
      <trkpt lat="49.10358" lon="1.58218">
        <ele>57.8</ele>
        <time>2021-09-19T09:51:54Z</time>
      </trkpt>
      <trkpt lat="49.10351" lon="1.5821">
        <ele>58</ele>
        <time>2021-09-19T09:51:57Z</time>
      </trkpt>
      <trkpt lat="49.10339" lon="1.58196">
        <ele>58.4</ele>
        <time>2021-09-19T09:52:02Z</time>
      </trkpt>
      <trkpt lat="49.10328" lon="1.58183">
        <ele>58.8</ele>
        <time>2021-09-19T09:52:07Z</time>
      </trkpt>
      <trkpt lat="49.10322" lon="1.58174">
        <ele>59</ele>
        <time>2021-09-19T09:52:10Z</time>
      </trkpt>
      <trkpt lat="49.10309" lon="1.58155">
        <ele>60</ele>
        <time>2021-09-19T09:52:16Z</time>
      </trkpt>
      <trkpt lat="49.10306" lon="1.58149">
        <ele>60.2</ele>
        <time>2021-09-19T09:52:18Z</time>
      </trkpt>
      <trkpt lat="49.10295" lon="1.5813">
        <ele>60.6</ele>
        <time>2021-09-19T09:52:24Z</time>
      </trkpt>
      <trkpt lat="49.10289" lon="1.5812">
        <ele>61</ele>
        <time>2021-09-19T09:52:28Z</time>
      </trkpt>
      <trkpt lat="49.10285" lon="1.58115">
        <ele>61.2</ele>
        <time>2021-09-19T09:52:30Z</time>
      </trkpt>
      <trkpt lat="49.10283" lon="1.58113">
        <ele>61.4</ele>
        <time>2021-09-19T09:52:31Z</time>
      </trkpt>
      <trkpt lat="49.10277" lon="1.58104">
        <ele>62</ele>
        <time>2021-09-19T09:52:34Z</time>
      </trkpt>
      <trkpt lat="49.10275" lon="1.58099">
        <ele>62</ele>
        <time>2021-09-19T09:52:36Z</time>
      </trkpt>
      <trkpt lat="49.10272" lon="1.58089">
        <ele>62.4</ele>
        <time>2021-09-19T09:52:39Z</time>
      </trkpt>
      <trkpt lat="49.10268" lon="1.58075">
        <ele>63</ele>
        <time>2021-09-19T09:52:43Z</time>
      </trkpt>
      <trkpt lat="49.10267" lon="1.58073">
        <ele>63.2</ele>
        <time>2021-09-19T09:52:44Z</time>
      </trkpt>
      <trkpt lat="49.10258" lon="1.58054">
        <ele>63.6</ele>
        <time>2021-09-19T09:52:50Z</time>
      </trkpt>
      <trkpt lat="49.10252" lon="1.58044">
        <ele>64</ele>
        <time>2021-09-19T09:52:53Z</time>
      </trkpt>
      <trkpt lat="49.10248" lon="1.58038">
        <ele>64.2</ele>
        <time>2021-09-19T09:52:55Z</time>
      </trkpt>
      <trkpt lat="49.1024" lon="1.58024">
        <ele>64.8</ele>
        <time>2021-09-19T09:53:00Z</time>
      </trkpt>
      <trkpt lat="49.10237" lon="1.58019">
        <ele>65</ele>
        <time>2021-09-19T09:53:02Z</time>
      </trkpt>
      <trkpt lat="49.10232" lon="1.58008">
        <ele>65.8</ele>
        <time>2021-09-19T09:53:06Z</time>
      </trkpt>
      <trkpt lat="49.10231" lon="1.58006">
        <ele>66</ele>
        <time>2021-09-19T09:53:07Z</time>
      </trkpt>
      <trkpt lat="49.10227" lon="1.57997">
        <ele>67</ele>
        <time>2021-09-19T09:53:12Z</time>
      </trkpt>
      <trkpt lat="49.10225" lon="1.57989">
        <ele>67.4</ele>
        <time>2021-09-19T09:53:15Z</time>
      </trkpt>
      <trkpt lat="49.10225" lon="1.57985">
        <ele>67.6</ele>
        <time>2021-09-19T09:53:17Z</time>
      </trkpt>
      <trkpt lat="49.10223" lon="1.57977">
        <ele>68</ele>
        <time>2021-09-19T09:53:20Z</time>
      </trkpt>
      <trkpt lat="49.10223" lon="1.57972">
        <ele>68.6</ele>
        <time>2021-09-19T09:53:22Z</time>
      </trkpt>
      <trkpt lat="49.10224" lon="1.5797">
        <ele>68.8</ele>
        <time>2021-09-19T09:53:23Z</time>
      </trkpt>
      <trkpt lat="49.10224" lon="1.57967">
        <ele>69</ele>
        <time>2021-09-19T09:53:24Z</time>
      </trkpt>
      <trkpt lat="49.10225" lon="1.57957">
        <ele>70.2</ele>
        <time>2021-09-19T09:53:28Z</time>
      </trkpt>
      <trkpt lat="49.10226" lon="1.57954">
        <ele>70.2</ele>
        <time>2021-09-19T09:53:29Z</time>
      </trkpt>
      <trkpt lat="49.1023" lon="1.57942">
        <ele>71.2</ele>
        <time>2021-09-19T09:53:34Z</time>
      </trkpt>
      <trkpt lat="49.10231" lon="1.57939">
        <ele>71.6</ele>
        <time>2021-09-19T09:53:35Z</time>
      </trkpt>
      <trkpt lat="49.10234" lon="1.57927">
        <ele>72</ele>
        <time>2021-09-19T09:53:39Z</time>
      </trkpt>
      <trkpt lat="49.10236" lon="1.57918">
        <ele>72.6</ele>
        <time>2021-09-19T09:53:42Z</time>
      </trkpt>
      <trkpt lat="49.1024" lon="1.57907">
        <ele>73.2</ele>
        <time>2021-09-19T09:53:46Z</time>
      </trkpt>
      <trkpt lat="49.10244" lon="1.57899">
        <ele>73.6</ele>
        <time>2021-09-19T09:53:49Z</time>
      </trkpt>
      <trkpt lat="49.10247" lon="1.57891">
        <ele>74.2</ele>
        <time>2021-09-19T09:53:52Z</time>
      </trkpt>
      <trkpt lat="49.10252" lon="1.57879">
        <ele>74.8</ele>
        <time>2021-09-19T09:53:57Z</time>
      </trkpt>
      <trkpt lat="49.10253" lon="1.57877">
        <ele>75</ele>
        <time>2021-09-19T09:53:58Z</time>
      </trkpt>
      <trkpt lat="49.10255" lon="1.57872">
        <ele>75.2</ele>
        <time>2021-09-19T09:54:00Z</time>
      </trkpt>
      <trkpt lat="49.10257" lon="1.57868">
        <ele>75.6</ele>
        <time>2021-09-19T09:54:02Z</time>
      </trkpt>
      <trkpt lat="49.10263" lon="1.57856">
        <ele>76.2</ele>
        <time>2021-09-19T09:54:07Z</time>
      </trkpt>
      <trkpt lat="49.10264" lon="1.57854">
        <ele>76.4</ele>
        <time>2021-09-19T09:54:08Z</time>
      </trkpt>
      <trkpt lat="49.10266" lon="1.57847">
        <ele>76.8</ele>
        <time>2021-09-19T09:54:11Z</time>
      </trkpt>
      <trkpt lat="49.10268" lon="1.57842">
        <ele>77.2</ele>
        <time>2021-09-19T09:54:13Z</time>
      </trkpt>
      <trkpt lat="49.10273" lon="1.57832">
        <ele>78</ele>
        <time>2021-09-19T09:54:17Z</time>
      </trkpt>
      <trkpt lat="49.10275" lon="1.57828">
        <ele>78.2</ele>
        <time>2021-09-19T09:54:19Z</time>
      </trkpt>
      <trkpt lat="49.10275" lon="1.57825">
        <ele>78.4</ele>
        <time>2021-09-19T09:54:20Z</time>
      </trkpt>
      <trkpt lat="49.1028" lon="1.57814">
        <ele>79.4</ele>
        <time>2021-09-19T09:54:25Z</time>
      </trkpt>
      <trkpt lat="49.10286" lon="1.578">
        <ele>80.4</ele>
        <time>2021-09-19T09:54:31Z</time>
      </trkpt>
      <trkpt lat="49.10292" lon="1.57785">
        <ele>81.4</ele>
        <time>2021-09-19T09:54:37Z</time>
      </trkpt>
      <trkpt lat="49.10293" lon="1.57783">
        <ele>81.6</ele>
        <time>2021-09-19T09:54:38Z</time>
      </trkpt>
      <trkpt lat="49.10298" lon="1.57772">
        <ele>82.4</ele>
        <time>2021-09-19T09:54:43Z</time>
      </trkpt>
      <trkpt lat="49.10299" lon="1.5777">
        <ele>82.6</ele>
        <time>2021-09-19T09:54:44Z</time>
      </trkpt>
      <trkpt lat="49.10303" lon="1.5776">
        <ele>83.6</ele>
        <time>2021-09-19T09:54:49Z</time>
      </trkpt>
      <trkpt lat="49.10306" lon="1.57751">
        <ele>84.6</ele>
        <time>2021-09-19T09:54:54Z</time>
      </trkpt>
      <trkpt lat="49.1031" lon="1.57744">
        <ele>85.6</ele>
        <time>2021-09-19T09:54:58Z</time>
      </trkpt>
      <trkpt lat="49.10311" lon="1.57743">
        <ele>85.8</ele>
        <time>2021-09-19T09:54:59Z</time>
      </trkpt>
      <trkpt lat="49.10313" lon="1.57737">
        <ele>86.4</ele>
        <time>2021-09-19T09:55:04Z</time>
      </trkpt>
      <trkpt lat="49.10313" lon="1.57737">
        <ele>86.6</ele>
        <time>2021-09-19T09:55:05Z</time>
      </trkpt>
      <trkpt lat="49.10327" lon="1.57727">
        <ele>94.6</ele>
        <time>2021-09-19T09:55:47Z</time>
      </trkpt>
      <trkpt lat="49.10328" lon="1.57728">
        <ele>95</ele>
        <time>2021-09-19T09:55:52Z</time>
      </trkpt>
      <trkpt lat="49.10337" lon="1.5773">
        <ele>97.8</ele>
        <time>2021-09-19T09:56:18Z</time>
      </trkpt>
      <trkpt lat="49.10339" lon="1.5773">
        <ele>97.8</ele>
        <time>2021-09-19T09:56:20Z</time>
      </trkpt>
      <trkpt lat="49.10341" lon="1.57728">
        <ele>98</ele>
        <time>2021-09-19T09:56:23Z</time>
      </trkpt>
      <trkpt lat="49.10341" lon="1.57726">
        <ele>98</ele>
        <time>2021-09-19T09:56:24Z</time>
      </trkpt>
      <trkpt lat="49.10342" lon="1.57719">
        <ele>98.2</ele>
        <time>2021-09-19T09:56:28Z</time>
      </trkpt>
      <trkpt lat="49.10343" lon="1.57714">
        <ele>99</ele>
        <time>2021-09-19T09:56:30Z</time>
      </trkpt>
      <trkpt lat="49.10343" lon="1.57704">
        <ele>99.6</ele>
        <time>2021-09-19T09:56:32Z</time>
      </trkpt>
      <trkpt lat="49.10342" lon="1.57696">
        <ele>100.2</ele>
        <time>2021-09-19T09:56:34Z</time>
      </trkpt>
      <trkpt lat="49.10345" lon="1.57683">
        <ele>100.8</ele>
        <time>2021-09-19T09:56:37Z</time>
      </trkpt>
      <trkpt lat="49.10352" lon="1.57668">
        <ele>101</ele>
        <time>2021-09-19T09:56:41Z</time>
      </trkpt>
      <trkpt lat="49.10355" lon="1.5765">
        <ele>101</ele>
        <time>2021-09-19T09:56:46Z</time>
      </trkpt>
      <trkpt lat="49.10358" lon="1.57639">
        <ele>101</ele>
        <time>2021-09-19T09:56:49Z</time>
      </trkpt>
      <trkpt lat="49.1036" lon="1.5763">
        <ele>101</ele>
        <time>2021-09-19T09:56:52Z</time>
      </trkpt>
      <trkpt lat="49.10361" lon="1.57624">
        <ele>101.2</ele>
        <time>2021-09-19T09:56:54Z</time>
      </trkpt>
      <trkpt lat="49.10362" lon="1.5762">
        <ele>101.2</ele>
        <time>2021-09-19T09:56:56Z</time>
      </trkpt>
      <trkpt lat="49.10362" lon="1.57617">
        <ele>101.4</ele>
        <time>2021-09-19T09:56:57Z</time>
      </trkpt>
      <trkpt lat="49.10364" lon="1.5761">
        <ele>102.2</ele>
        <time>2021-09-19T09:57:00Z</time>
      </trkpt>
      <trkpt lat="49.10367" lon="1.57601">
        <ele>103.2</ele>
        <time>2021-09-19T09:57:03Z</time>
      </trkpt>
      <trkpt lat="49.10368" lon="1.57599">
        <ele>103.6</ele>
        <time>2021-09-19T09:57:04Z</time>
      </trkpt>
      <trkpt lat="49.1037" lon="1.57587">
        <ele>104.4</ele>
        <time>2021-09-19T09:57:08Z</time>
      </trkpt>
      <trkpt lat="49.10371" lon="1.57581">
        <ele>104.8</ele>
        <time>2021-09-19T09:57:10Z</time>
      </trkpt>
      <trkpt lat="49.10372" lon="1.57578">
        <ele>105</ele>
        <time>2021-09-19T09:57:11Z</time>
      </trkpt>
      <trkpt lat="49.10375" lon="1.57575">
        <ele>105.6</ele>
        <time>2021-09-19T09:57:13Z</time>
      </trkpt>
      <trkpt lat="49.10376" lon="1.57575">
        <ele>105.8</ele>
        <time>2021-09-19T09:57:14Z</time>
      </trkpt>
      <trkpt lat="49.10381" lon="1.57573">
        <ele>106.2</ele>
        <time>2021-09-19T09:57:16Z</time>
      </trkpt>
      <trkpt lat="49.10382" lon="1.57572">
        <ele>106.6</ele>
        <time>2021-09-19T09:57:17Z</time>
      </trkpt>
      <trkpt lat="49.1039" lon="1.57566">
        <ele>107.2</ele>
        <time>2021-09-19T09:57:21Z</time>
      </trkpt>
      <trkpt lat="49.10399" lon="1.57553">
        <ele>107.8</ele>
        <time>2021-09-19T09:57:27Z</time>
      </trkpt>
      <trkpt lat="49.104" lon="1.5755">
        <ele>107.8</ele>
        <time>2021-09-19T09:57:28Z</time>
      </trkpt>
      <trkpt lat="49.10402" lon="1.57535">
        <ele>108.8</ele>
        <time>2021-09-19T09:57:32Z</time>
      </trkpt>
      <trkpt lat="49.10403" lon="1.57531">
        <ele>108.8</ele>
        <time>2021-09-19T09:57:33Z</time>
      </trkpt>
      <trkpt lat="49.10413" lon="1.57495">
        <ele>109.4</ele>
        <time>2021-09-19T09:57:40Z</time>
      </trkpt>
      <trkpt lat="49.10419" lon="1.57461">
        <ele>109.6</ele>
        <time>2021-09-19T09:57:46Z</time>
      </trkpt>
      <trkpt lat="49.10421" lon="1.57441">
        <ele>109.8</ele>
        <time>2021-09-19T09:57:50Z</time>
      </trkpt>
      <trkpt lat="49.10423" lon="1.57423">
        <ele>110.6</ele>
        <time>2021-09-19T09:57:54Z</time>
      </trkpt>
      <trkpt lat="49.10426" lon="1.5741">
        <ele>110.8</ele>
        <time>2021-09-19T09:57:57Z</time>
      </trkpt>
      <trkpt lat="49.10432" lon="1.57388">
        <ele>111.4</ele>
        <time>2021-09-19T09:58:02Z</time>
      </trkpt>
      <trkpt lat="49.10439" lon="1.57365">
        <ele>111.8</ele>
        <time>2021-09-19T09:58:07Z</time>
      </trkpt>
      <trkpt lat="49.10445" lon="1.5734">
        <ele>112.2</ele>
        <time>2021-09-19T09:58:12Z</time>
      </trkpt>
      <trkpt lat="49.10455" lon="1.57301">
        <ele>112.6</ele>
        <time>2021-09-19T09:58:20Z</time>
      </trkpt>
      <trkpt lat="49.10459" lon="1.57286">
        <ele>113.2</ele>
        <time>2021-09-19T09:58:23Z</time>
      </trkpt>
      <trkpt lat="49.10466" lon="1.5726">
        <ele>113.8</ele>
        <time>2021-09-19T09:58:28Z</time>
      </trkpt>
      <trkpt lat="49.10472" lon="1.57239">
        <ele>114.2</ele>
        <time>2021-09-19T09:58:32Z</time>
      </trkpt>
      <trkpt lat="49.10481" lon="1.57206">
        <ele>114.6</ele>
        <time>2021-09-19T09:58:38Z</time>
      </trkpt>
      <trkpt lat="49.10494" lon="1.57155">
        <ele>115</ele>
        <time>2021-09-19T09:58:48Z</time>
      </trkpt>
      <trkpt lat="49.10496" lon="1.57145">
        <ele>115.2</ele>
        <time>2021-09-19T09:58:50Z</time>
      </trkpt>
      <trkpt lat="49.10506" lon="1.57106">
        <ele>116.2</ele>
        <time>2021-09-19T09:58:58Z</time>
      </trkpt>
      <trkpt lat="49.10518" lon="1.57063">
        <ele>117.2</ele>
        <time>2021-09-19T09:59:07Z</time>
      </trkpt>
      <trkpt lat="49.10519" lon="1.57058">
        <ele>117.2</ele>
        <time>2021-09-19T09:59:08Z</time>
      </trkpt>
      <trkpt lat="49.10526" lon="1.57033">
        <ele>117.8</ele>
        <time>2021-09-19T09:59:13Z</time>
      </trkpt>
      <trkpt lat="49.10531" lon="1.57013">
        <ele>118.4</ele>
        <time>2021-09-19T09:59:17Z</time>
      </trkpt>
      <trkpt lat="49.10539" lon="1.56983">
        <ele>118.8</ele>
        <time>2021-09-19T09:59:23Z</time>
      </trkpt>
      <trkpt lat="49.10542" lon="1.56966">
        <ele>119</ele>
        <time>2021-09-19T09:59:27Z</time>
      </trkpt>
      <trkpt lat="49.1054" lon="1.56962">
        <ele>119</ele>
        <time>2021-09-19T09:59:28Z</time>
      </trkpt>
      <trkpt lat="49.1053" lon="1.56956">
        <ele>119.4</ele>
        <time>2021-09-19T09:59:31Z</time>
      </trkpt>
      <trkpt lat="49.10526" lon="1.56955">
        <ele>119.6</ele>
        <time>2021-09-19T09:59:32Z</time>
      </trkpt>
      <trkpt lat="49.10507" lon="1.5695">
        <ele>120.8</ele>
        <time>2021-09-19T09:59:37Z</time>
      </trkpt>
      <trkpt lat="49.10499" lon="1.56947">
        <ele>120.8</ele>
        <time>2021-09-19T09:59:39Z</time>
      </trkpt>
      <trkpt lat="49.10468" lon="1.56935">
        <ele>121</ele>
        <time>2021-09-19T09:59:46Z</time>
      </trkpt>
      <trkpt lat="49.10458" lon="1.56931">
        <ele>120.8</ele>
        <time>2021-09-19T09:59:48Z</time>
      </trkpt>
      <trkpt lat="49.10439" lon="1.56921">
        <ele>120.8</ele>
        <time>2021-09-19T09:59:52Z</time>
      </trkpt>
      <trkpt lat="49.1041" lon="1.569">
        <ele>120.4</ele>
        <time>2021-09-19T09:59:58Z</time>
      </trkpt>
      <trkpt lat="49.10401" lon="1.56891">
        <ele>120.2</ele>
        <time>2021-09-19T10:00:00Z</time>
      </trkpt>
      <trkpt lat="49.10371" lon="1.56852">
        <ele>120</ele>
        <time>2021-09-19T10:00:07Z</time>
      </trkpt>
      <trkpt lat="49.10333" lon="1.56792">
        <ele>120</ele>
        <time>2021-09-19T10:00:17Z</time>
      </trkpt>
      <trkpt lat="49.10329" lon="1.56786">
        <ele>119.8</ele>
        <time>2021-09-19T10:00:18Z</time>
      </trkpt>
      <trkpt lat="49.10294" lon="1.56727">
        <ele>120.4</ele>
        <time>2021-09-19T10:00:27Z</time>
      </trkpt>
      <trkpt lat="49.10268" lon="1.56678">
        <ele>120.4</ele>
        <time>2021-09-19T10:00:34Z</time>
      </trkpt>
      <trkpt lat="49.10242" lon="1.56622">
        <ele>120.2</ele>
        <time>2021-09-19T10:00:42Z</time>
      </trkpt>
      <trkpt lat="49.10237" lon="1.56609">
        <ele>120.2</ele>
        <time>2021-09-19T10:00:44Z</time>
      </trkpt>
      <trkpt lat="49.10229" lon="1.56591">
        <ele>120.2</ele>
        <time>2021-09-19T10:00:47Z</time>
      </trkpt>
      <trkpt lat="49.10209" lon="1.56543">
        <ele>120.4</ele>
        <time>2021-09-19T10:00:54Z</time>
      </trkpt>
      <trkpt lat="49.10201" lon="1.56525">
        <ele>120.4</ele>
        <time>2021-09-19T10:00:57Z</time>
      </trkpt>
      <trkpt lat="49.10199" lon="1.56511">
        <ele>120.4</ele>
        <time>2021-09-19T10:00:59Z</time>
      </trkpt>
      <trkpt lat="49.10209" lon="1.56499">
        <ele>120.4</ele>
        <time>2021-09-19T10:01:02Z</time>
      </trkpt>
      <trkpt lat="49.10241" lon="1.56474">
        <ele>120.2</ele>
        <time>2021-09-19T10:01:10Z</time>
      </trkpt>
      <trkpt lat="49.10271" lon="1.56449">
        <ele>120.6</ele>
        <time>2021-09-19T10:01:18Z</time>
      </trkpt>
      <trkpt lat="49.10302" lon="1.56426">
        <ele>121</ele>
        <time>2021-09-19T10:01:26Z</time>
      </trkpt>
      <trkpt lat="49.10317" lon="1.56413">
        <ele>122.2</ele>
        <time>2021-09-19T10:01:30Z</time>
      </trkpt>
      <trkpt lat="49.10329" lon="1.56401">
        <ele>123.2</ele>
        <time>2021-09-19T10:01:33Z</time>
      </trkpt>
      <trkpt lat="49.10334" lon="1.56398">
        <ele>123.4</ele>
        <time>2021-09-19T10:01:34Z</time>
      </trkpt>
      <trkpt lat="49.10367" lon="1.56371">
        <ele>123.6</ele>
        <time>2021-09-19T10:01:42Z</time>
      </trkpt>
      <trkpt lat="49.10406" lon="1.56334">
        <ele>124.4</ele>
        <time>2021-09-19T10:01:52Z</time>
      </trkpt>
      <trkpt lat="49.1041" lon="1.5633">
        <ele>124.4</ele>
        <time>2021-09-19T10:01:53Z</time>
      </trkpt>
      <trkpt lat="49.1043" lon="1.56301">
        <ele>124.8</ele>
        <time>2021-09-19T10:01:59Z</time>
      </trkpt>
      <trkpt lat="49.10443" lon="1.56281">
        <ele>125.6</ele>
        <time>2021-09-19T10:02:03Z</time>
      </trkpt>
      <trkpt lat="49.10467" lon="1.56247">
        <ele>126.6</ele>
        <time>2021-09-19T10:02:10Z</time>
      </trkpt>
      <trkpt lat="49.105" lon="1.56209">
        <ele>126.8</ele>
        <time>2021-09-19T10:02:19Z</time>
      </trkpt>
      <trkpt lat="49.10537" lon="1.56179">
        <ele>127.8</ele>
        <time>2021-09-19T10:02:28Z</time>
      </trkpt>
      <trkpt lat="49.10541" lon="1.56176">
        <ele>128</ele>
        <time>2021-09-19T10:02:29Z</time>
      </trkpt>
      <trkpt lat="49.1056" lon="1.56162">
        <ele>128</ele>
        <time>2021-09-19T10:02:34Z</time>
      </trkpt>
      <trkpt lat="49.10605" lon="1.56129">
        <ele>128.6</ele>
        <time>2021-09-19T10:02:45Z</time>
      </trkpt>
      <trkpt lat="49.1062" lon="1.5611">
        <ele>128.4</ele>
        <time>2021-09-19T10:02:50Z</time>
      </trkpt>
      <trkpt lat="49.10622" lon="1.56105">
        <ele>128.4</ele>
        <time>2021-09-19T10:02:51Z</time>
      </trkpt>
      <trkpt lat="49.10622" lon="1.56092">
        <ele>128.4</ele>
        <time>2021-09-19T10:02:53Z</time>
      </trkpt>
      <trkpt lat="49.10617" lon="1.5608">
        <ele>128.4</ele>
        <time>2021-09-19T10:02:55Z</time>
      </trkpt>
      <trkpt lat="49.10612" lon="1.56068">
        <ele>128.6</ele>
        <time>2021-09-19T10:02:57Z</time>
      </trkpt>
      <trkpt lat="49.1061" lon="1.56062">
        <ele>128.8</ele>
        <time>2021-09-19T10:02:58Z</time>
      </trkpt>
      <trkpt lat="49.10592" lon="1.56014">
        <ele>129.6</ele>
        <time>2021-09-19T10:03:05Z</time>
      </trkpt>
      <trkpt lat="49.10573" lon="1.55964">
        <ele>129.4</ele>
        <time>2021-09-19T10:03:12Z</time>
      </trkpt>
      <trkpt lat="49.1055" lon="1.55894">
        <ele>128.4</ele>
        <time>2021-09-19T10:03:21Z</time>
      </trkpt>
      <trkpt lat="49.10534" lon="1.55848">
        <ele>128</ele>
        <time>2021-09-19T10:03:27Z</time>
      </trkpt>
      <trkpt lat="49.10517" lon="1.55801">
        <ele>127.8</ele>
        <time>2021-09-19T10:03:33Z</time>
      </trkpt>
      <trkpt lat="49.10509" lon="1.55776">
        <ele>127.6</ele>
        <time>2021-09-19T10:03:36Z</time>
      </trkpt>
      <trkpt lat="49.105" lon="1.55752">
        <ele>126.8</ele>
        <time>2021-09-19T10:03:39Z</time>
      </trkpt>
      <trkpt lat="49.10495" lon="1.55735">
        <ele>126.6</ele>
        <time>2021-09-19T10:03:41Z</time>
      </trkpt>
      <trkpt lat="49.1048" lon="1.55692">
        <ele>126.2</ele>
        <time>2021-09-19T10:03:46Z</time>
      </trkpt>
      <trkpt lat="49.10468" lon="1.55656">
        <ele>125.6</ele>
        <time>2021-09-19T10:03:50Z</time>
      </trkpt>
      <trkpt lat="49.10459" lon="1.5563">
        <ele>124.4</ele>
        <time>2021-09-19T10:03:53Z</time>
      </trkpt>
      <trkpt lat="49.10456" lon="1.5562">
        <ele>124.2</ele>
        <time>2021-09-19T10:03:54Z</time>
      </trkpt>
      <trkpt lat="49.10435" lon="1.55558">
        <ele>123.8</ele>
        <time>2021-09-19T10:04:01Z</time>
      </trkpt>
      <trkpt lat="49.10432" lon="1.55551">
        <ele>123.8</ele>
        <time>2021-09-19T10:04:02Z</time>
      </trkpt>
      <trkpt lat="49.1042" lon="1.55532">
        <ele>123.8</ele>
        <time>2021-09-19T10:04:05Z</time>
      </trkpt>
      <trkpt lat="49.1041" lon="1.55522">
        <ele>124</ele>
        <time>2021-09-19T10:04:07Z</time>
      </trkpt>
      <trkpt lat="49.10394" lon="1.55511">
        <ele>124</ele>
        <time>2021-09-19T10:04:10Z</time>
      </trkpt>
      <trkpt lat="49.10353" lon="1.55484">
        <ele>123.8</ele>
        <time>2021-09-19T10:04:17Z</time>
      </trkpt>
      <trkpt lat="49.10308" lon="1.55455">
        <ele>123.6</ele>
        <time>2021-09-19T10:04:25Z</time>
      </trkpt>
      <trkpt lat="49.10292" lon="1.55446">
        <ele>123.2</ele>
        <time>2021-09-19T10:04:28Z</time>
      </trkpt>
      <trkpt lat="49.10289" lon="1.55433">
        <ele>123</ele>
        <time>2021-09-19T10:04:30Z</time>
      </trkpt>
      <trkpt lat="49.10298" lon="1.55422">
        <ele>122.8</ele>
        <time>2021-09-19T10:04:33Z</time>
      </trkpt>
      <trkpt lat="49.10322" lon="1.55403">
        <ele>122.6</ele>
        <time>2021-09-19T10:04:40Z</time>
      </trkpt>
      <trkpt lat="49.1034" lon="1.5539">
        <ele>122.8</ele>
        <time>2021-09-19T10:04:46Z</time>
      </trkpt>
      <trkpt lat="49.10352" lon="1.55383">
        <ele>123.2</ele>
        <time>2021-09-19T10:04:51Z</time>
      </trkpt>
      <trkpt lat="49.10362" lon="1.55376">
        <ele>123.4</ele>
        <time>2021-09-19T10:04:57Z</time>
      </trkpt>
      <trkpt lat="49.10374" lon="1.55369">
        <ele>123.6</ele>
        <time>2021-09-19T10:05:01Z</time>
      </trkpt>
      <trkpt lat="49.1039" lon="1.55356">
        <ele>123.6</ele>
        <time>2021-09-19T10:05:06Z</time>
      </trkpt>
      <trkpt lat="49.10389" lon="1.55351">
        <ele>123.6</ele>
        <time>2021-09-19T10:05:07Z</time>
      </trkpt>
      <trkpt lat="49.10386" lon="1.55324">
        <ele>123.4</ele>
        <time>2021-09-19T10:05:11Z</time>
      </trkpt>
      <trkpt lat="49.10377" lon="1.5527">
        <ele>122.8</ele>
        <time>2021-09-19T10:05:17Z</time>
      </trkpt>
      <trkpt lat="49.10375" lon="1.55261">
        <ele>122.4</ele>
        <time>2021-09-19T10:05:18Z</time>
      </trkpt>
      <trkpt lat="49.10374" lon="1.55251">
        <ele>122</ele>
        <time>2021-09-19T10:05:19Z</time>
      </trkpt>
      <trkpt lat="49.1037" lon="1.55233">
        <ele>121.2</ele>
        <time>2021-09-19T10:05:21Z</time>
      </trkpt>
      <trkpt lat="49.10367" lon="1.55216">
        <ele>120.8</ele>
        <time>2021-09-19T10:05:23Z</time>
      </trkpt>
      <trkpt lat="49.1036" lon="1.55188">
        <ele>120.2</ele>
        <time>2021-09-19T10:05:26Z</time>
      </trkpt>
      <trkpt lat="49.10357" lon="1.55179">
        <ele>120.2</ele>
        <time>2021-09-19T10:05:27Z</time>
      </trkpt>
      <trkpt lat="49.10348" lon="1.55142">
        <ele>120.2</ele>
        <time>2021-09-19T10:05:31Z</time>
      </trkpt>
      <trkpt lat="49.10343" lon="1.55112">
        <ele>120</ele>
        <time>2021-09-19T10:05:34Z</time>
      </trkpt>
      <trkpt lat="49.1034" lon="1.55103">
        <ele>120</ele>
        <time>2021-09-19T10:05:35Z</time>
      </trkpt>
      <trkpt lat="49.10332" lon="1.55062">
        <ele>120</ele>
        <time>2021-09-19T10:05:39Z</time>
      </trkpt>
      <trkpt lat="49.1032" lon="1.5501">
        <ele>120</ele>
        <time>2021-09-19T10:05:44Z</time>
      </trkpt>
      <trkpt lat="49.10318" lon="1.55001">
        <ele>119.8</ele>
        <time>2021-09-19T10:05:45Z</time>
      </trkpt>
      <trkpt lat="49.10316" lon="1.54992">
        <ele>119.6</ele>
        <time>2021-09-19T10:05:46Z</time>
      </trkpt>
      <trkpt lat="49.10312" lon="1.54975">
        <ele>118.8</ele>
        <time>2021-09-19T10:05:48Z</time>
      </trkpt>
      <trkpt lat="49.1031" lon="1.54966">
        <ele>118.2</ele>
        <time>2021-09-19T10:05:49Z</time>
      </trkpt>
      <trkpt lat="49.10296" lon="1.54911">
        <ele>117.4</ele>
        <time>2021-09-19T10:05:55Z</time>
      </trkpt>
      <trkpt lat="49.10286" lon="1.54878">
        <ele>117.2</ele>
        <time>2021-09-19T10:05:58Z</time>
      </trkpt>
      <trkpt lat="49.10274" lon="1.54842">
        <ele>117</ele>
        <time>2021-09-19T10:06:01Z</time>
      </trkpt>
      <trkpt lat="49.10267" lon="1.5482">
        <ele>116.2</ele>
        <time>2021-09-19T10:06:03Z</time>
      </trkpt>
      <trkpt lat="49.1026" lon="1.54798">
        <ele>114.4</ele>
        <time>2021-09-19T10:06:05Z</time>
      </trkpt>
      <trkpt lat="49.10256" lon="1.54788">
        <ele>113.8</ele>
        <time>2021-09-19T10:06:06Z</time>
      </trkpt>
      <trkpt lat="49.10253" lon="1.54779">
        <ele>113.4</ele>
        <time>2021-09-19T10:06:07Z</time>
      </trkpt>
      <trkpt lat="49.10244" lon="1.54752">
        <ele>113</ele>
        <time>2021-09-19T10:06:10Z</time>
      </trkpt>
      <trkpt lat="49.10241" lon="1.54743">
        <ele>113</ele>
        <time>2021-09-19T10:06:11Z</time>
      </trkpt>
      <trkpt lat="49.10222" lon="1.54681">
        <ele>112.6</ele>
        <time>2021-09-19T10:06:18Z</time>
      </trkpt>
      <trkpt lat="49.10203" lon="1.54617">
        <ele>112.2</ele>
        <time>2021-09-19T10:06:25Z</time>
      </trkpt>
      <trkpt lat="49.102" lon="1.54609">
        <ele>112.2</ele>
        <time>2021-09-19T10:06:26Z</time>
      </trkpt>
      <trkpt lat="49.10179" lon="1.54558">
        <ele>111.8</ele>
        <time>2021-09-19T10:06:33Z</time>
      </trkpt>
      <trkpt lat="49.10155" lon="1.54525">
        <ele>111.8</ele>
        <time>2021-09-19T10:06:39Z</time>
      </trkpt>
      <trkpt lat="49.10125" lon="1.54482">
        <ele>111.6</ele>
        <time>2021-09-19T10:06:46Z</time>
      </trkpt>
      <trkpt lat="49.10109" lon="1.54454">
        <ele>111.4</ele>
        <time>2021-09-19T10:06:51Z</time>
      </trkpt>
      <trkpt lat="49.10096" lon="1.54423">
        <ele>111.2</ele>
        <time>2021-09-19T10:06:56Z</time>
      </trkpt>
      <trkpt lat="49.10085" lon="1.54398">
        <ele>111.2</ele>
        <time>2021-09-19T10:07:00Z</time>
      </trkpt>
      <trkpt lat="49.1008" lon="1.54386">
        <ele>111.2</ele>
        <time>2021-09-19T10:07:02Z</time>
      </trkpt>
      <trkpt lat="49.10065" lon="1.54347">
        <ele>111</ele>
        <time>2021-09-19T10:07:08Z</time>
      </trkpt>
      <trkpt lat="49.10047" lon="1.54297">
        <ele>111</ele>
        <time>2021-09-19T10:07:16Z</time>
      </trkpt>
      <trkpt lat="49.10046" lon="1.54291">
        <ele>111.2</ele>
        <time>2021-09-19T10:07:17Z</time>
      </trkpt>
      <trkpt lat="49.10036" lon="1.54259">
        <ele>111.4</ele>
        <time>2021-09-19T10:07:22Z</time>
      </trkpt>
      <trkpt lat="49.10022" lon="1.54211">
        <ele>111.4</ele>
        <time>2021-09-19T10:07:30Z</time>
      </trkpt>
      <trkpt lat="49.10013" lon="1.54178">
        <ele>110.8</ele>
        <time>2021-09-19T10:07:35Z</time>
      </trkpt>
      <trkpt lat="49.1001" lon="1.54171">
        <ele>110.8</ele>
        <time>2021-09-19T10:07:36Z</time>
      </trkpt>
      <trkpt lat="49.09995" lon="1.5414">
        <ele>110.4</ele>
        <time>2021-09-19T10:07:41Z</time>
      </trkpt>
      <trkpt lat="49.09978" lon="1.54103">
        <ele>110.2</ele>
        <time>2021-09-19T10:07:47Z</time>
      </trkpt>
      <trkpt lat="49.09967" lon="1.54078">
        <ele>110</ele>
        <time>2021-09-19T10:07:51Z</time>
      </trkpt>
      <trkpt lat="49.09952" lon="1.54045">
        <ele>110</ele>
        <time>2021-09-19T10:07:56Z</time>
      </trkpt>
      <trkpt lat="49.09933" lon="1.53999">
        <ele>109.8</ele>
        <time>2021-09-19T10:08:03Z</time>
      </trkpt>
      <trkpt lat="49.09913" lon="1.53941">
        <ele>110</ele>
        <time>2021-09-19T10:08:12Z</time>
      </trkpt>
      <trkpt lat="49.09895" lon="1.53893">
        <ele>110.4</ele>
        <time>2021-09-19T10:08:20Z</time>
      </trkpt>
      <trkpt lat="49.0988" lon="1.53848">
        <ele>110.8</ele>
        <time>2021-09-19T10:08:27Z</time>
      </trkpt>
      <trkpt lat="49.09859" lon="1.5379">
        <ele>111.2</ele>
        <time>2021-09-19T10:08:36Z</time>
      </trkpt>
      <trkpt lat="49.09857" lon="1.53783">
        <ele>111.4</ele>
        <time>2021-09-19T10:08:37Z</time>
      </trkpt>
      <trkpt lat="49.0984" lon="1.53731">
        <ele>112.2</ele>
        <time>2021-09-19T10:08:45Z</time>
      </trkpt>
      <trkpt lat="49.09832" lon="1.53705">
        <ele>112.4</ele>
        <time>2021-09-19T10:08:49Z</time>
      </trkpt>
      <trkpt lat="49.09815" lon="1.53653">
        <ele>113</ele>
        <time>2021-09-19T10:08:57Z</time>
      </trkpt>
      <trkpt lat="49.09807" lon="1.53628">
        <ele>113.2</ele>
        <time>2021-09-19T10:09:01Z</time>
      </trkpt>
      <trkpt lat="49.09802" lon="1.5361">
        <ele>113.4</ele>
        <time>2021-09-19T10:09:04Z</time>
      </trkpt>
      <trkpt lat="49.098" lon="1.53604">
        <ele>113.4</ele>
        <time>2021-09-19T10:09:05Z</time>
      </trkpt>
      <trkpt lat="49.0979" lon="1.53574">
        <ele>113.6</ele>
        <time>2021-09-19T10:09:11Z</time>
      </trkpt>
      <trkpt lat="49.09789" lon="1.5356">
        <ele>113.8</ele>
        <time>2021-09-19T10:09:16Z</time>
      </trkpt>
      <trkpt lat="49.09788" lon="1.53557">
        <ele>113.8</ele>
        <time>2021-09-19T10:09:17Z</time>
      </trkpt>
      <trkpt lat="49.09784" lon="1.53548">
        <ele>114.2</ele>
        <time>2021-09-19T10:09:20Z</time>
      </trkpt>
      <trkpt lat="49.09783" lon="1.53544">
        <ele>114.4</ele>
        <time>2021-09-19T10:09:21Z</time>
      </trkpt>
      <trkpt lat="49.09772" lon="1.53521">
        <ele>115</ele>
        <time>2021-09-19T10:09:27Z</time>
      </trkpt>
      <trkpt lat="49.09758" lon="1.5349">
        <ele>115.2</ele>
        <time>2021-09-19T10:09:34Z</time>
      </trkpt>
      <trkpt lat="49.09737" lon="1.53443">
        <ele>115.4</ele>
        <time>2021-09-19T10:09:44Z</time>
      </trkpt>
      <trkpt lat="49.09735" lon="1.53439">
        <ele>115.4</ele>
        <time>2021-09-19T10:09:45Z</time>
      </trkpt>
      <trkpt lat="49.09721" lon="1.53404">
        <ele>116.4</ele>
        <time>2021-09-19T10:09:52Z</time>
      </trkpt>
      <trkpt lat="49.09718" lon="1.53398">
        <ele>116.6</ele>
        <time>2021-09-19T10:09:53Z</time>
      </trkpt>
      <trkpt lat="49.097" lon="1.53348">
        <ele>117.2</ele>
        <time>2021-09-19T10:10:02Z</time>
      </trkpt>
      <trkpt lat="49.09693" lon="1.5333">
        <ele>117.6</ele>
        <time>2021-09-19T10:10:05Z</time>
      </trkpt>
      <trkpt lat="49.09685" lon="1.53306">
        <ele>117.8</ele>
        <time>2021-09-19T10:10:09Z</time>
      </trkpt>
      <trkpt lat="49.09669" lon="1.53262">
        <ele>117.8</ele>
        <time>2021-09-19T10:10:16Z</time>
      </trkpt>
      <trkpt lat="49.09653" lon="1.53217">
        <ele>117.4</ele>
        <time>2021-09-19T10:10:23Z</time>
      </trkpt>
      <trkpt lat="49.09636" lon="1.53171">
        <ele>116.8</ele>
        <time>2021-09-19T10:10:30Z</time>
      </trkpt>
      <trkpt lat="49.09631" lon="1.53159">
        <ele>116.4</ele>
        <time>2021-09-19T10:10:32Z</time>
      </trkpt>
      <trkpt lat="49.0962" lon="1.53128">
        <ele>116</ele>
        <time>2021-09-19T10:10:37Z</time>
      </trkpt>
      <trkpt lat="49.09614" lon="1.53113">
        <ele>115.6</ele>
        <time>2021-09-19T10:10:41Z</time>
      </trkpt>
      <trkpt lat="49.09615" lon="1.5311">
        <ele>115.6</ele>
        <time>2021-09-19T10:10:42Z</time>
      </trkpt>
      <trkpt lat="49.09618" lon="1.53106">
        <ele>115.6</ele>
        <time>2021-09-19T10:10:44Z</time>
      </trkpt>
      <trkpt lat="49.09625" lon="1.53107">
        <ele>115.6</ele>
        <time>2021-09-19T10:10:46Z</time>
      </trkpt>
      <trkpt lat="49.09633" lon="1.53108">
        <ele>115.6</ele>
        <time>2021-09-19T10:10:48Z</time>
      </trkpt>
      <trkpt lat="49.09654" lon="1.53109">
        <ele>115.4</ele>
        <time>2021-09-19T10:10:53Z</time>
      </trkpt>
      <trkpt lat="49.09658" lon="1.53109">
        <ele>115.4</ele>
        <time>2021-09-19T10:10:54Z</time>
      </trkpt>
      <trkpt lat="49.09684" lon="1.53108">
        <ele>115.4</ele>
        <time>2021-09-19T10:10:59Z</time>
      </trkpt>
      <trkpt lat="49.09715" lon="1.53103">
        <ele>114.6</ele>
        <time>2021-09-19T10:11:04Z</time>
      </trkpt>
      <trkpt lat="49.09727" lon="1.53101">
        <ele>114</ele>
        <time>2021-09-19T10:11:06Z</time>
      </trkpt>
      <trkpt lat="49.09747" lon="1.53098">
        <ele>113.4</ele>
        <time>2021-09-19T10:11:09Z</time>
      </trkpt>
      <trkpt lat="49.09779" lon="1.53094">
        <ele>112.8</ele>
        <time>2021-09-19T10:11:14Z</time>
      </trkpt>
      <trkpt lat="49.09791" lon="1.53093">
        <ele>112.4</ele>
        <time>2021-09-19T10:11:16Z</time>
      </trkpt>
      <trkpt lat="49.09824" lon="1.53091">
        <ele>111.8</ele>
        <time>2021-09-19T10:11:21Z</time>
      </trkpt>
      <trkpt lat="49.0987" lon="1.53089">
        <ele>111.2</ele>
        <time>2021-09-19T10:11:28Z</time>
      </trkpt>
      <trkpt lat="49.09877" lon="1.53089">
        <ele>111</ele>
        <time>2021-09-19T10:11:29Z</time>
      </trkpt>
      <trkpt lat="49.09921" lon="1.53088">
        <ele>110.6</ele>
        <time>2021-09-19T10:11:35Z</time>
      </trkpt>
      <trkpt lat="49.09955" lon="1.53086">
        <ele>109.8</ele>
        <time>2021-09-19T10:11:40Z</time>
      </trkpt>
      <trkpt lat="49.09976" lon="1.53084">
        <ele>109.2</ele>
        <time>2021-09-19T10:11:43Z</time>
      </trkpt>
      <trkpt lat="49.09998" lon="1.5308">
        <ele>108.4</ele>
        <time>2021-09-19T10:11:46Z</time>
      </trkpt>
      <trkpt lat="49.10033" lon="1.53073">
        <ele>107.4</ele>
        <time>2021-09-19T10:11:51Z</time>
      </trkpt>
      <trkpt lat="49.10081" lon="1.53062">
        <ele>106.2</ele>
        <time>2021-09-19T10:11:58Z</time>
      </trkpt>
      <trkpt lat="49.10088" lon="1.53061">
        <ele>106</ele>
        <time>2021-09-19T10:11:59Z</time>
      </trkpt>
      <trkpt lat="49.10121" lon="1.53051">
        <ele>105.6</ele>
        <time>2021-09-19T10:12:05Z</time>
      </trkpt>
      <trkpt lat="49.10123" lon="1.53048">
        <ele>105.6</ele>
        <time>2021-09-19T10:12:06Z</time>
      </trkpt>
      <trkpt lat="49.10122" lon="1.53043">
        <ele>105.4</ele>
        <time>2021-09-19T10:12:07Z</time>
      </trkpt>
      <trkpt lat="49.10112" lon="1.53017">
        <ele>105.4</ele>
        <time>2021-09-19T10:12:11Z</time>
      </trkpt>
      <trkpt lat="49.10105" lon="1.52994">
        <ele>105.4</ele>
        <time>2021-09-19T10:12:15Z</time>
      </trkpt>
      <trkpt lat="49.10104" lon="1.52993">
        <ele>105.4</ele>
        <time>2021-09-19T10:12:16Z</time>
      </trkpt>
      <trkpt lat="49.10102" lon="1.52988">
        <ele>105.2</ele>
        <time>2021-09-19T10:12:19Z</time>
      </trkpt>
      <trkpt lat="49.10101" lon="1.52974">
        <ele>105.2</ele>
        <time>2021-09-19T10:12:24Z</time>
      </trkpt>
      <trkpt lat="49.101" lon="1.5297">
        <ele>105.2</ele>
        <time>2021-09-19T10:12:25Z</time>
      </trkpt>
      <trkpt lat="49.10096" lon="1.52953">
        <ele>105.2</ele>
        <time>2021-09-19T10:12:28Z</time>
      </trkpt>
      <trkpt lat="49.10091" lon="1.52918">
        <ele>105.2</ele>
        <time>2021-09-19T10:12:33Z</time>
      </trkpt>
      <trkpt lat="49.1009" lon="1.5291">
        <ele>105.2</ele>
        <time>2021-09-19T10:12:34Z</time>
      </trkpt>
      <trkpt lat="49.10084" lon="1.52865">
        <ele>105.2</ele>
        <time>2021-09-19T10:12:39Z</time>
      </trkpt>
      <trkpt lat="49.10081" lon="1.52836">
        <ele>105.2</ele>
        <time>2021-09-19T10:12:42Z</time>
      </trkpt>
      <trkpt lat="49.10081" lon="1.52825">
        <ele>105.2</ele>
        <time>2021-09-19T10:12:43Z</time>
      </trkpt>
      <trkpt lat="49.1008" lon="1.52782">
        <ele>104.8</ele>
        <time>2021-09-19T10:12:47Z</time>
      </trkpt>
      <trkpt lat="49.1008" lon="1.52772">
        <ele>104.6</ele>
        <time>2021-09-19T10:12:48Z</time>
      </trkpt>
      <trkpt lat="49.10082" lon="1.52718">
        <ele>104.4</ele>
        <time>2021-09-19T10:12:54Z</time>
      </trkpt>
      <trkpt lat="49.10083" lon="1.5271">
        <ele>104.4</ele>
        <time>2021-09-19T10:12:55Z</time>
      </trkpt>
      <trkpt lat="49.1009" lon="1.52673">
        <ele>104.8</ele>
        <time>2021-09-19T10:12:59Z</time>
      </trkpt>
      <trkpt lat="49.10098" lon="1.52631">
        <ele>104.8</ele>
        <time>2021-09-19T10:13:03Z</time>
      </trkpt>
      <trkpt lat="49.101" lon="1.52609">
        <ele>104.8</ele>
        <time>2021-09-19T10:13:05Z</time>
      </trkpt>
      <trkpt lat="49.10101" lon="1.52578">
        <ele>104.8</ele>
        <time>2021-09-19T10:13:08Z</time>
      </trkpt>
      <trkpt lat="49.10103" lon="1.5254">
        <ele>103.6</ele>
        <time>2021-09-19T10:13:12Z</time>
      </trkpt>
      <trkpt lat="49.10102" lon="1.52519">
        <ele>103.2</ele>
        <time>2021-09-19T10:13:14Z</time>
      </trkpt>
      <trkpt lat="49.10101" lon="1.5249">
        <ele>102.4</ele>
        <time>2021-09-19T10:13:17Z</time>
      </trkpt>
      <trkpt lat="49.10099" lon="1.52456">
        <ele>101.6</ele>
        <time>2021-09-19T10:13:20Z</time>
      </trkpt>
      <trkpt lat="49.10099" lon="1.52421">
        <ele>101</ele>
        <time>2021-09-19T10:13:23Z</time>
      </trkpt>
      <trkpt lat="49.101" lon="1.5241">
        <ele>100.6</ele>
        <time>2021-09-19T10:13:24Z</time>
      </trkpt>
      <trkpt lat="49.101" lon="1.5239">
        <ele>99.8</ele>
        <time>2021-09-19T10:13:26Z</time>
      </trkpt>
      <trkpt lat="49.10103" lon="1.5237">
        <ele>99.2</ele>
        <time>2021-09-19T10:13:28Z</time>
      </trkpt>
      <trkpt lat="49.10106" lon="1.5235">
        <ele>98.8</ele>
        <time>2021-09-19T10:13:30Z</time>
      </trkpt>
      <trkpt lat="49.10108" lon="1.52342">
        <ele>98.6</ele>
        <time>2021-09-19T10:13:31Z</time>
      </trkpt>
      <trkpt lat="49.10115" lon="1.52317">
        <ele>98.2</ele>
        <time>2021-09-19T10:13:34Z</time>
      </trkpt>
      <trkpt lat="49.10117" lon="1.52306">
        <ele>98.2</ele>
        <time>2021-09-19T10:13:36Z</time>
      </trkpt>
      <trkpt lat="49.1012" lon="1.52297">
        <ele>98.2</ele>
        <time>2021-09-19T10:13:38Z</time>
      </trkpt>
      <trkpt lat="49.10124" lon="1.52263">
        <ele>98</ele>
        <time>2021-09-19T10:13:44Z</time>
      </trkpt>
      <trkpt lat="49.10122" lon="1.52234">
        <ele>98</ele>
        <time>2021-09-19T10:13:49Z</time>
      </trkpt>
      <trkpt lat="49.10118" lon="1.52202">
        <ele>97.6</ele>
        <time>2021-09-19T10:13:53Z</time>
      </trkpt>
      <trkpt lat="49.10116" lon="1.52195">
        <ele>97.6</ele>
        <time>2021-09-19T10:13:54Z</time>
      </trkpt>
      <trkpt lat="49.10111" lon="1.52158">
        <ele>97.2</ele>
        <time>2021-09-19T10:14:00Z</time>
      </trkpt>
      <trkpt lat="49.10104" lon="1.52132">
        <ele>97</ele>
        <time>2021-09-19T10:14:05Z</time>
      </trkpt>
      <trkpt lat="49.10103" lon="1.52127">
        <ele>96.6</ele>
        <time>2021-09-19T10:14:06Z</time>
      </trkpt>
      <trkpt lat="49.10097" lon="1.52105">
        <ele>96</ele>
        <time>2021-09-19T10:14:10Z</time>
      </trkpt>
      <trkpt lat="49.1009" lon="1.52079">
        <ele>96</ele>
        <time>2021-09-19T10:14:14Z</time>
      </trkpt>
      <trkpt lat="49.10083" lon="1.52048">
        <ele>95.8</ele>
        <time>2021-09-19T10:14:18Z</time>
      </trkpt>
      <trkpt lat="49.10082" lon="1.5204">
        <ele>95.8</ele>
        <time>2021-09-19T10:14:19Z</time>
      </trkpt>
      <trkpt lat="49.10081" lon="1.52032">
        <ele>95.8</ele>
        <time>2021-09-19T10:14:20Z</time>
      </trkpt>
      <trkpt lat="49.10085" lon="1.52016">
        <ele>95.6</ele>
        <time>2021-09-19T10:14:22Z</time>
      </trkpt>
      <trkpt lat="49.10098" lon="1.51992">
        <ele>95.6</ele>
        <time>2021-09-19T10:14:26Z</time>
      </trkpt>
      <trkpt lat="49.10119" lon="1.51963">
        <ele>95.6</ele>
        <time>2021-09-19T10:14:32Z</time>
      </trkpt>
      <trkpt lat="49.10144" lon="1.51927">
        <ele>95.4</ele>
        <time>2021-09-19T10:14:38Z</time>
      </trkpt>
      <trkpt lat="49.10152" lon="1.51913">
        <ele>95.2</ele>
        <time>2021-09-19T10:14:40Z</time>
      </trkpt>
      <trkpt lat="49.1016" lon="1.51885">
        <ele>94.4</ele>
        <time>2021-09-19T10:14:43Z</time>
      </trkpt>
      <trkpt lat="49.1016" lon="1.51873">
        <ele>94.2</ele>
        <time>2021-09-19T10:14:44Z</time>
      </trkpt>
      <trkpt lat="49.10161" lon="1.51843">
        <ele>92.8</ele>
        <time>2021-09-19T10:14:47Z</time>
      </trkpt>
      <trkpt lat="49.10162" lon="1.51834">
        <ele>92.4</ele>
        <time>2021-09-19T10:14:48Z</time>
      </trkpt>
      <trkpt lat="49.10162" lon="1.51825">
        <ele>92.2</ele>
        <time>2021-09-19T10:14:49Z</time>
      </trkpt>
      <trkpt lat="49.10162" lon="1.51806">
        <ele>91.8</ele>
        <time>2021-09-19T10:14:51Z</time>
      </trkpt>
      <trkpt lat="49.10162" lon="1.51787">
        <ele>91.8</ele>
        <time>2021-09-19T10:14:53Z</time>
      </trkpt>
      <trkpt lat="49.10163" lon="1.51768">
        <ele>91.6</ele>
        <time>2021-09-19T10:14:55Z</time>
      </trkpt>
      <trkpt lat="49.10164" lon="1.51758">
        <ele>91.6</ele>
        <time>2021-09-19T10:14:56Z</time>
      </trkpt>
      <trkpt lat="49.1017" lon="1.51734">
        <ele>91.6</ele>
        <time>2021-09-19T10:14:59Z</time>
      </trkpt>
      <trkpt lat="49.10177" lon="1.51702">
        <ele>90.8</ele>
        <time>2021-09-19T10:15:03Z</time>
      </trkpt>
      <trkpt lat="49.10186" lon="1.5168">
        <ele>90.4</ele>
        <time>2021-09-19T10:15:06Z</time>
      </trkpt>
      <trkpt lat="49.10187" lon="1.51671">
        <ele>90.2</ele>
        <time>2021-09-19T10:15:07Z</time>
      </trkpt>
      <trkpt lat="49.10188" lon="1.51653">
        <ele>90</ele>
        <time>2021-09-19T10:15:09Z</time>
      </trkpt>
      <trkpt lat="49.10188" lon="1.51646">
        <ele>89.8</ele>
        <time>2021-09-19T10:15:10Z</time>
      </trkpt>
      <trkpt lat="49.10187" lon="1.51637">
        <ele>89.8</ele>
        <time>2021-09-19T10:15:11Z</time>
      </trkpt>
      <trkpt lat="49.10185" lon="1.51608">
        <ele>89.6</ele>
        <time>2021-09-19T10:15:14Z</time>
      </trkpt>
      <trkpt lat="49.10185" lon="1.5159">
        <ele>89.2</ele>
        <time>2021-09-19T10:15:16Z</time>
      </trkpt>
      <trkpt lat="49.10183" lon="1.51566">
        <ele>89</ele>
        <time>2021-09-19T10:15:19Z</time>
      </trkpt>
      <trkpt lat="49.1018" lon="1.51548">
        <ele>88.8</ele>
        <time>2021-09-19T10:15:21Z</time>
      </trkpt>
      <trkpt lat="49.10175" lon="1.5151">
        <ele>88.6</ele>
        <time>2021-09-19T10:15:25Z</time>
      </trkpt>
      <trkpt lat="49.10173" lon="1.51491">
        <ele>88.4</ele>
        <time>2021-09-19T10:15:27Z</time>
      </trkpt>
      <trkpt lat="49.10173" lon="1.51483">
        <ele>88.2</ele>
        <time>2021-09-19T10:15:28Z</time>
      </trkpt>
      <trkpt lat="49.10171" lon="1.51474">
        <ele>88.2</ele>
        <time>2021-09-19T10:15:29Z</time>
      </trkpt>
      <trkpt lat="49.10165" lon="1.51445">
        <ele>87.6</ele>
        <time>2021-09-19T10:15:32Z</time>
      </trkpt>
      <trkpt lat="49.10158" lon="1.51428">
        <ele>87.4</ele>
        <time>2021-09-19T10:15:34Z</time>
      </trkpt>
      <trkpt lat="49.1015" lon="1.51413">
        <ele>87.2</ele>
        <time>2021-09-19T10:15:36Z</time>
      </trkpt>
      <trkpt lat="49.10142" lon="1.51401">
        <ele>87</ele>
        <time>2021-09-19T10:15:38Z</time>
      </trkpt>
      <trkpt lat="49.10138" lon="1.51395">
        <ele>86.6</ele>
        <time>2021-09-19T10:15:39Z</time>
      </trkpt>
      <trkpt lat="49.10131" lon="1.51383">
        <ele>86.4</ele>
        <time>2021-09-19T10:15:41Z</time>
      </trkpt>
      <trkpt lat="49.10127" lon="1.51377">
        <ele>86.2</ele>
        <time>2021-09-19T10:15:42Z</time>
      </trkpt>
      <trkpt lat="49.10113" lon="1.51351">
        <ele>85.8</ele>
        <time>2021-09-19T10:15:46Z</time>
      </trkpt>
      <trkpt lat="49.10107" lon="1.5134">
        <ele>85.6</ele>
        <time>2021-09-19T10:15:48Z</time>
      </trkpt>
      <trkpt lat="49.10105" lon="1.51333">
        <ele>85.6</ele>
        <time>2021-09-19T10:15:49Z</time>
      </trkpt>
      <trkpt lat="49.10092" lon="1.51306">
        <ele>85.2</ele>
        <time>2021-09-19T10:15:53Z</time>
      </trkpt>
      <trkpt lat="49.10083" lon="1.51287">
        <ele>85</ele>
        <time>2021-09-19T10:15:56Z</time>
      </trkpt>
      <trkpt lat="49.10075" lon="1.5127">
        <ele>84.8</ele>
        <time>2021-09-19T10:16:00Z</time>
      </trkpt>
      <trkpt lat="49.10073" lon="1.51266">
        <ele>84.6</ele>
        <time>2021-09-19T10:16:03Z</time>
      </trkpt>
      <trkpt lat="49.10073" lon="1.51266">
        <ele>84.4</ele>
        <time>2021-09-19T10:16:04Z</time>
      </trkpt>
      <trkpt lat="49.10071" lon="1.51262">
        <ele>84</ele>
        <time>2021-09-19T10:16:07Z</time>
      </trkpt>
      <trkpt lat="49.10069" lon="1.51259">
        <ele>84</ele>
        <time>2021-09-19T10:16:10Z</time>
      </trkpt>
      <trkpt lat="49.10069" lon="1.51258">
        <ele>84</ele>
        <time>2021-09-19T10:16:11Z</time>
      </trkpt>
      <trkpt lat="49.10068" lon="1.51255">
        <ele>84</ele>
        <time>2021-09-19T10:16:13Z</time>
      </trkpt>
      <trkpt lat="49.10064" lon="1.51245">
        <ele>83.8</ele>
        <time>2021-09-19T10:16:17Z</time>
      </trkpt>
      <trkpt lat="49.10052" lon="1.51222">
        <ele>83.6</ele>
        <time>2021-09-19T10:16:22Z</time>
      </trkpt>
      <trkpt lat="49.10044" lon="1.51208">
        <ele>83.4</ele>
        <time>2021-09-19T10:16:26Z</time>
      </trkpt>
      <trkpt lat="49.10042" lon="1.51204">
        <ele>83.2</ele>
        <time>2021-09-19T10:16:27Z</time>
      </trkpt>
      <trkpt lat="49.10029" lon="1.51189">
        <ele>82.6</ele>
        <time>2021-09-19T10:16:31Z</time>
      </trkpt>
      <trkpt lat="49.10006" lon="1.51174">
        <ele>82.4</ele>
        <time>2021-09-19T10:16:36Z</time>
      </trkpt>
      <trkpt lat="49.09996" lon="1.5117">
        <ele>82.2</ele>
        <time>2021-09-19T10:16:38Z</time>
      </trkpt>
      <trkpt lat="49.09989" lon="1.51167">
        <ele>82.2</ele>
        <time>2021-09-19T10:16:40Z</time>
      </trkpt>
      <trkpt lat="49.09974" lon="1.51157">
        <ele>82</ele>
        <time>2021-09-19T10:16:44Z</time>
      </trkpt>
      <trkpt lat="49.09945" lon="1.51135">
        <ele>81.4</ele>
        <time>2021-09-19T10:16:51Z</time>
      </trkpt>
      <trkpt lat="49.0994" lon="1.51131">
        <ele>81.2</ele>
        <time>2021-09-19T10:16:54Z</time>
      </trkpt>
      <trkpt lat="49.09938" lon="1.5113">
        <ele>81</ele>
        <time>2021-09-19T10:16:56Z</time>
      </trkpt>
      <trkpt lat="49.09936" lon="1.51128">
        <ele>80.8</ele>
        <time>2021-09-19T10:16:59Z</time>
      </trkpt>
      <trkpt lat="49.09934" lon="1.51127">
        <ele>80.6</ele>
        <time>2021-09-19T10:17:10Z</time>
      </trkpt>
      <trkpt lat="49.09932" lon="1.51119">
        <ele>80.4</ele>
        <time>2021-09-19T10:17:13Z</time>
      </trkpt>
      <trkpt lat="49.09928" lon="1.51112">
        <ele>80.4</ele>
        <time>2021-09-19T10:17:16Z</time>
      </trkpt>
      <trkpt lat="49.09926" lon="1.51111">
        <ele>80.4</ele>
        <time>2021-09-19T10:17:18Z</time>
      </trkpt>
      <trkpt lat="49.09924" lon="1.5111">
        <ele>80.6</ele>
        <time>2021-09-19T10:17:21Z</time>
      </trkpt>
      <trkpt lat="49.09922" lon="1.51109">
        <ele>81.4</ele>
        <time>2021-09-19T10:17:30Z</time>
      </trkpt>
      <trkpt lat="49.0992" lon="1.51108">
        <ele>81.4</ele>
        <time>2021-09-19T10:17:31Z</time>
      </trkpt>
      <trkpt lat="49.09917" lon="1.51108">
        <ele>81.4</ele>
        <time>2021-09-19T10:17:33Z</time>
      </trkpt>
      <trkpt lat="49.09917" lon="1.51112">
        <ele>81.4</ele>
        <time>2021-09-19T10:17:35Z</time>
      </trkpt>
      <trkpt lat="49.09914" lon="1.51115">
        <ele>81.4</ele>
        <time>2021-09-19T10:17:39Z</time>
      </trkpt>
      <trkpt lat="49.09906" lon="1.51107">
        <ele>80.8</ele>
        <time>2021-09-19T10:17:43Z</time>
      </trkpt>
      <trkpt lat="49.09899" lon="1.51101">
        <ele>80</ele>
        <time>2021-09-19T10:17:47Z</time>
      </trkpt>
      <trkpt lat="49.09897" lon="1.51099">
        <ele>79.8</ele>
        <time>2021-09-19T10:17:48Z</time>
      </trkpt>
      <trkpt lat="49.09891" lon="1.51092">
        <ele>79.4</ele>
        <time>2021-09-19T10:17:51Z</time>
      </trkpt>
      <trkpt lat="49.09889" lon="1.51089">
        <ele>79.4</ele>
        <time>2021-09-19T10:17:52Z</time>
      </trkpt>
      <trkpt lat="49.09879" lon="1.51077">
        <ele>79.2</ele>
        <time>2021-09-19T10:17:57Z</time>
      </trkpt>
      <trkpt lat="49.09867" lon="1.51065">
        <ele>79.2</ele>
        <time>2021-09-19T10:18:01Z</time>
      </trkpt>
      <trkpt lat="49.09865" lon="1.51062">
        <ele>79</ele>
        <time>2021-09-19T10:18:02Z</time>
      </trkpt>
      <trkpt lat="49.09859" lon="1.51054">
        <ele>79</ele>
        <time>2021-09-19T10:18:04Z</time>
      </trkpt>
      <trkpt lat="49.09848" lon="1.51045">
        <ele>79</ele>
        <time>2021-09-19T10:18:07Z</time>
      </trkpt>
      <trkpt lat="49.09844" lon="1.51041">
        <ele>79</ele>
        <time>2021-09-19T10:18:08Z</time>
      </trkpt>
      <trkpt lat="49.09841" lon="1.51035">
        <ele>79</ele>
        <time>2021-09-19T10:18:09Z</time>
      </trkpt>
      <trkpt lat="49.09835" lon="1.51025">
        <ele>78.6</ele>
        <time>2021-09-19T10:18:11Z</time>
      </trkpt>
      <trkpt lat="49.0983" lon="1.51014">
        <ele>78.6</ele>
        <time>2021-09-19T10:18:13Z</time>
      </trkpt>
      <trkpt lat="49.09825" lon="1.50986">
        <ele>78.6</ele>
        <time>2021-09-19T10:18:17Z</time>
      </trkpt>
      <trkpt lat="49.09825" lon="1.50961">
        <ele>78.6</ele>
        <time>2021-09-19T10:18:20Z</time>
      </trkpt>
      <trkpt lat="49.09827" lon="1.50945">
        <ele>78.6</ele>
        <time>2021-09-19T10:18:22Z</time>
      </trkpt>
      <trkpt lat="49.09829" lon="1.5093">
        <ele>78.6</ele>
        <time>2021-09-19T10:18:24Z</time>
      </trkpt>
      <trkpt lat="49.09834" lon="1.50911">
        <ele>78.4</ele>
        <time>2021-09-19T10:18:27Z</time>
      </trkpt>
      <trkpt lat="49.09837" lon="1.50905">
        <ele>78.2</ele>
        <time>2021-09-19T10:18:28Z</time>
      </trkpt>
      <trkpt lat="49.09839" lon="1.50898">
        <ele>78.2</ele>
        <time>2021-09-19T10:18:29Z</time>
      </trkpt>
      <trkpt lat="49.09848" lon="1.50868">
        <ele>77.4</ele>
        <time>2021-09-19T10:18:33Z</time>
      </trkpt>
      <trkpt lat="49.09856" lon="1.50843">
        <ele>77.2</ele>
        <time>2021-09-19T10:18:36Z</time>
      </trkpt>
      <trkpt lat="49.09865" lon="1.50815">
        <ele>76.8</ele>
        <time>2021-09-19T10:18:39Z</time>
      </trkpt>
      <trkpt lat="49.09869" lon="1.50796">
        <ele>76.6</ele>
        <time>2021-09-19T10:18:41Z</time>
      </trkpt>
      <trkpt lat="49.09871" lon="1.50774">
        <ele>76</ele>
        <time>2021-09-19T10:18:43Z</time>
      </trkpt>
      <trkpt lat="49.09871" lon="1.50742">
        <ele>74.8</ele>
        <time>2021-09-19T10:18:46Z</time>
      </trkpt>
      <trkpt lat="49.09869" lon="1.5072">
        <ele>74.2</ele>
        <time>2021-09-19T10:18:48Z</time>
      </trkpt>
      <trkpt lat="49.09866" lon="1.50698">
        <ele>73.8</ele>
        <time>2021-09-19T10:18:50Z</time>
      </trkpt>
      <trkpt lat="49.09866" lon="1.50687">
        <ele>73.2</ele>
        <time>2021-09-19T10:18:51Z</time>
      </trkpt>
      <trkpt lat="49.09868" lon="1.50666">
        <ele>72.6</ele>
        <time>2021-09-19T10:18:53Z</time>
      </trkpt>
      <trkpt lat="49.0987" lon="1.50655">
        <ele>72.2</ele>
        <time>2021-09-19T10:18:54Z</time>
      </trkpt>
      <trkpt lat="49.09876" lon="1.50636">
        <ele>71.8</ele>
        <time>2021-09-19T10:18:56Z</time>
      </trkpt>
      <trkpt lat="49.09879" lon="1.50627">
        <ele>71.4</ele>
        <time>2021-09-19T10:18:57Z</time>
      </trkpt>
      <trkpt lat="49.09882" lon="1.50617">
        <ele>71.2</ele>
        <time>2021-09-19T10:18:58Z</time>
      </trkpt>
      <trkpt lat="49.09896" lon="1.5058">
        <ele>69.8</ele>
        <time>2021-09-19T10:19:02Z</time>
      </trkpt>
      <trkpt lat="49.09902" lon="1.50562">
        <ele>69.2</ele>
        <time>2021-09-19T10:19:04Z</time>
      </trkpt>
      <trkpt lat="49.09909" lon="1.50545">
        <ele>68.8</ele>
        <time>2021-09-19T10:19:06Z</time>
      </trkpt>
      <trkpt lat="49.09912" lon="1.50536">
        <ele>68.8</ele>
        <time>2021-09-19T10:19:07Z</time>
      </trkpt>
      <trkpt lat="49.09914" lon="1.50528">
        <ele>68.6</ele>
        <time>2021-09-19T10:19:08Z</time>
      </trkpt>
      <trkpt lat="49.09921" lon="1.50507">
        <ele>67.8</ele>
        <time>2021-09-19T10:19:12Z</time>
      </trkpt>
      <trkpt lat="49.09925" lon="1.505">
        <ele>67.6</ele>
        <time>2021-09-19T10:19:16Z</time>
      </trkpt>
      <trkpt lat="49.09927" lon="1.50498">
        <ele>67.6</ele>
        <time>2021-09-19T10:19:22Z</time>
      </trkpt>
      <trkpt lat="49.0993" lon="1.50494">
        <ele>67.6</ele>
        <time>2021-09-19T10:19:24Z</time>
      </trkpt>
      <trkpt lat="49.09942" lon="1.50481">
        <ele>67.6</ele>
        <time>2021-09-19T10:19:28Z</time>
      </trkpt>
      <trkpt lat="49.0995" lon="1.5047">
        <ele>67.6</ele>
        <time>2021-09-19T10:19:30Z</time>
      </trkpt>
      <trkpt lat="49.09957" lon="1.50454">
        <ele>67.4</ele>
        <time>2021-09-19T10:19:32Z</time>
      </trkpt>
      <trkpt lat="49.09963" lon="1.50434">
        <ele>67</ele>
        <time>2021-09-19T10:19:34Z</time>
      </trkpt>
      <trkpt lat="49.09967" lon="1.50411">
        <ele>66.6</ele>
        <time>2021-09-19T10:19:36Z</time>
      </trkpt>
      <trkpt lat="49.09969" lon="1.50399">
        <ele>66.4</ele>
        <time>2021-09-19T10:19:37Z</time>
      </trkpt>
      <trkpt lat="49.09969" lon="1.50361">
        <ele>65.2</ele>
        <time>2021-09-19T10:19:40Z</time>
      </trkpt>
      <trkpt lat="49.09968" lon="1.5034">
        <ele>63.2</ele>
        <time>2021-09-19T10:19:42Z</time>
      </trkpt>
      <trkpt lat="49.09969" lon="1.50332">
        <ele>62.6</ele>
        <time>2021-09-19T10:19:43Z</time>
      </trkpt>
      <trkpt lat="49.09973" lon="1.50327">
        <ele>62</ele>
        <time>2021-09-19T10:19:44Z</time>
      </trkpt>
      <trkpt lat="49.09984" lon="1.50318">
        <ele>60.6</ele>
        <time>2021-09-19T10:19:46Z</time>
      </trkpt>
      <trkpt lat="49.09995" lon="1.50318">
        <ele>59</ele>
        <time>2021-09-19T10:19:48Z</time>
      </trkpt>
      <trkpt lat="49.1" lon="1.50322">
        <ele>58.2</ele>
        <time>2021-09-19T10:19:49Z</time>
      </trkpt>
      <trkpt lat="49.10005" lon="1.50327">
        <ele>57.8</ele>
        <time>2021-09-19T10:19:50Z</time>
      </trkpt>
      <trkpt lat="49.1001" lon="1.50332">
        <ele>57.4</ele>
        <time>2021-09-19T10:19:51Z</time>
      </trkpt>
      <trkpt lat="49.10019" lon="1.50343">
        <ele>56.8</ele>
        <time>2021-09-19T10:19:53Z</time>
      </trkpt>
      <trkpt lat="49.10024" lon="1.50347">
        <ele>56.4</ele>
        <time>2021-09-19T10:19:54Z</time>
      </trkpt>
      <trkpt lat="49.10029" lon="1.50344">
        <ele>55.8</ele>
        <time>2021-09-19T10:19:56Z</time>
      </trkpt>
      <trkpt lat="49.1003" lon="1.50339">
        <ele>55.4</ele>
        <time>2021-09-19T10:19:57Z</time>
      </trkpt>
      <trkpt lat="49.10028" lon="1.50325">
        <ele>55.4</ele>
        <time>2021-09-19T10:19:59Z</time>
      </trkpt>
      <trkpt lat="49.10022" lon="1.50306">
        <ele>55.2</ele>
        <time>2021-09-19T10:20:01Z</time>
      </trkpt>
      <trkpt lat="49.10018" lon="1.50294">
        <ele>55.2</ele>
        <time>2021-09-19T10:20:02Z</time>
      </trkpt>
      <trkpt lat="49.09999" lon="1.50248">
        <ele>54.8</ele>
        <time>2021-09-19T10:20:06Z</time>
      </trkpt>
      <trkpt lat="49.09998" lon="1.50219">
        <ele>54.2</ele>
        <time>2021-09-19T10:20:09Z</time>
      </trkpt>
      <trkpt lat="49.09998" lon="1.50206">
        <ele>53</ele>
        <time>2021-09-19T10:20:10Z</time>
      </trkpt>
      <trkpt lat="49.09999" lon="1.50192">
        <ele>49.8</ele>
        <time>2021-09-19T10:20:11Z</time>
      </trkpt>
      <trkpt lat="49.1" lon="1.50178">
        <ele>48.2</ele>
        <time>2021-09-19T10:20:12Z</time>
      </trkpt>
      <trkpt lat="49.1" lon="1.50162">
        <ele>46.6</ele>
        <time>2021-09-19T10:20:13Z</time>
      </trkpt>
      <trkpt lat="49.09997" lon="1.50147">
        <ele>44.8</ele>
        <time>2021-09-19T10:20:14Z</time>
      </trkpt>
      <trkpt lat="49.0999" lon="1.50132">
        <ele>43.4</ele>
        <time>2021-09-19T10:20:15Z</time>
      </trkpt>
      <trkpt lat="49.09984" lon="1.5012">
        <ele>42.2</ele>
        <time>2021-09-19T10:20:16Z</time>
      </trkpt>
      <trkpt lat="49.09978" lon="1.50107">
        <ele>41.2</ele>
        <time>2021-09-19T10:20:17Z</time>
      </trkpt>
      <trkpt lat="49.09973" lon="1.50093">
        <ele>40</ele>
        <time>2021-09-19T10:20:18Z</time>
      </trkpt>
      <trkpt lat="49.09968" lon="1.50078">
        <ele>38.4</ele>
        <time>2021-09-19T10:20:19Z</time>
      </trkpt>
      <trkpt lat="49.09961" lon="1.50063">
        <ele>36.4</ele>
        <time>2021-09-19T10:20:20Z</time>
      </trkpt>
      <trkpt lat="49.09955" lon="1.50051">
        <ele>34.4</ele>
        <time>2021-09-19T10:20:21Z</time>
      </trkpt>
      <trkpt lat="49.09949" lon="1.50041">
        <ele>32.2</ele>
        <time>2021-09-19T10:20:22Z</time>
      </trkpt>
      <trkpt lat="49.09943" lon="1.50032">
        <ele>30.6</ele>
        <time>2021-09-19T10:20:23Z</time>
      </trkpt>
      <trkpt lat="49.09937" lon="1.50026">
        <ele>29</ele>
        <time>2021-09-19T10:20:24Z</time>
      </trkpt>
      <trkpt lat="49.09932" lon="1.50019">
        <ele>27.8</ele>
        <time>2021-09-19T10:20:25Z</time>
      </trkpt>
      <trkpt lat="49.09928" lon="1.50012">
        <ele>26.8</ele>
        <time>2021-09-19T10:20:26Z</time>
      </trkpt>
      <trkpt lat="49.09926" lon="1.50005">
        <ele>25.4</ele>
        <time>2021-09-19T10:20:27Z</time>
      </trkpt>
      <trkpt lat="49.09924" lon="1.49999">
        <ele>24.2</ele>
        <time>2021-09-19T10:20:28Z</time>
      </trkpt>
      <trkpt lat="49.0992" lon="1.49985">
        <ele>23</ele>
        <time>2021-09-19T10:20:30Z</time>
      </trkpt>
      <trkpt lat="49.09918" lon="1.49978">
        <ele>22.8</ele>
        <time>2021-09-19T10:20:31Z</time>
      </trkpt>
      <trkpt lat="49.09914" lon="1.49962">
        <ele>22.4</ele>
        <time>2021-09-19T10:20:33Z</time>
      </trkpt>
      <trkpt lat="49.09907" lon="1.49934">
        <ele>21.8</ele>
        <time>2021-09-19T10:20:36Z</time>
      </trkpt>
      <trkpt lat="49.09903" lon="1.4992">
        <ele>21.2</ele>
        <time>2021-09-19T10:20:38Z</time>
      </trkpt>
      <trkpt lat="49.09888" lon="1.49869">
        <ele>20.8</ele>
        <time>2021-09-19T10:20:44Z</time>
      </trkpt>
      <trkpt lat="49.09885" lon="1.4986">
        <ele>20.6</ele>
        <time>2021-09-19T10:20:45Z</time>
      </trkpt>
      <trkpt lat="49.09874" lon="1.49823">
        <ele>19.8</ele>
        <time>2021-09-19T10:20:49Z</time>
      </trkpt>
      <trkpt lat="49.0987" lon="1.49813">
        <ele>19.6</ele>
        <time>2021-09-19T10:20:50Z</time>
      </trkpt>
      <trkpt lat="49.0986" lon="1.49763">
        <ele>18.4</ele>
        <time>2021-09-19T10:20:55Z</time>
      </trkpt>
      <trkpt lat="49.09858" lon="1.49751">
        <ele>17.6</ele>
        <time>2021-09-19T10:20:56Z</time>
      </trkpt>
      <trkpt lat="49.09856" lon="1.4974">
        <ele>17</ele>
        <time>2021-09-19T10:20:57Z</time>
      </trkpt>
      <trkpt lat="49.09855" lon="1.49718">
        <ele>16</ele>
        <time>2021-09-19T10:20:59Z</time>
      </trkpt>
      <trkpt lat="49.09855" lon="1.49706">
        <ele>15.6</ele>
        <time>2021-09-19T10:21:00Z</time>
      </trkpt>
      <trkpt lat="49.09855" lon="1.49695">
        <ele>15.4</ele>
        <time>2021-09-19T10:21:01Z</time>
      </trkpt>
      <trkpt lat="49.09854" lon="1.49638">
        <ele>14.4</ele>
        <time>2021-09-19T10:21:06Z</time>
      </trkpt>
      <trkpt lat="49.09855" lon="1.49629">
        <ele>14.2</ele>
        <time>2021-09-19T10:21:07Z</time>
      </trkpt>
      <trkpt lat="49.09855" lon="1.49577">
        <ele>13.4</ele>
        <time>2021-09-19T10:21:13Z</time>
      </trkpt>
      <trkpt lat="49.09856" lon="1.49569">
        <ele>13.4</ele>
        <time>2021-09-19T10:21:14Z</time>
      </trkpt>
      <trkpt lat="49.09857" lon="1.49509">
        <ele>12.6</ele>
        <time>2021-09-19T10:21:21Z</time>
      </trkpt>
      <trkpt lat="49.09857" lon="1.49489">
        <ele>12.4</ele>
        <time>2021-09-19T10:21:23Z</time>
      </trkpt>
      <trkpt lat="49.09857" lon="1.49469">
        <ele>12</ele>
        <time>2021-09-19T10:21:25Z</time>
      </trkpt>
      <trkpt lat="49.09857" lon="1.49449">
        <ele>11.6</ele>
        <time>2021-09-19T10:21:27Z</time>
      </trkpt>
      <trkpt lat="49.09856" lon="1.4941">
        <ele>11</ele>
        <time>2021-09-19T10:21:31Z</time>
      </trkpt>
      <trkpt lat="49.09855" lon="1.49401">
        <ele>11</ele>
        <time>2021-09-19T10:21:32Z</time>
      </trkpt>
      <trkpt lat="49.09854" lon="1.49391">
        <ele>11</ele>
        <time>2021-09-19T10:21:33Z</time>
      </trkpt>
      <trkpt lat="49.09849" lon="1.49366">
        <ele>10.2</ele>
        <time>2021-09-19T10:21:36Z</time>
      </trkpt>
      <trkpt lat="49.09848" lon="1.49359">
        <ele>9.8</ele>
        <time>2021-09-19T10:21:37Z</time>
      </trkpt>
      <trkpt lat="49.09846" lon="1.49335">
        <ele>8.8</ele>
        <time>2021-09-19T10:21:40Z</time>
      </trkpt>
      <trkpt lat="49.09846" lon="1.49326">
        <ele>8.8</ele>
        <time>2021-09-19T10:21:41Z</time>
      </trkpt>
      <trkpt lat="49.0985" lon="1.49308">
        <ele>8.2</ele>
        <time>2021-09-19T10:21:43Z</time>
      </trkpt>
      <trkpt lat="49.09856" lon="1.49282">
        <ele>7.8</ele>
        <time>2021-09-19T10:21:46Z</time>
      </trkpt>
      <trkpt lat="49.09858" lon="1.49262">
        <ele>7.8</ele>
        <time>2021-09-19T10:21:48Z</time>
      </trkpt>
      <trkpt lat="49.09858" lon="1.49251">
        <ele>7.6</ele>
        <time>2021-09-19T10:21:49Z</time>
      </trkpt>
      <trkpt lat="49.09858" lon="1.49241">
        <ele>7.6</ele>
        <time>2021-09-19T10:21:50Z</time>
      </trkpt>
      <trkpt lat="49.09856" lon="1.492">
        <ele>6.6</ele>
        <time>2021-09-19T10:21:54Z</time>
      </trkpt>
      <trkpt lat="49.09852" lon="1.49165">
        <ele>5.4</ele>
        <time>2021-09-19T10:21:58Z</time>
      </trkpt>
      <trkpt lat="49.09852" lon="1.49156">
        <ele>5</ele>
        <time>2021-09-19T10:21:59Z</time>
      </trkpt>
      <trkpt lat="49.09853" lon="1.4914">
        <ele>4.2</ele>
        <time>2021-09-19T10:22:01Z</time>
      </trkpt>
      <trkpt lat="49.09851" lon="1.49127">
        <ele>3.8</ele>
        <time>2021-09-19T10:22:03Z</time>
      </trkpt>
      <trkpt lat="49.09837" lon="1.49121">
        <ele>3.6</ele>
        <time>2021-09-19T10:22:06Z</time>
      </trkpt>
      <trkpt lat="49.09822" lon="1.49112">
        <ele>3.6</ele>
        <time>2021-09-19T10:22:09Z</time>
      </trkpt>
      <trkpt lat="49.09804" lon="1.49101">
        <ele>3.6</ele>
        <time>2021-09-19T10:22:12Z</time>
      </trkpt>
      <trkpt lat="49.09787" lon="1.49083">
        <ele>3.6</ele>
        <time>2021-09-19T10:22:16Z</time>
      </trkpt>
      <trkpt lat="49.09783" lon="1.49078">
        <ele>3.6</ele>
        <time>2021-09-19T10:22:17Z</time>
      </trkpt>
      <trkpt lat="49.09756" lon="1.49039">
        <ele>4</ele>
        <time>2021-09-19T10:22:24Z</time>
      </trkpt>
      <trkpt lat="49.0973" lon="1.49">
        <ele>4.2</ele>
        <time>2021-09-19T10:22:30Z</time>
      </trkpt>
      <trkpt lat="49.09718" lon="1.48981">
        <ele>4.8</ele>
        <time>2021-09-19T10:22:33Z</time>
      </trkpt>
      <trkpt lat="49.09715" lon="1.48965">
        <ele>5.2</ele>
        <time>2021-09-19T10:22:35Z</time>
      </trkpt>
      <trkpt lat="49.0972" lon="1.4895">
        <ele>5.4</ele>
        <time>2021-09-19T10:22:37Z</time>
      </trkpt>
      <trkpt lat="49.09736" lon="1.48943">
        <ele>5.4</ele>
        <time>2021-09-19T10:22:40Z</time>
      </trkpt>
      <trkpt lat="49.09747" lon="1.48939">
        <ele>5.4</ele>
        <time>2021-09-19T10:22:42Z</time>
      </trkpt>
      <trkpt lat="49.09768" lon="1.48932">
        <ele>5.4</ele>
        <time>2021-09-19T10:22:46Z</time>
      </trkpt>
      <trkpt lat="49.09772" lon="1.48931">
        <ele>5.2</ele>
        <time>2021-09-19T10:22:47Z</time>
      </trkpt>
      <trkpt lat="49.09784" lon="1.48929">
        <ele>4.8</ele>
        <time>2021-09-19T10:22:50Z</time>
      </trkpt>
      <trkpt lat="49.09785" lon="1.48929">
        <ele>4.8</ele>
        <time>2021-09-19T10:22:51Z</time>
      </trkpt>
      <trkpt lat="49.09786" lon="1.48929">
        <ele>4.8</ele>
        <time>2021-09-19T10:22:53Z</time>
      </trkpt>
      <trkpt lat="49.09786" lon="1.48929">
        <ele>4.8</ele>
        <time>2021-09-19T10:22:54Z</time>
      </trkpt>
      <trkpt lat="49.09787" lon="1.48929">
        <ele>5.2</ele>
        <time>2021-09-19T10:23:07Z</time>
      </trkpt>
      <trkpt lat="49.09791" lon="1.48927">
        <ele>5.2</ele>
        <time>2021-09-19T10:23:09Z</time>
      </trkpt>
      <trkpt lat="49.09803" lon="1.48919">
        <ele>5</ele>
        <time>2021-09-19T10:23:14Z</time>
      </trkpt>
      <trkpt lat="49.09807" lon="1.48916">
        <ele>5</ele>
        <time>2021-09-19T10:23:15Z</time>
      </trkpt>
      <trkpt lat="49.09822" lon="1.48898">
        <ele>5</ele>
        <time>2021-09-19T10:23:20Z</time>
      </trkpt>
      <trkpt lat="49.09831" lon="1.48879">
        <ele>4.4</ele>
        <time>2021-09-19T10:23:25Z</time>
      </trkpt>
      <trkpt lat="49.09832" lon="1.48875">
        <ele>4.4</ele>
        <time>2021-09-19T10:23:26Z</time>
      </trkpt>
      <trkpt lat="49.09841" lon="1.48849">
        <ele>4</ele>
        <time>2021-09-19T10:23:32Z</time>
      </trkpt>
      <trkpt lat="49.09846" lon="1.48832">
        <ele>4</ele>
        <time>2021-09-19T10:23:37Z</time>
      </trkpt>
      <trkpt lat="49.0985" lon="1.48806">
        <ele>3.6</ele>
        <time>2021-09-19T10:23:43Z</time>
      </trkpt>
      <trkpt lat="49.09851" lon="1.4879">
        <ele>3.4</ele>
        <time>2021-09-19T10:23:49Z</time>
      </trkpt>
      <trkpt lat="49.09851" lon="1.48789">
        <ele>3.4</ele>
        <time>2021-09-19T10:23:50Z</time>
      </trkpt>
      <trkpt lat="49.09852" lon="1.48785">
        <ele>3.6</ele>
        <time>2021-09-19T10:26:55Z</time>
      </trkpt>
      <trkpt lat="49.09852" lon="1.48778">
        <ele>3.6</ele>
        <time>2021-09-19T10:26:57Z</time>
      </trkpt>
      <trkpt lat="49.09857" lon="1.48764">
        <ele>3.6</ele>
        <time>2021-09-19T10:27:00Z</time>
      </trkpt>
      <trkpt lat="49.09859" lon="1.48759">
        <ele>3.6</ele>
        <time>2021-09-19T10:27:01Z</time>
      </trkpt>
      <trkpt lat="49.09867" lon="1.48759">
        <ele>3.6</ele>
        <time>2021-09-19T10:27:03Z</time>
      </trkpt>
      <trkpt lat="49.09868" lon="1.4877">
        <ele>3.6</ele>
        <time>2021-09-19T10:27:05Z</time>
      </trkpt>
      <trkpt lat="49.09863" lon="1.48781">
        <ele>3.6</ele>
        <time>2021-09-19T10:27:07Z</time>
      </trkpt>
      <trkpt lat="49.0986" lon="1.48787">
        <ele>3.4</ele>
        <time>2021-09-19T10:27:08Z</time>
      </trkpt>
      <trkpt lat="49.09855" lon="1.48798">
        <ele>3.2</ele>
        <time>2021-09-19T10:27:10Z</time>
      </trkpt>
      <trkpt lat="49.09847" lon="1.48822">
        <ele>3</ele>
        <time>2021-09-19T10:27:15Z</time>
      </trkpt>
      <trkpt lat="49.09844" lon="1.48833">
        <ele>3.2</ele>
        <time>2021-09-19T10:27:20Z</time>
      </trkpt>
      <trkpt lat="49.09842" lon="1.48837">
        <ele>4</ele>
        <time>2021-09-19T10:27:53Z</time>
      </trkpt>
      <trkpt lat="49.0984" lon="1.48844">
        <ele>4</ele>
        <time>2021-09-19T10:27:55Z</time>
      </trkpt>
      <trkpt lat="49.09832" lon="1.48869">
        <ele>4</ele>
        <time>2021-09-19T10:27:59Z</time>
      </trkpt>
      <trkpt lat="49.09819" lon="1.48902">
        <ele>3.8</ele>
        <time>2021-09-19T10:28:05Z</time>
      </trkpt>
      <trkpt lat="49.09819" lon="1.48903">
        <ele>3.8</ele>
        <time>2021-09-19T10:28:08Z</time>
      </trkpt>
      <trkpt lat="49.09816" lon="1.48907">
        <ele>3.8</ele>
        <time>2021-09-19T10:28:15Z</time>
      </trkpt>
      <trkpt lat="49.098" lon="1.48917">
        <ele>3.8</ele>
        <time>2021-09-19T10:28:19Z</time>
      </trkpt>
      <trkpt lat="49.09797" lon="1.48921">
        <ele>3.8</ele>
        <time>2021-09-19T10:28:20Z</time>
      </trkpt>
      <trkpt lat="49.09789" lon="1.48935">
        <ele>3.8</ele>
        <time>2021-09-19T10:28:23Z</time>
      </trkpt>
      <trkpt lat="49.09781" lon="1.4895">
        <ele>3.8</ele>
        <time>2021-09-19T10:28:26Z</time>
      </trkpt>
      <trkpt lat="49.09776" lon="1.48955">
        <ele>3.8</ele>
        <time>2021-09-19T10:28:28Z</time>
      </trkpt>
      <trkpt lat="49.09774" lon="1.48957">
        <ele>3.8</ele>
        <time>2021-09-19T10:28:31Z</time>
      </trkpt>
    </trkseg>
  </trk>
</gpx>